<?xml version="1.0" encoding="UTF-8" standalone="no" ?>
<gpx xmlns="http://www.topografix.com/GPX/1/1" xmlns:xsi="http://www.w3.org/2001/XMLSchema-instance" xsi:schemaLocation="http://www.topografix.com/GPX/1/1 http://www.topografix.com/GPX/1/1/gpx.xsd" version="1.1" creator="VisuGPX - https://www.visugpx.com">
  <metadata>
    <name>4 PEAKS VALL DE BAC - MARATO</name>
    <desc><![CDATA[4 PEAKS D`OIX
]]></desc>
  </metadata>
  <trk>
    <name><![CDATA[4 PEAKS VALL DE BAC - MARATO]]></name>
    <extensions>
      <line xmlns="http://www.topografix.com/GPX/gpx_style/0/2">
        <width>4</width>
      </line>
    </extensions>
    <trkseg>
      <trkpt lat="42.26965" lon="2.5291">
        <ele>402.8</ele>
        <time>2020-03-04T23:00:58.000Z</time>
      </trkpt>
      <trkpt lat="42.26966" lon="2.52908">
        <ele>403</ele>
        <time>2020-03-04T23:00:59.169Z</time>
      </trkpt>
      <trkpt lat="42.26966" lon="2.52908">
        <ele>402.9</ele>
        <time>2020-03-04T23:00:59.446Z</time>
      </trkpt>
      <trkpt lat="42.26965" lon="2.529">
        <ele>403.2</ele>
        <time>2020-03-04T23:01:05.753Z</time>
      </trkpt>
      <trkpt lat="42.26971" lon="2.52893">
        <ele>403.9</ele>
        <time>2020-03-04T23:01:14.588Z</time>
      </trkpt>
      <trkpt lat="42.26975" lon="2.52889">
        <ele>404.1</ele>
        <time>2020-03-04T23:01:20.609Z</time>
      </trkpt>
      <trkpt lat="42.26979" lon="2.52885">
        <ele>404</ele>
        <time>2020-03-04T23:01:25.382Z</time>
      </trkpt>
      <trkpt lat="42.26995" lon="2.52862">
        <ele>404.1</ele>
        <time>2020-03-04T23:01:51.674Z</time>
      </trkpt>
      <trkpt lat="42.27002" lon="2.52849">
        <ele>405</ele>
        <time>2020-03-04T23:02:04.760Z</time>
      </trkpt>
      <trkpt lat="42.27014" lon="2.52836">
        <ele>405.8</ele>
        <time>2020-03-04T23:02:22.577Z</time>
      </trkpt>
      <trkpt lat="42.27022" lon="2.52824">
        <ele>406.4</ele>
        <time>2020-03-04T23:02:35.641Z</time>
      </trkpt>
      <trkpt lat="42.27035" lon="2.52817">
        <ele>407</ele>
        <time>2020-03-04T23:02:51.933Z</time>
      </trkpt>
      <trkpt lat="42.27053" lon="2.52811">
        <ele>407.8</ele>
        <time>2020-03-04T23:03:12.210Z</time>
      </trkpt>
      <trkpt lat="42.27073" lon="2.52808">
        <ele>409.2</ele>
        <time>2020-03-04T23:03:34.552Z</time>
      </trkpt>
      <trkpt lat="42.27076" lon="2.52806">
        <ele>409.4</ele>
        <time>2020-03-04T23:03:38.210Z</time>
      </trkpt>
      <trkpt lat="42.27074" lon="2.528">
        <ele>409.7</ele>
        <time>2020-03-04T23:03:43.395Z</time>
      </trkpt>
      <trkpt lat="42.27066" lon="2.52788">
        <ele>409.6</ele>
        <time>2020-03-04T23:03:56.498Z</time>
      </trkpt>
      <trkpt lat="42.27056" lon="2.52772">
        <ele>409.5</ele>
        <time>2020-03-04T23:04:14.529Z</time>
      </trkpt>
      <trkpt lat="42.27041" lon="2.52756">
        <ele>410.1</ele>
        <time>2020-03-04T23:04:35.366Z</time>
      </trkpt>
      <trkpt lat="42.27023" lon="2.52741">
        <ele>410.4</ele>
        <time>2020-03-04T23:04:59.814Z</time>
      </trkpt>
      <trkpt lat="42.27011" lon="2.5271">
        <ele>410.5</ele>
        <time>2020-03-04T23:05:28.534Z</time>
      </trkpt>
      <trkpt lat="42.27002" lon="2.52675">
        <ele>410.9</ele>
        <time>2020-03-04T23:05:59.575Z</time>
      </trkpt>
      <trkpt lat="42.2699" lon="2.52643">
        <ele>411.9</ele>
        <time>2020-03-04T23:06:29.014Z</time>
      </trkpt>
      <trkpt lat="42.2698" lon="2.52613">
        <ele>412.5</ele>
        <time>2020-03-04T23:06:55.971Z</time>
      </trkpt>
      <trkpt lat="42.2697" lon="2.52581">
        <ele>413</ele>
        <time>2020-03-04T23:07:24.631Z</time>
      </trkpt>
      <trkpt lat="42.26956" lon="2.52545">
        <ele>412.8</ele>
        <time>2020-03-04T23:07:58.562Z</time>
      </trkpt>
      <trkpt lat="42.26942" lon="2.52514">
        <ele>411.9</ele>
        <time>2020-03-04T23:08:28.137Z</time>
      </trkpt>
      <trkpt lat="42.2693" lon="2.52478">
        <ele>410.9</ele>
        <time>2020-03-04T23:09:01.444Z</time>
      </trkpt>
      <trkpt lat="42.26925" lon="2.52465">
        <ele>410.6</ele>
        <time>2020-03-04T23:09:12.976Z</time>
      </trkpt>
      <trkpt lat="42.26918" lon="2.52446">
        <ele>410.2</ele>
        <time>2020-03-04T23:09:31.335Z</time>
      </trkpt>
      <trkpt lat="42.26915" lon="2.52436">
        <ele>409.8</ele>
        <time>2020-03-04T23:09:39.894Z</time>
      </trkpt>
      <trkpt lat="42.26913" lon="2.52431">
        <ele>409.4</ele>
        <time>2020-03-04T23:09:44.905Z</time>
      </trkpt>
      <trkpt lat="42.26911" lon="2.52409">
        <ele>408.6</ele>
        <time>2020-03-04T23:10:02.627Z</time>
      </trkpt>
      <trkpt lat="42.26908" lon="2.52379">
        <ele>407.5</ele>
        <time>2020-03-04T23:10:28.494Z</time>
      </trkpt>
      <trkpt lat="42.26905" lon="2.52367">
        <ele>407.3</ele>
        <time>2020-03-04T23:10:38.839Z</time>
      </trkpt>
      <trkpt lat="42.26908" lon="2.52351">
        <ele>407.3</ele>
        <time>2020-03-04T23:10:52.459Z</time>
      </trkpt>
      <trkpt lat="42.26909" lon="2.52338">
        <ele>406.8</ele>
        <time>2020-03-04T23:11:02.735Z</time>
      </trkpt>
      <trkpt lat="42.2691" lon="2.52317">
        <ele>407.5</ele>
        <time>2020-03-04T23:11:20.810Z</time>
      </trkpt>
      <trkpt lat="42.26912" lon="2.52287">
        <ele>409.3</ele>
        <time>2020-03-04T23:11:45.790Z</time>
      </trkpt>
      <trkpt lat="42.26912" lon="2.5226">
        <ele>411</ele>
        <time>2020-03-04T23:12:08.060Z</time>
      </trkpt>
      <trkpt lat="42.26922" lon="2.52228">
        <ele>411.9</ele>
        <time>2020-03-04T23:12:36.439Z</time>
      </trkpt>
      <trkpt lat="42.26927" lon="2.52199">
        <ele>411.9</ele>
        <time>2020-03-04T23:13:01.162Z</time>
      </trkpt>
      <trkpt lat="42.2693" lon="2.5217">
        <ele>412.1</ele>
        <time>2020-03-04T23:13:25.237Z</time>
      </trkpt>
      <trkpt lat="42.26934" lon="2.52139">
        <ele>412.1</ele>
        <time>2020-03-04T23:13:51.261Z</time>
      </trkpt>
      <trkpt lat="42.26928" lon="2.52113">
        <ele>413.5</ele>
        <time>2020-03-04T23:14:14.006Z</time>
      </trkpt>
      <trkpt lat="42.2692" lon="2.52093">
        <ele>416.1</ele>
        <time>2020-03-04T23:14:33.176Z</time>
      </trkpt>
      <trkpt lat="42.26916" lon="2.52083">
        <ele>417.2</ele>
        <time>2020-03-04T23:14:42.778Z</time>
      </trkpt>
      <trkpt lat="42.26905" lon="2.52061">
        <ele>419.6</ele>
        <time>2020-03-04T23:15:04.840Z</time>
      </trkpt>
      <trkpt lat="42.26896" lon="2.52042">
        <ele>420.6</ele>
        <time>2020-03-04T23:15:23.295Z</time>
      </trkpt>
      <trkpt lat="42.26887" lon="2.5202">
        <ele>421.6</ele>
        <time>2020-03-04T23:15:44.688Z</time>
      </trkpt>
      <trkpt lat="42.26878" lon="2.51996">
        <ele>423.7</ele>
        <time>2020-03-04T23:16:06.629Z</time>
      </trkpt>
      <trkpt lat="42.26872" lon="2.51973">
        <ele>425.4</ele>
        <time>2020-03-04T23:16:27.072Z</time>
      </trkpt>
      <trkpt lat="42.26872" lon="2.51965">
        <ele>425.8</ele>
        <time>2020-03-04T23:16:33.543Z</time>
      </trkpt>
      <trkpt lat="42.26873" lon="2.51942">
        <ele>427.1</ele>
        <time>2020-03-04T23:16:52.822Z</time>
      </trkpt>
      <trkpt lat="42.26872" lon="2.51926">
        <ele>428.3</ele>
        <time>2020-03-04T23:17:06.310Z</time>
      </trkpt>
      <trkpt lat="42.26869" lon="2.51916">
        <ele>429.5</ele>
        <time>2020-03-04T23:17:15.218Z</time>
      </trkpt>
      <trkpt lat="42.26867" lon="2.51907">
        <ele>429.7</ele>
        <time>2020-03-04T23:17:22.894Z</time>
      </trkpt>
      <trkpt lat="42.26862" lon="2.51905">
        <ele>431</ele>
        <time>2020-03-04T23:17:28.976Z</time>
      </trkpt>
      <trkpt lat="42.26851" lon="2.5191">
        <ele>433.8</ele>
        <time>2020-03-04T23:17:41.496Z</time>
      </trkpt>
      <trkpt lat="42.26846" lon="2.51909">
        <ele>435.2</ele>
        <time>2020-03-04T23:17:47.174Z</time>
      </trkpt>
      <trkpt lat="42.26849" lon="2.51909">
        <ele>434.5</ele>
        <time>2020-03-04T23:17:50.064Z</time>
      </trkpt>
      <trkpt lat="42.26855" lon="2.51907">
        <ele>432.8</ele>
        <time>2020-03-04T23:17:57.755Z</time>
      </trkpt>
      <trkpt lat="42.26856" lon="2.51907">
        <ele>432.6</ele>
        <time>2020-03-04T23:17:58.040Z</time>
      </trkpt>
      <trkpt lat="42.26858" lon="2.51907">
        <ele>432</ele>
        <time>2020-03-04T23:18:00.766Z</time>
      </trkpt>
      <trkpt lat="42.26859" lon="2.51893">
        <ele>431.8</ele>
        <time>2020-03-04T23:18:11.711Z</time>
      </trkpt>
      <trkpt lat="42.26855" lon="2.51884">
        <ele>432.1</ele>
        <time>2020-03-04T23:18:20.850Z</time>
      </trkpt>
      <trkpt lat="42.26851" lon="2.51879">
        <ele>432.5</ele>
        <time>2020-03-04T23:18:26.900Z</time>
      </trkpt>
      <trkpt lat="42.2685" lon="2.51876">
        <ele>432.7</ele>
        <time>2020-03-04T23:18:29.296Z</time>
      </trkpt>
      <trkpt lat="42.26841" lon="2.51856">
        <ele>434.3</ele>
        <time>2020-03-04T23:18:48.498Z</time>
      </trkpt>
      <trkpt lat="42.26839" lon="2.51851">
        <ele>434.8</ele>
        <time>2020-03-04T23:18:53.625Z</time>
      </trkpt>
      <trkpt lat="42.26821" lon="2.51832">
        <ele>438.5</ele>
        <time>2020-03-04T23:19:19.337Z</time>
      </trkpt>
      <trkpt lat="42.26803" lon="2.51825">
        <ele>441.6</ele>
        <time>2020-03-04T23:19:40.206Z</time>
      </trkpt>
      <trkpt lat="42.26798" lon="2.51809">
        <ele>439.2</ele>
        <time>2020-03-04T23:19:54.688Z</time>
      </trkpt>
      <trkpt lat="42.26797" lon="2.51806">
        <ele>438.6</ele>
        <time>2020-03-04T23:19:57.587Z</time>
      </trkpt>
      <trkpt lat="42.26799" lon="2.51798">
        <ele>440</ele>
        <time>2020-03-04T23:20:04.782Z</time>
      </trkpt>
      <trkpt lat="42.26795" lon="2.51792">
        <ele>441.5</ele>
        <time>2020-03-04T23:20:11.120Z</time>
      </trkpt>
      <trkpt lat="42.26781" lon="2.51781">
        <ele>443.1</ele>
        <time>2020-03-04T23:20:29.770Z</time>
      </trkpt>
      <trkpt lat="42.26765" lon="2.51781">
        <ele>444.3</ele>
        <time>2020-03-04T23:20:47.285Z</time>
      </trkpt>
      <trkpt lat="42.26749" lon="2.5178">
        <ele>446</ele>
        <time>2020-03-04T23:21:05.636Z</time>
      </trkpt>
      <trkpt lat="42.26738" lon="2.5177">
        <ele>448.5</ele>
        <time>2020-03-04T23:21:20.132Z</time>
      </trkpt>
      <trkpt lat="42.26748" lon="2.51749">
        <ele>452.6</ele>
        <time>2020-03-04T23:21:40.654Z</time>
      </trkpt>
      <trkpt lat="42.26749" lon="2.51748">
        <ele>452.7</ele>
        <time>2020-03-04T23:21:42.265Z</time>
      </trkpt>
      <trkpt lat="42.26769" lon="2.51745">
        <ele>453.5</ele>
        <time>2020-03-04T23:22:04.154Z</time>
      </trkpt>
      <trkpt lat="42.26787" lon="2.51739">
        <ele>455.3</ele>
        <time>2020-03-04T23:22:25.441Z</time>
      </trkpt>
      <trkpt lat="42.26807" lon="2.51733">
        <ele>456.8</ele>
        <time>2020-03-04T23:22:48.605Z</time>
      </trkpt>
      <trkpt lat="42.26829" lon="2.51731">
        <ele>457.9</ele>
        <time>2020-03-04T23:23:13.298Z</time>
      </trkpt>
      <trkpt lat="42.26839" lon="2.5173">
        <ele>458.8</ele>
        <time>2020-03-04T23:23:24.302Z</time>
      </trkpt>
      <trkpt lat="42.26858" lon="2.51736">
        <ele>458.3</ele>
        <time>2020-03-04T23:23:46.366Z</time>
      </trkpt>
      <trkpt lat="42.26863" lon="2.51729">
        <ele>460.1</ele>
        <time>2020-03-04T23:23:54.535Z</time>
      </trkpt>
      <trkpt lat="42.26879" lon="2.5172">
        <ele>460.1</ele>
        <time>2020-03-04T23:24:14.385Z</time>
      </trkpt>
      <trkpt lat="42.2689" lon="2.51704">
        <ele>461.6</ele>
        <time>2020-03-04T23:24:31.773Z</time>
      </trkpt>
      <trkpt lat="42.26894" lon="2.51679">
        <ele>463.5</ele>
        <time>2020-03-04T23:24:53.081Z</time>
      </trkpt>
      <trkpt lat="42.26895" lon="2.51675">
        <ele>464</ele>
        <time>2020-03-04T23:24:56.367Z</time>
      </trkpt>
      <trkpt lat="42.26899" lon="2.51655">
        <ele>464.4</ele>
        <time>2020-03-04T23:25:13.815Z</time>
      </trkpt>
      <trkpt lat="42.26898" lon="2.51624">
        <ele>468.3</ele>
        <time>2020-03-04T23:25:39.752Z</time>
      </trkpt>
      <trkpt lat="42.269" lon="2.51609">
        <ele>468.2</ele>
        <time>2020-03-04T23:25:52.901Z</time>
      </trkpt>
      <trkpt lat="42.26901" lon="2.51603">
        <ele>467.6</ele>
        <time>2020-03-04T23:25:57.768Z</time>
      </trkpt>
      <trkpt lat="42.26899" lon="2.51597">
        <ele>468.6</ele>
        <time>2020-03-04T23:26:03.436Z</time>
      </trkpt>
      <trkpt lat="42.26895" lon="2.51589">
        <ele>470.8</ele>
        <time>2020-03-04T23:26:11.888Z</time>
      </trkpt>
      <trkpt lat="42.26892" lon="2.51579">
        <ele>472.4</ele>
        <time>2020-03-04T23:26:21.435Z</time>
      </trkpt>
      <trkpt lat="42.26876" lon="2.51566">
        <ele>475.6</ele>
        <time>2020-03-04T23:26:41.869Z</time>
      </trkpt>
      <trkpt lat="42.26864" lon="2.51569">
        <ele>478</ele>
        <time>2020-03-04T23:26:56.468Z</time>
      </trkpt>
      <trkpt lat="42.26859" lon="2.51571">
        <ele>478.9</ele>
        <time>2020-03-04T23:27:02.128Z</time>
      </trkpt>
      <trkpt lat="42.26842" lon="2.51576">
        <ele>481.6</ele>
        <time>2020-03-04T23:27:21.684Z</time>
      </trkpt>
      <trkpt lat="42.26829" lon="2.5158">
        <ele>483.6</ele>
        <time>2020-03-04T23:27:36.591Z</time>
      </trkpt>
      <trkpt lat="42.26813" lon="2.51582">
        <ele>486.6</ele>
        <time>2020-03-04T23:27:55.194Z</time>
      </trkpt>
      <trkpt lat="42.26794" lon="2.51588">
        <ele>489.5</ele>
        <time>2020-03-04T23:28:17.313Z</time>
      </trkpt>
      <trkpt lat="42.2678" lon="2.51592">
        <ele>491.5</ele>
        <time>2020-03-04T23:28:33.696Z</time>
      </trkpt>
      <trkpt lat="42.26762" lon="2.51597">
        <ele>493.6</ele>
        <time>2020-03-04T23:28:53.523Z</time>
      </trkpt>
      <trkpt lat="42.2674" lon="2.51602">
        <ele>496.3</ele>
        <time>2020-03-04T23:29:19.486Z</time>
      </trkpt>
      <trkpt lat="42.26722" lon="2.51606">
        <ele>498.4</ele>
        <time>2020-03-04T23:29:39.993Z</time>
      </trkpt>
      <trkpt lat="42.26718" lon="2.516">
        <ele>500.7</ele>
        <time>2020-03-04T23:29:46.960Z</time>
      </trkpt>
      <trkpt lat="42.26724" lon="2.51584">
        <ele>503.7</ele>
        <time>2020-03-04T23:30:01.919Z</time>
      </trkpt>
      <trkpt lat="42.26731" lon="2.51567">
        <ele>506</ele>
        <time>2020-03-04T23:30:18.438Z</time>
      </trkpt>
      <trkpt lat="42.2674" lon="2.51548">
        <ele>508.2</ele>
        <time>2020-03-04T23:30:36.879Z</time>
      </trkpt>
      <trkpt lat="42.26744" lon="2.51536">
        <ele>509.5</ele>
        <time>2020-03-04T23:30:47.591Z</time>
      </trkpt>
      <trkpt lat="42.26751" lon="2.51513">
        <ele>511.3</ele>
        <time>2020-03-04T23:31:08.666Z</time>
      </trkpt>
      <trkpt lat="42.26756" lon="2.51491">
        <ele>513.3</ele>
        <time>2020-03-04T23:31:27.614Z</time>
      </trkpt>
      <trkpt lat="42.26758" lon="2.51489">
        <ele>513.1</ele>
        <time>2020-03-04T23:31:30.565Z</time>
      </trkpt>
      <trkpt lat="42.26771" lon="2.51466">
        <ele>511.3</ele>
        <time>2020-03-04T23:31:54.470Z</time>
      </trkpt>
      <trkpt lat="42.26775" lon="2.51443">
        <ele>512.4</ele>
        <time>2020-03-04T23:32:13.888Z</time>
      </trkpt>
      <trkpt lat="42.26774" lon="2.51418">
        <ele>515.7</ele>
        <time>2020-03-04T23:32:35.329Z</time>
      </trkpt>
      <trkpt lat="42.26769" lon="2.51399">
        <ele>518.9</ele>
        <time>2020-03-04T23:32:52.098Z</time>
      </trkpt>
      <trkpt lat="42.26752" lon="2.51393">
        <ele>525.5</ele>
        <time>2020-03-04T23:33:12.853Z</time>
      </trkpt>
      <trkpt lat="42.26749" lon="2.5139">
        <ele>526.3</ele>
        <time>2020-03-04T23:33:16.974Z</time>
      </trkpt>
      <trkpt lat="42.26744" lon="2.51392">
        <ele>527.4</ele>
        <time>2020-03-04T23:33:23.041Z</time>
      </trkpt>
      <trkpt lat="42.26739" lon="2.51409">
        <ele>529.9</ele>
        <time>2020-03-04T23:33:38.476Z</time>
      </trkpt>
      <trkpt lat="42.26735" lon="2.51424">
        <ele>531.5</ele>
        <time>2020-03-04T23:33:51.857Z</time>
      </trkpt>
      <trkpt lat="42.26729" lon="2.51432">
        <ele>533.1</ele>
        <time>2020-03-04T23:34:01.462Z</time>
      </trkpt>
      <trkpt lat="42.26716" lon="2.51445">
        <ele>536.9</ele>
        <time>2020-03-04T23:34:19.637Z</time>
      </trkpt>
      <trkpt lat="42.26698" lon="2.51457">
        <ele>540.5</ele>
        <time>2020-03-04T23:34:42.344Z</time>
      </trkpt>
      <trkpt lat="42.26683" lon="2.51459">
        <ele>544</ele>
        <time>2020-03-04T23:34:59.497Z</time>
      </trkpt>
      <trkpt lat="42.26681" lon="2.51447">
        <ele>545.8</ele>
        <time>2020-03-04T23:35:10.582Z</time>
      </trkpt>
      <trkpt lat="42.26679" lon="2.51445">
        <ele>546.3</ele>
        <time>2020-03-04T23:35:12.773Z</time>
      </trkpt>
      <trkpt lat="42.26665" lon="2.51438">
        <ele>548.7</ele>
        <time>2020-03-04T23:35:29.734Z</time>
      </trkpt>
      <trkpt lat="42.26656" lon="2.51447">
        <ele>551.6</ele>
        <time>2020-03-04T23:35:42.503Z</time>
      </trkpt>
      <trkpt lat="42.26648" lon="2.5145">
        <ele>553.5</ele>
        <time>2020-03-04T23:35:52.317Z</time>
      </trkpt>
      <trkpt lat="42.26637" lon="2.51433">
        <ele>554.6</ele>
        <time>2020-03-04T23:36:11.064Z</time>
      </trkpt>
      <trkpt lat="42.26618" lon="2.51423">
        <ele>557.6</ele>
        <time>2020-03-04T23:36:34.585Z</time>
      </trkpt>
      <trkpt lat="42.26599" lon="2.51419">
        <ele>560.5</ele>
        <time>2020-03-04T23:36:56.239Z</time>
      </trkpt>
      <trkpt lat="42.26577" lon="2.51412">
        <ele>562.8</ele>
        <time>2020-03-04T23:37:21.439Z</time>
      </trkpt>
      <trkpt lat="42.26558" lon="2.51406">
        <ele>565.7</ele>
        <time>2020-03-04T23:37:43.826Z</time>
      </trkpt>
      <trkpt lat="42.26538" lon="2.51396">
        <ele>568.6</ele>
        <time>2020-03-04T23:38:07.378Z</time>
      </trkpt>
      <trkpt lat="42.26537" lon="2.51395">
        <ele>568.6</ele>
        <time>2020-03-04T23:38:08.778Z</time>
      </trkpt>
      <trkpt lat="42.26534" lon="2.51393">
        <ele>569</ele>
        <time>2020-03-04T23:38:12.316Z</time>
      </trkpt>
      <trkpt lat="42.2652" lon="2.51379">
        <ele>570.5</ele>
        <time>2020-03-04T23:38:32.562Z</time>
      </trkpt>
      <trkpt lat="42.26508" lon="2.51365">
        <ele>571.6</ele>
        <time>2020-03-04T23:38:50.365Z</time>
      </trkpt>
      <trkpt lat="42.26503" lon="2.51361">
        <ele>572.1</ele>
        <time>2020-03-04T23:38:57.060Z</time>
      </trkpt>
      <trkpt lat="42.26498" lon="2.51361">
        <ele>573.1</ele>
        <time>2020-03-04T23:39:02.209Z</time>
      </trkpt>
      <trkpt lat="42.26486" lon="2.51359">
        <ele>574.2</ele>
        <time>2020-03-04T23:39:15.941Z</time>
      </trkpt>
      <trkpt lat="42.26478" lon="2.5136">
        <ele>575</ele>
        <time>2020-03-04T23:39:24.597Z</time>
      </trkpt>
      <trkpt lat="42.26463" lon="2.51364">
        <ele>577.2</ele>
        <time>2020-03-04T23:39:42.516Z</time>
      </trkpt>
      <trkpt lat="42.26448" lon="2.51368">
        <ele>578.9</ele>
        <time>2020-03-04T23:39:59.343Z</time>
      </trkpt>
      <trkpt lat="42.26431" lon="2.51365">
        <ele>580.3</ele>
        <time>2020-03-04T23:40:19.164Z</time>
      </trkpt>
      <trkpt lat="42.26416" lon="2.51355">
        <ele>581.6</ele>
        <time>2020-03-04T23:40:37.970Z</time>
      </trkpt>
      <trkpt lat="42.26419" lon="2.51349">
        <ele>580.3</ele>
        <time>2020-03-04T23:40:44.036Z</time>
      </trkpt>
      <trkpt lat="42.26412" lon="2.5134">
        <ele>581.6</ele>
        <time>2020-03-04T23:40:55.014Z</time>
      </trkpt>
      <trkpt lat="42.26407" lon="2.51324">
        <ele>582.7</ele>
        <time>2020-03-04T23:41:09.745Z</time>
      </trkpt>
      <trkpt lat="42.26404" lon="2.51297">
        <ele>583</ele>
        <time>2020-03-04T23:41:31.957Z</time>
      </trkpt>
      <trkpt lat="42.26396" lon="2.51275">
        <ele>584</ele>
        <time>2020-03-04T23:41:52.312Z</time>
      </trkpt>
      <trkpt lat="42.26371" lon="2.51247">
        <ele>583.8</ele>
        <time>2020-03-04T23:42:28.376Z</time>
      </trkpt>
      <trkpt lat="42.26351" lon="2.51245">
        <ele>583.1</ele>
        <time>2020-03-04T23:42:50.876Z</time>
      </trkpt>
      <trkpt lat="42.26342" lon="2.51245">
        <ele>581.9</ele>
        <time>2020-03-04T23:43:01.128Z</time>
      </trkpt>
      <trkpt lat="42.26334" lon="2.51242">
        <ele>580</ele>
        <time>2020-03-04T23:43:10.583Z</time>
      </trkpt>
      <trkpt lat="42.26305" lon="2.51243">
        <ele>577.3</ele>
        <time>2020-03-04T23:43:43.392Z</time>
      </trkpt>
      <trkpt lat="42.26288" lon="2.51247">
        <ele>578.3</ele>
        <time>2020-03-04T23:44:02.524Z</time>
      </trkpt>
      <trkpt lat="42.26284" lon="2.51242">
        <ele>578</ele>
        <time>2020-03-04T23:44:08.171Z</time>
      </trkpt>
      <trkpt lat="42.2629" lon="2.51234">
        <ele>577.1</ele>
        <time>2020-03-04T23:44:17.233Z</time>
      </trkpt>
      <trkpt lat="42.26291" lon="2.51233">
        <ele>576.8</ele>
        <time>2020-03-04T23:44:18.875Z</time>
      </trkpt>
      <trkpt lat="42.2629" lon="2.51228">
        <ele>576.4</ele>
        <time>2020-03-04T23:44:23.615Z</time>
      </trkpt>
      <trkpt lat="42.26287" lon="2.51206">
        <ele>577.8</ele>
        <time>2020-03-04T23:44:41.956Z</time>
      </trkpt>
      <trkpt lat="42.26281" lon="2.51187">
        <ele>581.2</ele>
        <time>2020-03-04T23:44:59.287Z</time>
      </trkpt>
      <trkpt lat="42.26284" lon="2.51171">
        <ele>582.8</ele>
        <time>2020-03-04T23:45:12.936Z</time>
      </trkpt>
      <trkpt lat="42.26287" lon="2.51155">
        <ele>585</ele>
        <time>2020-03-04T23:45:26.698Z</time>
      </trkpt>
      <trkpt lat="42.26293" lon="2.51133">
        <ele>588</ele>
        <time>2020-03-04T23:45:46.196Z</time>
      </trkpt>
      <trkpt lat="42.26298" lon="2.51116">
        <ele>590.8</ele>
        <time>2020-03-04T23:46:01.837Z</time>
      </trkpt>
      <trkpt lat="42.26303" lon="2.51097">
        <ele>593.6</ele>
        <time>2020-03-04T23:46:18.998Z</time>
      </trkpt>
      <trkpt lat="42.26303" lon="2.5109">
        <ele>595</ele>
        <time>2020-03-04T23:46:24.658Z</time>
      </trkpt>
      <trkpt lat="42.26309" lon="2.51084">
        <ele>595</ele>
        <time>2020-03-04T23:46:33.173Z</time>
      </trkpt>
      <trkpt lat="42.26309" lon="2.51074">
        <ele>596.6</ele>
        <time>2020-03-04T23:46:41.668Z</time>
      </trkpt>
      <trkpt lat="42.26316" lon="2.51056">
        <ele>597.7</ele>
        <time>2020-03-04T23:46:57.964Z</time>
      </trkpt>
      <trkpt lat="42.26319" lon="2.51039">
        <ele>600.7</ele>
        <time>2020-03-04T23:47:13.037Z</time>
      </trkpt>
      <trkpt lat="42.26324" lon="2.51013">
        <ele>605.1</ele>
        <time>2020-03-04T23:47:35.681Z</time>
      </trkpt>
      <trkpt lat="42.2633" lon="2.50995">
        <ele>606.8</ele>
        <time>2020-03-04T23:47:51.733Z</time>
      </trkpt>
      <trkpt lat="42.26331" lon="2.50975">
        <ele>609.6</ele>
        <time>2020-03-04T23:48:08.904Z</time>
      </trkpt>
      <trkpt lat="42.26327" lon="2.5095">
        <ele>611.7</ele>
        <time>2020-03-04T23:48:30.300Z</time>
      </trkpt>
      <trkpt lat="42.26313" lon="2.50927">
        <ele>614.6</ele>
        <time>2020-03-04T23:48:54.941Z</time>
      </trkpt>
      <trkpt lat="42.26304" lon="2.50917">
        <ele>616.9</ele>
        <time>2020-03-04T23:49:08.193Z</time>
      </trkpt>
      <trkpt lat="42.26303" lon="2.509">
        <ele>614.6</ele>
        <time>2020-03-04T23:49:22.305Z</time>
      </trkpt>
      <trkpt lat="42.26295" lon="2.5089">
        <ele>617.2</ele>
        <time>2020-03-04T23:49:34.753Z</time>
      </trkpt>
      <trkpt lat="42.26282" lon="2.50869">
        <ele>618.1</ele>
        <time>2020-03-04T23:49:57.652Z</time>
      </trkpt>
      <trkpt lat="42.26269" lon="2.50849">
        <ele>620.5</ele>
        <time>2020-03-04T23:50:19.684Z</time>
      </trkpt>
      <trkpt lat="42.26258" lon="2.50834">
        <ele>623.5</ele>
        <time>2020-03-04T23:50:37.436Z</time>
      </trkpt>
      <trkpt lat="42.2625" lon="2.50818">
        <ele>625.7</ele>
        <time>2020-03-04T23:50:53.708Z</time>
      </trkpt>
      <trkpt lat="42.2624" lon="2.50789">
        <ele>627.5</ele>
        <time>2020-03-04T23:51:20.150Z</time>
      </trkpt>
      <trkpt lat="42.26235" lon="2.50774">
        <ele>628.7</ele>
        <time>2020-03-04T23:51:34.172Z</time>
      </trkpt>
      <trkpt lat="42.26222" lon="2.50755">
        <ele>632.7</ele>
        <time>2020-03-04T23:51:55.407Z</time>
      </trkpt>
      <trkpt lat="42.26213" lon="2.5074">
        <ele>634</ele>
        <time>2020-03-04T23:52:11.329Z</time>
      </trkpt>
      <trkpt lat="42.262" lon="2.50727">
        <ele>636.2</ele>
        <time>2020-03-04T23:52:29.555Z</time>
      </trkpt>
      <trkpt lat="42.2619" lon="2.50722">
        <ele>637.8</ele>
        <time>2020-03-04T23:52:41.543Z</time>
      </trkpt>
      <trkpt lat="42.26179" lon="2.50715">
        <ele>637.8</ele>
        <time>2020-03-04T23:52:55.391Z</time>
      </trkpt>
      <trkpt lat="42.26172" lon="2.50709">
        <ele>637.1</ele>
        <time>2020-03-04T23:53:04.872Z</time>
      </trkpt>
      <trkpt lat="42.26159" lon="2.50704">
        <ele>636.4</ele>
        <time>2020-03-04T23:53:19.684Z</time>
      </trkpt>
      <trkpt lat="42.26156" lon="2.50703">
        <ele>635.9</ele>
        <time>2020-03-04T23:53:23.570Z</time>
      </trkpt>
      <trkpt lat="42.26145" lon="2.50702">
        <ele>635.5</ele>
        <time>2020-03-04T23:53:35.674Z</time>
      </trkpt>
      <trkpt lat="42.26132" lon="2.50701">
        <ele>634.6</ele>
        <time>2020-03-04T23:53:50.068Z</time>
      </trkpt>
      <trkpt lat="42.26123" lon="2.50705">
        <ele>634.8</ele>
        <time>2020-03-04T23:54:01.677Z</time>
      </trkpt>
      <trkpt lat="42.26119" lon="2.50706">
        <ele>634.9</ele>
        <time>2020-03-04T23:54:05.469Z</time>
      </trkpt>
      <trkpt lat="42.26109" lon="2.50699">
        <ele>632.8</ele>
        <time>2020-03-04T23:54:18.528Z</time>
      </trkpt>
      <trkpt lat="42.26106" lon="2.50698">
        <ele>633.4</ele>
        <time>2020-03-04T23:54:21.977Z</time>
      </trkpt>
      <trkpt lat="42.26092" lon="2.50686">
        <ele>636.7</ele>
        <time>2020-03-04T23:54:40.659Z</time>
      </trkpt>
      <trkpt lat="42.26087" lon="2.50683">
        <ele>637.8</ele>
        <time>2020-03-04T23:54:47.395Z</time>
      </trkpt>
      <trkpt lat="42.26082" lon="2.50675">
        <ele>638.3</ele>
        <time>2020-03-04T23:54:56.239Z</time>
      </trkpt>
      <trkpt lat="42.2608" lon="2.50671">
        <ele>638.1</ele>
        <time>2020-03-04T23:55:00.170Z</time>
      </trkpt>
      <trkpt lat="42.26068" lon="2.50671">
        <ele>640.1</ele>
        <time>2020-03-04T23:55:13.523Z</time>
      </trkpt>
      <trkpt lat="42.26061" lon="2.50669">
        <ele>640.7</ele>
        <time>2020-03-04T23:55:21.037Z</time>
      </trkpt>
      <trkpt lat="42.26052" lon="2.50662">
        <ele>642.8</ele>
        <time>2020-03-04T23:55:33.021Z</time>
      </trkpt>
      <trkpt lat="42.26043" lon="2.50657">
        <ele>645</ele>
        <time>2020-03-04T23:55:44.179Z</time>
      </trkpt>
      <trkpt lat="42.26024" lon="2.50647">
        <ele>647.6</ele>
        <time>2020-03-04T23:56:07.652Z</time>
      </trkpt>
      <trkpt lat="42.26015" lon="2.50636">
        <ele>649.5</ele>
        <time>2020-03-04T23:56:20.515Z</time>
      </trkpt>
      <trkpt lat="42.26004" lon="2.50622">
        <ele>652.1</ele>
        <time>2020-03-04T23:56:38.455Z</time>
      </trkpt>
      <trkpt lat="42.25991" lon="2.50605">
        <ele>654.5</ele>
        <time>2020-03-04T23:56:58.595Z</time>
      </trkpt>
      <trkpt lat="42.25979" lon="2.50588">
        <ele>656.2</ele>
        <time>2020-03-04T23:57:17.785Z</time>
      </trkpt>
      <trkpt lat="42.25971" lon="2.50578">
        <ele>657.1</ele>
        <time>2020-03-04T23:57:30.544Z</time>
      </trkpt>
      <trkpt lat="42.2596" lon="2.50567">
        <ele>660</ele>
        <time>2020-03-04T23:57:45.653Z</time>
      </trkpt>
      <trkpt lat="42.25948" lon="2.50557">
        <ele>661.7</ele>
        <time>2020-03-04T23:58:01.680Z</time>
      </trkpt>
      <trkpt lat="42.25928" lon="2.50548">
        <ele>663.7</ele>
        <time>2020-03-04T23:58:25.095Z</time>
      </trkpt>
      <trkpt lat="42.25922" lon="2.50546">
        <ele>664.1</ele>
        <time>2020-03-04T23:58:31.763Z</time>
      </trkpt>
      <trkpt lat="42.25918" lon="2.5054">
        <ele>664.5</ele>
        <time>2020-03-04T23:58:38.870Z</time>
      </trkpt>
      <trkpt lat="42.25921" lon="2.5053">
        <ele>664.9</ele>
        <time>2020-03-04T23:58:47.210Z</time>
      </trkpt>
      <trkpt lat="42.25922" lon="2.50528">
        <ele>665</ele>
        <time>2020-03-04T23:58:49.669Z</time>
      </trkpt>
      <trkpt lat="42.25926" lon="2.50522">
        <ele>665.2</ele>
        <time>2020-03-04T23:58:56.046Z</time>
      </trkpt>
      <trkpt lat="42.25938" lon="2.50505">
        <ele>667</ele>
        <time>2020-03-04T23:59:15.315Z</time>
      </trkpt>
      <trkpt lat="42.25951" lon="2.50496">
        <ele>669.6</ele>
        <time>2020-03-04T23:59:32.746Z</time>
      </trkpt>
      <trkpt lat="42.25961" lon="2.5048">
        <ele>673</ele>
        <time>2020-03-04T23:59:49.868Z</time>
      </trkpt>
      <trkpt lat="42.25971" lon="2.50469">
        <ele>675.4</ele>
        <time>2020-03-05T00:00:04.353Z</time>
      </trkpt>
      <trkpt lat="42.25971" lon="2.50468">
        <ele>675.6</ele>
        <time>2020-03-05T00:00:05.267Z</time>
      </trkpt>
      <trkpt lat="42.25983" lon="2.5047">
        <ele>678.6</ele>
        <time>2020-03-05T00:00:18.455Z</time>
      </trkpt>
      <trkpt lat="42.25994" lon="2.50471">
        <ele>681.5</ele>
        <time>2020-03-05T00:00:31.575Z</time>
      </trkpt>
      <trkpt lat="42.26004" lon="2.50461">
        <ele>684.3</ele>
        <time>2020-03-05T00:00:46.010Z</time>
      </trkpt>
      <trkpt lat="42.26015" lon="2.50455">
        <ele>687.6</ele>
        <time>2020-03-05T00:00:59.483Z</time>
      </trkpt>
      <trkpt lat="42.26024" lon="2.50459">
        <ele>689.9</ele>
        <time>2020-03-05T00:01:10.558Z</time>
      </trkpt>
      <trkpt lat="42.26033" lon="2.50462">
        <ele>692</ele>
        <time>2020-03-05T00:01:20.932Z</time>
      </trkpt>
      <trkpt lat="42.26046" lon="2.50463">
        <ele>695.1</ele>
        <time>2020-03-05T00:01:36.040Z</time>
      </trkpt>
      <trkpt lat="42.26059" lon="2.5046">
        <ele>698.6</ele>
        <time>2020-03-05T00:01:51.242Z</time>
      </trkpt>
      <trkpt lat="42.26072" lon="2.50453">
        <ele>702.1</ele>
        <time>2020-03-05T00:02:06.828Z</time>
      </trkpt>
      <trkpt lat="42.2608" lon="2.5044">
        <ele>705.6</ele>
        <time>2020-03-05T00:02:21.852Z</time>
      </trkpt>
      <trkpt lat="42.26091" lon="2.5043">
        <ele>708.8</ele>
        <time>2020-03-05T00:02:36.727Z</time>
      </trkpt>
      <trkpt lat="42.261" lon="2.50422">
        <ele>712</ele>
        <time>2020-03-05T00:02:48.857Z</time>
      </trkpt>
      <trkpt lat="42.26104" lon="2.50416">
        <ele>714.2</ele>
        <time>2020-03-05T00:02:56.236Z</time>
      </trkpt>
      <trkpt lat="42.26109" lon="2.50407">
        <ele>716.7</ele>
        <time>2020-03-05T00:03:05.639Z</time>
      </trkpt>
      <trkpt lat="42.26113" lon="2.504">
        <ele>718.9</ele>
        <time>2020-03-05T00:03:13.483Z</time>
      </trkpt>
      <trkpt lat="42.26116" lon="2.50387">
        <ele>721.7</ele>
        <time>2020-03-05T00:03:25.314Z</time>
      </trkpt>
      <trkpt lat="42.26118" lon="2.5038">
        <ele>723</ele>
        <time>2020-03-05T00:03:31.223Z</time>
      </trkpt>
      <trkpt lat="42.26119" lon="2.50369">
        <ele>724.6</ele>
        <time>2020-03-05T00:03:40.483Z</time>
      </trkpt>
      <trkpt lat="42.26125" lon="2.50369">
        <ele>727.1</ele>
        <time>2020-03-05T00:03:47.868Z</time>
      </trkpt>
      <trkpt lat="42.26133" lon="2.50373">
        <ele>729.9</ele>
        <time>2020-03-05T00:03:57.713Z</time>
      </trkpt>
      <trkpt lat="42.26139" lon="2.50365">
        <ele>733.8</ele>
        <time>2020-03-05T00:04:07.264Z</time>
      </trkpt>
      <trkpt lat="42.26142" lon="2.50354">
        <ele>736.7</ele>
        <time>2020-03-05T00:04:17.730Z</time>
      </trkpt>
      <trkpt lat="42.26147" lon="2.50345">
        <ele>739.2</ele>
        <time>2020-03-05T00:04:27.206Z</time>
      </trkpt>
      <trkpt lat="42.26153" lon="2.50344">
        <ele>741.2</ele>
        <time>2020-03-05T00:04:34.893Z</time>
      </trkpt>
      <trkpt lat="42.2616" lon="2.50343">
        <ele>743.1</ele>
        <time>2020-03-05T00:04:42.313Z</time>
      </trkpt>
      <trkpt lat="42.26171" lon="2.50341">
        <ele>746.6</ele>
        <time>2020-03-05T00:04:55.880Z</time>
      </trkpt>
      <trkpt lat="42.26182" lon="2.50342">
        <ele>748.2</ele>
        <time>2020-03-05T00:05:08.222Z</time>
      </trkpt>
      <trkpt lat="42.2619" lon="2.50339">
        <ele>750.6</ele>
        <time>2020-03-05T00:05:18.031Z</time>
      </trkpt>
      <trkpt lat="42.26198" lon="2.50339">
        <ele>751.7</ele>
        <time>2020-03-05T00:05:26.283Z</time>
      </trkpt>
      <trkpt lat="42.2621" lon="2.50341">
        <ele>751.7</ele>
        <time>2020-03-05T00:05:40.108Z</time>
      </trkpt>
      <trkpt lat="42.26218" lon="2.50339">
        <ele>752.9</ele>
        <time>2020-03-05T00:05:49.253Z</time>
      </trkpt>
      <trkpt lat="42.26227" lon="2.50336">
        <ele>754.7</ele>
        <time>2020-03-05T00:05:59.504Z</time>
      </trkpt>
      <trkpt lat="42.26238" lon="2.5033">
        <ele>757.9</ele>
        <time>2020-03-05T00:06:13.418Z</time>
      </trkpt>
      <trkpt lat="42.26251" lon="2.50325">
        <ele>759.9</ele>
        <time>2020-03-05T00:06:28.874Z</time>
      </trkpt>
      <trkpt lat="42.26259" lon="2.50321">
        <ele>761.5</ele>
        <time>2020-03-05T00:06:38.839Z</time>
      </trkpt>
      <trkpt lat="42.26271" lon="2.50317">
        <ele>762.6</ele>
        <time>2020-03-05T00:06:52.591Z</time>
      </trkpt>
      <trkpt lat="42.26285" lon="2.50312">
        <ele>763.6</ele>
        <time>2020-03-05T00:07:08.313Z</time>
      </trkpt>
      <trkpt lat="42.26304" lon="2.50309">
        <ele>762.4</ele>
        <time>2020-03-05T00:07:29.959Z</time>
      </trkpt>
      <trkpt lat="42.26318" lon="2.50303">
        <ele>764.1</ele>
        <time>2020-03-05T00:07:46.986Z</time>
      </trkpt>
      <trkpt lat="42.26331" lon="2.50293">
        <ele>767.6</ele>
        <time>2020-03-05T00:08:03.747Z</time>
      </trkpt>
      <trkpt lat="42.26347" lon="2.50288">
        <ele>768.5</ele>
        <time>2020-03-05T00:08:21.593Z</time>
      </trkpt>
      <trkpt lat="42.26361" lon="2.50287">
        <ele>767.7</ele>
        <time>2020-03-05T00:08:37.546Z</time>
      </trkpt>
      <trkpt lat="42.26375" lon="2.50293">
        <ele>767.4</ele>
        <time>2020-03-05T00:08:53.877Z</time>
      </trkpt>
      <trkpt lat="42.26388" lon="2.50299">
        <ele>767.6</ele>
        <time>2020-03-05T00:09:09.243Z</time>
      </trkpt>
      <trkpt lat="42.26396" lon="2.50303">
        <ele>767.4</ele>
        <time>2020-03-05T00:09:18.937Z</time>
      </trkpt>
      <trkpt lat="42.26406" lon="2.50297">
        <ele>772.1</ele>
        <time>2020-03-05T00:09:32.737Z</time>
      </trkpt>
      <trkpt lat="42.26415" lon="2.50294">
        <ele>774.9</ele>
        <time>2020-03-05T00:09:42.832Z</time>
      </trkpt>
      <trkpt lat="42.26421" lon="2.5029">
        <ele>775.9</ele>
        <time>2020-03-05T00:09:51.133Z</time>
      </trkpt>
      <trkpt lat="42.26422" lon="2.50278">
        <ele>779.8</ele>
        <time>2020-03-05T00:10:01.342Z</time>
      </trkpt>
      <trkpt lat="42.26423" lon="2.50269">
        <ele>783.2</ele>
        <time>2020-03-05T00:10:09.441Z</time>
      </trkpt>
      <trkpt lat="42.26427" lon="2.5026">
        <ele>786.1</ele>
        <time>2020-03-05T00:10:18.851Z</time>
      </trkpt>
      <trkpt lat="42.26433" lon="2.50253">
        <ele>787.8</ele>
        <time>2020-03-05T00:10:27.498Z</time>
      </trkpt>
      <trkpt lat="42.26434" lon="2.5025">
        <ele>789.1</ele>
        <time>2020-03-05T00:10:31.181Z</time>
      </trkpt>
      <trkpt lat="42.26427" lon="2.50247">
        <ele>791</ele>
        <time>2020-03-05T00:10:39.561Z</time>
      </trkpt>
      <trkpt lat="42.26429" lon="2.50237">
        <ele>793.8</ele>
        <time>2020-03-05T00:10:48.720Z</time>
      </trkpt>
      <trkpt lat="42.26427" lon="2.50228">
        <ele>796.9</ele>
        <time>2020-03-05T00:10:56.840Z</time>
      </trkpt>
      <trkpt lat="42.26428" lon="2.5021">
        <ele>802.2</ele>
        <time>2020-03-05T00:11:13.408Z</time>
      </trkpt>
      <trkpt lat="42.2643" lon="2.50194">
        <ele>805.8</ele>
        <time>2020-03-05T00:11:27.337Z</time>
      </trkpt>
      <trkpt lat="42.26431" lon="2.50189">
        <ele>807.1</ele>
        <time>2020-03-05T00:11:31.624Z</time>
      </trkpt>
      <trkpt lat="42.26427" lon="2.50189">
        <ele>808.4</ele>
        <time>2020-03-05T00:11:36.538Z</time>
      </trkpt>
      <trkpt lat="42.26423" lon="2.50193">
        <ele>808.8</ele>
        <time>2020-03-05T00:11:41.985Z</time>
      </trkpt>
      <trkpt lat="42.26416" lon="2.50195">
        <ele>809.9</ele>
        <time>2020-03-05T00:11:49.909Z</time>
      </trkpt>
      <trkpt lat="42.26403" lon="2.50193">
        <ele>813</ele>
        <time>2020-03-05T00:12:05.205Z</time>
      </trkpt>
      <trkpt lat="42.26403" lon="2.50179">
        <ele>818.4</ele>
        <time>2020-03-05T00:12:18.219Z</time>
      </trkpt>
      <trkpt lat="42.26409" lon="2.5017">
        <ele>820.2</ele>
        <time>2020-03-05T00:12:28.818Z</time>
      </trkpt>
      <trkpt lat="42.26414" lon="2.50164">
        <ele>820.7</ele>
        <time>2020-03-05T00:12:36.101Z</time>
      </trkpt>
      <trkpt lat="42.26408" lon="2.50166">
        <ele>821.6</ele>
        <time>2020-03-05T00:12:42.774Z</time>
      </trkpt>
      <trkpt lat="42.26401" lon="2.50164">
        <ele>824.6</ele>
        <time>2020-03-05T00:12:51.527Z</time>
      </trkpt>
      <trkpt lat="42.26396" lon="2.50164">
        <ele>826.3</ele>
        <time>2020-03-05T00:12:57.400Z</time>
      </trkpt>
      <trkpt lat="42.26389" lon="2.50167">
        <ele>826.8</ele>
        <time>2020-03-05T00:13:05.707Z</time>
      </trkpt>
      <trkpt lat="42.26373" lon="2.50162">
        <ele>830.8</ele>
        <time>2020-03-05T00:13:24.375Z</time>
      </trkpt>
      <trkpt lat="42.26372" lon="2.50154">
        <ele>834.2</ele>
        <time>2020-03-05T00:13:31.855Z</time>
      </trkpt>
      <trkpt lat="42.26373" lon="2.50147">
        <ele>837.4</ele>
        <time>2020-03-05T00:13:38.790Z</time>
      </trkpt>
      <trkpt lat="42.26381" lon="2.50136">
        <ele>840.5</ele>
        <time>2020-03-05T00:13:51.946Z</time>
      </trkpt>
      <trkpt lat="42.26379" lon="2.50127">
        <ele>844.7</ele>
        <time>2020-03-05T00:14:01.075Z</time>
      </trkpt>
      <trkpt lat="42.26376" lon="2.50124">
        <ele>846.8</ele>
        <time>2020-03-05T00:14:05.954Z</time>
      </trkpt>
      <trkpt lat="42.26365" lon="2.50123">
        <ele>849.3</ele>
        <time>2020-03-05T00:14:18.449Z</time>
      </trkpt>
      <trkpt lat="42.26355" lon="2.5012">
        <ele>852</ele>
        <time>2020-03-05T00:14:30.765Z</time>
      </trkpt>
      <trkpt lat="42.26343" lon="2.50115">
        <ele>855.2</ele>
        <time>2020-03-05T00:14:44.567Z</time>
      </trkpt>
      <trkpt lat="42.26341" lon="2.50109">
        <ele>858</ele>
        <time>2020-03-05T00:14:50.633Z</time>
      </trkpt>
      <trkpt lat="42.26346" lon="2.501">
        <ele>861</ele>
        <time>2020-03-05T00:15:00.559Z</time>
      </trkpt>
      <trkpt lat="42.26353" lon="2.50088">
        <ele>865</ele>
        <time>2020-03-05T00:15:13.787Z</time>
      </trkpt>
      <trkpt lat="42.26356" lon="2.50078">
        <ele>868.5</ele>
        <time>2020-03-05T00:15:23.879Z</time>
      </trkpt>
      <trkpt lat="42.26365" lon="2.50065">
        <ele>871.1</ele>
        <time>2020-03-05T00:15:38.507Z</time>
      </trkpt>
      <trkpt lat="42.26371" lon="2.50053">
        <ele>872.7</ele>
        <time>2020-03-05T00:15:50.491Z</time>
      </trkpt>
      <trkpt lat="42.2637" lon="2.50045">
        <ele>875.5</ele>
        <time>2020-03-05T00:15:57.984Z</time>
      </trkpt>
      <trkpt lat="42.26367" lon="2.50039">
        <ele>879</ele>
        <time>2020-03-05T00:16:05.520Z</time>
      </trkpt>
      <trkpt lat="42.26362" lon="2.50038">
        <ele>881.5</ele>
        <time>2020-03-05T00:16:11.371Z</time>
      </trkpt>
      <trkpt lat="42.26361" lon="2.50043">
        <ele>880.1</ele>
        <time>2020-03-05T00:16:15.894Z</time>
      </trkpt>
      <trkpt lat="42.26358" lon="2.50038">
        <ele>881.7</ele>
        <time>2020-03-05T00:16:21.584Z</time>
      </trkpt>
      <trkpt lat="42.26353" lon="2.5004">
        <ele>880.7</ele>
        <time>2020-03-05T00:16:28.135Z</time>
      </trkpt>
      <trkpt lat="42.2635" lon="2.50032">
        <ele>883</ele>
        <time>2020-03-05T00:16:35.979Z</time>
      </trkpt>
      <trkpt lat="42.26349" lon="2.50028">
        <ele>884</ele>
        <time>2020-03-05T00:16:39.597Z</time>
      </trkpt>
      <trkpt lat="42.26349" lon="2.50028">
        <ele>884.1</ele>
        <time>2020-03-05T00:16:39.954Z</time>
      </trkpt>
      <trkpt lat="42.26353" lon="2.50018">
        <ele>886.8</ele>
        <time>2020-03-05T00:16:49.719Z</time>
      </trkpt>
      <trkpt lat="42.26356" lon="2.50008">
        <ele>889.6</ele>
        <time>2020-03-05T00:16:59.300Z</time>
      </trkpt>
      <trkpt lat="42.26357" lon="2.49994">
        <ele>891.6</ele>
        <time>2020-03-05T00:17:10.547Z</time>
      </trkpt>
      <trkpt lat="42.26356" lon="2.49984">
        <ele>891.7</ele>
        <time>2020-03-05T00:17:18.845Z</time>
      </trkpt>
      <trkpt lat="42.26355" lon="2.49983">
        <ele>891.5</ele>
        <time>2020-03-05T00:17:20.736Z</time>
      </trkpt>
      <trkpt lat="42.26355" lon="2.49979">
        <ele>891.7</ele>
        <time>2020-03-05T00:17:23.578Z</time>
      </trkpt>
      <trkpt lat="42.26355" lon="2.4998">
        <ele>891.7</ele>
        <time>2020-03-05T00:17:24.093Z</time>
      </trkpt>
      <trkpt lat="42.26355" lon="2.4998">
        <ele>891.6</ele>
        <time>2020-03-05T00:17:24.568Z</time>
      </trkpt>
      <trkpt lat="42.26355" lon="2.4998">
        <ele>891.6</ele>
        <time>2020-03-05T00:17:24.652Z</time>
      </trkpt>
      <trkpt lat="42.26355" lon="2.4998">
        <ele>891.6</ele>
        <time>2020-03-05T00:17:24.691Z</time>
      </trkpt>
      <trkpt lat="42.26355" lon="2.4998">
        <ele>891.7</ele>
        <time>2020-03-05T00:17:24.778Z</time>
      </trkpt>
      <trkpt lat="42.26355" lon="2.49979">
        <ele>891.7</ele>
        <time>2020-03-05T00:17:25.966Z</time>
      </trkpt>
      <trkpt lat="42.26355" lon="2.49979">
        <ele>891.6</ele>
        <time>2020-03-05T00:17:26.529Z</time>
      </trkpt>
      <trkpt lat="42.26355" lon="2.49978">
        <ele>891.8</ele>
        <time>2020-03-05T00:17:27.441Z</time>
      </trkpt>
      <trkpt lat="42.26355" lon="2.49979">
        <ele>891.7</ele>
        <time>2020-03-05T00:17:28.182Z</time>
      </trkpt>
      <trkpt lat="42.26355" lon="2.4998">
        <ele>891.7</ele>
        <time>2020-03-05T00:17:28.534Z</time>
      </trkpt>
      <trkpt lat="42.26354" lon="2.49979">
        <ele>891.7</ele>
        <time>2020-03-05T00:17:29.655Z</time>
      </trkpt>
      <trkpt lat="42.26356" lon="2.49977">
        <ele>891.7</ele>
        <time>2020-03-05T00:17:31.990Z</time>
      </trkpt>
      <trkpt lat="42.26358" lon="2.49976">
        <ele>891.9</ele>
        <time>2020-03-05T00:17:34.415Z</time>
      </trkpt>
      <trkpt lat="42.2636" lon="2.49973">
        <ele>892</ele>
        <time>2020-03-05T00:17:37.836Z</time>
      </trkpt>
      <trkpt lat="42.26362" lon="2.49975">
        <ele>891.4</ele>
        <time>2020-03-05T00:17:41.475Z</time>
      </trkpt>
      <trkpt lat="42.26369" lon="2.49982">
        <ele>888.2</ele>
        <time>2020-03-05T00:17:51.672Z</time>
      </trkpt>
      <trkpt lat="42.26373" lon="2.49975">
        <ele>886.6</ele>
        <time>2020-03-05T00:17:58.923Z</time>
      </trkpt>
      <trkpt lat="42.26373" lon="2.49969">
        <ele>884.8</ele>
        <time>2020-03-05T00:18:04.351Z</time>
      </trkpt>
      <trkpt lat="42.26378" lon="2.49962">
        <ele>879.4</ele>
        <time>2020-03-05T00:18:14.358Z</time>
      </trkpt>
      <trkpt lat="42.26384" lon="2.4996">
        <ele>876.7</ele>
        <time>2020-03-05T00:18:21.439Z</time>
      </trkpt>
      <trkpt lat="42.26383" lon="2.49955">
        <ele>875</ele>
        <time>2020-03-05T00:18:26.605Z</time>
      </trkpt>
      <trkpt lat="42.26383" lon="2.4995">
        <ele>873.2</ele>
        <time>2020-03-05T00:18:31.173Z</time>
      </trkpt>
      <trkpt lat="42.26389" lon="2.49945">
        <ele>870.1</ele>
        <time>2020-03-05T00:18:39.848Z</time>
      </trkpt>
      <trkpt lat="42.26401" lon="2.49946">
        <ele>867.8</ele>
        <time>2020-03-05T00:18:53.191Z</time>
      </trkpt>
      <trkpt lat="42.26406" lon="2.49951">
        <ele>867.5</ele>
        <time>2020-03-05T00:19:00.435Z</time>
      </trkpt>
      <trkpt lat="42.26409" lon="2.49951">
        <ele>866.6</ele>
        <time>2020-03-05T00:19:03.732Z</time>
      </trkpt>
      <trkpt lat="42.26422" lon="2.49949">
        <ele>862.1</ele>
        <time>2020-03-05T00:19:18.858Z</time>
      </trkpt>
      <trkpt lat="42.26425" lon="2.49941">
        <ele>859.6</ele>
        <time>2020-03-05T00:19:26.840Z</time>
      </trkpt>
      <trkpt lat="42.26429" lon="2.49936">
        <ele>856.7</ele>
        <time>2020-03-05T00:19:33.855Z</time>
      </trkpt>
      <trkpt lat="42.26436" lon="2.49934">
        <ele>853.9</ele>
        <time>2020-03-05T00:19:41.709Z</time>
      </trkpt>
      <trkpt lat="42.26438" lon="2.49925">
        <ele>851.8</ele>
        <time>2020-03-05T00:19:49.499Z</time>
      </trkpt>
      <trkpt lat="42.26441" lon="2.49908">
        <ele>848.2</ele>
        <time>2020-03-05T00:20:04.753Z</time>
      </trkpt>
      <trkpt lat="42.26446" lon="2.49895">
        <ele>845.4</ele>
        <time>2020-03-05T00:20:17.251Z</time>
      </trkpt>
      <trkpt lat="42.26447" lon="2.49879">
        <ele>843.6</ele>
        <time>2020-03-05T00:20:30.371Z</time>
      </trkpt>
      <trkpt lat="42.26444" lon="2.49872">
        <ele>843.2</ele>
        <time>2020-03-05T00:20:37.276Z</time>
      </trkpt>
      <trkpt lat="42.26437" lon="2.49868">
        <ele>841.5</ele>
        <time>2020-03-05T00:20:46.205Z</time>
      </trkpt>
      <trkpt lat="42.26433" lon="2.49865">
        <ele>840.5</ele>
        <time>2020-03-05T00:20:50.328Z</time>
      </trkpt>
      <trkpt lat="42.26422" lon="2.49868">
        <ele>839</ele>
        <time>2020-03-05T00:21:03.890Z</time>
      </trkpt>
      <trkpt lat="42.26413" lon="2.49869">
        <ele>838.1</ele>
        <time>2020-03-05T00:21:13.017Z</time>
      </trkpt>
      <trkpt lat="42.26405" lon="2.49864">
        <ele>835.5</ele>
        <time>2020-03-05T00:21:23.183Z</time>
      </trkpt>
      <trkpt lat="42.26398" lon="2.49864">
        <ele>834.6</ele>
        <time>2020-03-05T00:21:31.062Z</time>
      </trkpt>
      <trkpt lat="42.26393" lon="2.4986">
        <ele>832.2</ele>
        <time>2020-03-05T00:21:38.379Z</time>
      </trkpt>
      <trkpt lat="42.26386" lon="2.49856">
        <ele>829.8</ele>
        <time>2020-03-05T00:21:46.853Z</time>
      </trkpt>
      <trkpt lat="42.26382" lon="2.49854">
        <ele>829</ele>
        <time>2020-03-05T00:21:51.752Z</time>
      </trkpt>
      <trkpt lat="42.26377" lon="2.49849">
        <ele>826.9</ele>
        <time>2020-03-05T00:21:59.213Z</time>
      </trkpt>
      <trkpt lat="42.26371" lon="2.49844">
        <ele>824.1</ele>
        <time>2020-03-05T00:22:08.184Z</time>
      </trkpt>
      <trkpt lat="42.26365" lon="2.49839">
        <ele>821.8</ele>
        <time>2020-03-05T00:22:16.137Z</time>
      </trkpt>
      <trkpt lat="42.26359" lon="2.49833">
        <ele>818.8</ele>
        <time>2020-03-05T00:22:24.994Z</time>
      </trkpt>
      <trkpt lat="42.26347" lon="2.49825">
        <ele>815.6</ele>
        <time>2020-03-05T00:22:39.891Z</time>
      </trkpt>
      <trkpt lat="42.26338" lon="2.4982">
        <ele>813.1</ele>
        <time>2020-03-05T00:22:51.631Z</time>
      </trkpt>
      <trkpt lat="42.26331" lon="2.49816">
        <ele>811.5</ele>
        <time>2020-03-05T00:23:00.167Z</time>
      </trkpt>
      <trkpt lat="42.26328" lon="2.4981">
        <ele>808.5</ele>
        <time>2020-03-05T00:23:06.939Z</time>
      </trkpt>
      <trkpt lat="42.26327" lon="2.49802">
        <ele>805.2</ele>
        <time>2020-03-05T00:23:13.867Z</time>
      </trkpt>
      <trkpt lat="42.26327" lon="2.49795">
        <ele>802</ele>
        <time>2020-03-05T00:23:20.641Z</time>
      </trkpt>
      <trkpt lat="42.26322" lon="2.49794">
        <ele>801.8</ele>
        <time>2020-03-05T00:23:26.023Z</time>
      </trkpt>
      <trkpt lat="42.26319" lon="2.49788">
        <ele>799.3</ele>
        <time>2020-03-05T00:23:32.841Z</time>
      </trkpt>
      <trkpt lat="42.26314" lon="2.4978">
        <ele>796.3</ele>
        <time>2020-03-05T00:23:41.323Z</time>
      </trkpt>
      <trkpt lat="42.26311" lon="2.49771">
        <ele>792.6</ele>
        <time>2020-03-05T00:23:50.331Z</time>
      </trkpt>
      <trkpt lat="42.26309" lon="2.49764">
        <ele>789.7</ele>
        <time>2020-03-05T00:23:57.243Z</time>
      </trkpt>
      <trkpt lat="42.26304" lon="2.49755">
        <ele>786.5</ele>
        <time>2020-03-05T00:24:07.730Z</time>
      </trkpt>
      <trkpt lat="42.26298" lon="2.49746">
        <ele>783.9</ele>
        <time>2020-03-05T00:24:17.479Z</time>
      </trkpt>
      <trkpt lat="42.26295" lon="2.49738">
        <ele>781.2</ele>
        <time>2020-03-05T00:24:25.518Z</time>
      </trkpt>
      <trkpt lat="42.26293" lon="2.49726">
        <ele>776.6</ele>
        <time>2020-03-05T00:24:36.568Z</time>
      </trkpt>
      <trkpt lat="42.26298" lon="2.49722">
        <ele>774</ele>
        <time>2020-03-05T00:24:43.096Z</time>
      </trkpt>
      <trkpt lat="42.263" lon="2.4972">
        <ele>772.6</ele>
        <time>2020-03-05T00:24:46.296Z</time>
      </trkpt>
      <trkpt lat="42.26299" lon="2.49715">
        <ele>770.4</ele>
        <time>2020-03-05T00:24:51.745Z</time>
      </trkpt>
      <trkpt lat="42.26294" lon="2.49706">
        <ele>768</ele>
        <time>2020-03-05T00:25:00.377Z</time>
      </trkpt>
      <trkpt lat="42.26291" lon="2.497">
        <ele>766.3</ele>
        <time>2020-03-05T00:25:06.866Z</time>
      </trkpt>
      <trkpt lat="42.26288" lon="2.49694">
        <ele>764.3</ele>
        <time>2020-03-05T00:25:12.966Z</time>
      </trkpt>
      <trkpt lat="42.26291" lon="2.49689">
        <ele>761.5</ele>
        <time>2020-03-05T00:25:18.740Z</time>
      </trkpt>
      <trkpt lat="42.26295" lon="2.49681">
        <ele>757</ele>
        <time>2020-03-05T00:25:28.054Z</time>
      </trkpt>
      <trkpt lat="42.26289" lon="2.49675">
        <ele>755.7</ele>
        <time>2020-03-05T00:25:37.179Z</time>
      </trkpt>
      <trkpt lat="42.26286" lon="2.49667">
        <ele>752.9</ele>
        <time>2020-03-05T00:25:44.924Z</time>
      </trkpt>
      <trkpt lat="42.26292" lon="2.49656">
        <ele>747.2</ele>
        <time>2020-03-05T00:25:57.021Z</time>
      </trkpt>
      <trkpt lat="42.26292" lon="2.49653">
        <ele>745.8</ele>
        <time>2020-03-05T00:26:00.063Z</time>
      </trkpt>
      <trkpt lat="42.26294" lon="2.49645">
        <ele>742</ele>
        <time>2020-03-05T00:26:07.991Z</time>
      </trkpt>
      <trkpt lat="42.26293" lon="2.49639">
        <ele>739.7</ele>
        <time>2020-03-05T00:26:13.889Z</time>
      </trkpt>
      <trkpt lat="42.2629" lon="2.49633">
        <ele>738</ele>
        <time>2020-03-05T00:26:19.465Z</time>
      </trkpt>
      <trkpt lat="42.26293" lon="2.49629">
        <ele>735.3</ele>
        <time>2020-03-05T00:26:24.825Z</time>
      </trkpt>
      <trkpt lat="42.26287" lon="2.49619">
        <ele>732.9</ele>
        <time>2020-03-05T00:26:35.388Z</time>
      </trkpt>
      <trkpt lat="42.26284" lon="2.49609">
        <ele>729.4</ele>
        <time>2020-03-05T00:26:44.773Z</time>
      </trkpt>
      <trkpt lat="42.26285" lon="2.49606">
        <ele>727.8</ele>
        <time>2020-03-05T00:26:48.330Z</time>
      </trkpt>
      <trkpt lat="42.26281" lon="2.49593">
        <ele>723.9</ele>
        <time>2020-03-05T00:27:00.506Z</time>
      </trkpt>
      <trkpt lat="42.26285" lon="2.49586">
        <ele>720.1</ele>
        <time>2020-03-05T00:27:08.584Z</time>
      </trkpt>
      <trkpt lat="42.2628" lon="2.49579">
        <ele>718.9</ele>
        <time>2020-03-05T00:27:16.343Z</time>
      </trkpt>
      <trkpt lat="42.26277" lon="2.49571">
        <ele>716.3</ele>
        <time>2020-03-05T00:27:24.201Z</time>
      </trkpt>
      <trkpt lat="42.26277" lon="2.49561">
        <ele>712.6</ele>
        <time>2020-03-05T00:27:33.425Z</time>
      </trkpt>
      <trkpt lat="42.26278" lon="2.49551">
        <ele>707.8</ele>
        <time>2020-03-05T00:27:43.372Z</time>
      </trkpt>
      <trkpt lat="42.26284" lon="2.4955">
        <ele>705.6</ele>
        <time>2020-03-05T00:27:49.608Z</time>
      </trkpt>
      <trkpt lat="42.26279" lon="2.49541">
        <ele>703.3</ele>
        <time>2020-03-05T00:27:58.648Z</time>
      </trkpt>
      <trkpt lat="42.26276" lon="2.4953">
        <ele>699.9</ele>
        <time>2020-03-05T00:28:08.934Z</time>
      </trkpt>
      <trkpt lat="42.26273" lon="2.49525">
        <ele>698.9</ele>
        <time>2020-03-05T00:28:14.155Z</time>
      </trkpt>
      <trkpt lat="42.26269" lon="2.49523">
        <ele>699.2</ele>
        <time>2020-03-05T00:28:18.363Z</time>
      </trkpt>
      <trkpt lat="42.26262" lon="2.49509">
        <ele>696.5</ele>
        <time>2020-03-05T00:28:32.677Z</time>
      </trkpt>
      <trkpt lat="42.26255" lon="2.49497">
        <ele>694.3</ele>
        <time>2020-03-05T00:28:45.336Z</time>
      </trkpt>
      <trkpt lat="42.26253" lon="2.49489">
        <ele>691.9</ele>
        <time>2020-03-05T00:28:52.838Z</time>
      </trkpt>
      <trkpt lat="42.26249" lon="2.49481">
        <ele>689.8</ele>
        <time>2020-03-05T00:29:01.236Z</time>
      </trkpt>
      <trkpt lat="42.26245" lon="2.49474">
        <ele>689.2</ele>
        <time>2020-03-05T00:29:09.091Z</time>
      </trkpt>
      <trkpt lat="42.26239" lon="2.49462">
        <ele>686.7</ele>
        <time>2020-03-05T00:29:20.760Z</time>
      </trkpt>
      <trkpt lat="42.2624" lon="2.49454">
        <ele>683.6</ele>
        <time>2020-03-05T00:29:27.705Z</time>
      </trkpt>
      <trkpt lat="42.26232" lon="2.49445">
        <ele>683</ele>
        <time>2020-03-05T00:29:39.562Z</time>
      </trkpt>
      <trkpt lat="42.26224" lon="2.49436">
        <ele>682.6</ele>
        <time>2020-03-05T00:29:50.899Z</time>
      </trkpt>
      <trkpt lat="42.26219" lon="2.49422">
        <ele>679.3</ele>
        <time>2020-03-05T00:30:04.232Z</time>
      </trkpt>
      <trkpt lat="42.26215" lon="2.49414">
        <ele>677.4</ele>
        <time>2020-03-05T00:30:12.499Z</time>
      </trkpt>
      <trkpt lat="42.26211" lon="2.49397">
        <ele>673.1</ele>
        <time>2020-03-05T00:30:27.755Z</time>
      </trkpt>
      <trkpt lat="42.26202" lon="2.49384">
        <ele>671</ele>
        <time>2020-03-05T00:30:42.373Z</time>
      </trkpt>
      <trkpt lat="42.26192" lon="2.4937">
        <ele>668.3</ele>
        <time>2020-03-05T00:30:58.816Z</time>
      </trkpt>
      <trkpt lat="42.26184" lon="2.49362">
        <ele>665.6</ele>
        <time>2020-03-05T00:31:10.105Z</time>
      </trkpt>
      <trkpt lat="42.26175" lon="2.49355">
        <ele>663.5</ele>
        <time>2020-03-05T00:31:21.778Z</time>
      </trkpt>
      <trkpt lat="42.26171" lon="2.4935">
        <ele>661.9</ele>
        <time>2020-03-05T00:31:28.509Z</time>
      </trkpt>
      <trkpt lat="42.26165" lon="2.49346">
        <ele>660.7</ele>
        <time>2020-03-05T00:31:35.966Z</time>
      </trkpt>
      <trkpt lat="42.26158" lon="2.49338">
        <ele>656.7</ele>
        <time>2020-03-05T00:31:46.669Z</time>
      </trkpt>
      <trkpt lat="42.26151" lon="2.49333">
        <ele>653.6</ele>
        <time>2020-03-05T00:31:56.243Z</time>
      </trkpt>
      <trkpt lat="42.26145" lon="2.49326">
        <ele>650.3</ele>
        <time>2020-03-05T00:32:05.848Z</time>
      </trkpt>
      <trkpt lat="42.2614" lon="2.4932">
        <ele>647.9</ele>
        <time>2020-03-05T00:32:13.544Z</time>
      </trkpt>
      <trkpt lat="42.26138" lon="2.4931">
        <ele>644.5</ele>
        <time>2020-03-05T00:32:22.428Z</time>
      </trkpt>
      <trkpt lat="42.26137" lon="2.4931">
        <ele>644.2</ele>
        <time>2020-03-05T00:32:23.543Z</time>
      </trkpt>
      <trkpt lat="42.26132" lon="2.49303">
        <ele>642.1</ele>
        <time>2020-03-05T00:32:31.931Z</time>
      </trkpt>
      <trkpt lat="42.26123" lon="2.49302">
        <ele>641.3</ele>
        <time>2020-03-05T00:32:42.037Z</time>
      </trkpt>
      <trkpt lat="42.26116" lon="2.49295">
        <ele>639.1</ele>
        <time>2020-03-05T00:32:51.659Z</time>
      </trkpt>
      <trkpt lat="42.26116" lon="2.49295">
        <ele>639.2</ele>
        <time>2020-03-05T00:32:52.250Z</time>
      </trkpt>
      <trkpt lat="42.26117" lon="2.49287">
        <ele>636.8</ele>
        <time>2020-03-05T00:32:59.554Z</time>
      </trkpt>
      <trkpt lat="42.26113" lon="2.49279">
        <ele>634.4</ele>
        <time>2020-03-05T00:33:07.567Z</time>
      </trkpt>
      <trkpt lat="42.26107" lon="2.49272">
        <ele>632.3</ele>
        <time>2020-03-05T00:33:16.554Z</time>
      </trkpt>
      <trkpt lat="42.26105" lon="2.49266">
        <ele>630.4</ele>
        <time>2020-03-05T00:33:22.612Z</time>
      </trkpt>
      <trkpt lat="42.26099" lon="2.49261">
        <ele>628.6</ele>
        <time>2020-03-05T00:33:30.790Z</time>
      </trkpt>
      <trkpt lat="42.26094" lon="2.49256">
        <ele>627.1</ele>
        <time>2020-03-05T00:33:37.732Z</time>
      </trkpt>
      <trkpt lat="42.26093" lon="2.49253">
        <ele>626.1</ele>
        <time>2020-03-05T00:33:40.989Z</time>
      </trkpt>
      <trkpt lat="42.26082" lon="2.49249">
        <ele>624.8</ele>
        <time>2020-03-05T00:33:53.341Z</time>
      </trkpt>
      <trkpt lat="42.26082" lon="2.49242">
        <ele>622.9</ele>
        <time>2020-03-05T00:33:59.968Z</time>
      </trkpt>
      <trkpt lat="42.26073" lon="2.49245">
        <ele>622.9</ele>
        <time>2020-03-05T00:34:10.155Z</time>
      </trkpt>
      <trkpt lat="42.26068" lon="2.49248">
        <ele>623.2</ele>
        <time>2020-03-05T00:34:16.019Z</time>
      </trkpt>
      <trkpt lat="42.26064" lon="2.4925">
        <ele>623.7</ele>
        <time>2020-03-05T00:34:21.227Z</time>
      </trkpt>
      <trkpt lat="42.26045" lon="2.49269">
        <ele>625.6</ele>
        <time>2020-03-05T00:34:47.477Z</time>
      </trkpt>
      <trkpt lat="42.26025" lon="2.49281">
        <ele>625.3</ele>
        <time>2020-03-05T00:35:11.734Z</time>
      </trkpt>
      <trkpt lat="42.26017" lon="2.4929">
        <ele>625.7</ele>
        <time>2020-03-05T00:35:23.450Z</time>
      </trkpt>
      <trkpt lat="42.26008" lon="2.49304">
        <ele>627</ele>
        <time>2020-03-05T00:35:38.642Z</time>
      </trkpt>
      <trkpt lat="42.26005" lon="2.4931">
        <ele>627.7</ele>
        <time>2020-03-05T00:35:44.952Z</time>
      </trkpt>
      <trkpt lat="42.26002" lon="2.49318">
        <ele>628.6</ele>
        <time>2020-03-05T00:35:52.051Z</time>
      </trkpt>
      <trkpt lat="42.25998" lon="2.4932">
        <ele>628.2</ele>
        <time>2020-03-05T00:35:57.085Z</time>
      </trkpt>
      <trkpt lat="42.25996" lon="2.49323">
        <ele>628.4</ele>
        <time>2020-03-05T00:36:00.634Z</time>
      </trkpt>
      <trkpt lat="42.25994" lon="2.49325">
        <ele>628.6</ele>
        <time>2020-03-05T00:36:02.725Z</time>
      </trkpt>
      <trkpt lat="42.25994" lon="2.49326">
        <ele>628.7</ele>
        <time>2020-03-05T00:36:03.813Z</time>
      </trkpt>
      <trkpt lat="42.25995" lon="2.49326">
        <ele>628.8</ele>
        <time>2020-03-05T00:36:04.576Z</time>
      </trkpt>
      <trkpt lat="42.25996" lon="2.49327">
        <ele>629.1</ele>
        <time>2020-03-05T00:36:05.361Z</time>
      </trkpt>
      <trkpt lat="42.25996" lon="2.49327">
        <ele>629.1</ele>
        <time>2020-03-05T00:36:05.932Z</time>
      </trkpt>
      <trkpt lat="42.25997" lon="2.49325">
        <ele>628.9</ele>
        <time>2020-03-05T00:36:07.932Z</time>
      </trkpt>
      <trkpt lat="42.26001" lon="2.49316">
        <ele>628.2</ele>
        <time>2020-03-05T00:36:16.560Z</time>
      </trkpt>
      <trkpt lat="42.26006" lon="2.49307">
        <ele>627.1</ele>
        <time>2020-03-05T00:36:25.817Z</time>
      </trkpt>
      <trkpt lat="42.26015" lon="2.4929">
        <ele>625.4</ele>
        <time>2020-03-05T00:36:43.094Z</time>
      </trkpt>
      <trkpt lat="42.2602" lon="2.49283">
        <ele>624.8</ele>
        <time>2020-03-05T00:36:50.856Z</time>
      </trkpt>
      <trkpt lat="42.26039" lon="2.49271">
        <ele>625.2</ele>
        <time>2020-03-05T00:37:14.387Z</time>
      </trkpt>
      <trkpt lat="42.2605" lon="2.49262">
        <ele>624.8</ele>
        <time>2020-03-05T00:37:28.784Z</time>
      </trkpt>
      <trkpt lat="42.26063" lon="2.4925">
        <ele>623.7</ele>
        <time>2020-03-05T00:37:46.568Z</time>
      </trkpt>
      <trkpt lat="42.26076" lon="2.49243">
        <ele>622.5</ele>
        <time>2020-03-05T00:38:02.796Z</time>
      </trkpt>
      <trkpt lat="42.26095" lon="2.49232">
        <ele>620.9</ele>
        <time>2020-03-05T00:38:25.503Z</time>
      </trkpt>
      <trkpt lat="42.26097" lon="2.49232">
        <ele>621</ele>
        <time>2020-03-05T00:38:27.757Z</time>
      </trkpt>
      <trkpt lat="42.26101" lon="2.4923">
        <ele>620.6</ele>
        <time>2020-03-05T00:38:32.565Z</time>
      </trkpt>
      <trkpt lat="42.26106" lon="2.49229">
        <ele>620.4</ele>
        <time>2020-03-05T00:38:38.283Z</time>
      </trkpt>
      <trkpt lat="42.26112" lon="2.49227">
        <ele>620.2</ele>
        <time>2020-03-05T00:38:44.791Z</time>
      </trkpt>
      <trkpt lat="42.26131" lon="2.49219">
        <ele>618.8</ele>
        <time>2020-03-05T00:39:07.131Z</time>
      </trkpt>
      <trkpt lat="42.26139" lon="2.4922">
        <ele>618.8</ele>
        <time>2020-03-05T00:39:15.860Z</time>
      </trkpt>
      <trkpt lat="42.26156" lon="2.4922">
        <ele>617.1</ele>
        <time>2020-03-05T00:39:35.863Z</time>
      </trkpt>
      <trkpt lat="42.26157" lon="2.4922">
        <ele>616.9</ele>
        <time>2020-03-05T00:39:36.596Z</time>
      </trkpt>
      <trkpt lat="42.26161" lon="2.49223">
        <ele>616.7</ele>
        <time>2020-03-05T00:39:41.282Z</time>
      </trkpt>
      <trkpt lat="42.26171" lon="2.49225">
        <ele>616.3</ele>
        <time>2020-03-05T00:39:53.000Z</time>
      </trkpt>
      <trkpt lat="42.26193" lon="2.49236">
        <ele>615.2</ele>
        <time>2020-03-05T00:40:19.751Z</time>
      </trkpt>
      <trkpt lat="42.26211" lon="2.49244">
        <ele>613.5</ele>
        <time>2020-03-05T00:40:40.616Z</time>
      </trkpt>
      <trkpt lat="42.26232" lon="2.49259">
        <ele>613.5</ele>
        <time>2020-03-05T00:41:07.302Z</time>
      </trkpt>
      <trkpt lat="42.26255" lon="2.49277">
        <ele>612.6</ele>
        <time>2020-03-05T00:41:36.914Z</time>
      </trkpt>
      <trkpt lat="42.26272" lon="2.49294">
        <ele>614.4</ele>
        <time>2020-03-05T00:42:00.786Z</time>
      </trkpt>
      <trkpt lat="42.2629" lon="2.49305">
        <ele>613.6</ele>
        <time>2020-03-05T00:42:22.719Z</time>
      </trkpt>
      <trkpt lat="42.26312" lon="2.49318">
        <ele>613.9</ele>
        <time>2020-03-05T00:42:49.965Z</time>
      </trkpt>
      <trkpt lat="42.26331" lon="2.49322">
        <ele>613.4</ele>
        <time>2020-03-05T00:43:11.240Z</time>
      </trkpt>
      <trkpt lat="42.26348" lon="2.49321">
        <ele>613.1</ele>
        <time>2020-03-05T00:43:30.271Z</time>
      </trkpt>
      <trkpt lat="42.26369" lon="2.49317">
        <ele>611.6</ele>
        <time>2020-03-05T00:43:53.989Z</time>
      </trkpt>
      <trkpt lat="42.26384" lon="2.49303">
        <ele>608.3</ele>
        <time>2020-03-05T00:44:14.607Z</time>
      </trkpt>
      <trkpt lat="42.264" lon="2.49292">
        <ele>605.5</ele>
        <time>2020-03-05T00:44:35.298Z</time>
      </trkpt>
      <trkpt lat="42.26402" lon="2.49263">
        <ele>604.6</ele>
        <time>2020-03-05T00:44:59.452Z</time>
      </trkpt>
      <trkpt lat="42.26401" lon="2.49257">
        <ele>604.8</ele>
        <time>2020-03-05T00:45:04.266Z</time>
      </trkpt>
      <trkpt lat="42.26403" lon="2.49257">
        <ele>604.8</ele>
        <time>2020-03-05T00:45:05.770Z</time>
      </trkpt>
      <trkpt lat="42.26401" lon="2.49254">
        <ele>604.9</ele>
        <time>2020-03-05T00:45:08.295Z</time>
      </trkpt>
      <trkpt lat="42.264" lon="2.49252">
        <ele>604.9</ele>
        <time>2020-03-05T00:45:10.366Z</time>
      </trkpt>
      <trkpt lat="42.26386" lon="2.49236">
        <ele>607.2</ele>
        <time>2020-03-05T00:45:31.365Z</time>
      </trkpt>
      <trkpt lat="42.26373" lon="2.49228">
        <ele>608.5</ele>
        <time>2020-03-05T00:45:47.550Z</time>
      </trkpt>
      <trkpt lat="42.26367" lon="2.49224">
        <ele>608.9</ele>
        <time>2020-03-05T00:45:55.077Z</time>
      </trkpt>
      <trkpt lat="42.2636" lon="2.4922">
        <ele>609.7</ele>
        <time>2020-03-05T00:46:03.118Z</time>
      </trkpt>
      <trkpt lat="42.26361" lon="2.49219">
        <ele>609.8</ele>
        <time>2020-03-05T00:46:04.101Z</time>
      </trkpt>
      <trkpt lat="42.26362" lon="2.49214">
        <ele>611.1</ele>
        <time>2020-03-05T00:46:08.667Z</time>
      </trkpt>
      <trkpt lat="42.26362" lon="2.492">
        <ele>614.6</ele>
        <time>2020-03-05T00:46:20.869Z</time>
      </trkpt>
      <trkpt lat="42.2636" lon="2.4919">
        <ele>617.3</ele>
        <time>2020-03-05T00:46:29.834Z</time>
      </trkpt>
      <trkpt lat="42.26348" lon="2.49181">
        <ele>619.1</ele>
        <time>2020-03-05T00:46:45.120Z</time>
      </trkpt>
      <trkpt lat="42.26338" lon="2.49175">
        <ele>620</ele>
        <time>2020-03-05T00:46:57.084Z</time>
      </trkpt>
      <trkpt lat="42.2633" lon="2.49163">
        <ele>623.1</ele>
        <time>2020-03-05T00:47:10.738Z</time>
      </trkpt>
      <trkpt lat="42.26322" lon="2.49154">
        <ele>626</ele>
        <time>2020-03-05T00:47:23.201Z</time>
      </trkpt>
      <trkpt lat="42.26317" lon="2.49149">
        <ele>627.6</ele>
        <time>2020-03-05T00:47:30.481Z</time>
      </trkpt>
      <trkpt lat="42.26317" lon="2.49149">
        <ele>627.4</ele>
        <time>2020-03-05T00:47:31.104Z</time>
      </trkpt>
      <trkpt lat="42.26309" lon="2.4914">
        <ele>630.2</ele>
        <time>2020-03-05T00:47:42.924Z</time>
      </trkpt>
      <trkpt lat="42.26301" lon="2.49132">
        <ele>632.3</ele>
        <time>2020-03-05T00:47:54.116Z</time>
      </trkpt>
      <trkpt lat="42.2629" lon="2.4912">
        <ele>635.2</ele>
        <time>2020-03-05T00:48:10.816Z</time>
      </trkpt>
      <trkpt lat="42.26279" lon="2.4911">
        <ele>637.6</ele>
        <time>2020-03-05T00:48:25.871Z</time>
      </trkpt>
      <trkpt lat="42.26268" lon="2.49104">
        <ele>638.8</ele>
        <time>2020-03-05T00:48:39.349Z</time>
      </trkpt>
      <trkpt lat="42.26259" lon="2.49099">
        <ele>639.4</ele>
        <time>2020-03-05T00:48:50.099Z</time>
      </trkpt>
      <trkpt lat="42.26244" lon="2.49087">
        <ele>642</ele>
        <time>2020-03-05T00:49:09.260Z</time>
      </trkpt>
      <trkpt lat="42.26236" lon="2.49075">
        <ele>646.2</ele>
        <time>2020-03-05T00:49:23.249Z</time>
      </trkpt>
      <trkpt lat="42.26229" lon="2.49062">
        <ele>650</ele>
        <time>2020-03-05T00:49:37.491Z</time>
      </trkpt>
      <trkpt lat="42.26225" lon="2.49053">
        <ele>652.7</ele>
        <time>2020-03-05T00:49:46.255Z</time>
      </trkpt>
      <trkpt lat="42.26222" lon="2.49044">
        <ele>655.5</ele>
        <time>2020-03-05T00:49:55.215Z</time>
      </trkpt>
      <trkpt lat="42.26213" lon="2.49034">
        <ele>657.1</ele>
        <time>2020-03-05T00:50:07.904Z</time>
      </trkpt>
      <trkpt lat="42.26212" lon="2.49033">
        <ele>657</ele>
        <time>2020-03-05T00:50:10.325Z</time>
      </trkpt>
      <trkpt lat="42.26207" lon="2.49026">
        <ele>658.8</ele>
        <time>2020-03-05T00:50:18.060Z</time>
      </trkpt>
      <trkpt lat="42.26203" lon="2.49019">
        <ele>660.5</ele>
        <time>2020-03-05T00:50:25.845Z</time>
      </trkpt>
      <trkpt lat="42.262" lon="2.49015">
        <ele>661.5</ele>
        <time>2020-03-05T00:50:30.676Z</time>
      </trkpt>
      <trkpt lat="42.26196" lon="2.49012">
        <ele>662.1</ele>
        <time>2020-03-05T00:50:35.135Z</time>
      </trkpt>
      <trkpt lat="42.26188" lon="2.49005">
        <ele>662.2</ele>
        <time>2020-03-05T00:50:45.588Z</time>
      </trkpt>
      <trkpt lat="42.2618" lon="2.48992">
        <ele>662.7</ele>
        <time>2020-03-05T00:51:00.567Z</time>
      </trkpt>
      <trkpt lat="42.26181" lon="2.48982">
        <ele>665.4</ele>
        <time>2020-03-05T00:51:09.672Z</time>
      </trkpt>
      <trkpt lat="42.26181" lon="2.48967">
        <ele>667.5</ele>
        <time>2020-03-05T00:51:22.037Z</time>
      </trkpt>
      <trkpt lat="42.26187" lon="2.4895">
        <ele>670.3</ele>
        <time>2020-03-05T00:51:37.810Z</time>
      </trkpt>
      <trkpt lat="42.26189" lon="2.48933">
        <ele>671.5</ele>
        <time>2020-03-05T00:51:51.855Z</time>
      </trkpt>
      <trkpt lat="42.26193" lon="2.48916">
        <ele>674.1</ele>
        <time>2020-03-05T00:52:06.634Z</time>
      </trkpt>
      <trkpt lat="42.26195" lon="2.48903">
        <ele>675.3</ele>
        <time>2020-03-05T00:52:18.184Z</time>
      </trkpt>
      <trkpt lat="42.26197" lon="2.48883">
        <ele>676.4</ele>
        <time>2020-03-05T00:52:34.546Z</time>
      </trkpt>
      <trkpt lat="42.26199" lon="2.48867">
        <ele>678.1</ele>
        <time>2020-03-05T00:52:47.881Z</time>
      </trkpt>
      <trkpt lat="42.26202" lon="2.4885">
        <ele>680.1</ele>
        <time>2020-03-05T00:53:02.547Z</time>
      </trkpt>
      <trkpt lat="42.26207" lon="2.48838">
        <ele>682.3</ele>
        <time>2020-03-05T00:53:13.983Z</time>
      </trkpt>
      <trkpt lat="42.26207" lon="2.48819">
        <ele>683</ele>
        <time>2020-03-05T00:53:29.755Z</time>
      </trkpt>
      <trkpt lat="42.26213" lon="2.48801">
        <ele>686.2</ele>
        <time>2020-03-05T00:53:46.637Z</time>
      </trkpt>
      <trkpt lat="42.26217" lon="2.48783">
        <ele>688.3</ele>
        <time>2020-03-05T00:54:01.873Z</time>
      </trkpt>
      <trkpt lat="42.2622" lon="2.48778">
        <ele>689.9</ele>
        <time>2020-03-05T00:54:08.074Z</time>
      </trkpt>
      <trkpt lat="42.26224" lon="2.48771">
        <ele>691.6</ele>
        <time>2020-03-05T00:54:15.149Z</time>
      </trkpt>
      <trkpt lat="42.26227" lon="2.48757">
        <ele>693.5</ele>
        <time>2020-03-05T00:54:27.496Z</time>
      </trkpt>
      <trkpt lat="42.26234" lon="2.48744">
        <ele>697.3</ele>
        <time>2020-03-05T00:54:41.274Z</time>
      </trkpt>
      <trkpt lat="42.26238" lon="2.48741">
        <ele>699</ele>
        <time>2020-03-05T00:54:46.103Z</time>
      </trkpt>
      <trkpt lat="42.26239" lon="2.48745">
        <ele>699.7</ele>
        <time>2020-03-05T00:54:49.496Z</time>
      </trkpt>
      <trkpt lat="42.26244" lon="2.48752">
        <ele>702.1</ele>
        <time>2020-03-05T00:54:57.922Z</time>
      </trkpt>
      <trkpt lat="42.2625" lon="2.48749">
        <ele>704.8</ele>
        <time>2020-03-05T00:55:05.060Z</time>
      </trkpt>
      <trkpt lat="42.26252" lon="2.48747">
        <ele>706.4</ele>
        <time>2020-03-05T00:55:09.151Z</time>
      </trkpt>
      <trkpt lat="42.26255" lon="2.48744">
        <ele>707.8</ele>
        <time>2020-03-05T00:55:13.069Z</time>
      </trkpt>
      <trkpt lat="42.26256" lon="2.48737">
        <ele>708.6</ele>
        <time>2020-03-05T00:55:18.613Z</time>
      </trkpt>
      <trkpt lat="42.26256" lon="2.48737">
        <ele>708.4</ele>
        <time>2020-03-05T00:55:19.230Z</time>
      </trkpt>
      <trkpt lat="42.26258" lon="2.48736">
        <ele>709.3</ele>
        <time>2020-03-05T00:55:21.290Z</time>
      </trkpt>
      <trkpt lat="42.26259" lon="2.48731">
        <ele>709.9</ele>
        <time>2020-03-05T00:55:25.834Z</time>
      </trkpt>
      <trkpt lat="42.26261" lon="2.48722">
        <ele>711</ele>
        <time>2020-03-05T00:55:33.457Z</time>
      </trkpt>
      <trkpt lat="42.26263" lon="2.48722">
        <ele>711.8</ele>
        <time>2020-03-05T00:55:35.340Z</time>
      </trkpt>
      <trkpt lat="42.26268" lon="2.48708">
        <ele>714.1</ele>
        <time>2020-03-05T00:55:48.601Z</time>
      </trkpt>
      <trkpt lat="42.26275" lon="2.48704">
        <ele>717.5</ele>
        <time>2020-03-05T00:55:57.762Z</time>
      </trkpt>
      <trkpt lat="42.26277" lon="2.48699">
        <ele>718.1</ele>
        <time>2020-03-05T00:56:03.049Z</time>
      </trkpt>
      <trkpt lat="42.26277" lon="2.48697">
        <ele>718</ele>
        <time>2020-03-05T00:56:04.471Z</time>
      </trkpt>
      <trkpt lat="42.26276" lon="2.48692">
        <ele>717.5</ele>
        <time>2020-03-05T00:56:09.116Z</time>
      </trkpt>
      <trkpt lat="42.26279" lon="2.48693">
        <ele>719</ele>
        <time>2020-03-05T00:56:12.787Z</time>
      </trkpt>
      <trkpt lat="42.26278" lon="2.48686">
        <ele>718.2</ele>
        <time>2020-03-05T00:56:18.378Z</time>
      </trkpt>
      <trkpt lat="42.26277" lon="2.48679">
        <ele>718.3</ele>
        <time>2020-03-05T00:56:24.211Z</time>
      </trkpt>
      <trkpt lat="42.26281" lon="2.48664">
        <ele>720.8</ele>
        <time>2020-03-05T00:56:37.779Z</time>
      </trkpt>
      <trkpt lat="42.26281" lon="2.48663">
        <ele>720.7</ele>
        <time>2020-03-05T00:56:39.108Z</time>
      </trkpt>
      <trkpt lat="42.2628" lon="2.48654">
        <ele>720</ele>
        <time>2020-03-05T00:56:46.587Z</time>
      </trkpt>
      <trkpt lat="42.26281" lon="2.48639">
        <ele>719.6</ele>
        <time>2020-03-05T00:56:58.368Z</time>
      </trkpt>
      <trkpt lat="42.26286" lon="2.48623">
        <ele>721.8</ele>
        <time>2020-03-05T00:57:13.662Z</time>
      </trkpt>
      <trkpt lat="42.26291" lon="2.48606">
        <ele>722.8</ele>
        <time>2020-03-05T00:57:28.687Z</time>
      </trkpt>
      <trkpt lat="42.26294" lon="2.48589">
        <ele>722.9</ele>
        <time>2020-03-05T00:57:42.772Z</time>
      </trkpt>
      <trkpt lat="42.26304" lon="2.48582">
        <ele>726.2</ele>
        <time>2020-03-05T00:57:55.942Z</time>
      </trkpt>
      <trkpt lat="42.26314" lon="2.48579">
        <ele>730.6</ele>
        <time>2020-03-05T00:58:08.082Z</time>
      </trkpt>
      <trkpt lat="42.26322" lon="2.48575">
        <ele>734.4</ele>
        <time>2020-03-05T00:58:18.460Z</time>
      </trkpt>
      <trkpt lat="42.26326" lon="2.48564">
        <ele>735.6</ele>
        <time>2020-03-05T00:58:28.909Z</time>
      </trkpt>
      <trkpt lat="42.26332" lon="2.48555">
        <ele>737.5</ele>
        <time>2020-03-05T00:58:38.529Z</time>
      </trkpt>
      <trkpt lat="42.26342" lon="2.48546">
        <ele>740.6</ele>
        <time>2020-03-05T00:58:52.046Z</time>
      </trkpt>
      <trkpt lat="42.26347" lon="2.48537">
        <ele>741.8</ele>
        <time>2020-03-05T00:59:02.121Z</time>
      </trkpt>
      <trkpt lat="42.26356" lon="2.48528">
        <ele>744.2</ele>
        <time>2020-03-05T00:59:14.915Z</time>
      </trkpt>
      <trkpt lat="42.26364" lon="2.48523">
        <ele>746.5</ele>
        <time>2020-03-05T00:59:24.350Z</time>
      </trkpt>
      <trkpt lat="42.26374" lon="2.48515">
        <ele>750.3</ele>
        <time>2020-03-05T00:59:37.842Z</time>
      </trkpt>
      <trkpt lat="42.26383" lon="2.4851">
        <ele>754</ele>
        <time>2020-03-05T00:59:49.347Z</time>
      </trkpt>
      <trkpt lat="42.26392" lon="2.48503">
        <ele>757.5</ele>
        <time>2020-03-05T01:00:02.064Z</time>
      </trkpt>
      <trkpt lat="42.264" lon="2.48494">
        <ele>760.3</ele>
        <time>2020-03-05T01:00:14.259Z</time>
      </trkpt>
      <trkpt lat="42.26408" lon="2.48484">
        <ele>762.9</ele>
        <time>2020-03-05T01:00:26.074Z</time>
      </trkpt>
      <trkpt lat="42.26414" lon="2.48487">
        <ele>766.4</ele>
        <time>2020-03-05T01:00:34.612Z</time>
      </trkpt>
      <trkpt lat="42.26414" lon="2.48498">
        <ele>767.4</ele>
        <time>2020-03-05T01:00:43.786Z</time>
      </trkpt>
      <trkpt lat="42.26415" lon="2.4851">
        <ele>769.8</ele>
        <time>2020-03-05T01:00:54.024Z</time>
      </trkpt>
      <trkpt lat="42.26414" lon="2.48524">
        <ele>771.8</ele>
        <time>2020-03-05T01:01:05.499Z</time>
      </trkpt>
      <trkpt lat="42.26416" lon="2.48535">
        <ele>775.1</ele>
        <time>2020-03-05T01:01:15.966Z</time>
      </trkpt>
      <trkpt lat="42.26418" lon="2.4855">
        <ele>779.3</ele>
        <time>2020-03-05T01:01:29.096Z</time>
      </trkpt>
      <trkpt lat="42.26417" lon="2.48563">
        <ele>781.4</ele>
        <time>2020-03-05T01:01:39.940Z</time>
      </trkpt>
      <trkpt lat="42.26416" lon="2.48578">
        <ele>783.5</ele>
        <time>2020-03-05T01:01:52.347Z</time>
      </trkpt>
      <trkpt lat="42.26415" lon="2.4859">
        <ele>785.5</ele>
        <time>2020-03-05T01:02:02.832Z</time>
      </trkpt>
      <trkpt lat="42.26416" lon="2.48602">
        <ele>787.8</ele>
        <time>2020-03-05T01:02:12.649Z</time>
      </trkpt>
      <trkpt lat="42.26415" lon="2.48615">
        <ele>789.9</ele>
        <time>2020-03-05T01:02:23.872Z</time>
      </trkpt>
      <trkpt lat="42.26414" lon="2.48622">
        <ele>790.9</ele>
        <time>2020-03-05T01:02:30.150Z</time>
      </trkpt>
      <trkpt lat="42.26413" lon="2.48638">
        <ele>793</ele>
        <time>2020-03-05T01:02:43.388Z</time>
      </trkpt>
      <trkpt lat="42.26418" lon="2.4865">
        <ele>797.1</ele>
        <time>2020-03-05T01:02:55.184Z</time>
      </trkpt>
      <trkpt lat="42.26421" lon="2.48656">
        <ele>799.8</ele>
        <time>2020-03-05T01:03:01.751Z</time>
      </trkpt>
      <trkpt lat="42.26418" lon="2.48671">
        <ele>800.2</ele>
        <time>2020-03-05T01:03:14.716Z</time>
      </trkpt>
      <trkpt lat="42.26419" lon="2.48687">
        <ele>802.1</ele>
        <time>2020-03-05T01:03:28.261Z</time>
      </trkpt>
      <trkpt lat="42.26422" lon="2.48706">
        <ele>804.5</ele>
        <time>2020-03-05T01:03:44.135Z</time>
      </trkpt>
      <trkpt lat="42.26427" lon="2.48719">
        <ele>808.3</ele>
        <time>2020-03-05T01:03:57.193Z</time>
      </trkpt>
      <trkpt lat="42.26432" lon="2.48733">
        <ele>811.1</ele>
        <time>2020-03-05T01:04:10.040Z</time>
      </trkpt>
      <trkpt lat="42.26438" lon="2.48738">
        <ele>814.6</ele>
        <time>2020-03-05T01:04:18.875Z</time>
      </trkpt>
      <trkpt lat="42.26443" lon="2.48747">
        <ele>817.4</ele>
        <time>2020-03-05T01:04:28.118Z</time>
      </trkpt>
      <trkpt lat="42.26449" lon="2.48752">
        <ele>821.1</ele>
        <time>2020-03-05T01:04:36.921Z</time>
      </trkpt>
      <trkpt lat="42.26453" lon="2.48759">
        <ele>822.9</ele>
        <time>2020-03-05T01:04:44.951Z</time>
      </trkpt>
      <trkpt lat="42.26456" lon="2.48769">
        <ele>822.3</ele>
        <time>2020-03-05T01:04:53.063Z</time>
      </trkpt>
      <trkpt lat="42.26459" lon="2.4877">
        <ele>823.9</ele>
        <time>2020-03-05T01:04:57.545Z</time>
      </trkpt>
      <trkpt lat="42.26463" lon="2.48775">
        <ele>824.6</ele>
        <time>2020-03-05T01:05:03.034Z</time>
      </trkpt>
      <trkpt lat="42.26468" lon="2.48776">
        <ele>826.4</ele>
        <time>2020-03-05T01:05:08.999Z</time>
      </trkpt>
      <trkpt lat="42.26473" lon="2.48776">
        <ele>828.7</ele>
        <time>2020-03-05T01:05:15.795Z</time>
      </trkpt>
      <trkpt lat="42.26477" lon="2.48775">
        <ele>828.8</ele>
        <time>2020-03-05T01:05:20.058Z</time>
      </trkpt>
      <trkpt lat="42.26485" lon="2.48771">
        <ele>829.8</ele>
        <time>2020-03-05T01:05:29.809Z</time>
      </trkpt>
      <trkpt lat="42.26491" lon="2.48768">
        <ele>830.5</ele>
        <time>2020-03-05T01:05:36.580Z</time>
      </trkpt>
      <trkpt lat="42.26494" lon="2.48757">
        <ele>833.8</ele>
        <time>2020-03-05T01:05:47.394Z</time>
      </trkpt>
      <trkpt lat="42.265" lon="2.48742">
        <ele>837.6</ele>
        <time>2020-03-05T01:06:01.623Z</time>
      </trkpt>
      <trkpt lat="42.26513" lon="2.4873">
        <ele>838</ele>
        <time>2020-03-05T01:06:18.852Z</time>
      </trkpt>
      <trkpt lat="42.26522" lon="2.4872">
        <ele>840.2</ele>
        <time>2020-03-05T01:06:32.009Z</time>
      </trkpt>
      <trkpt lat="42.26536" lon="2.48709">
        <ele>842.9</ele>
        <time>2020-03-05T01:06:50.144Z</time>
      </trkpt>
      <trkpt lat="42.26546" lon="2.48703">
        <ele>844.7</ele>
        <time>2020-03-05T01:07:02.815Z</time>
      </trkpt>
      <trkpt lat="42.26551" lon="2.48693">
        <ele>848.8</ele>
        <time>2020-03-05T01:07:13.865Z</time>
      </trkpt>
      <trkpt lat="42.26555" lon="2.48688">
        <ele>851.3</ele>
        <time>2020-03-05T01:07:20.331Z</time>
      </trkpt>
      <trkpt lat="42.26567" lon="2.4868">
        <ele>855.1</ele>
        <time>2020-03-05T01:07:35.485Z</time>
      </trkpt>
      <trkpt lat="42.26578" lon="2.48677">
        <ele>856.1</ele>
        <time>2020-03-05T01:07:48.317Z</time>
      </trkpt>
      <trkpt lat="42.26587" lon="2.48673">
        <ele>855.9</ele>
        <time>2020-03-05T01:07:59.414Z</time>
      </trkpt>
      <trkpt lat="42.26593" lon="2.48672">
        <ele>854</ele>
        <time>2020-03-05T01:08:06.202Z</time>
      </trkpt>
      <trkpt lat="42.26595" lon="2.48671">
        <ele>854.3</ele>
        <time>2020-03-05T01:08:08.661Z</time>
      </trkpt>
      <trkpt lat="42.26597" lon="2.48666">
        <ele>856.4</ele>
        <time>2020-03-05T01:08:13.736Z</time>
      </trkpt>
      <trkpt lat="42.266" lon="2.48662">
        <ele>857.1</ele>
        <time>2020-03-05T01:08:18.437Z</time>
      </trkpt>
      <trkpt lat="42.26609" lon="2.4865">
        <ele>861.4</ele>
        <time>2020-03-05T01:08:33.209Z</time>
      </trkpt>
      <trkpt lat="42.26615" lon="2.48637">
        <ele>865.6</ele>
        <time>2020-03-05T01:08:46.576Z</time>
      </trkpt>
      <trkpt lat="42.26625" lon="2.48622">
        <ele>867.3</ele>
        <time>2020-03-05T01:09:03.504Z</time>
      </trkpt>
      <trkpt lat="42.26639" lon="2.48606">
        <ele>869.1</ele>
        <time>2020-03-05T01:09:23.667Z</time>
      </trkpt>
      <trkpt lat="42.26645" lon="2.48592">
        <ele>874.9</ele>
        <time>2020-03-05T01:09:38.289Z</time>
      </trkpt>
      <trkpt lat="42.26651" lon="2.48582">
        <ele>878.8</ele>
        <time>2020-03-05T01:09:50.204Z</time>
      </trkpt>
      <trkpt lat="42.26662" lon="2.48572">
        <ele>880.6</ele>
        <time>2020-03-05T01:10:05.350Z</time>
      </trkpt>
      <trkpt lat="42.26672" lon="2.48565">
        <ele>883.2</ele>
        <time>2020-03-05T01:10:18.152Z</time>
      </trkpt>
      <trkpt lat="42.26694" lon="2.48553">
        <ele>885.6</ele>
        <time>2020-03-05T01:10:44.806Z</time>
      </trkpt>
      <trkpt lat="42.26706" lon="2.48545">
        <ele>891.1</ele>
        <time>2020-03-05T01:11:00.143Z</time>
      </trkpt>
      <trkpt lat="42.2671" lon="2.48536">
        <ele>896.5</ele>
        <time>2020-03-05T01:11:10.766Z</time>
      </trkpt>
      <trkpt lat="42.26715" lon="2.48527">
        <ele>901.2</ele>
        <time>2020-03-05T01:11:20.609Z</time>
      </trkpt>
      <trkpt lat="42.26723" lon="2.48528">
        <ele>900.1</ele>
        <time>2020-03-05T01:11:30.431Z</time>
      </trkpt>
      <trkpt lat="42.26732" lon="2.48527">
        <ele>902.4</ele>
        <time>2020-03-05T01:11:39.969Z</time>
      </trkpt>
      <trkpt lat="42.26737" lon="2.48522">
        <ele>906.7</ele>
        <time>2020-03-05T01:11:48.463Z</time>
      </trkpt>
      <trkpt lat="42.26741" lon="2.4852">
        <ele>908.9</ele>
        <time>2020-03-05T01:11:54.056Z</time>
      </trkpt>
      <trkpt lat="42.26749" lon="2.48522">
        <ele>908.5</ele>
        <time>2020-03-05T01:12:02.613Z</time>
      </trkpt>
      <trkpt lat="42.26757" lon="2.48518">
        <ele>912.5</ele>
        <time>2020-03-05T01:12:13.040Z</time>
      </trkpt>
      <trkpt lat="42.2677" lon="2.48516">
        <ele>917.3</ele>
        <time>2020-03-05T01:12:28.184Z</time>
      </trkpt>
      <trkpt lat="42.26777" lon="2.48516">
        <ele>919</ele>
        <time>2020-03-05T01:12:36.201Z</time>
      </trkpt>
      <trkpt lat="42.26784" lon="2.48516">
        <ele>921.9</ele>
        <time>2020-03-05T01:12:44.780Z</time>
      </trkpt>
      <trkpt lat="42.26794" lon="2.48521">
        <ele>924.7</ele>
        <time>2020-03-05T01:12:57.232Z</time>
      </trkpt>
      <trkpt lat="42.26797" lon="2.48513">
        <ele>928.4</ele>
        <time>2020-03-05T01:13:05.097Z</time>
      </trkpt>
      <trkpt lat="42.26802" lon="2.48513">
        <ele>931.1</ele>
        <time>2020-03-05T01:13:12.255Z</time>
      </trkpt>
      <trkpt lat="42.26813" lon="2.48524">
        <ele>932.9</ele>
        <time>2020-03-05T01:13:27.243Z</time>
      </trkpt>
      <trkpt lat="42.26824" lon="2.48529">
        <ele>937.6</ele>
        <time>2020-03-05T01:13:40.927Z</time>
      </trkpt>
      <trkpt lat="42.26826" lon="2.48526">
        <ele>939.8</ele>
        <time>2020-03-05T01:13:45.818Z</time>
      </trkpt>
      <trkpt lat="42.26834" lon="2.48532">
        <ele>942.9</ele>
        <time>2020-03-05T01:13:55.820Z</time>
      </trkpt>
      <trkpt lat="42.26841" lon="2.48542">
        <ele>946.2</ele>
        <time>2020-03-05T01:14:08.430Z</time>
      </trkpt>
      <trkpt lat="42.26848" lon="2.48539">
        <ele>949.7</ele>
        <time>2020-03-05T01:14:17.057Z</time>
      </trkpt>
      <trkpt lat="42.26848" lon="2.48525">
        <ele>951.3</ele>
        <time>2020-03-05T01:14:29.271Z</time>
      </trkpt>
      <trkpt lat="42.26854" lon="2.48525">
        <ele>954.4</ele>
        <time>2020-03-05T01:14:36.555Z</time>
      </trkpt>
      <trkpt lat="42.26862" lon="2.48533">
        <ele>957</ele>
        <time>2020-03-05T01:14:47.563Z</time>
      </trkpt>
      <trkpt lat="42.26863" lon="2.48535">
        <ele>957.8</ele>
        <time>2020-03-05T01:14:50.468Z</time>
      </trkpt>
      <trkpt lat="42.26869" lon="2.48536">
        <ele>960.8</ele>
        <time>2020-03-05T01:14:56.904Z</time>
      </trkpt>
      <trkpt lat="42.26876" lon="2.48547">
        <ele>963.4</ele>
        <time>2020-03-05T01:15:09.795Z</time>
      </trkpt>
      <trkpt lat="42.26885" lon="2.48551">
        <ele>967.3</ele>
        <time>2020-03-05T01:15:21.252Z</time>
      </trkpt>
      <trkpt lat="42.26895" lon="2.48555">
        <ele>970.6</ele>
        <time>2020-03-05T01:15:32.899Z</time>
      </trkpt>
      <trkpt lat="42.26903" lon="2.48569">
        <ele>972.5</ele>
        <time>2020-03-05T01:15:47.940Z</time>
      </trkpt>
      <trkpt lat="42.26915" lon="2.48576">
        <ele>975.8</ele>
        <time>2020-03-05T01:16:03.249Z</time>
      </trkpt>
      <trkpt lat="42.26928" lon="2.48579">
        <ele>977.3</ele>
        <time>2020-03-05T01:16:17.535Z</time>
      </trkpt>
      <trkpt lat="42.2693" lon="2.4858">
        <ele>977.5</ele>
        <time>2020-03-05T01:16:20.459Z</time>
      </trkpt>
      <trkpt lat="42.26937" lon="2.48583">
        <ele>977.9</ele>
        <time>2020-03-05T01:16:28.068Z</time>
      </trkpt>
      <trkpt lat="42.26943" lon="2.48581">
        <ele>979.1</ele>
        <time>2020-03-05T01:16:34.794Z</time>
      </trkpt>
      <trkpt lat="42.26947" lon="2.48583">
        <ele>978.9</ele>
        <time>2020-03-05T01:16:40.145Z</time>
      </trkpt>
      <trkpt lat="42.26949" lon="2.48581">
        <ele>978.9</ele>
        <time>2020-03-05T01:16:42.791Z</time>
      </trkpt>
      <trkpt lat="42.26949" lon="2.48581">
        <ele>978.8</ele>
        <time>2020-03-05T01:16:43.313Z</time>
      </trkpt>
      <trkpt lat="42.26951" lon="2.48576">
        <ele>979.3</ele>
        <time>2020-03-05T01:16:48.085Z</time>
      </trkpt>
      <trkpt lat="42.26952" lon="2.48574">
        <ele>979.6</ele>
        <time>2020-03-05T01:16:49.938Z</time>
      </trkpt>
      <trkpt lat="42.26948" lon="2.4857">
        <ele>980.6</ele>
        <time>2020-03-05T01:16:55.250Z</time>
      </trkpt>
      <trkpt lat="42.26944" lon="2.48563">
        <ele>981.9</ele>
        <time>2020-03-05T01:17:02.437Z</time>
      </trkpt>
      <trkpt lat="42.26938" lon="2.48552">
        <ele>983.1</ele>
        <time>2020-03-05T01:17:14.493Z</time>
      </trkpt>
      <trkpt lat="42.26935" lon="2.48543">
        <ele>984.9</ele>
        <time>2020-03-05T01:17:22.633Z</time>
      </trkpt>
      <trkpt lat="42.26928" lon="2.48533">
        <ele>986.9</ele>
        <time>2020-03-05T01:17:34.277Z</time>
      </trkpt>
      <trkpt lat="42.26925" lon="2.48521">
        <ele>990.7</ele>
        <time>2020-03-05T01:17:44.967Z</time>
      </trkpt>
      <trkpt lat="42.26917" lon="2.48511">
        <ele>994.3</ele>
        <time>2020-03-05T01:17:57.919Z</time>
      </trkpt>
      <trkpt lat="42.26916" lon="2.4851">
        <ele>994.2</ele>
        <time>2020-03-05T01:17:59.136Z</time>
      </trkpt>
      <trkpt lat="42.26909" lon="2.48497">
        <ele>995.7</ele>
        <time>2020-03-05T01:18:13.141Z</time>
      </trkpt>
      <trkpt lat="42.269" lon="2.4848">
        <ele>997</ele>
        <time>2020-03-05T01:18:30.115Z</time>
      </trkpt>
      <trkpt lat="42.26896" lon="2.48471">
        <ele>998.3</ele>
        <time>2020-03-05T01:18:38.754Z</time>
      </trkpt>
      <trkpt lat="42.2689" lon="2.48452">
        <ele>1002.7</ele>
        <time>2020-03-05T01:18:56.800Z</time>
      </trkpt>
      <trkpt lat="42.26879" lon="2.48434">
        <ele>1007.3</ele>
        <time>2020-03-05T01:19:16.348Z</time>
      </trkpt>
      <trkpt lat="42.26877" lon="2.48431">
        <ele>1008.3</ele>
        <time>2020-03-05T01:19:19.641Z</time>
      </trkpt>
      <trkpt lat="42.2687" lon="2.48423">
        <ele>1009.9</ele>
        <time>2020-03-05T01:19:30.338Z</time>
      </trkpt>
      <trkpt lat="42.2686" lon="2.48412">
        <ele>1012.6</ele>
        <time>2020-03-05T01:19:44.805Z</time>
      </trkpt>
      <trkpt lat="42.26846" lon="2.48407">
        <ele>1016.3</ele>
        <time>2020-03-05T01:20:02.304Z</time>
      </trkpt>
      <trkpt lat="42.26836" lon="2.48404">
        <ele>1018.2</ele>
        <time>2020-03-05T01:20:13.560Z</time>
      </trkpt>
      <trkpt lat="42.26821" lon="2.48401">
        <ele>1020.6</ele>
        <time>2020-03-05T01:20:30.037Z</time>
      </trkpt>
      <trkpt lat="42.26818" lon="2.48402">
        <ele>1020.3</ele>
        <time>2020-03-05T01:20:34.067Z</time>
      </trkpt>
      <trkpt lat="42.26803" lon="2.48414">
        <ele>1018.9</ele>
        <time>2020-03-05T01:20:53.957Z</time>
      </trkpt>
      <trkpt lat="42.26796" lon="2.48417">
        <ele>1016.5</ele>
        <time>2020-03-05T01:21:01.947Z</time>
      </trkpt>
      <trkpt lat="42.26794" lon="2.48418">
        <ele>1015.1</ele>
        <time>2020-03-05T01:21:05.264Z</time>
      </trkpt>
      <trkpt lat="42.2681" lon="2.48408">
        <ele>1019.6</ele>
        <time>2020-03-05T01:21:25.863Z</time>
      </trkpt>
      <trkpt lat="42.2681" lon="2.48405">
        <ele>1020.3</ele>
        <time>2020-03-05T01:21:28.756Z</time>
      </trkpt>
      <trkpt lat="42.26814" lon="2.48395">
        <ele>1022.6</ele>
        <time>2020-03-05T01:21:38.727Z</time>
      </trkpt>
      <trkpt lat="42.26829" lon="2.48386">
        <ele>1026.7</ele>
        <time>2020-03-05T01:21:56.935Z</time>
      </trkpt>
      <trkpt lat="42.26846" lon="2.4838">
        <ele>1030</ele>
        <time>2020-03-05T01:22:17.007Z</time>
      </trkpt>
      <trkpt lat="42.26859" lon="2.48376">
        <ele>1031.8</ele>
        <time>2020-03-05T01:22:31.619Z</time>
      </trkpt>
      <trkpt lat="42.26872" lon="2.48376">
        <ele>1033.7</ele>
        <time>2020-03-05T01:22:47.296Z</time>
      </trkpt>
      <trkpt lat="42.26882" lon="2.4837">
        <ele>1037.4</ele>
        <time>2020-03-05T01:22:59.404Z</time>
      </trkpt>
      <trkpt lat="42.26889" lon="2.48363">
        <ele>1040.3</ele>
        <time>2020-03-05T01:23:10.070Z</time>
      </trkpt>
      <trkpt lat="42.26899" lon="2.48352">
        <ele>1043.6</ele>
        <time>2020-03-05T01:23:24.449Z</time>
      </trkpt>
      <trkpt lat="42.269" lon="2.48344">
        <ele>1046.5</ele>
        <time>2020-03-05T01:23:32.129Z</time>
      </trkpt>
      <trkpt lat="42.26901" lon="2.48334">
        <ele>1049.7</ele>
        <time>2020-03-05T01:23:40.854Z</time>
      </trkpt>
      <trkpt lat="42.269" lon="2.4833">
        <ele>1051.6</ele>
        <time>2020-03-05T01:23:44.664Z</time>
      </trkpt>
      <trkpt lat="42.26899" lon="2.4833">
        <ele>1051.8</ele>
        <time>2020-03-05T01:23:45.111Z</time>
      </trkpt>
      <trkpt lat="42.26899" lon="2.48324">
        <ele>1053.8</ele>
        <time>2020-03-05T01:23:50.723Z</time>
      </trkpt>
      <trkpt lat="42.26896" lon="2.48319">
        <ele>1057.4</ele>
        <time>2020-03-05T01:23:57.459Z</time>
      </trkpt>
      <trkpt lat="42.26891" lon="2.48314">
        <ele>1062.2</ele>
        <time>2020-03-05T01:24:05.773Z</time>
      </trkpt>
      <trkpt lat="42.26889" lon="2.48311">
        <ele>1064.6</ele>
        <time>2020-03-05T01:24:09.733Z</time>
      </trkpt>
      <trkpt lat="42.26885" lon="2.48308">
        <ele>1066.4</ele>
        <time>2020-03-05T01:24:15.620Z</time>
      </trkpt>
      <trkpt lat="42.26885" lon="2.48312">
        <ele>1064.4</ele>
        <time>2020-03-05T01:24:19.844Z</time>
      </trkpt>
      <trkpt lat="42.26881" lon="2.4831">
        <ele>1065.6</ele>
        <time>2020-03-05T01:24:24.870Z</time>
      </trkpt>
      <trkpt lat="42.2688" lon="2.48312">
        <ele>1064.9</ele>
        <time>2020-03-05T01:24:26.935Z</time>
      </trkpt>
      <trkpt lat="42.2688" lon="2.48308">
        <ele>1066.2</ele>
        <time>2020-03-05T01:24:30.052Z</time>
      </trkpt>
      <trkpt lat="42.26881" lon="2.48307">
        <ele>1066.7</ele>
        <time>2020-03-05T01:24:31.800Z</time>
      </trkpt>
      <trkpt lat="42.26882" lon="2.48307">
        <ele>1066.7</ele>
        <time>2020-03-05T01:24:32.813Z</time>
      </trkpt>
      <trkpt lat="42.26882" lon="2.48307">
        <ele>1066.7</ele>
        <time>2020-03-05T01:24:33.083Z</time>
      </trkpt>
      <trkpt lat="42.26882" lon="2.48307">
        <ele>1066.8</ele>
        <time>2020-03-05T01:24:33.157Z</time>
      </trkpt>
      <trkpt lat="42.26882" lon="2.48307">
        <ele>1066.7</ele>
        <time>2020-03-05T01:24:33.294Z</time>
      </trkpt>
      <trkpt lat="42.26882" lon="2.48307">
        <ele>1066.5</ele>
        <time>2020-03-05T01:24:33.728Z</time>
      </trkpt>
      <trkpt lat="42.26881" lon="2.48307">
        <ele>1066.8</ele>
        <time>2020-03-05T01:24:35.253Z</time>
      </trkpt>
      <trkpt lat="42.26881" lon="2.48307">
        <ele>1066.9</ele>
        <time>2020-03-05T01:24:35.741Z</time>
      </trkpt>
      <trkpt lat="42.26882" lon="2.48306">
        <ele>1067.1</ele>
        <time>2020-03-05T01:24:36.721Z</time>
      </trkpt>
      <trkpt lat="42.26882" lon="2.48306">
        <ele>1067.1</ele>
        <time>2020-03-05T01:24:36.865Z</time>
      </trkpt>
      <trkpt lat="42.26881" lon="2.48307">
        <ele>1066.7</ele>
        <time>2020-03-05T01:24:38.062Z</time>
      </trkpt>
      <trkpt lat="42.26881" lon="2.48307">
        <ele>1066.6</ele>
        <time>2020-03-05T01:24:38.520Z</time>
      </trkpt>
      <trkpt lat="42.26881" lon="2.48307">
        <ele>1066.7</ele>
        <time>2020-03-05T01:24:38.595Z</time>
      </trkpt>
      <trkpt lat="42.26881" lon="2.48307">
        <ele>1066.6</ele>
        <time>2020-03-05T01:24:38.850Z</time>
      </trkpt>
      <trkpt lat="42.26881" lon="2.48307">
        <ele>1066.6</ele>
        <time>2020-03-05T01:24:38.963Z</time>
      </trkpt>
      <trkpt lat="42.26881" lon="2.48308">
        <ele>1066.4</ele>
        <time>2020-03-05T01:24:39.711Z</time>
      </trkpt>
      <trkpt lat="42.26881" lon="2.48308">
        <ele>1066.5</ele>
        <time>2020-03-05T01:24:40.144Z</time>
      </trkpt>
      <trkpt lat="42.26881" lon="2.48308">
        <ele>1066.4</ele>
        <time>2020-03-05T01:24:40.600Z</time>
      </trkpt>
      <trkpt lat="42.26881" lon="2.48308">
        <ele>1066.3</ele>
        <time>2020-03-05T01:24:40.895Z</time>
      </trkpt>
      <trkpt lat="42.2688" lon="2.48309">
        <ele>1066.2</ele>
        <time>2020-03-05T01:24:41.795Z</time>
      </trkpt>
      <trkpt lat="42.26881" lon="2.48308">
        <ele>1066.5</ele>
        <time>2020-03-05T01:24:43.613Z</time>
      </trkpt>
      <trkpt lat="42.26884" lon="2.48303">
        <ele>1067.4</ele>
        <time>2020-03-05T01:24:48.413Z</time>
      </trkpt>
      <trkpt lat="42.26886" lon="2.48298">
        <ele>1067.7</ele>
        <time>2020-03-05T01:24:53.558Z</time>
      </trkpt>
      <trkpt lat="42.26888" lon="2.48291">
        <ele>1068.5</ele>
        <time>2020-03-05T01:24:58.984Z</time>
      </trkpt>
      <trkpt lat="42.2689" lon="2.48286">
        <ele>1068.4</ele>
        <time>2020-03-05T01:25:04.248Z</time>
      </trkpt>
      <trkpt lat="42.26892" lon="2.48284">
        <ele>1067.6</ele>
        <time>2020-03-05T01:25:06.819Z</time>
      </trkpt>
      <trkpt lat="42.26895" lon="2.48275">
        <ele>1066.5</ele>
        <time>2020-03-05T01:25:15.379Z</time>
      </trkpt>
      <trkpt lat="42.26899" lon="2.48266">
        <ele>1064.8</ele>
        <time>2020-03-05T01:25:23.886Z</time>
      </trkpt>
      <trkpt lat="42.26902" lon="2.48262">
        <ele>1063.6</ele>
        <time>2020-03-05T01:25:29.193Z</time>
      </trkpt>
      <trkpt lat="42.26903" lon="2.48254">
        <ele>1063.5</ele>
        <time>2020-03-05T01:25:35.835Z</time>
      </trkpt>
      <trkpt lat="42.26905" lon="2.48247">
        <ele>1063.1</ele>
        <time>2020-03-05T01:25:42.373Z</time>
      </trkpt>
      <trkpt lat="42.26908" lon="2.48236">
        <ele>1062.1</ele>
        <time>2020-03-05T01:25:51.878Z</time>
      </trkpt>
      <trkpt lat="42.26908" lon="2.48231">
        <ele>1061.9</ele>
        <time>2020-03-05T01:25:56.103Z</time>
      </trkpt>
      <trkpt lat="42.26913" lon="2.48224">
        <ele>1061.3</ele>
        <time>2020-03-05T01:26:03.769Z</time>
      </trkpt>
      <trkpt lat="42.26914" lon="2.48213">
        <ele>1060.7</ele>
        <time>2020-03-05T01:26:12.502Z</time>
      </trkpt>
      <trkpt lat="42.26914" lon="2.48202">
        <ele>1060.1</ele>
        <time>2020-03-05T01:26:21.664Z</time>
      </trkpt>
      <trkpt lat="42.26915" lon="2.48199">
        <ele>1060.2</ele>
        <time>2020-03-05T01:26:24.743Z</time>
      </trkpt>
      <trkpt lat="42.26918" lon="2.48189">
        <ele>1057.6</ele>
        <time>2020-03-05T01:26:33.811Z</time>
      </trkpt>
      <trkpt lat="42.26919" lon="2.48187">
        <ele>1055.8</ele>
        <time>2020-03-05T01:26:36.493Z</time>
      </trkpt>
      <trkpt lat="42.2692" lon="2.48182">
        <ele>1053</ele>
        <time>2020-03-05T01:26:42.057Z</time>
      </trkpt>
      <trkpt lat="42.26919" lon="2.48177">
        <ele>1052.8</ele>
        <time>2020-03-05T01:26:45.662Z</time>
      </trkpt>
      <trkpt lat="42.2692" lon="2.48173">
        <ele>1050.9</ele>
        <time>2020-03-05T01:26:49.648Z</time>
      </trkpt>
      <trkpt lat="42.26922" lon="2.4817">
        <ele>1048.4</ele>
        <time>2020-03-05T01:26:54.114Z</time>
      </trkpt>
      <trkpt lat="42.26922" lon="2.48163">
        <ele>1046.3</ele>
        <time>2020-03-05T01:26:59.852Z</time>
      </trkpt>
      <trkpt lat="42.26921" lon="2.48155">
        <ele>1045.3</ele>
        <time>2020-03-05T01:27:06.934Z</time>
      </trkpt>
      <trkpt lat="42.26919" lon="2.48147">
        <ele>1043.8</ele>
        <time>2020-03-05T01:27:14.153Z</time>
      </trkpt>
      <trkpt lat="42.26916" lon="2.4814">
        <ele>1043.1</ele>
        <time>2020-03-05T01:27:21.120Z</time>
      </trkpt>
      <trkpt lat="42.26914" lon="2.48135">
        <ele>1041.7</ele>
        <time>2020-03-05T01:27:25.400Z</time>
      </trkpt>
      <trkpt lat="42.2691" lon="2.48133">
        <ele>1040.6</ele>
        <time>2020-03-05T01:27:30.526Z</time>
      </trkpt>
      <trkpt lat="42.26908" lon="2.48129">
        <ele>1039.1</ele>
        <time>2020-03-05T01:27:34.663Z</time>
      </trkpt>
      <trkpt lat="42.26909" lon="2.48127">
        <ele>1038.5</ele>
        <time>2020-03-05T01:27:36.585Z</time>
      </trkpt>
      <trkpt lat="42.26909" lon="2.48122">
        <ele>1036.7</ele>
        <time>2020-03-05T01:27:41.508Z</time>
      </trkpt>
      <trkpt lat="42.2691" lon="2.48113">
        <ele>1034.3</ele>
        <time>2020-03-05T01:27:49.132Z</time>
      </trkpt>
      <trkpt lat="42.26914" lon="2.48108">
        <ele>1032.6</ele>
        <time>2020-03-05T01:27:55.445Z</time>
      </trkpt>
      <trkpt lat="42.26917" lon="2.48101">
        <ele>1030.5</ele>
        <time>2020-03-05T01:28:01.874Z</time>
      </trkpt>
      <trkpt lat="42.26924" lon="2.48097">
        <ele>1024.9</ele>
        <time>2020-03-05T01:28:12.860Z</time>
      </trkpt>
      <trkpt lat="42.26925" lon="2.48088">
        <ele>1021.8</ele>
        <time>2020-03-05T01:28:21.124Z</time>
      </trkpt>
      <trkpt lat="42.26923" lon="2.48081">
        <ele>1020.4</ele>
        <time>2020-03-05T01:28:27.073Z</time>
      </trkpt>
      <trkpt lat="42.26923" lon="2.48076">
        <ele>1019</ele>
        <time>2020-03-05T01:28:31.868Z</time>
      </trkpt>
      <trkpt lat="42.26921" lon="2.48067">
        <ele>1016.9</ele>
        <time>2020-03-05T01:28:39.567Z</time>
      </trkpt>
      <trkpt lat="42.26916" lon="2.48055">
        <ele>1015</ele>
        <time>2020-03-05T01:28:51.338Z</time>
      </trkpt>
      <trkpt lat="42.26909" lon="2.48049">
        <ele>1012.8</ele>
        <time>2020-03-05T01:29:00.290Z</time>
      </trkpt>
      <trkpt lat="42.26905" lon="2.4804">
        <ele>1010</ele>
        <time>2020-03-05T01:29:09.492Z</time>
      </trkpt>
      <trkpt lat="42.26902" lon="2.48032">
        <ele>1007.4</ele>
        <time>2020-03-05T01:29:17.386Z</time>
      </trkpt>
      <trkpt lat="42.26895" lon="2.48024">
        <ele>1004.4</ele>
        <time>2020-03-05T01:29:28.255Z</time>
      </trkpt>
      <trkpt lat="42.26886" lon="2.4802">
        <ele>1002</ele>
        <time>2020-03-05T01:29:39.440Z</time>
      </trkpt>
      <trkpt lat="42.26873" lon="2.4801">
        <ele>997.7</ele>
        <time>2020-03-05T01:29:55.676Z</time>
      </trkpt>
      <trkpt lat="42.26866" lon="2.47995">
        <ele>993.2</ele>
        <time>2020-03-05T01:30:11.439Z</time>
      </trkpt>
      <trkpt lat="42.2687" lon="2.47982">
        <ele>990.1</ele>
        <time>2020-03-05T01:30:23.083Z</time>
      </trkpt>
      <trkpt lat="42.26864" lon="2.4797">
        <ele>986.6</ele>
        <time>2020-03-05T01:30:35.632Z</time>
      </trkpt>
      <trkpt lat="42.2686" lon="2.4796">
        <ele>983.7</ele>
        <time>2020-03-05T01:30:45.400Z</time>
      </trkpt>
      <trkpt lat="42.26854" lon="2.47943">
        <ele>978.5</ele>
        <time>2020-03-05T01:31:01.866Z</time>
      </trkpt>
      <trkpt lat="42.26848" lon="2.47934">
        <ele>975.3</ele>
        <time>2020-03-05T01:31:12.359Z</time>
      </trkpt>
      <trkpt lat="42.26842" lon="2.47926">
        <ele>972.8</ele>
        <time>2020-03-05T01:31:22.420Z</time>
      </trkpt>
      <trkpt lat="42.26833" lon="2.47918">
        <ele>970.4</ele>
        <time>2020-03-05T01:31:34.081Z</time>
      </trkpt>
      <trkpt lat="42.26825" lon="2.47905">
        <ele>966.6</ele>
        <time>2020-03-05T01:31:49.275Z</time>
      </trkpt>
      <trkpt lat="42.26821" lon="2.47898">
        <ele>965.6</ele>
        <time>2020-03-05T01:31:56.019Z</time>
      </trkpt>
      <trkpt lat="42.26821" lon="2.47895">
        <ele>965.4</ele>
        <time>2020-03-05T01:31:59.066Z</time>
      </trkpt>
      <trkpt lat="42.26815" lon="2.47895">
        <ele>964.6</ele>
        <time>2020-03-05T01:32:06.185Z</time>
      </trkpt>
      <trkpt lat="42.26813" lon="2.47897">
        <ele>964.6</ele>
        <time>2020-03-05T01:32:08.142Z</time>
      </trkpt>
      <trkpt lat="42.26805" lon="2.47903">
        <ele>963.1</ele>
        <time>2020-03-05T01:32:18.740Z</time>
      </trkpt>
      <trkpt lat="42.268" lon="2.47906">
        <ele>962.3</ele>
        <time>2020-03-05T01:32:25.029Z</time>
      </trkpt>
      <trkpt lat="42.26796" lon="2.47918">
        <ele>960.1</ele>
        <time>2020-03-05T01:32:36.143Z</time>
      </trkpt>
      <trkpt lat="42.26794" lon="2.47919">
        <ele>959.8</ele>
        <time>2020-03-05T01:32:38.570Z</time>
      </trkpt>
      <trkpt lat="42.26783" lon="2.47923">
        <ele>956.9</ele>
        <time>2020-03-05T01:32:51.487Z</time>
      </trkpt>
      <trkpt lat="42.26771" lon="2.47932">
        <ele>953.1</ele>
        <time>2020-03-05T01:33:07.224Z</time>
      </trkpt>
      <trkpt lat="42.26763" lon="2.47937">
        <ele>950.3</ele>
        <time>2020-03-05T01:33:17.330Z</time>
      </trkpt>
      <trkpt lat="42.26757" lon="2.4794">
        <ele>948</ele>
        <time>2020-03-05T01:33:25.124Z</time>
      </trkpt>
      <trkpt lat="42.26744" lon="2.47942">
        <ele>943.8</ele>
        <time>2020-03-05T01:33:39.846Z</time>
      </trkpt>
      <trkpt lat="42.26733" lon="2.47939">
        <ele>940.9</ele>
        <time>2020-03-05T01:33:52.430Z</time>
      </trkpt>
      <trkpt lat="42.26725" lon="2.47938">
        <ele>938.5</ele>
        <time>2020-03-05T01:34:02.109Z</time>
      </trkpt>
      <trkpt lat="42.26718" lon="2.47938">
        <ele>935.6</ele>
        <time>2020-03-05T01:34:10.158Z</time>
      </trkpt>
      <trkpt lat="42.26711" lon="2.47938">
        <ele>932.5</ele>
        <time>2020-03-05T01:34:19.143Z</time>
      </trkpt>
      <trkpt lat="42.26703" lon="2.47937">
        <ele>929.1</ele>
        <time>2020-03-05T01:34:28.854Z</time>
      </trkpt>
      <trkpt lat="42.26694" lon="2.47937">
        <ele>925.2</ele>
        <time>2020-03-05T01:34:39.428Z</time>
      </trkpt>
      <trkpt lat="42.26688" lon="2.47935">
        <ele>923.1</ele>
        <time>2020-03-05T01:34:46.610Z</time>
      </trkpt>
      <trkpt lat="42.26678" lon="2.47929">
        <ele>919.2</ele>
        <time>2020-03-05T01:34:59.714Z</time>
      </trkpt>
      <trkpt lat="42.26668" lon="2.47922">
        <ele>916.3</ele>
        <time>2020-03-05T01:35:12.317Z</time>
      </trkpt>
      <trkpt lat="42.26661" lon="2.47916">
        <ele>913.4</ele>
        <time>2020-03-05T01:35:22.401Z</time>
      </trkpt>
      <trkpt lat="42.26653" lon="2.47911">
        <ele>910.5</ele>
        <time>2020-03-05T01:35:32.817Z</time>
      </trkpt>
      <trkpt lat="42.26646" lon="2.47908">
        <ele>907.7</ele>
        <time>2020-03-05T01:35:40.860Z</time>
      </trkpt>
      <trkpt lat="42.2664" lon="2.479">
        <ele>906.9</ele>
        <time>2020-03-05T01:35:50.957Z</time>
      </trkpt>
      <trkpt lat="42.26634" lon="2.47896">
        <ele>904.8</ele>
        <time>2020-03-05T01:35:58.273Z</time>
      </trkpt>
      <trkpt lat="42.2663" lon="2.47883">
        <ele>907.2</ele>
        <time>2020-03-05T01:36:10.182Z</time>
      </trkpt>
      <trkpt lat="42.26625" lon="2.47867">
        <ele>910.5</ele>
        <time>2020-03-05T01:36:24.334Z</time>
      </trkpt>
      <trkpt lat="42.26618" lon="2.47853">
        <ele>905.3</ele>
        <time>2020-03-05T01:36:39.660Z</time>
      </trkpt>
      <trkpt lat="42.2661" lon="2.47841">
        <ele>898.7</ele>
        <time>2020-03-05T01:36:54.565Z</time>
      </trkpt>
      <trkpt lat="42.26602" lon="2.47824">
        <ele>896.5</ele>
        <time>2020-03-05T01:37:11.701Z</time>
      </trkpt>
      <trkpt lat="42.26599" lon="2.47819">
        <ele>895.6</ele>
        <time>2020-03-05T01:37:16.786Z</time>
      </trkpt>
      <trkpt lat="42.26593" lon="2.47805">
        <ele>895.4</ele>
        <time>2020-03-05T01:37:30.409Z</time>
      </trkpt>
      <trkpt lat="42.26583" lon="2.47783">
        <ele>892.5</ele>
        <time>2020-03-05T01:37:51.797Z</time>
      </trkpt>
      <trkpt lat="42.26573" lon="2.47764">
        <ele>890</ele>
        <time>2020-03-05T01:38:11.492Z</time>
      </trkpt>
      <trkpt lat="42.26564" lon="2.47757">
        <ele>885.9</ele>
        <time>2020-03-05T01:38:23.671Z</time>
      </trkpt>
      <trkpt lat="42.26556" lon="2.47744">
        <ele>882.9</ele>
        <time>2020-03-05T01:38:37.799Z</time>
      </trkpt>
      <trkpt lat="42.26548" lon="2.47727">
        <ele>880.7</ele>
        <time>2020-03-05T01:38:54.950Z</time>
      </trkpt>
      <trkpt lat="42.26539" lon="2.47704">
        <ele>878.2</ele>
        <time>2020-03-05T01:39:16.408Z</time>
      </trkpt>
      <trkpt lat="42.26531" lon="2.47692">
        <ele>875.1</ele>
        <time>2020-03-05T01:39:30.200Z</time>
      </trkpt>
      <trkpt lat="42.26522" lon="2.47675">
        <ele>871.5</ele>
        <time>2020-03-05T01:39:48.359Z</time>
      </trkpt>
      <trkpt lat="42.26514" lon="2.47666">
        <ele>868.3</ele>
        <time>2020-03-05T01:39:59.752Z</time>
      </trkpt>
      <trkpt lat="42.26505" lon="2.47654">
        <ele>864.7</ele>
        <time>2020-03-05T01:40:14.438Z</time>
      </trkpt>
      <trkpt lat="42.26498" lon="2.47647">
        <ele>861.7</ele>
        <time>2020-03-05T01:40:24.459Z</time>
      </trkpt>
      <trkpt lat="42.26491" lon="2.47636">
        <ele>858.9</ele>
        <time>2020-03-05T01:40:37.195Z</time>
      </trkpt>
      <trkpt lat="42.26484" lon="2.47627">
        <ele>855.5</ele>
        <time>2020-03-05T01:40:48.732Z</time>
      </trkpt>
      <trkpt lat="42.26476" lon="2.47621">
        <ele>851.9</ele>
        <time>2020-03-05T01:40:59.363Z</time>
      </trkpt>
      <trkpt lat="42.2647" lon="2.47609">
        <ele>849.1</ele>
        <time>2020-03-05T01:41:11.894Z</time>
      </trkpt>
      <trkpt lat="42.26462" lon="2.47604">
        <ele>846</ele>
        <time>2020-03-05T01:41:22.147Z</time>
      </trkpt>
      <trkpt lat="42.26457" lon="2.47587">
        <ele>843.5</ele>
        <time>2020-03-05T01:41:37.396Z</time>
      </trkpt>
      <trkpt lat="42.26453" lon="2.47584">
        <ele>842</ele>
        <time>2020-03-05T01:41:42.815Z</time>
      </trkpt>
      <trkpt lat="42.26451" lon="2.47579">
        <ele>841.3</ele>
        <time>2020-03-05T01:41:46.936Z</time>
      </trkpt>
      <trkpt lat="42.26443" lon="2.47573">
        <ele>838.4</ele>
        <time>2020-03-05T01:41:57.531Z</time>
      </trkpt>
      <trkpt lat="42.26431" lon="2.4757">
        <ele>834.7</ele>
        <time>2020-03-05T01:42:12.260Z</time>
      </trkpt>
      <trkpt lat="42.26429" lon="2.4757">
        <ele>834.1</ele>
        <time>2020-03-05T01:42:14.208Z</time>
      </trkpt>
      <trkpt lat="42.26416" lon="2.47565">
        <ele>830.3</ele>
        <time>2020-03-05T01:42:29.955Z</time>
      </trkpt>
      <trkpt lat="42.26402" lon="2.47552">
        <ele>826.9</ele>
        <time>2020-03-05T01:42:49.500Z</time>
      </trkpt>
      <trkpt lat="42.26387" lon="2.47546">
        <ele>823.6</ele>
        <time>2020-03-05T01:43:07.173Z</time>
      </trkpt>
      <trkpt lat="42.26381" lon="2.47533">
        <ele>820.9</ele>
        <time>2020-03-05T01:43:19.928Z</time>
      </trkpt>
      <trkpt lat="42.26376" lon="2.47521">
        <ele>818</ele>
        <time>2020-03-05T01:43:32.048Z</time>
      </trkpt>
      <trkpt lat="42.2637" lon="2.47518">
        <ele>816.5</ele>
        <time>2020-03-05T01:43:38.677Z</time>
      </trkpt>
      <trkpt lat="42.26361" lon="2.47514">
        <ele>814.5</ele>
        <time>2020-03-05T01:43:49.972Z</time>
      </trkpt>
      <trkpt lat="42.26356" lon="2.47512">
        <ele>814.4</ele>
        <time>2020-03-05T01:43:55.356Z</time>
      </trkpt>
      <trkpt lat="42.26356" lon="2.4751">
        <ele>814.3</ele>
        <time>2020-03-05T01:43:56.554Z</time>
      </trkpt>
      <trkpt lat="42.26352" lon="2.47503">
        <ele>814</ele>
        <time>2020-03-05T01:44:04.356Z</time>
      </trkpt>
      <trkpt lat="42.26352" lon="2.47502">
        <ele>813.9</ele>
        <time>2020-03-05T01:44:05.223Z</time>
      </trkpt>
      <trkpt lat="42.26347" lon="2.47492">
        <ele>813.3</ele>
        <time>2020-03-05T01:44:14.766Z</time>
      </trkpt>
      <trkpt lat="42.26337" lon="2.47483">
        <ele>813.8</ele>
        <time>2020-03-05T01:44:28.234Z</time>
      </trkpt>
      <trkpt lat="42.26333" lon="2.47481">
        <ele>814.4</ele>
        <time>2020-03-05T01:44:33.449Z</time>
      </trkpt>
      <trkpt lat="42.26324" lon="2.47474">
        <ele>814.4</ele>
        <time>2020-03-05T01:44:45.667Z</time>
      </trkpt>
      <trkpt lat="42.2632" lon="2.47471">
        <ele>814.3</ele>
        <time>2020-03-05T01:44:50.076Z</time>
      </trkpt>
      <trkpt lat="42.26319" lon="2.47463">
        <ele>813.4</ele>
        <time>2020-03-05T01:44:56.571Z</time>
      </trkpt>
      <trkpt lat="42.26321" lon="2.47457">
        <ele>812.5</ele>
        <time>2020-03-05T01:45:02.295Z</time>
      </trkpt>
      <trkpt lat="42.26322" lon="2.47453">
        <ele>812</ele>
        <time>2020-03-05T01:45:05.824Z</time>
      </trkpt>
      <trkpt lat="42.26321" lon="2.47435">
        <ele>809</ele>
        <time>2020-03-05T01:45:21.172Z</time>
      </trkpt>
      <trkpt lat="42.26322" lon="2.47423">
        <ele>806.6</ele>
        <time>2020-03-05T01:45:30.768Z</time>
      </trkpt>
      <trkpt lat="42.26321" lon="2.47412">
        <ele>803.8</ele>
        <time>2020-03-05T01:45:40.963Z</time>
      </trkpt>
      <trkpt lat="42.26319" lon="2.47401">
        <ele>801.1</ele>
        <time>2020-03-05T01:45:50.227Z</time>
      </trkpt>
      <trkpt lat="42.26317" lon="2.47388">
        <ele>797.7</ele>
        <time>2020-03-05T01:46:01.550Z</time>
      </trkpt>
      <trkpt lat="42.26318" lon="2.47374">
        <ele>794.1</ele>
        <time>2020-03-05T01:46:14.279Z</time>
      </trkpt>
      <trkpt lat="42.26319" lon="2.47371">
        <ele>793.5</ele>
        <time>2020-03-05T01:46:16.921Z</time>
      </trkpt>
      <trkpt lat="42.2632" lon="2.47356">
        <ele>789.7</ele>
        <time>2020-03-05T01:46:30.188Z</time>
      </trkpt>
      <trkpt lat="42.26316" lon="2.47339">
        <ele>785.6</ele>
        <time>2020-03-05T01:46:44.986Z</time>
      </trkpt>
      <trkpt lat="42.26315" lon="2.47327">
        <ele>782.4</ele>
        <time>2020-03-05T01:46:55.886Z</time>
      </trkpt>
      <trkpt lat="42.26307" lon="2.47326">
        <ele>782.3</ele>
        <time>2020-03-05T01:47:05.323Z</time>
      </trkpt>
      <trkpt lat="42.26302" lon="2.47317">
        <ele>779.1</ele>
        <time>2020-03-05T01:47:15.010Z</time>
      </trkpt>
      <trkpt lat="42.26305" lon="2.47295">
        <ele>775.4</ele>
        <time>2020-03-05T01:47:34.022Z</time>
      </trkpt>
      <trkpt lat="42.26308" lon="2.4728">
        <ele>772.3</ele>
        <time>2020-03-05T01:47:46.970Z</time>
      </trkpt>
      <trkpt lat="42.26304" lon="2.47266">
        <ele>769.1</ele>
        <time>2020-03-05T01:47:60.000Z</time>
      </trkpt>
      <trkpt lat="42.26301" lon="2.47254">
        <ele>765.4</ele>
        <time>2020-03-05T01:48:11.317Z</time>
      </trkpt>
      <trkpt lat="42.26298" lon="2.47238">
        <ele>761.3</ele>
        <time>2020-03-05T01:48:25.220Z</time>
      </trkpt>
      <trkpt lat="42.26297" lon="2.47224">
        <ele>758.3</ele>
        <time>2020-03-05T01:48:37.781Z</time>
      </trkpt>
      <trkpt lat="42.26295" lon="2.47209">
        <ele>754.5</ele>
        <time>2020-03-05T01:48:50.724Z</time>
      </trkpt>
      <trkpt lat="42.2629" lon="2.47198">
        <ele>751.1</ele>
        <time>2020-03-05T01:49:01.907Z</time>
      </trkpt>
      <trkpt lat="42.26286" lon="2.47188">
        <ele>747.9</ele>
        <time>2020-03-05T01:49:11.978Z</time>
      </trkpt>
      <trkpt lat="42.26284" lon="2.47178">
        <ele>745.3</ele>
        <time>2020-03-05T01:49:20.918Z</time>
      </trkpt>
      <trkpt lat="42.26283" lon="2.47161">
        <ele>741.5</ele>
        <time>2020-03-05T01:49:35.264Z</time>
      </trkpt>
      <trkpt lat="42.2628" lon="2.47151">
        <ele>739.4</ele>
        <time>2020-03-05T01:49:44.138Z</time>
      </trkpt>
      <trkpt lat="42.26279" lon="2.47143">
        <ele>737.8</ele>
        <time>2020-03-05T01:49:51.695Z</time>
      </trkpt>
      <trkpt lat="42.26272" lon="2.47141">
        <ele>736.4</ele>
        <time>2020-03-05T01:49:59.821Z</time>
      </trkpt>
      <trkpt lat="42.2627" lon="2.47139">
        <ele>736</ele>
        <time>2020-03-05T01:50:02.549Z</time>
      </trkpt>
      <trkpt lat="42.2626" lon="2.47121">
        <ele>733.3</ele>
        <time>2020-03-05T01:50:21.670Z</time>
      </trkpt>
      <trkpt lat="42.2626" lon="2.47118">
        <ele>733.2</ele>
        <time>2020-03-05T01:50:23.441Z</time>
      </trkpt>
      <trkpt lat="42.26261" lon="2.47114">
        <ele>732.8</ele>
        <time>2020-03-05T01:50:26.972Z</time>
      </trkpt>
      <trkpt lat="42.26261" lon="2.47112">
        <ele>732.8</ele>
        <time>2020-03-05T01:50:28.605Z</time>
      </trkpt>
      <trkpt lat="42.26261" lon="2.47111">
        <ele>732.7</ele>
        <time>2020-03-05T01:50:29.697Z</time>
      </trkpt>
      <trkpt lat="42.26268" lon="2.47093">
        <ele>729.9</ele>
        <time>2020-03-05T01:50:46.973Z</time>
      </trkpt>
      <trkpt lat="42.26275" lon="2.47081">
        <ele>727.2</ele>
        <time>2020-03-05T01:50:59.541Z</time>
      </trkpt>
      <trkpt lat="42.26273" lon="2.47073">
        <ele>726.1</ele>
        <time>2020-03-05T01:51:06.302Z</time>
      </trkpt>
      <trkpt lat="42.26268" lon="2.47056">
        <ele>724.6</ele>
        <time>2020-03-05T01:51:21.484Z</time>
      </trkpt>
      <trkpt lat="42.26264" lon="2.47028">
        <ele>720.5</ele>
        <time>2020-03-05T01:51:45.416Z</time>
      </trkpt>
      <trkpt lat="42.26259" lon="2.47004">
        <ele>718.6</ele>
        <time>2020-03-05T01:52:06.101Z</time>
      </trkpt>
      <trkpt lat="42.26256" lon="2.46982">
        <ele>715.7</ele>
        <time>2020-03-05T01:52:25.024Z</time>
      </trkpt>
      <trkpt lat="42.26253" lon="2.46964">
        <ele>713.7</ele>
        <time>2020-03-05T01:52:40.802Z</time>
      </trkpt>
      <trkpt lat="42.26256" lon="2.46945">
        <ele>710</ele>
        <time>2020-03-05T01:52:56.962Z</time>
      </trkpt>
      <trkpt lat="42.26255" lon="2.46924">
        <ele>707.2</ele>
        <time>2020-03-05T01:53:15.206Z</time>
      </trkpt>
      <trkpt lat="42.26251" lon="2.46905">
        <ele>704.7</ele>
        <time>2020-03-05T01:53:31.267Z</time>
      </trkpt>
      <trkpt lat="42.26245" lon="2.46888">
        <ele>701.6</ele>
        <time>2020-03-05T01:53:47.185Z</time>
      </trkpt>
      <trkpt lat="42.26238" lon="2.46873">
        <ele>699.9</ele>
        <time>2020-03-05T01:54:02.284Z</time>
      </trkpt>
      <trkpt lat="42.26233" lon="2.46856">
        <ele>696.3</ele>
        <time>2020-03-05T01:54:17.769Z</time>
      </trkpt>
      <trkpt lat="42.26225" lon="2.46836">
        <ele>692.7</ele>
        <time>2020-03-05T01:54:36.970Z</time>
      </trkpt>
      <trkpt lat="42.2622" lon="2.46822">
        <ele>689.8</ele>
        <time>2020-03-05T01:54:50.122Z</time>
      </trkpt>
      <trkpt lat="42.26214" lon="2.46808">
        <ele>687.2</ele>
        <time>2020-03-05T01:55:04.092Z</time>
      </trkpt>
      <trkpt lat="42.26205" lon="2.4679">
        <ele>685.2</ele>
        <time>2020-03-05T01:55:21.923Z</time>
      </trkpt>
      <trkpt lat="42.26203" lon="2.46773">
        <ele>681.2</ele>
        <time>2020-03-05T01:55:37.342Z</time>
      </trkpt>
      <trkpt lat="42.262" lon="2.46752">
        <ele>677.8</ele>
        <time>2020-03-05T01:55:54.743Z</time>
      </trkpt>
      <trkpt lat="42.26189" lon="2.46735">
        <ele>675.3</ele>
        <time>2020-03-05T01:56:13.632Z</time>
      </trkpt>
      <trkpt lat="42.26188" lon="2.46719">
        <ele>671.9</ele>
        <time>2020-03-05T01:56:27.123Z</time>
      </trkpt>
      <trkpt lat="42.2618" lon="2.46711">
        <ele>669.5</ele>
        <time>2020-03-05T01:56:38.801Z</time>
      </trkpt>
      <trkpt lat="42.26176" lon="2.46693">
        <ele>666.1</ele>
        <time>2020-03-05T01:56:54.467Z</time>
      </trkpt>
      <trkpt lat="42.26178" lon="2.46672">
        <ele>662.8</ele>
        <time>2020-03-05T01:57:11.758Z</time>
      </trkpt>
      <trkpt lat="42.26183" lon="2.46659">
        <ele>660.9</ele>
        <time>2020-03-05T01:57:24.545Z</time>
      </trkpt>
      <trkpt lat="42.26173" lon="2.46653">
        <ele>659.3</ele>
        <time>2020-03-05T01:57:36.960Z</time>
      </trkpt>
      <trkpt lat="42.26168" lon="2.46648">
        <ele>658.4</ele>
        <time>2020-03-05T01:57:43.986Z</time>
      </trkpt>
      <trkpt lat="42.26169" lon="2.46646">
        <ele>658.1</ele>
        <time>2020-03-05T01:57:46.034Z</time>
      </trkpt>
      <trkpt lat="42.2617" lon="2.46634">
        <ele>656</ele>
        <time>2020-03-05T01:57:55.647Z</time>
      </trkpt>
      <trkpt lat="42.26172" lon="2.46626">
        <ele>654</ele>
        <time>2020-03-05T01:58:03.116Z</time>
      </trkpt>
      <trkpt lat="42.2618" lon="2.46614">
        <ele>650.7</ele>
        <time>2020-03-05T01:58:17.066Z</time>
      </trkpt>
      <trkpt lat="42.2618" lon="2.46608">
        <ele>649.1</ele>
        <time>2020-03-05T01:58:22.138Z</time>
      </trkpt>
      <trkpt lat="42.26185" lon="2.466">
        <ele>646.5</ele>
        <time>2020-03-05T01:58:31.770Z</time>
      </trkpt>
      <trkpt lat="42.26191" lon="2.46585">
        <ele>642.3</ele>
        <time>2020-03-05T01:58:45.796Z</time>
      </trkpt>
      <trkpt lat="42.262" lon="2.46573">
        <ele>638.3</ele>
        <time>2020-03-05T01:59:01.272Z</time>
      </trkpt>
      <trkpt lat="42.26208" lon="2.46562">
        <ele>634.7</ele>
        <time>2020-03-05T01:59:14.292Z</time>
      </trkpt>
      <trkpt lat="42.26201" lon="2.4655">
        <ele>632.8</ele>
        <time>2020-03-05T01:59:26.921Z</time>
      </trkpt>
      <trkpt lat="42.26206" lon="2.46538">
        <ele>628.7</ele>
        <time>2020-03-05T01:59:39.646Z</time>
      </trkpt>
      <trkpt lat="42.26209" lon="2.46526">
        <ele>625.5</ele>
        <time>2020-03-05T01:59:50.426Z</time>
      </trkpt>
      <trkpt lat="42.26215" lon="2.46517">
        <ele>623.2</ele>
        <time>2020-03-05T01:59:59.970Z</time>
      </trkpt>
      <trkpt lat="42.26228" lon="2.46507">
        <ele>620.5</ele>
        <time>2020-03-05T02:00:17.387Z</time>
      </trkpt>
      <trkpt lat="42.26233" lon="2.46493">
        <ele>616.3</ele>
        <time>2020-03-05T02:00:31.474Z</time>
      </trkpt>
      <trkpt lat="42.26236" lon="2.46485">
        <ele>614.2</ele>
        <time>2020-03-05T02:00:38.678Z</time>
      </trkpt>
      <trkpt lat="42.26249" lon="2.46475">
        <ele>612.3</ele>
        <time>2020-03-05T02:00:55.509Z</time>
      </trkpt>
      <trkpt lat="42.26256" lon="2.46473">
        <ele>611.1</ele>
        <time>2020-03-05T02:01:03.480Z</time>
      </trkpt>
      <trkpt lat="42.26262" lon="2.46468">
        <ele>608.8</ele>
        <time>2020-03-05T02:01:12.177Z</time>
      </trkpt>
      <trkpt lat="42.26264" lon="2.46462">
        <ele>607.5</ele>
        <time>2020-03-05T02:01:17.826Z</time>
      </trkpt>
      <trkpt lat="42.2627" lon="2.46447">
        <ele>605.3</ele>
        <time>2020-03-05T02:01:31.264Z</time>
      </trkpt>
      <trkpt lat="42.26276" lon="2.46435">
        <ele>603</ele>
        <time>2020-03-05T02:01:43.481Z</time>
      </trkpt>
      <trkpt lat="42.26285" lon="2.46422">
        <ele>599.9</ele>
        <time>2020-03-05T02:01:59.419Z</time>
      </trkpt>
      <trkpt lat="42.26294" lon="2.46404">
        <ele>596.9</ele>
        <time>2020-03-05T02:02:17.349Z</time>
      </trkpt>
      <trkpt lat="42.26292" lon="2.46395">
        <ele>594.7</ele>
        <time>2020-03-05T02:02:25.261Z</time>
      </trkpt>
      <trkpt lat="42.26284" lon="2.46403">
        <ele>594.7</ele>
        <time>2020-03-05T02:02:36.223Z</time>
      </trkpt>
      <trkpt lat="42.26271" lon="2.46413">
        <ele>595.1</ele>
        <time>2020-03-05T02:02:53.256Z</time>
      </trkpt>
      <trkpt lat="42.26254" lon="2.46419">
        <ele>592</ele>
        <time>2020-03-05T02:03:13.735Z</time>
      </trkpt>
      <trkpt lat="42.26237" lon="2.46423">
        <ele>590.2</ele>
        <time>2020-03-05T02:03:32.464Z</time>
      </trkpt>
      <trkpt lat="42.2623" lon="2.46423">
        <ele>588.8</ele>
        <time>2020-03-05T02:03:41.415Z</time>
      </trkpt>
      <trkpt lat="42.26221" lon="2.46424">
        <ele>587.6</ele>
        <time>2020-03-05T02:03:51.253Z</time>
      </trkpt>
      <trkpt lat="42.26206" lon="2.46423">
        <ele>586.5</ele>
        <time>2020-03-05T02:04:08.327Z</time>
      </trkpt>
      <trkpt lat="42.26201" lon="2.46421">
        <ele>585.5</ele>
        <time>2020-03-05T02:04:13.673Z</time>
      </trkpt>
      <trkpt lat="42.26202" lon="2.46415">
        <ele>584.8</ele>
        <time>2020-03-05T02:04:18.686Z</time>
      </trkpt>
      <trkpt lat="42.26203" lon="2.46408">
        <ele>586.9</ele>
        <time>2020-03-05T02:04:24.765Z</time>
      </trkpt>
      <trkpt lat="42.26209" lon="2.464">
        <ele>588.5</ele>
        <time>2020-03-05T02:04:34.174Z</time>
      </trkpt>
      <trkpt lat="42.26224" lon="2.4639">
        <ele>587.7</ele>
        <time>2020-03-05T02:04:53.700Z</time>
      </trkpt>
      <trkpt lat="42.26239" lon="2.46377">
        <ele>587.7</ele>
        <time>2020-03-05T02:05:13.417Z</time>
      </trkpt>
      <trkpt lat="42.26249" lon="2.46357">
        <ele>587.3</ele>
        <time>2020-03-05T02:05:33.565Z</time>
      </trkpt>
      <trkpt lat="42.26259" lon="2.46327">
        <ele>587.2</ele>
        <time>2020-03-05T02:06:00.263Z</time>
      </trkpt>
      <trkpt lat="42.26262" lon="2.46299">
        <ele>586.3</ele>
        <time>2020-03-05T02:06:23.862Z</time>
      </trkpt>
      <trkpt lat="42.2626" lon="2.46281">
        <ele>585.8</ele>
        <time>2020-03-05T02:06:38.657Z</time>
      </trkpt>
      <trkpt lat="42.26255" lon="2.46274">
        <ele>586.7</ele>
        <time>2020-03-05T02:06:46.959Z</time>
      </trkpt>
      <trkpt lat="42.26255" lon="2.46273">
        <ele>586.8</ele>
        <time>2020-03-05T02:06:47.997Z</time>
      </trkpt>
      <trkpt lat="42.26248" lon="2.46267">
        <ele>588</ele>
        <time>2020-03-05T02:06:56.991Z</time>
      </trkpt>
      <trkpt lat="42.2624" lon="2.46249">
        <ele>587.2</ele>
        <time>2020-03-05T02:07:14.561Z</time>
      </trkpt>
      <trkpt lat="42.26226" lon="2.46236">
        <ele>587.2</ele>
        <time>2020-03-05T02:07:33.664Z</time>
      </trkpt>
      <trkpt lat="42.26222" lon="2.46232">
        <ele>587</ele>
        <time>2020-03-05T02:07:39.201Z</time>
      </trkpt>
      <trkpt lat="42.26215" lon="2.46228">
        <ele>587.6</ele>
        <time>2020-03-05T02:07:47.614Z</time>
      </trkpt>
      <trkpt lat="42.26203" lon="2.46206">
        <ele>585.7</ele>
        <time>2020-03-05T02:08:11.129Z</time>
      </trkpt>
      <trkpt lat="42.262" lon="2.46197">
        <ele>584.5</ele>
        <time>2020-03-05T02:08:18.834Z</time>
      </trkpt>
      <trkpt lat="42.26201" lon="2.46196">
        <ele>584.3</ele>
        <time>2020-03-05T02:08:19.879Z</time>
      </trkpt>
      <trkpt lat="42.26202" lon="2.46193">
        <ele>583.6</ele>
        <time>2020-03-05T02:08:22.737Z</time>
      </trkpt>
      <trkpt lat="42.2621" lon="2.46198">
        <ele>582.9</ele>
        <time>2020-03-05T02:08:32.968Z</time>
      </trkpt>
      <trkpt lat="42.26211" lon="2.46198">
        <ele>582.7</ele>
        <time>2020-03-05T02:08:33.607Z</time>
      </trkpt>
      <trkpt lat="42.26222" lon="2.46208">
        <ele>582.1</ele>
        <time>2020-03-05T02:08:48.644Z</time>
      </trkpt>
      <trkpt lat="42.26235" lon="2.46218">
        <ele>581.8</ele>
        <time>2020-03-05T02:09:05.698Z</time>
      </trkpt>
      <trkpt lat="42.26205" lon="2.46206">
        <ele>578.2</ele>
        <time>2020-03-05T02:15:52.000Z</time>
      </trkpt>
      <trkpt lat="42.26203" lon="2.462">
        <ele>577.5</ele>
        <time>2020-03-05T02:15:57.167Z</time>
      </trkpt>
      <trkpt lat="42.26201" lon="2.46191">
        <ele>578.6</ele>
        <time>2020-03-05T02:16:04.079Z</time>
      </trkpt>
      <trkpt lat="42.26201" lon="2.46188">
        <ele>577.5</ele>
        <time>2020-03-05T02:16:06.625Z</time>
      </trkpt>
      <trkpt lat="42.26196" lon="2.46172">
        <ele>577.3</ele>
        <time>2020-03-05T02:16:18.717Z</time>
      </trkpt>
      <trkpt lat="42.26195" lon="2.46165">
        <ele>578.4</ele>
        <time>2020-03-05T02:16:24.249Z</time>
      </trkpt>
      <trkpt lat="42.26194" lon="2.46159">
        <ele>577.7</ele>
        <time>2020-03-05T02:16:28.359Z</time>
      </trkpt>
      <trkpt lat="42.26191" lon="2.46137">
        <ele>579</ele>
        <time>2020-03-05T02:16:45.159Z</time>
      </trkpt>
      <trkpt lat="42.26187" lon="2.46116">
        <ele>577.7</ele>
        <time>2020-03-05T02:17:00.409Z</time>
      </trkpt>
      <trkpt lat="42.26187" lon="2.4611">
        <ele>577.6</ele>
        <time>2020-03-05T02:17:04.996Z</time>
      </trkpt>
      <trkpt lat="42.26186" lon="2.46108">
        <ele>577.6</ele>
        <time>2020-03-05T02:17:07.048Z</time>
      </trkpt>
      <trkpt lat="42.26182" lon="2.46088">
        <ele>577.6</ele>
        <time>2020-03-05T02:17:21.593Z</time>
      </trkpt>
      <trkpt lat="42.26184" lon="2.46074">
        <ele>577.5</ele>
        <time>2020-03-05T02:17:32.115Z</time>
      </trkpt>
      <trkpt lat="42.26183" lon="2.46069">
        <ele>577.2</ele>
        <time>2020-03-05T02:17:35.563Z</time>
      </trkpt>
      <trkpt lat="42.26179" lon="2.46054">
        <ele>576.7</ele>
        <time>2020-03-05T02:17:47.228Z</time>
      </trkpt>
      <trkpt lat="42.2617" lon="2.46034">
        <ele>576.8</ele>
        <time>2020-03-05T02:18:04.243Z</time>
      </trkpt>
      <trkpt lat="42.26164" lon="2.46019">
        <ele>575.4</ele>
        <time>2020-03-05T02:18:16.655Z</time>
      </trkpt>
      <trkpt lat="42.26155" lon="2.46003">
        <ele>573.3</ele>
        <time>2020-03-05T02:18:31.870Z</time>
      </trkpt>
      <trkpt lat="42.26146" lon="2.45994">
        <ele>571.8</ele>
        <time>2020-03-05T02:18:42.973Z</time>
      </trkpt>
      <trkpt lat="42.26134" lon="2.45982">
        <ele>570.6</ele>
        <time>2020-03-05T02:18:57.464Z</time>
      </trkpt>
      <trkpt lat="42.26132" lon="2.45977">
        <ele>570.3</ele>
        <time>2020-03-05T02:19:01.355Z</time>
      </trkpt>
      <trkpt lat="42.26131" lon="2.45975">
        <ele>569.8</ele>
        <time>2020-03-05T02:19:03.546Z</time>
      </trkpt>
      <trkpt lat="42.26132" lon="2.45971">
        <ele>570.5</ele>
        <time>2020-03-05T02:19:06.662Z</time>
      </trkpt>
      <trkpt lat="42.26143" lon="2.45959">
        <ele>570.5</ele>
        <time>2020-03-05T02:19:20.332Z</time>
      </trkpt>
      <trkpt lat="42.26153" lon="2.45946">
        <ele>571.2</ele>
        <time>2020-03-05T02:19:34.024Z</time>
      </trkpt>
      <trkpt lat="42.26155" lon="2.45964">
        <ele>578.4</ele>
        <time>2020-03-05T02:19:48.810Z</time>
      </trkpt>
      <trkpt lat="42.26155" lon="2.45964">
        <ele>581.3</ele>
        <time>2020-03-05T02:19:51.435Z</time>
      </trkpt>
      <trkpt lat="42.26161" lon="2.45964">
        <ele>578</ele>
        <time>2020-03-05T02:19:58.343Z</time>
      </trkpt>
      <trkpt lat="42.26166" lon="2.45964">
        <ele>578</ele>
        <time>2020-03-05T02:20:02.624Z</time>
      </trkpt>
      <trkpt lat="42.26167" lon="2.45967">
        <ele>578</ele>
        <time>2020-03-05T02:20:04.498Z</time>
      </trkpt>
      <trkpt lat="42.26178" lon="2.45967">
        <ele>577.8</ele>
        <time>2020-03-05T02:20:15.654Z</time>
      </trkpt>
      <trkpt lat="42.2618" lon="2.45966">
        <ele>577.9</ele>
        <time>2020-03-05T02:20:18.410Z</time>
      </trkpt>
      <trkpt lat="42.2619" lon="2.45965">
        <ele>576.9</ele>
        <time>2020-03-05T02:20:27.947Z</time>
      </trkpt>
      <trkpt lat="42.26194" lon="2.45964">
        <ele>576.5</ele>
        <time>2020-03-05T02:20:32.304Z</time>
      </trkpt>
      <trkpt lat="42.26204" lon="2.45966">
        <ele>577</ele>
        <time>2020-03-05T02:20:41.469Z</time>
      </trkpt>
      <trkpt lat="42.26205" lon="2.45966">
        <ele>577</ele>
        <time>2020-03-05T02:20:42.944Z</time>
      </trkpt>
      <trkpt lat="42.26209" lon="2.45965">
        <ele>575.5</ele>
        <time>2020-03-05T02:20:47.269Z</time>
      </trkpt>
      <trkpt lat="42.26223" lon="2.45965">
        <ele>574.7</ele>
        <time>2020-03-05T02:21:00.376Z</time>
      </trkpt>
      <trkpt lat="42.26231" lon="2.45963">
        <ele>574.7</ele>
        <time>2020-03-05T02:21:08.858Z</time>
      </trkpt>
      <trkpt lat="42.26236" lon="2.45964">
        <ele>574.5</ele>
        <time>2020-03-05T02:21:13.983Z</time>
      </trkpt>
      <trkpt lat="42.26243" lon="2.45962">
        <ele>574.7</ele>
        <time>2020-03-05T02:21:20.840Z</time>
      </trkpt>
      <trkpt lat="42.26247" lon="2.45962">
        <ele>573.6</ele>
        <time>2020-03-05T02:21:24.409Z</time>
      </trkpt>
      <trkpt lat="42.26249" lon="2.45962">
        <ele>573.6</ele>
        <time>2020-03-05T02:21:26.519Z</time>
      </trkpt>
      <trkpt lat="42.26259" lon="2.45963">
        <ele>573.5</ele>
        <time>2020-03-05T02:21:36.584Z</time>
      </trkpt>
      <trkpt lat="42.2627" lon="2.45964">
        <ele>573.1</ele>
        <time>2020-03-05T02:21:47.343Z</time>
      </trkpt>
      <trkpt lat="42.26274" lon="2.45966">
        <ele>572.7</ele>
        <time>2020-03-05T02:21:52.127Z</time>
      </trkpt>
      <trkpt lat="42.26283" lon="2.45962">
        <ele>571.7</ele>
        <time>2020-03-05T02:22:01.427Z</time>
      </trkpt>
      <trkpt lat="42.26291" lon="2.45936">
        <ele>570.7</ele>
        <time>2020-03-05T02:22:21.772Z</time>
      </trkpt>
      <trkpt lat="42.26292" lon="2.45927">
        <ele>569.9</ele>
        <time>2020-03-05T02:22:29.077Z</time>
      </trkpt>
      <trkpt lat="42.26292" lon="2.45911">
        <ele>569.2</ele>
        <time>2020-03-05T02:22:40.317Z</time>
      </trkpt>
      <trkpt lat="42.26295" lon="2.45902">
        <ele>568.8</ele>
        <time>2020-03-05T02:22:47.220Z</time>
      </trkpt>
      <trkpt lat="42.26296" lon="2.45891">
        <ele>569.7</ele>
        <time>2020-03-05T02:22:55.752Z</time>
      </trkpt>
      <trkpt lat="42.26297" lon="2.45877">
        <ele>570.8</ele>
        <time>2020-03-05T02:23:06.241Z</time>
      </trkpt>
      <trkpt lat="42.26297" lon="2.45854">
        <ele>572.8</ele>
        <time>2020-03-05T02:23:22.521Z</time>
      </trkpt>
      <trkpt lat="42.26297" lon="2.45844">
        <ele>573.5</ele>
        <time>2020-03-05T02:23:30.092Z</time>
      </trkpt>
      <trkpt lat="42.26298" lon="2.45836">
        <ele>574.5</ele>
        <time>2020-03-05T02:23:36.160Z</time>
      </trkpt>
      <trkpt lat="42.263" lon="2.45825">
        <ele>576.6</ele>
        <time>2020-03-05T02:23:44.605Z</time>
      </trkpt>
      <trkpt lat="42.263" lon="2.45823">
        <ele>576.6</ele>
        <time>2020-03-05T02:23:46.230Z</time>
      </trkpt>
      <trkpt lat="42.26301" lon="2.4581">
        <ele>578.3</ele>
        <time>2020-03-05T02:23:55.934Z</time>
      </trkpt>
      <trkpt lat="42.26302" lon="2.45794">
        <ele>579.9</ele>
        <time>2020-03-05T02:24:07.151Z</time>
      </trkpt>
      <trkpt lat="42.26303" lon="2.45782">
        <ele>580.9</ele>
        <time>2020-03-05T02:24:16.391Z</time>
      </trkpt>
      <trkpt lat="42.26304" lon="2.45777">
        <ele>582.4</ele>
        <time>2020-03-05T02:24:20.158Z</time>
      </trkpt>
      <trkpt lat="42.26304" lon="2.45777">
        <ele>581.8</ele>
        <time>2020-03-05T02:24:20.657Z</time>
      </trkpt>
      <trkpt lat="42.26305" lon="2.45771">
        <ele>581.7</ele>
        <time>2020-03-05T02:24:25.017Z</time>
      </trkpt>
      <trkpt lat="42.26304" lon="2.45764">
        <ele>582.8</ele>
        <time>2020-03-05T02:24:30.581Z</time>
      </trkpt>
      <trkpt lat="42.26304" lon="2.45762">
        <ele>578.9</ele>
        <time>2020-03-05T02:24:34.157Z</time>
      </trkpt>
      <trkpt lat="42.26303" lon="2.45757">
        <ele>581.8</ele>
        <time>2020-03-05T02:24:39.037Z</time>
      </trkpt>
      <trkpt lat="42.26304" lon="2.45746">
        <ele>582.3</ele>
        <time>2020-03-05T02:24:47.061Z</time>
      </trkpt>
      <trkpt lat="42.26311" lon="2.45727">
        <ele>583.8</ele>
        <time>2020-03-05T02:25:02.684Z</time>
      </trkpt>
      <trkpt lat="42.26314" lon="2.45713">
        <ele>583.6</ele>
        <time>2020-03-05T02:25:12.881Z</time>
      </trkpt>
      <trkpt lat="42.2632" lon="2.45705">
        <ele>585.6</ele>
        <time>2020-03-05T02:25:21.165Z</time>
      </trkpt>
      <trkpt lat="42.26322" lon="2.45704">
        <ele>586</ele>
        <time>2020-03-05T02:25:23.522Z</time>
      </trkpt>
      <trkpt lat="42.26323" lon="2.45702">
        <ele>586.1</ele>
        <time>2020-03-05T02:25:25.070Z</time>
      </trkpt>
      <trkpt lat="42.26327" lon="2.45684">
        <ele>587.6</ele>
        <time>2020-03-05T02:25:39.037Z</time>
      </trkpt>
      <trkpt lat="42.26328" lon="2.45675">
        <ele>588.1</ele>
        <time>2020-03-05T02:25:45.841Z</time>
      </trkpt>
      <trkpt lat="42.26332" lon="2.4567">
        <ele>589</ele>
        <time>2020-03-05T02:25:51.236Z</time>
      </trkpt>
      <trkpt lat="42.26332" lon="2.45666">
        <ele>589.5</ele>
        <time>2020-03-05T02:25:54.492Z</time>
      </trkpt>
      <trkpt lat="42.26334" lon="2.4566">
        <ele>590.4</ele>
        <time>2020-03-05T02:25:59.286Z</time>
      </trkpt>
      <trkpt lat="42.26337" lon="2.45648">
        <ele>591.8</ele>
        <time>2020-03-05T02:26:08.379Z</time>
      </trkpt>
      <trkpt lat="42.26345" lon="2.45627">
        <ele>594.3</ele>
        <time>2020-03-05T02:26:25.491Z</time>
      </trkpt>
      <trkpt lat="42.26345" lon="2.45621">
        <ele>595.1</ele>
        <time>2020-03-05T02:26:30.074Z</time>
      </trkpt>
      <trkpt lat="42.2635" lon="2.45611">
        <ele>596.2</ele>
        <time>2020-03-05T02:26:39.324Z</time>
      </trkpt>
      <trkpt lat="42.26351" lon="2.45607">
        <ele>596.6</ele>
        <time>2020-03-05T02:26:42.603Z</time>
      </trkpt>
      <trkpt lat="42.26359" lon="2.45593">
        <ele>598.5</ele>
        <time>2020-03-05T02:26:55.540Z</time>
      </trkpt>
      <trkpt lat="42.26362" lon="2.45586">
        <ele>599.1</ele>
        <time>2020-03-05T02:27:01.550Z</time>
      </trkpt>
      <trkpt lat="42.26366" lon="2.45579">
        <ele>600.1</ele>
        <time>2020-03-05T02:27:07.774Z</time>
      </trkpt>
      <trkpt lat="42.26373" lon="2.45568">
        <ele>601.5</ele>
        <time>2020-03-05T02:27:18.454Z</time>
      </trkpt>
      <trkpt lat="42.26377" lon="2.45555">
        <ele>602.5</ele>
        <time>2020-03-05T02:27:28.345Z</time>
      </trkpt>
      <trkpt lat="42.26378" lon="2.4555">
        <ele>603.5</ele>
        <time>2020-03-05T02:27:32.599Z</time>
      </trkpt>
      <trkpt lat="42.2638" lon="2.45546">
        <ele>603.4</ele>
        <time>2020-03-05T02:27:35.627Z</time>
      </trkpt>
      <trkpt lat="42.26383" lon="2.45533">
        <ele>604.8</ele>
        <time>2020-03-05T02:27:45.778Z</time>
      </trkpt>
      <trkpt lat="42.26393" lon="2.45528">
        <ele>606.2</ele>
        <time>2020-03-05T02:27:55.988Z</time>
      </trkpt>
      <trkpt lat="42.26394" lon="2.45528">
        <ele>607.3</ele>
        <time>2020-03-05T02:27:57.878Z</time>
      </trkpt>
      <trkpt lat="42.26395" lon="2.45527">
        <ele>610.5</ele>
        <time>2020-03-05T02:28:00.801Z</time>
      </trkpt>
      <trkpt lat="42.26397" lon="2.45526">
        <ele>610.5</ele>
        <time>2020-03-05T02:28:02.874Z</time>
      </trkpt>
      <trkpt lat="42.26398" lon="2.45525">
        <ele>602.9</ele>
        <time>2020-03-05T02:28:09.665Z</time>
      </trkpt>
      <trkpt lat="42.26398" lon="2.45522">
        <ele>607.7</ele>
        <time>2020-03-05T02:28:14.458Z</time>
      </trkpt>
      <trkpt lat="42.26402" lon="2.45519">
        <ele>608.2</ele>
        <time>2020-03-05T02:28:18.480Z</time>
      </trkpt>
      <trkpt lat="42.26409" lon="2.45512">
        <ele>609.3</ele>
        <time>2020-03-05T02:28:27.289Z</time>
      </trkpt>
      <trkpt lat="42.26412" lon="2.4551">
        <ele>610.1</ele>
        <time>2020-03-05T02:28:30.663Z</time>
      </trkpt>
      <trkpt lat="42.26414" lon="2.4551">
        <ele>610.6</ele>
        <time>2020-03-05T02:28:32.418Z</time>
      </trkpt>
      <trkpt lat="42.26419" lon="2.45507">
        <ele>611.5</ele>
        <time>2020-03-05T02:28:38.577Z</time>
      </trkpt>
      <trkpt lat="42.26422" lon="2.45505">
        <ele>612</ele>
        <time>2020-03-05T02:28:41.481Z</time>
      </trkpt>
      <trkpt lat="42.26424" lon="2.455">
        <ele>612.9</ele>
        <time>2020-03-05T02:28:45.976Z</time>
      </trkpt>
      <trkpt lat="42.2643" lon="2.45499">
        <ele>613.5</ele>
        <time>2020-03-05T02:28:51.731Z</time>
      </trkpt>
      <trkpt lat="42.26432" lon="2.45499">
        <ele>612.9</ele>
        <time>2020-03-05T02:28:53.966Z</time>
      </trkpt>
      <trkpt lat="42.26438" lon="2.45497">
        <ele>612.9</ele>
        <time>2020-03-05T02:29:00.116Z</time>
      </trkpt>
      <trkpt lat="42.26447" lon="2.45494">
        <ele>614.5</ele>
        <time>2020-03-05T02:29:09.216Z</time>
      </trkpt>
      <trkpt lat="42.26449" lon="2.45494">
        <ele>614.4</ele>
        <time>2020-03-05T02:29:11.300Z</time>
      </trkpt>
      <trkpt lat="42.2646" lon="2.4549">
        <ele>615.4</ele>
        <time>2020-03-05T02:29:22.434Z</time>
      </trkpt>
      <trkpt lat="42.2646" lon="2.4549">
        <ele>616.8</ele>
        <time>2020-03-05T02:29:23.852Z</time>
      </trkpt>
      <trkpt lat="42.26472" lon="2.45485">
        <ele>617.8</ele>
        <time>2020-03-05T02:29:36.520Z</time>
      </trkpt>
      <trkpt lat="42.26474" lon="2.45484">
        <ele>619.4</ele>
        <time>2020-03-05T02:29:38.479Z</time>
      </trkpt>
      <trkpt lat="42.26475" lon="2.45483">
        <ele>624.2</ele>
        <time>2020-03-05T02:29:42.961Z</time>
      </trkpt>
      <trkpt lat="42.26476" lon="2.45482">
        <ele>614.5</ele>
        <time>2020-03-05T02:29:51.622Z</time>
      </trkpt>
      <trkpt lat="42.26478" lon="2.45481">
        <ele>619.3</ele>
        <time>2020-03-05T02:29:56.480Z</time>
      </trkpt>
      <trkpt lat="42.26486" lon="2.45476">
        <ele>619.9</ele>
        <time>2020-03-05T02:30:04.779Z</time>
      </trkpt>
      <trkpt lat="42.26493" lon="2.45463">
        <ele>620.2</ele>
        <time>2020-03-05T02:30:17.151Z</time>
      </trkpt>
      <trkpt lat="42.26492" lon="2.45452">
        <ele>620.6</ele>
        <time>2020-03-05T02:30:25.062Z</time>
      </trkpt>
      <trkpt lat="42.26494" lon="2.45449">
        <ele>620.6</ele>
        <time>2020-03-05T02:30:28.233Z</time>
      </trkpt>
      <trkpt lat="42.26494" lon="2.45436">
        <ele>622.3</ele>
        <time>2020-03-05T02:30:37.765Z</time>
      </trkpt>
      <trkpt lat="42.26499" lon="2.45421">
        <ele>623.1</ele>
        <time>2020-03-05T02:30:49.723Z</time>
      </trkpt>
      <trkpt lat="42.26501" lon="2.45413">
        <ele>624</ele>
        <time>2020-03-05T02:30:55.722Z</time>
      </trkpt>
      <trkpt lat="42.26504" lon="2.4541">
        <ele>625</ele>
        <time>2020-03-05T02:30:59.419Z</time>
      </trkpt>
      <trkpt lat="42.26506" lon="2.45402">
        <ele>625.1</ele>
        <time>2020-03-05T02:31:05.109Z</time>
      </trkpt>
      <trkpt lat="42.26511" lon="2.4539">
        <ele>627</ele>
        <time>2020-03-05T02:31:14.964Z</time>
      </trkpt>
      <trkpt lat="42.26515" lon="2.45384">
        <ele>628.3</ele>
        <time>2020-03-05T02:31:21.401Z</time>
      </trkpt>
      <trkpt lat="42.26515" lon="2.45375">
        <ele>627.9</ele>
        <time>2020-03-05T02:31:27.902Z</time>
      </trkpt>
      <trkpt lat="42.26521" lon="2.45364">
        <ele>629.3</ele>
        <time>2020-03-05T02:31:38.116Z</time>
      </trkpt>
      <trkpt lat="42.26521" lon="2.45357">
        <ele>629.9</ele>
        <time>2020-03-05T02:31:43.485Z</time>
      </trkpt>
      <trkpt lat="42.26521" lon="2.45355">
        <ele>629.3</ele>
        <time>2020-03-05T02:31:45.022Z</time>
      </trkpt>
      <trkpt lat="42.26514" lon="2.45342">
        <ele>628.4</ele>
        <time>2020-03-05T02:31:57.045Z</time>
      </trkpt>
      <trkpt lat="42.26508" lon="2.45337">
        <ele>627.6</ele>
        <time>2020-03-05T02:32:03.007Z</time>
      </trkpt>
      <trkpt lat="42.26506" lon="2.45336">
        <ele>626.5</ele>
        <time>2020-03-05T02:32:05.984Z</time>
      </trkpt>
      <trkpt lat="42.26499" lon="2.45331">
        <ele>625.5</ele>
        <time>2020-03-05T02:32:13.525Z</time>
      </trkpt>
      <trkpt lat="42.26497" lon="2.45329">
        <ele>628.4</ele>
        <time>2020-03-05T02:32:17.390Z</time>
      </trkpt>
      <trkpt lat="42.26495" lon="2.45328">
        <ele>625.5</ele>
        <time>2020-03-05T02:32:20.750Z</time>
      </trkpt>
      <trkpt lat="42.26495" lon="2.45328">
        <ele>626.5</ele>
        <time>2020-03-05T02:32:21.670Z</time>
      </trkpt>
      <trkpt lat="42.26495" lon="2.45328">
        <ele>629.9</ele>
        <time>2020-03-05T02:32:24.665Z</time>
      </trkpt>
      <trkpt lat="42.26495" lon="2.45328">
        <ele>616.8</ele>
        <time>2020-03-05T02:32:36.231Z</time>
      </trkpt>
      <trkpt lat="42.26495" lon="2.45328">
        <ele>625</ele>
        <time>2020-03-05T02:32:43.540Z</time>
      </trkpt>
      <trkpt lat="42.26495" lon="2.45328">
        <ele>628.4</ele>
        <time>2020-03-05T02:32:46.508Z</time>
      </trkpt>
      <trkpt lat="42.26495" lon="2.45328">
        <ele>624.9</ele>
        <time>2020-03-05T02:32:49.594Z</time>
      </trkpt>
      <trkpt lat="42.26495" lon="2.45328">
        <ele>625.9</ele>
        <time>2020-03-05T02:32:50.469Z</time>
      </trkpt>
      <trkpt lat="42.26495" lon="2.45328">
        <ele>629.4</ele>
        <time>2020-03-05T02:32:53.550Z</time>
      </trkpt>
      <trkpt lat="42.26495" lon="2.45328">
        <ele>619.3</ele>
        <time>2020-03-05T02:33:02.506Z</time>
      </trkpt>
      <trkpt lat="42.26495" lon="2.45328">
        <ele>624.9</ele>
        <time>2020-03-05T02:33:07.509Z</time>
      </trkpt>
      <trkpt lat="42.26495" lon="2.45328">
        <ele>628.5</ele>
        <time>2020-03-05T02:33:10.670Z</time>
      </trkpt>
      <trkpt lat="42.26492" lon="2.45323">
        <ele>624.6</ele>
        <time>2020-03-05T02:33:16.180Z</time>
      </trkpt>
      <trkpt lat="42.26494" lon="2.4531">
        <ele>624.6</ele>
        <time>2020-03-05T02:33:25.689Z</time>
      </trkpt>
      <trkpt lat="42.26495" lon="2.45299">
        <ele>624.6</ele>
        <time>2020-03-05T02:33:34.167Z</time>
      </trkpt>
      <trkpt lat="42.26497" lon="2.45285">
        <ele>623.6</ele>
        <time>2020-03-05T02:33:43.980Z</time>
      </trkpt>
      <trkpt lat="42.265" lon="2.45272">
        <ele>623.5</ele>
        <time>2020-03-05T02:33:54.326Z</time>
      </trkpt>
      <trkpt lat="42.26504" lon="2.4526">
        <ele>623.5</ele>
        <time>2020-03-05T02:34:04.177Z</time>
      </trkpt>
      <trkpt lat="42.26508" lon="2.45248">
        <ele>623.5</ele>
        <time>2020-03-05T02:34:13.503Z</time>
      </trkpt>
      <trkpt lat="42.26512" lon="2.45237">
        <ele>623.1</ele>
        <time>2020-03-05T02:34:22.655Z</time>
      </trkpt>
      <trkpt lat="42.26515" lon="2.45227">
        <ele>623.1</ele>
        <time>2020-03-05T02:34:30.072Z</time>
      </trkpt>
      <trkpt lat="42.26515" lon="2.45226">
        <ele>623.7</ele>
        <time>2020-03-05T02:34:31.355Z</time>
      </trkpt>
      <trkpt lat="42.26519" lon="2.45214">
        <ele>623.6</ele>
        <time>2020-03-05T02:34:40.358Z</time>
      </trkpt>
      <trkpt lat="42.26523" lon="2.45199">
        <ele>623.5</ele>
        <time>2020-03-05T02:34:52.089Z</time>
      </trkpt>
      <trkpt lat="42.26529" lon="2.45183">
        <ele>623.1</ele>
        <time>2020-03-05T02:35:05.442Z</time>
      </trkpt>
      <trkpt lat="42.26528" lon="2.4518">
        <ele>623.1</ele>
        <time>2020-03-05T02:35:07.426Z</time>
      </trkpt>
      <trkpt lat="42.2653" lon="2.45174">
        <ele>623.6</ele>
        <time>2020-03-05T02:35:12.014Z</time>
      </trkpt>
      <trkpt lat="42.26533" lon="2.45167">
        <ele>624.1</ele>
        <time>2020-03-05T02:35:18.125Z</time>
      </trkpt>
      <trkpt lat="42.26536" lon="2.45156">
        <ele>624.2</ele>
        <time>2020-03-05T02:35:26.955Z</time>
      </trkpt>
      <trkpt lat="42.26542" lon="2.45144">
        <ele>624.9</ele>
        <time>2020-03-05T02:35:37.157Z</time>
      </trkpt>
      <trkpt lat="42.26546" lon="2.45132">
        <ele>625.5</ele>
        <time>2020-03-05T02:35:46.611Z</time>
      </trkpt>
      <trkpt lat="42.2655" lon="2.45124">
        <ele>625.5</ele>
        <time>2020-03-05T02:35:53.571Z</time>
      </trkpt>
      <trkpt lat="42.2655" lon="2.45121">
        <ele>626.6</ele>
        <time>2020-03-05T02:35:56.316Z</time>
      </trkpt>
      <trkpt lat="42.26552" lon="2.45109">
        <ele>626</ele>
        <time>2020-03-05T02:36:05.108Z</time>
      </trkpt>
      <trkpt lat="42.26552" lon="2.45108">
        <ele>626.1</ele>
        <time>2020-03-05T02:36:05.766Z</time>
      </trkpt>
      <trkpt lat="42.26555" lon="2.45096">
        <ele>625.5</ele>
        <time>2020-03-05T02:36:14.980Z</time>
      </trkpt>
      <trkpt lat="42.26557" lon="2.45089">
        <ele>625.1</ele>
        <time>2020-03-05T02:36:20.398Z</time>
      </trkpt>
      <trkpt lat="42.2656" lon="2.45081">
        <ele>625</ele>
        <time>2020-03-05T02:36:26.615Z</time>
      </trkpt>
      <trkpt lat="42.2656" lon="2.45081">
        <ele>624.9</ele>
        <time>2020-03-05T02:36:26.765Z</time>
      </trkpt>
      <trkpt lat="42.26568" lon="2.45069">
        <ele>626</ele>
        <time>2020-03-05T02:36:38.941Z</time>
      </trkpt>
      <trkpt lat="42.26574" lon="2.45058">
        <ele>626.5</ele>
        <time>2020-03-05T02:36:49.269Z</time>
      </trkpt>
      <trkpt lat="42.26575" lon="2.45055">
        <ele>626.9</ele>
        <time>2020-03-05T02:36:51.326Z</time>
      </trkpt>
      <trkpt lat="42.26581" lon="2.45048">
        <ele>628.4</ele>
        <time>2020-03-05T02:36:59.697Z</time>
      </trkpt>
      <trkpt lat="42.26585" lon="2.45044">
        <ele>628.4</ele>
        <time>2020-03-05T02:37:03.822Z</time>
      </trkpt>
      <trkpt lat="42.26595" lon="2.45031">
        <ele>630.3</ele>
        <time>2020-03-05T02:37:18.283Z</time>
      </trkpt>
      <trkpt lat="42.26601" lon="2.45021">
        <ele>630.3</ele>
        <time>2020-03-05T02:37:27.246Z</time>
      </trkpt>
      <trkpt lat="42.26605" lon="2.45009">
        <ele>630.9</ele>
        <time>2020-03-05T02:37:37.223Z</time>
      </trkpt>
      <trkpt lat="42.26604" lon="2.44996">
        <ele>630.8</ele>
        <time>2020-03-05T02:37:46.521Z</time>
      </trkpt>
      <trkpt lat="42.26606" lon="2.44991">
        <ele>630.7</ele>
        <time>2020-03-05T02:37:50.749Z</time>
      </trkpt>
      <trkpt lat="42.26615" lon="2.4498">
        <ele>631.9</ele>
        <time>2020-03-05T02:38:02.262Z</time>
      </trkpt>
      <trkpt lat="42.2662" lon="2.44972">
        <ele>633.1</ele>
        <time>2020-03-05T02:38:09.738Z</time>
      </trkpt>
      <trkpt lat="42.2662" lon="2.44963">
        <ele>634.2</ele>
        <time>2020-03-05T02:38:16.284Z</time>
      </trkpt>
      <trkpt lat="42.26625" lon="2.44953">
        <ele>635.6</ele>
        <time>2020-03-05T02:38:25.212Z</time>
      </trkpt>
      <trkpt lat="42.26615" lon="2.44957">
        <ele>637.2</ele>
        <time>2020-03-05T02:38:35.283Z</time>
      </trkpt>
      <trkpt lat="42.26621" lon="2.44952">
        <ele>638.9</ele>
        <time>2020-03-05T02:38:42.737Z</time>
      </trkpt>
      <trkpt lat="42.26626" lon="2.44953">
        <ele>638.5</ele>
        <time>2020-03-05T02:38:47.034Z</time>
      </trkpt>
      <trkpt lat="42.26647" lon="2.44941">
        <ele>639.5</ele>
        <time>2020-03-05T02:39:10.229Z</time>
      </trkpt>
      <trkpt lat="42.26664" lon="2.44931">
        <ele>641.5</ele>
        <time>2020-03-05T02:39:28.144Z</time>
      </trkpt>
      <trkpt lat="42.26675" lon="2.44928">
        <ele>642.8</ele>
        <time>2020-03-05T02:39:39.063Z</time>
      </trkpt>
      <trkpt lat="42.26675" lon="2.44927">
        <ele>643.4</ele>
        <time>2020-03-05T02:39:39.865Z</time>
      </trkpt>
      <trkpt lat="42.26676" lon="2.44927">
        <ele>642.8</ele>
        <time>2020-03-05T02:39:40.877Z</time>
      </trkpt>
      <trkpt lat="42.26688" lon="2.44923">
        <ele>644.3</ele>
        <time>2020-03-05T02:39:53.564Z</time>
      </trkpt>
      <trkpt lat="42.26694" lon="2.44921">
        <ele>646.6</ele>
        <time>2020-03-05T02:39:59.971Z</time>
      </trkpt>
      <trkpt lat="42.26696" lon="2.44918">
        <ele>647.5</ele>
        <time>2020-03-05T02:40:03.166Z</time>
      </trkpt>
      <trkpt lat="42.26702" lon="2.44915">
        <ele>648.6</ele>
        <time>2020-03-05T02:40:10.202Z</time>
      </trkpt>
      <trkpt lat="42.26706" lon="2.44913">
        <ele>649.6</ele>
        <time>2020-03-05T02:40:14.047Z</time>
      </trkpt>
      <trkpt lat="42.26717" lon="2.44907">
        <ele>651</ele>
        <time>2020-03-05T02:40:26.500Z</time>
      </trkpt>
      <trkpt lat="42.26727" lon="2.44901">
        <ele>652.3</ele>
        <time>2020-03-05T02:40:36.933Z</time>
      </trkpt>
      <trkpt lat="42.26731" lon="2.449">
        <ele>653.3</ele>
        <time>2020-03-05T02:40:41.155Z</time>
      </trkpt>
      <trkpt lat="42.2674" lon="2.44898">
        <ele>654.9</ele>
        <time>2020-03-05T02:40:49.448Z</time>
      </trkpt>
      <trkpt lat="42.26743" lon="2.44899">
        <ele>655.7</ele>
        <time>2020-03-05T02:40:52.627Z</time>
      </trkpt>
      <trkpt lat="42.26745" lon="2.44899">
        <ele>655.8</ele>
        <time>2020-03-05T02:40:55.187Z</time>
      </trkpt>
      <trkpt lat="42.2675" lon="2.44899">
        <ele>656.9</ele>
        <time>2020-03-05T02:41:00.128Z</time>
      </trkpt>
      <trkpt lat="42.26758" lon="2.449">
        <ele>659.7</ele>
        <time>2020-03-05T02:41:08.283Z</time>
      </trkpt>
      <trkpt lat="42.26767" lon="2.44902">
        <ele>661.1</ele>
        <time>2020-03-05T02:41:17.144Z</time>
      </trkpt>
      <trkpt lat="42.26771" lon="2.44903">
        <ele>662</ele>
        <time>2020-03-05T02:41:21.635Z</time>
      </trkpt>
      <trkpt lat="42.26783" lon="2.44906">
        <ele>662.6</ele>
        <time>2020-03-05T02:41:33.688Z</time>
      </trkpt>
      <trkpt lat="42.26792" lon="2.44908">
        <ele>662.1</ele>
        <time>2020-03-05T02:41:42.080Z</time>
      </trkpt>
      <trkpt lat="42.26795" lon="2.44907">
        <ele>661</ele>
        <time>2020-03-05T02:41:46.004Z</time>
      </trkpt>
      <trkpt lat="42.26803" lon="2.44899">
        <ele>661.1</ele>
        <time>2020-03-05T02:41:55.508Z</time>
      </trkpt>
      <trkpt lat="42.26806" lon="2.44896">
        <ele>660.6</ele>
        <time>2020-03-05T02:41:59.189Z</time>
      </trkpt>
      <trkpt lat="42.26812" lon="2.44893">
        <ele>661.6</ele>
        <time>2020-03-05T02:42:05.204Z</time>
      </trkpt>
      <trkpt lat="42.26818" lon="2.44888">
        <ele>661.7</ele>
        <time>2020-03-05T02:42:11.860Z</time>
      </trkpt>
      <trkpt lat="42.26819" lon="2.44889">
        <ele>661.7</ele>
        <time>2020-03-05T02:42:12.798Z</time>
      </trkpt>
      <trkpt lat="42.2682" lon="2.44885">
        <ele>662.6</ele>
        <time>2020-03-05T02:42:15.941Z</time>
      </trkpt>
      <trkpt lat="42.2682" lon="2.44885">
        <ele>667.7</ele>
        <time>2020-03-05T02:42:20.509Z</time>
      </trkpt>
      <trkpt lat="42.2682" lon="2.44885">
        <ele>660.1</ele>
        <time>2020-03-05T02:42:27.281Z</time>
      </trkpt>
      <trkpt lat="42.2682" lon="2.44885">
        <ele>658.7</ele>
        <time>2020-03-05T02:42:28.524Z</time>
      </trkpt>
      <trkpt lat="42.2682" lon="2.44885">
        <ele>662.4</ele>
        <time>2020-03-05T02:42:31.845Z</time>
      </trkpt>
      <trkpt lat="42.2682" lon="2.44885">
        <ele>668.7</ele>
        <time>2020-03-05T02:42:37.414Z</time>
      </trkpt>
      <trkpt lat="42.2682" lon="2.44885">
        <ele>653.9</ele>
        <time>2020-03-05T02:42:50.524Z</time>
      </trkpt>
      <trkpt lat="42.2682" lon="2.44885">
        <ele>662.1</ele>
        <time>2020-03-05T02:42:57.779Z</time>
      </trkpt>
      <trkpt lat="42.2682" lon="2.44885">
        <ele>658.3</ele>
        <time>2020-03-05T02:43:01.153Z</time>
      </trkpt>
      <trkpt lat="42.2682" lon="2.44887">
        <ele>661.6</ele>
        <time>2020-03-05T02:43:04.386Z</time>
      </trkpt>
      <trkpt lat="42.26824" lon="2.44882">
        <ele>662.2</ele>
        <time>2020-03-05T02:43:09.610Z</time>
      </trkpt>
      <trkpt lat="42.26827" lon="2.4488">
        <ele>661.6</ele>
        <time>2020-03-05T02:43:13.625Z</time>
      </trkpt>
      <trkpt lat="42.2683" lon="2.44877">
        <ele>662.2</ele>
        <time>2020-03-05T02:43:17.166Z</time>
      </trkpt>
      <trkpt lat="42.26833" lon="2.44881">
        <ele>662.1</ele>
        <time>2020-03-05T02:43:21.197Z</time>
      </trkpt>
      <trkpt lat="42.26837" lon="2.44879">
        <ele>662</ele>
        <time>2020-03-05T02:43:24.975Z</time>
      </trkpt>
      <trkpt lat="42.26837" lon="2.44877">
        <ele>662</ele>
        <time>2020-03-05T02:43:26.096Z</time>
      </trkpt>
      <trkpt lat="42.2684" lon="2.44876">
        <ele>662.6</ele>
        <time>2020-03-05T02:43:29.066Z</time>
      </trkpt>
      <trkpt lat="42.26837" lon="2.44874">
        <ele>662.6</ele>
        <time>2020-03-05T02:43:32.865Z</time>
      </trkpt>
      <trkpt lat="42.26836" lon="2.44869">
        <ele>662.5</ele>
        <time>2020-03-05T02:43:36.423Z</time>
      </trkpt>
      <trkpt lat="42.26833" lon="2.44869">
        <ele>662.5</ele>
        <time>2020-03-05T02:43:38.982Z</time>
      </trkpt>
      <trkpt lat="42.2683" lon="2.44867">
        <ele>662.5</ele>
        <time>2020-03-05T02:43:42.042Z</time>
      </trkpt>
      <trkpt lat="42.2683" lon="2.44866">
        <ele>663</ele>
        <time>2020-03-05T02:43:43.275Z</time>
      </trkpt>
      <trkpt lat="42.26824" lon="2.44863">
        <ele>663.6</ele>
        <time>2020-03-05T02:43:49.344Z</time>
      </trkpt>
      <trkpt lat="42.2682" lon="2.44864">
        <ele>664.8</ele>
        <time>2020-03-05T02:43:53.578Z</time>
      </trkpt>
      <trkpt lat="42.26814" lon="2.44859">
        <ele>666.4</ele>
        <time>2020-03-05T02:44:00.734Z</time>
      </trkpt>
      <trkpt lat="42.26812" lon="2.44852">
        <ele>666.3</ele>
        <time>2020-03-05T02:44:06.502Z</time>
      </trkpt>
      <trkpt lat="42.26811" lon="2.4485">
        <ele>666.3</ele>
        <time>2020-03-05T02:44:08.040Z</time>
      </trkpt>
      <trkpt lat="42.26814" lon="2.44843">
        <ele>666.9</ele>
        <time>2020-03-05T02:44:14.045Z</time>
      </trkpt>
      <trkpt lat="42.26816" lon="2.4484">
        <ele>666.9</ele>
        <time>2020-03-05T02:44:16.985Z</time>
      </trkpt>
      <trkpt lat="42.26821" lon="2.44831">
        <ele>667.2</ele>
        <time>2020-03-05T02:44:24.659Z</time>
      </trkpt>
      <trkpt lat="42.26822" lon="2.44828">
        <ele>667.3</ele>
        <time>2020-03-05T02:44:27.226Z</time>
      </trkpt>
      <trkpt lat="42.26822" lon="2.44826">
        <ele>671.2</ele>
        <time>2020-03-05T02:44:30.959Z</time>
      </trkpt>
      <trkpt lat="42.26823" lon="2.44825">
        <ele>665.4</ele>
        <time>2020-03-05T02:44:36.250Z</time>
      </trkpt>
      <trkpt lat="42.26828" lon="2.44807">
        <ele>666.9</ele>
        <time>2020-03-05T02:44:50.464Z</time>
      </trkpt>
      <trkpt lat="42.26829" lon="2.44799">
        <ele>665.4</ele>
        <time>2020-03-05T02:44:56.148Z</time>
      </trkpt>
      <trkpt lat="42.26831" lon="2.44791">
        <ele>666.5</ele>
        <time>2020-03-05T02:45:02.399Z</time>
      </trkpt>
      <trkpt lat="42.2683" lon="2.44776">
        <ele>663.6</ele>
        <time>2020-03-05T02:45:13.652Z</time>
      </trkpt>
      <trkpt lat="42.26829" lon="2.4475">
        <ele>662.2</ele>
        <time>2020-03-05T02:45:32.788Z</time>
      </trkpt>
      <trkpt lat="42.26829" lon="2.44749">
        <ele>662.1</ele>
        <time>2020-03-05T02:45:33.611Z</time>
      </trkpt>
      <trkpt lat="42.26825" lon="2.44749">
        <ele>661.1</ele>
        <time>2020-03-05T02:45:37.639Z</time>
      </trkpt>
      <trkpt lat="42.26818" lon="2.44746">
        <ele>660.1</ele>
        <time>2020-03-05T02:45:44.883Z</time>
      </trkpt>
      <trkpt lat="42.2681" lon="2.44743">
        <ele>660.6</ele>
        <time>2020-03-05T02:45:53.330Z</time>
      </trkpt>
      <trkpt lat="42.26809" lon="2.44741">
        <ele>661.5</ele>
        <time>2020-03-05T02:45:55.234Z</time>
      </trkpt>
      <trkpt lat="42.26801" lon="2.44736">
        <ele>662.1</ele>
        <time>2020-03-05T02:46:03.268Z</time>
      </trkpt>
      <trkpt lat="42.26794" lon="2.44738">
        <ele>660.5</ele>
        <time>2020-03-05T02:46:10.864Z</time>
      </trkpt>
      <trkpt lat="42.2679" lon="2.44738">
        <ele>659.7</ele>
        <time>2020-03-05T02:46:15.051Z</time>
      </trkpt>
      <trkpt lat="42.26783" lon="2.44737">
        <ele>658.2</ele>
        <time>2020-03-05T02:46:21.658Z</time>
      </trkpt>
      <trkpt lat="42.26777" lon="2.44738">
        <ele>656.9</ele>
        <time>2020-03-05T02:46:28.403Z</time>
      </trkpt>
      <trkpt lat="42.26777" lon="2.44744">
        <ele>656.3</ele>
        <time>2020-03-05T02:46:32.676Z</time>
      </trkpt>
      <trkpt lat="42.26776" lon="2.44756">
        <ele>657.8</ele>
        <time>2020-03-05T02:46:41.579Z</time>
      </trkpt>
      <trkpt lat="42.26776" lon="2.4476">
        <ele>658.1</ele>
        <time>2020-03-05T02:46:44.455Z</time>
      </trkpt>
      <trkpt lat="42.26773" lon="2.44767">
        <ele>660.1</ele>
        <time>2020-03-05T02:46:50.545Z</time>
      </trkpt>
      <trkpt lat="42.26767" lon="2.4477">
        <ele>661.5</ele>
        <time>2020-03-05T02:46:57.613Z</time>
      </trkpt>
      <trkpt lat="42.26763" lon="2.4477">
        <ele>662.2</ele>
        <time>2020-03-05T02:47:01.607Z</time>
      </trkpt>
      <trkpt lat="42.26757" lon="2.44772">
        <ele>662.1</ele>
        <time>2020-03-05T02:47:07.630Z</time>
      </trkpt>
      <trkpt lat="42.26748" lon="2.44774">
        <ele>661.5</ele>
        <time>2020-03-05T02:47:16.403Z</time>
      </trkpt>
      <trkpt lat="42.26737" lon="2.44774">
        <ele>661.1</ele>
        <time>2020-03-05T02:47:27.042Z</time>
      </trkpt>
      <trkpt lat="42.2673" lon="2.44774">
        <ele>660.5</ele>
        <time>2020-03-05T02:47:33.765Z</time>
      </trkpt>
      <trkpt lat="42.26723" lon="2.44773">
        <ele>660.1</ele>
        <time>2020-03-05T02:47:41.491Z</time>
      </trkpt>
      <trkpt lat="42.2672" lon="2.44774">
        <ele>660.2</ele>
        <time>2020-03-05T02:47:44.249Z</time>
      </trkpt>
      <trkpt lat="42.26714" lon="2.44776">
        <ele>660.1</ele>
        <time>2020-03-05T02:47:50.716Z</time>
      </trkpt>
      <trkpt lat="42.26697" lon="2.44778">
        <ele>660.1</ele>
        <time>2020-03-05T02:48:07.500Z</time>
      </trkpt>
      <trkpt lat="42.26691" lon="2.44781">
        <ele>660</ele>
        <time>2020-03-05T02:48:13.760Z</time>
      </trkpt>
      <trkpt lat="42.2669" lon="2.44783">
        <ele>660.1</ele>
        <time>2020-03-05T02:48:15.578Z</time>
      </trkpt>
      <trkpt lat="42.2668" lon="2.44791">
        <ele>659.6</ele>
        <time>2020-03-05T02:48:26.569Z</time>
      </trkpt>
      <trkpt lat="42.26669" lon="2.44793">
        <ele>658.8</ele>
        <time>2020-03-05T02:48:37.624Z</time>
      </trkpt>
      <trkpt lat="42.26663" lon="2.44799">
        <ele>658.6</ele>
        <time>2020-03-05T02:48:45.216Z</time>
      </trkpt>
      <trkpt lat="42.26658" lon="2.44804">
        <ele>658.6</ele>
        <time>2020-03-05T02:48:51.044Z</time>
      </trkpt>
      <trkpt lat="42.26649" lon="2.44809">
        <ele>660.7</ele>
        <time>2020-03-05T02:49:00.746Z</time>
      </trkpt>
      <trkpt lat="42.26644" lon="2.44811">
        <ele>661.6</ele>
        <time>2020-03-05T02:49:05.766Z</time>
      </trkpt>
      <trkpt lat="42.26644" lon="2.4481">
        <ele>662.2</ele>
        <time>2020-03-05T02:49:06.736Z</time>
      </trkpt>
      <trkpt lat="42.26641" lon="2.44807">
        <ele>663</ele>
        <time>2020-03-05T02:49:10.260Z</time>
      </trkpt>
      <trkpt lat="42.26638" lon="2.44803">
        <ele>663.4</ele>
        <time>2020-03-05T02:49:14.338Z</time>
      </trkpt>
      <trkpt lat="42.26636" lon="2.44802">
        <ele>663.5</ele>
        <time>2020-03-05T02:49:16.533Z</time>
      </trkpt>
      <trkpt lat="42.26628" lon="2.44808">
        <ele>663.4</ele>
        <time>2020-03-05T02:49:25.940Z</time>
      </trkpt>
      <trkpt lat="42.26626" lon="2.44809">
        <ele>663.4</ele>
        <time>2020-03-05T02:49:28.180Z</time>
      </trkpt>
      <trkpt lat="42.26611" lon="2.44821">
        <ele>662.1</ele>
        <time>2020-03-05T02:49:44.795Z</time>
      </trkpt>
      <trkpt lat="42.26607" lon="2.44827">
        <ele>662.2</ele>
        <time>2020-03-05T02:49:51.262Z</time>
      </trkpt>
      <trkpt lat="42.26596" lon="2.44832">
        <ele>662.4</ele>
        <time>2020-03-05T02:50:01.954Z</time>
      </trkpt>
      <trkpt lat="42.26588" lon="2.44838">
        <ele>663</ele>
        <time>2020-03-05T02:50:11.341Z</time>
      </trkpt>
      <trkpt lat="42.26573" lon="2.44847">
        <ele>663</ele>
        <time>2020-03-05T02:50:26.900Z</time>
      </trkpt>
      <trkpt lat="42.26568" lon="2.44852">
        <ele>665</ele>
        <time>2020-03-05T02:50:33.522Z</time>
      </trkpt>
      <trkpt lat="42.26561" lon="2.44864">
        <ele>666</ele>
        <time>2020-03-05T02:50:44.692Z</time>
      </trkpt>
      <trkpt lat="42.26559" lon="2.44869">
        <ele>666.5</ele>
        <time>2020-03-05T02:50:49.200Z</time>
      </trkpt>
      <trkpt lat="42.2655" lon="2.44878">
        <ele>667.4</ele>
        <time>2020-03-05T02:51:00.125Z</time>
      </trkpt>
      <trkpt lat="42.26545" lon="2.44883">
        <ele>667.9</ele>
        <time>2020-03-05T02:51:06.422Z</time>
      </trkpt>
      <trkpt lat="42.26534" lon="2.44895">
        <ele>667.8</ele>
        <time>2020-03-05T02:51:19.829Z</time>
      </trkpt>
      <trkpt lat="42.26526" lon="2.44903">
        <ele>668.7</ele>
        <time>2020-03-05T02:51:29.867Z</time>
      </trkpt>
      <trkpt lat="42.26519" lon="2.44908">
        <ele>670.3</ele>
        <time>2020-03-05T02:51:38.305Z</time>
      </trkpt>
      <trkpt lat="42.26518" lon="2.44908">
        <ele>670.3</ele>
        <time>2020-03-05T02:51:39.389Z</time>
      </trkpt>
      <trkpt lat="42.26508" lon="2.44915">
        <ele>670.6</ele>
        <time>2020-03-05T02:51:50.128Z</time>
      </trkpt>
      <trkpt lat="42.26505" lon="2.44914">
        <ele>671.6</ele>
        <time>2020-03-05T02:51:52.579Z</time>
      </trkpt>
      <trkpt lat="42.26505" lon="2.44914">
        <ele>673</ele>
        <time>2020-03-05T02:51:53.829Z</time>
      </trkpt>
      <trkpt lat="42.26505" lon="2.44914">
        <ele>689.6</ele>
        <time>2020-03-05T02:52:08.501Z</time>
      </trkpt>
      <trkpt lat="42.26505" lon="2.44914">
        <ele>659.3</ele>
        <time>2020-03-05T02:52:35.320Z</time>
      </trkpt>
      <trkpt lat="42.26505" lon="2.44915">
        <ele>671.7</ele>
        <time>2020-03-05T02:52:46.350Z</time>
      </trkpt>
      <trkpt lat="42.26503" lon="2.44911">
        <ele>672.5</ele>
        <time>2020-03-05T02:52:49.891Z</time>
      </trkpt>
      <trkpt lat="42.26501" lon="2.449">
        <ele>675</ele>
        <time>2020-03-05T02:52:58.145Z</time>
      </trkpt>
      <trkpt lat="42.26502" lon="2.44896">
        <ele>675.4</ele>
        <time>2020-03-05T02:53:01.090Z</time>
      </trkpt>
      <trkpt lat="42.26503" lon="2.44891">
        <ele>676.9</ele>
        <time>2020-03-05T02:53:04.918Z</time>
      </trkpt>
      <trkpt lat="42.26501" lon="2.44883">
        <ele>678.9</ele>
        <time>2020-03-05T02:53:11.241Z</time>
      </trkpt>
      <trkpt lat="42.26505" lon="2.44876">
        <ele>680.8</ele>
        <time>2020-03-05T02:53:17.805Z</time>
      </trkpt>
      <trkpt lat="42.26507" lon="2.44876">
        <ele>680.8</ele>
        <time>2020-03-05T02:53:19.319Z</time>
      </trkpt>
      <trkpt lat="42.26509" lon="2.44875">
        <ele>682.7</ele>
        <time>2020-03-05T02:53:22.166Z</time>
      </trkpt>
      <trkpt lat="42.26511" lon="2.44875">
        <ele>683.3</ele>
        <time>2020-03-05T02:53:23.842Z</time>
      </trkpt>
      <trkpt lat="42.26511" lon="2.44872">
        <ele>684.7</ele>
        <time>2020-03-05T02:53:25.947Z</time>
      </trkpt>
      <trkpt lat="42.26513" lon="2.44869">
        <ele>685.7</ele>
        <time>2020-03-05T02:53:28.897Z</time>
      </trkpt>
      <trkpt lat="42.2651" lon="2.44861">
        <ele>687.6</ele>
        <time>2020-03-05T02:53:35.465Z</time>
      </trkpt>
      <trkpt lat="42.2651" lon="2.44855">
        <ele>688.5</ele>
        <time>2020-03-05T02:53:40.060Z</time>
      </trkpt>
      <trkpt lat="42.26514" lon="2.44849">
        <ele>690.4</ele>
        <time>2020-03-05T02:53:45.993Z</time>
      </trkpt>
      <trkpt lat="42.26516" lon="2.44847">
        <ele>691.4</ele>
        <time>2020-03-05T02:53:48.701Z</time>
      </trkpt>
      <trkpt lat="42.26517" lon="2.44846">
        <ele>691.8</ele>
        <time>2020-03-05T02:53:49.484Z</time>
      </trkpt>
      <trkpt lat="42.26518" lon="2.44841">
        <ele>694.7</ele>
        <time>2020-03-05T02:53:54.110Z</time>
      </trkpt>
      <trkpt lat="42.26522" lon="2.44832">
        <ele>698.6</ele>
        <time>2020-03-05T02:54:02.871Z</time>
      </trkpt>
      <trkpt lat="42.26523" lon="2.44823">
        <ele>700</ele>
        <time>2020-03-05T02:54:09.863Z</time>
      </trkpt>
      <trkpt lat="42.26527" lon="2.44817">
        <ele>700.5</ele>
        <time>2020-03-05T02:54:16.200Z</time>
      </trkpt>
      <trkpt lat="42.26534" lon="2.44811">
        <ele>702</ele>
        <time>2020-03-05T02:54:23.992Z</time>
      </trkpt>
      <trkpt lat="42.26538" lon="2.44803">
        <ele>704.8</ele>
        <time>2020-03-05T02:54:31.530Z</time>
      </trkpt>
      <trkpt lat="42.2654" lon="2.44794">
        <ele>706.9</ele>
        <time>2020-03-05T02:54:38.752Z</time>
      </trkpt>
      <trkpt lat="42.26543" lon="2.44783">
        <ele>710.1</ele>
        <time>2020-03-05T02:54:47.719Z</time>
      </trkpt>
      <trkpt lat="42.26544" lon="2.4478">
        <ele>711</ele>
        <time>2020-03-05T02:54:49.940Z</time>
      </trkpt>
      <trkpt lat="42.26551" lon="2.44771">
        <ele>713.9</ele>
        <time>2020-03-05T02:54:59.387Z</time>
      </trkpt>
      <trkpt lat="42.26553" lon="2.4477">
        <ele>714.8</ele>
        <time>2020-03-05T02:55:02.318Z</time>
      </trkpt>
      <trkpt lat="42.26553" lon="2.44771">
        <ele>714.5</ele>
        <time>2020-03-05T02:55:02.953Z</time>
      </trkpt>
      <trkpt lat="42.26556" lon="2.44767">
        <ele>714.5</ele>
        <time>2020-03-05T02:55:07.132Z</time>
      </trkpt>
      <trkpt lat="42.26555" lon="2.44764">
        <ele>715.9</ele>
        <time>2020-03-05T02:55:09.798Z</time>
      </trkpt>
      <trkpt lat="42.26561" lon="2.44756">
        <ele>717.7</ele>
        <time>2020-03-05T02:55:18.077Z</time>
      </trkpt>
      <trkpt lat="42.26562" lon="2.4475">
        <ele>719.7</ele>
        <time>2020-03-05T02:55:22.460Z</time>
      </trkpt>
      <trkpt lat="42.26567" lon="2.44743">
        <ele>721.2</ele>
        <time>2020-03-05T02:55:30.200Z</time>
      </trkpt>
      <trkpt lat="42.2657" lon="2.44738">
        <ele>721.8</ele>
        <time>2020-03-05T02:55:34.568Z</time>
      </trkpt>
      <trkpt lat="42.26575" lon="2.44733">
        <ele>724.5</ele>
        <time>2020-03-05T02:55:41.292Z</time>
      </trkpt>
      <trkpt lat="42.26576" lon="2.4473">
        <ele>726</ele>
        <time>2020-03-05T02:55:43.913Z</time>
      </trkpt>
      <trkpt lat="42.26582" lon="2.44719">
        <ele>729.8</ele>
        <time>2020-03-05T02:55:54.375Z</time>
      </trkpt>
      <trkpt lat="42.26585" lon="2.44715">
        <ele>731.4</ele>
        <time>2020-03-05T02:55:58.650Z</time>
      </trkpt>
      <trkpt lat="42.26586" lon="2.44709">
        <ele>732.7</ele>
        <time>2020-03-05T02:56:03.296Z</time>
      </trkpt>
      <trkpt lat="42.26586" lon="2.44708">
        <ele>735</ele>
        <time>2020-03-05T02:56:05.495Z</time>
      </trkpt>
      <trkpt lat="42.26586" lon="2.44708">
        <ele>730.2</ele>
        <time>2020-03-05T02:56:09.748Z</time>
      </trkpt>
      <trkpt lat="42.26586" lon="2.44708">
        <ele>733.2</ele>
        <time>2020-03-05T02:56:12.389Z</time>
      </trkpt>
      <trkpt lat="42.26586" lon="2.44708">
        <ele>741.3</ele>
        <time>2020-03-05T02:56:19.554Z</time>
      </trkpt>
      <trkpt lat="42.26586" lon="2.44708">
        <ele>726.8</ele>
        <time>2020-03-05T02:56:32.403Z</time>
      </trkpt>
      <trkpt lat="42.26586" lon="2.44708">
        <ele>734.2</ele>
        <time>2020-03-05T02:56:38.992Z</time>
      </trkpt>
      <trkpt lat="42.26586" lon="2.44708">
        <ele>736.1</ele>
        <time>2020-03-05T02:56:40.627Z</time>
      </trkpt>
      <trkpt lat="42.26586" lon="2.44708">
        <ele>727.3</ele>
        <time>2020-03-05T02:56:48.368Z</time>
      </trkpt>
      <trkpt lat="42.26586" lon="2.44708">
        <ele>732.7</ele>
        <time>2020-03-05T02:56:53.099Z</time>
      </trkpt>
      <trkpt lat="42.26593" lon="2.44707">
        <ele>735.2</ele>
        <time>2020-03-05T02:57:00.174Z</time>
      </trkpt>
      <trkpt lat="42.26594" lon="2.44709">
        <ele>735.6</ele>
        <time>2020-03-05T02:57:01.871Z</time>
      </trkpt>
      <trkpt lat="42.26596" lon="2.44702">
        <ele>737.5</ele>
        <time>2020-03-05T02:57:07.628Z</time>
      </trkpt>
      <trkpt lat="42.26599" lon="2.44698">
        <ele>739.4</ele>
        <time>2020-03-05T02:57:11.955Z</time>
      </trkpt>
      <trkpt lat="42.266" lon="2.44695">
        <ele>740.5</ele>
        <time>2020-03-05T02:57:14.602Z</time>
      </trkpt>
      <trkpt lat="42.26607" lon="2.44689">
        <ele>742.3</ele>
        <time>2020-03-05T02:57:23.468Z</time>
      </trkpt>
      <trkpt lat="42.26611" lon="2.44678">
        <ele>745.2</ele>
        <time>2020-03-05T02:57:32.657Z</time>
      </trkpt>
      <trkpt lat="42.26614" lon="2.44673">
        <ele>746.7</ele>
        <time>2020-03-05T02:57:37.073Z</time>
      </trkpt>
      <trkpt lat="42.26617" lon="2.44674">
        <ele>747</ele>
        <time>2020-03-05T02:57:39.662Z</time>
      </trkpt>
      <trkpt lat="42.26617" lon="2.44674">
        <ele>751.1</ele>
        <time>2020-03-05T02:57:43.259Z</time>
      </trkpt>
      <trkpt lat="42.26617" lon="2.44674">
        <ele>744.3</ele>
        <time>2020-03-05T02:57:49.246Z</time>
      </trkpt>
      <trkpt lat="42.26617" lon="2.44674">
        <ele>747.7</ele>
        <time>2020-03-05T02:57:52.217Z</time>
      </trkpt>
      <trkpt lat="42.26616" lon="2.44674">
        <ele>758.8</ele>
        <time>2020-03-05T02:58:02.028Z</time>
      </trkpt>
      <trkpt lat="42.26616" lon="2.44674">
        <ele>740.5</ele>
        <time>2020-03-05T02:58:18.222Z</time>
      </trkpt>
      <trkpt lat="42.26616" lon="2.44674">
        <ele>746.7</ele>
        <time>2020-03-05T02:58:23.712Z</time>
      </trkpt>
      <trkpt lat="42.26616" lon="2.44674">
        <ele>745.1</ele>
        <time>2020-03-05T02:58:25.084Z</time>
      </trkpt>
      <trkpt lat="42.26617" lon="2.44673">
        <ele>751.4</ele>
        <time>2020-03-05T02:58:30.688Z</time>
      </trkpt>
      <trkpt lat="42.26616" lon="2.44673">
        <ele>751.5</ele>
        <time>2020-03-05T02:58:30.911Z</time>
      </trkpt>
      <trkpt lat="42.26622" lon="2.44669">
        <ele>748</ele>
        <time>2020-03-05T02:58:37.562Z</time>
      </trkpt>
      <trkpt lat="42.26623" lon="2.44667">
        <ele>748.5</ele>
        <time>2020-03-05T02:58:39.924Z</time>
      </trkpt>
      <trkpt lat="42.26632" lon="2.44654">
        <ele>751.9</ele>
        <time>2020-03-05T02:58:53.150Z</time>
      </trkpt>
      <trkpt lat="42.26634" lon="2.44653">
        <ele>751.8</ele>
        <time>2020-03-05T02:58:54.914Z</time>
      </trkpt>
      <trkpt lat="42.26635" lon="2.4465">
        <ele>753.4</ele>
        <time>2020-03-05T02:58:58.108Z</time>
      </trkpt>
      <trkpt lat="42.26642" lon="2.44636">
        <ele>755.9</ele>
        <time>2020-03-05T02:59:10.253Z</time>
      </trkpt>
      <trkpt lat="42.26646" lon="2.44631">
        <ele>758.2</ele>
        <time>2020-03-05T02:59:15.740Z</time>
      </trkpt>
      <trkpt lat="42.26653" lon="2.44623">
        <ele>760.5</ele>
        <time>2020-03-05T02:59:25.020Z</time>
      </trkpt>
      <trkpt lat="42.26654" lon="2.44615">
        <ele>762.5</ele>
        <time>2020-03-05T02:59:31.392Z</time>
      </trkpt>
      <trkpt lat="42.26655" lon="2.4461">
        <ele>763.5</ele>
        <time>2020-03-05T02:59:35.253Z</time>
      </trkpt>
      <trkpt lat="42.26652" lon="2.44599">
        <ele>764.9</ele>
        <time>2020-03-05T02:59:43.888Z</time>
      </trkpt>
      <trkpt lat="42.26657" lon="2.44588">
        <ele>767.3</ele>
        <time>2020-03-05T02:59:53.442Z</time>
      </trkpt>
      <trkpt lat="42.26661" lon="2.44569">
        <ele>770.1</ele>
        <time>2020-03-05T03:00:07.495Z</time>
      </trkpt>
      <trkpt lat="42.26662" lon="2.44561">
        <ele>772.1</ele>
        <time>2020-03-05T03:00:14.351Z</time>
      </trkpt>
      <trkpt lat="42.26663" lon="2.44559">
        <ele>776.5</ele>
        <time>2020-03-05T03:00:18.322Z</time>
      </trkpt>
      <trkpt lat="42.26663" lon="2.44558">
        <ele>768.9</ele>
        <time>2020-03-05T03:00:25.106Z</time>
      </trkpt>
      <trkpt lat="42.26665" lon="2.44554">
        <ele>774.6</ele>
        <time>2020-03-05T03:00:31.287Z</time>
      </trkpt>
      <trkpt lat="42.26666" lon="2.44548">
        <ele>774.2</ele>
        <time>2020-03-05T03:00:36.044Z</time>
      </trkpt>
      <trkpt lat="42.26666" lon="2.44546">
        <ele>775.1</ele>
        <time>2020-03-05T03:00:37.673Z</time>
      </trkpt>
      <trkpt lat="42.26667" lon="2.44536">
        <ele>777.4</ele>
        <time>2020-03-05T03:00:45.697Z</time>
      </trkpt>
      <trkpt lat="42.26667" lon="2.44536">
        <ele>780.3</ele>
        <time>2020-03-05T03:00:48.215Z</time>
      </trkpt>
      <trkpt lat="42.26667" lon="2.44536">
        <ele>773.5</ele>
        <time>2020-03-05T03:00:54.177Z</time>
      </trkpt>
      <trkpt lat="42.26667" lon="2.44536">
        <ele>778.3</ele>
        <time>2020-03-05T03:00:58.418Z</time>
      </trkpt>
      <trkpt lat="42.26667" lon="2.44536">
        <ele>788.1</ele>
        <time>2020-03-05T03:01:07.067Z</time>
      </trkpt>
      <trkpt lat="42.26667" lon="2.44536">
        <ele>768.3</ele>
        <time>2020-03-05T03:01:24.571Z</time>
      </trkpt>
      <trkpt lat="42.26667" lon="2.44536">
        <ele>779.7</ele>
        <time>2020-03-05T03:01:34.657Z</time>
      </trkpt>
      <trkpt lat="42.26667" lon="2.44536">
        <ele>776</ele>
        <time>2020-03-05T03:01:37.946Z</time>
      </trkpt>
      <trkpt lat="42.26667" lon="2.44536">
        <ele>782.7</ele>
        <time>2020-03-05T03:01:43.853Z</time>
      </trkpt>
      <trkpt lat="42.26667" lon="2.44536">
        <ele>771.2</ele>
        <time>2020-03-05T03:01:54.028Z</time>
      </trkpt>
      <trkpt lat="42.26669" lon="2.44531">
        <ele>778.4</ele>
        <time>2020-03-05T03:02:01.612Z</time>
      </trkpt>
      <trkpt lat="42.26672" lon="2.44523">
        <ele>779.8</ele>
        <time>2020-03-05T03:02:08.209Z</time>
      </trkpt>
      <trkpt lat="42.26674" lon="2.44516">
        <ele>780.7</ele>
        <time>2020-03-05T03:02:13.270Z</time>
      </trkpt>
      <trkpt lat="42.26676" lon="2.44507">
        <ele>782.1</ele>
        <time>2020-03-05T03:02:20.914Z</time>
      </trkpt>
      <trkpt lat="42.2668" lon="2.44494">
        <ele>784</ele>
        <time>2020-03-05T03:02:31.089Z</time>
      </trkpt>
      <trkpt lat="42.26683" lon="2.4448">
        <ele>785</ele>
        <time>2020-03-05T03:02:42.068Z</time>
      </trkpt>
      <trkpt lat="42.26687" lon="2.44474">
        <ele>786</ele>
        <time>2020-03-05T03:02:47.739Z</time>
      </trkpt>
      <trkpt lat="42.2669" lon="2.44465">
        <ele>787.5</ele>
        <time>2020-03-05T03:02:55.236Z</time>
      </trkpt>
      <trkpt lat="42.26691" lon="2.44457">
        <ele>788.4</ele>
        <time>2020-03-05T03:03:01.092Z</time>
      </trkpt>
      <trkpt lat="42.26695" lon="2.4445">
        <ele>789.1</ele>
        <time>2020-03-05T03:03:07.512Z</time>
      </trkpt>
      <trkpt lat="42.26696" lon="2.4445">
        <ele>789.3</ele>
        <time>2020-03-05T03:03:08.117Z</time>
      </trkpt>
      <trkpt lat="42.26696" lon="2.44445">
        <ele>791</ele>
        <time>2020-03-05T03:03:12.116Z</time>
      </trkpt>
      <trkpt lat="42.26699" lon="2.44431">
        <ele>793.8</ele>
        <time>2020-03-05T03:03:22.809Z</time>
      </trkpt>
      <trkpt lat="42.267" lon="2.44429">
        <ele>794.2</ele>
        <time>2020-03-05T03:03:24.342Z</time>
      </trkpt>
      <trkpt lat="42.267" lon="2.44427">
        <ele>794.3</ele>
        <time>2020-03-05T03:03:25.679Z</time>
      </trkpt>
      <trkpt lat="42.26701" lon="2.44421">
        <ele>797.5</ele>
        <time>2020-03-05T03:03:30.974Z</time>
      </trkpt>
      <trkpt lat="42.26705" lon="2.44411">
        <ele>800</ele>
        <time>2020-03-05T03:03:39.900Z</time>
      </trkpt>
      <trkpt lat="42.26711" lon="2.444">
        <ele>801.9</ele>
        <time>2020-03-05T03:03:50.234Z</time>
      </trkpt>
      <trkpt lat="42.26712" lon="2.44396">
        <ele>802.5</ele>
        <time>2020-03-05T03:03:53.310Z</time>
      </trkpt>
      <trkpt lat="42.26715" lon="2.44382">
        <ele>804.8</ele>
        <time>2020-03-05T03:04:03.763Z</time>
      </trkpt>
      <trkpt lat="42.26719" lon="2.44374">
        <ele>806.3</ele>
        <time>2020-03-05T03:04:11.199Z</time>
      </trkpt>
      <trkpt lat="42.26724" lon="2.44361">
        <ele>808.2</ele>
        <time>2020-03-05T03:04:21.953Z</time>
      </trkpt>
      <trkpt lat="42.26727" lon="2.44353">
        <ele>808.3</ele>
        <time>2020-03-05T03:04:28.255Z</time>
      </trkpt>
      <trkpt lat="42.26727" lon="2.44352">
        <ele>808.2</ele>
        <time>2020-03-05T03:04:29.343Z</time>
      </trkpt>
      <trkpt lat="42.26734" lon="2.4434">
        <ele>809.2</ele>
        <time>2020-03-05T03:04:40.509Z</time>
      </trkpt>
      <trkpt lat="42.26736" lon="2.44329">
        <ele>809.1</ele>
        <time>2020-03-05T03:04:48.461Z</time>
      </trkpt>
      <trkpt lat="42.26743" lon="2.44321">
        <ele>809.7</ele>
        <time>2020-03-05T03:04:57.689Z</time>
      </trkpt>
      <trkpt lat="42.26748" lon="2.44312">
        <ele>810</ele>
        <time>2020-03-05T03:05:05.717Z</time>
      </trkpt>
      <trkpt lat="42.26748" lon="2.44312">
        <ele>810.6</ele>
        <time>2020-03-05T03:05:06.392Z</time>
      </trkpt>
      <trkpt lat="42.26757" lon="2.44304">
        <ele>811.5</ele>
        <time>2020-03-05T03:05:17.384Z</time>
      </trkpt>
      <trkpt lat="42.26763" lon="2.44298">
        <ele>811.5</ele>
        <time>2020-03-05T03:05:24.693Z</time>
      </trkpt>
      <trkpt lat="42.26763" lon="2.44297">
        <ele>812</ele>
        <time>2020-03-05T03:05:25.572Z</time>
      </trkpt>
      <trkpt lat="42.26775" lon="2.44282">
        <ele>812.9</ele>
        <time>2020-03-05T03:05:41.858Z</time>
      </trkpt>
      <trkpt lat="42.26784" lon="2.44267">
        <ele>813.8</ele>
        <time>2020-03-05T03:05:55.953Z</time>
      </trkpt>
      <trkpt lat="42.26784" lon="2.4426">
        <ele>815.4</ele>
        <time>2020-03-05T03:06:01.032Z</time>
      </trkpt>
      <trkpt lat="42.26787" lon="2.4425">
        <ele>815.9</ele>
        <time>2020-03-05T03:06:08.667Z</time>
      </trkpt>
      <trkpt lat="42.26787" lon="2.44249">
        <ele>816.3</ele>
        <time>2020-03-05T03:06:09.832Z</time>
      </trkpt>
      <trkpt lat="42.26793" lon="2.44236">
        <ele>816.8</ele>
        <time>2020-03-05T03:06:20.855Z</time>
      </trkpt>
      <trkpt lat="42.26792" lon="2.44231">
        <ele>817.3</ele>
        <time>2020-03-05T03:06:24.505Z</time>
      </trkpt>
      <trkpt lat="42.26794" lon="2.44224">
        <ele>818.2</ele>
        <time>2020-03-05T03:06:29.800Z</time>
      </trkpt>
      <trkpt lat="42.26795" lon="2.44222">
        <ele>817.3</ele>
        <time>2020-03-05T03:06:32.040Z</time>
      </trkpt>
      <trkpt lat="42.268" lon="2.44217">
        <ele>819.8</ele>
        <time>2020-03-05T03:06:38.410Z</time>
      </trkpt>
      <trkpt lat="42.26803" lon="2.44214">
        <ele>821.1</ele>
        <time>2020-03-05T03:06:42.343Z</time>
      </trkpt>
      <trkpt lat="42.26805" lon="2.44212">
        <ele>822.1</ele>
        <time>2020-03-05T03:06:44.969Z</time>
      </trkpt>
      <trkpt lat="42.26805" lon="2.44204">
        <ele>824.9</ele>
        <time>2020-03-05T03:06:51.364Z</time>
      </trkpt>
      <trkpt lat="42.26805" lon="2.44202">
        <ele>821.2</ele>
        <time>2020-03-05T03:06:54.860Z</time>
      </trkpt>
      <trkpt lat="42.26809" lon="2.44199">
        <ele>825.1</ele>
        <time>2020-03-05T03:07:00.207Z</time>
      </trkpt>
      <trkpt lat="42.26809" lon="2.44199">
        <ele>825</ele>
        <time>2020-03-05T03:07:00.690Z</time>
      </trkpt>
      <trkpt lat="42.26811" lon="2.44182">
        <ele>827.4</ele>
        <time>2020-03-05T03:07:13.289Z</time>
      </trkpt>
      <trkpt lat="42.26811" lon="2.44182">
        <ele>827.5</ele>
        <time>2020-03-05T03:07:13.441Z</time>
      </trkpt>
      <trkpt lat="42.26816" lon="2.44174">
        <ele>829.3</ele>
        <time>2020-03-05T03:07:20.718Z</time>
      </trkpt>
      <trkpt lat="42.2682" lon="2.44164">
        <ele>830.8</ele>
        <time>2020-03-05T03:07:29.319Z</time>
      </trkpt>
      <trkpt lat="42.26823" lon="2.44162">
        <ele>832.6</ele>
        <time>2020-03-05T03:07:33.215Z</time>
      </trkpt>
      <trkpt lat="42.26826" lon="2.44158">
        <ele>833.3</ele>
        <time>2020-03-05T03:07:37.268Z</time>
      </trkpt>
      <trkpt lat="42.26826" lon="2.44157">
        <ele>832.7</ele>
        <time>2020-03-05T03:07:38.404Z</time>
      </trkpt>
      <trkpt lat="42.26825" lon="2.44157">
        <ele>833.2</ele>
        <time>2020-03-05T03:07:39.042Z</time>
      </trkpt>
      <trkpt lat="42.26824" lon="2.44157">
        <ele>832.7</ele>
        <time>2020-03-05T03:07:39.868Z</time>
      </trkpt>
      <trkpt lat="42.26825" lon="2.44157">
        <ele>835.7</ele>
        <time>2020-03-05T03:07:42.532Z</time>
      </trkpt>
      <trkpt lat="42.26825" lon="2.44157">
        <ele>829.3</ele>
        <time>2020-03-05T03:07:48.186Z</time>
      </trkpt>
      <trkpt lat="42.26825" lon="2.44157">
        <ele>835.6</ele>
        <time>2020-03-05T03:07:53.797Z</time>
      </trkpt>
      <trkpt lat="42.26825" lon="2.44157">
        <ele>830.4</ele>
        <time>2020-03-05T03:07:58.443Z</time>
      </trkpt>
      <trkpt lat="42.26825" lon="2.44157">
        <ele>834.6</ele>
        <time>2020-03-05T03:08:02.208Z</time>
      </trkpt>
      <trkpt lat="42.26825" lon="2.44157">
        <ele>829.2</ele>
        <time>2020-03-05T03:08:06.990Z</time>
      </trkpt>
      <trkpt lat="42.26825" lon="2.44157">
        <ele>833.2</ele>
        <time>2020-03-05T03:08:10.485Z</time>
      </trkpt>
      <trkpt lat="42.26825" lon="2.44157">
        <ele>833.6</ele>
        <time>2020-03-05T03:08:11.111Z</time>
      </trkpt>
      <trkpt lat="42.26824" lon="2.44158">
        <ele>835.6</ele>
        <time>2020-03-05T03:08:13.030Z</time>
      </trkpt>
      <trkpt lat="42.26824" lon="2.44158">
        <ele>831.4</ele>
        <time>2020-03-05T03:08:16.781Z</time>
      </trkpt>
      <trkpt lat="42.26824" lon="2.44158">
        <ele>835.6</ele>
        <time>2020-03-05T03:08:20.556Z</time>
      </trkpt>
      <trkpt lat="42.26824" lon="2.44158">
        <ele>830.8</ele>
        <time>2020-03-05T03:08:24.819Z</time>
      </trkpt>
      <trkpt lat="42.26824" lon="2.44158">
        <ele>834.1</ele>
        <time>2020-03-05T03:08:27.718Z</time>
      </trkpt>
      <trkpt lat="42.26825" lon="2.44159">
        <ele>833.1</ele>
        <time>2020-03-05T03:08:28.770Z</time>
      </trkpt>
      <trkpt lat="42.26825" lon="2.44158">
        <ele>833.8</ele>
        <time>2020-03-05T03:08:29.415Z</time>
      </trkpt>
      <trkpt lat="42.26825" lon="2.44157">
        <ele>833.7</ele>
        <time>2020-03-05T03:08:30.180Z</time>
      </trkpt>
      <trkpt lat="42.26825" lon="2.44157">
        <ele>840</ele>
        <time>2020-03-05T03:08:35.777Z</time>
      </trkpt>
      <trkpt lat="42.26825" lon="2.44157">
        <ele>825.9</ele>
        <time>2020-03-05T03:08:48.216Z</time>
      </trkpt>
      <trkpt lat="42.26825" lon="2.44157">
        <ele>834</ele>
        <time>2020-03-05T03:08:55.390Z</time>
      </trkpt>
      <trkpt lat="42.26825" lon="2.44157">
        <ele>838.8</ele>
        <time>2020-03-05T03:08:59.637Z</time>
      </trkpt>
      <trkpt lat="42.26825" lon="2.44157">
        <ele>826.4</ele>
        <time>2020-03-05T03:09:10.641Z</time>
      </trkpt>
      <trkpt lat="42.26825" lon="2.44157">
        <ele>844.2</ele>
        <time>2020-03-05T03:09:26.375Z</time>
      </trkpt>
      <trkpt lat="42.26825" lon="2.44157">
        <ele>821.5</ele>
        <time>2020-03-05T03:09:46.422Z</time>
      </trkpt>
      <trkpt lat="42.26825" lon="2.44157">
        <ele>832.7</ele>
        <time>2020-03-05T03:09:56.326Z</time>
      </trkpt>
      <trkpt lat="42.26825" lon="2.44157">
        <ele>848.1</ele>
        <time>2020-03-05T03:10:09.929Z</time>
      </trkpt>
      <trkpt lat="42.26825" lon="2.44157">
        <ele>816.5</ele>
        <time>2020-03-05T03:10:37.911Z</time>
      </trkpt>
      <trkpt lat="42.26824" lon="2.44157">
        <ele>833.7</ele>
        <time>2020-03-05T03:10:53.166Z</time>
      </trkpt>
      <trkpt lat="42.26821" lon="2.44157">
        <ele>833.8</ele>
        <time>2020-03-05T03:10:56.223Z</time>
      </trkpt>
      <trkpt lat="42.26821" lon="2.44157">
        <ele>837.6</ele>
        <time>2020-03-05T03:10:59.608Z</time>
      </trkpt>
      <trkpt lat="42.26821" lon="2.44157">
        <ele>829.2</ele>
        <time>2020-03-05T03:11:07.010Z</time>
      </trkpt>
      <trkpt lat="42.26821" lon="2.44156">
        <ele>839.9</ele>
        <time>2020-03-05T03:11:16.450Z</time>
      </trkpt>
      <trkpt lat="42.26821" lon="2.44157">
        <ele>829.8</ele>
        <time>2020-03-05T03:11:25.407Z</time>
      </trkpt>
      <trkpt lat="42.2682" lon="2.44156">
        <ele>833.8</ele>
        <time>2020-03-05T03:11:28.941Z</time>
      </trkpt>
      <trkpt lat="42.26822" lon="2.44149">
        <ele>835</ele>
        <time>2020-03-05T03:11:34.607Z</time>
      </trkpt>
      <trkpt lat="42.26826" lon="2.44148">
        <ele>836</ele>
        <time>2020-03-05T03:11:38.518Z</time>
      </trkpt>
      <trkpt lat="42.26831" lon="2.44136">
        <ele>838</ele>
        <time>2020-03-05T03:11:48.352Z</time>
      </trkpt>
      <trkpt lat="42.26834" lon="2.44132">
        <ele>838.9</ele>
        <time>2020-03-05T03:11:52.569Z</time>
      </trkpt>
      <trkpt lat="42.26837" lon="2.44128">
        <ele>839.3</ele>
        <time>2020-03-05T03:11:57.123Z</time>
      </trkpt>
      <trkpt lat="42.26837" lon="2.44127">
        <ele>840.3</ele>
        <time>2020-03-05T03:11:58.573Z</time>
      </trkpt>
      <trkpt lat="42.26843" lon="2.44122">
        <ele>841.3</ele>
        <time>2020-03-05T03:12:05.396Z</time>
      </trkpt>
      <trkpt lat="42.26843" lon="2.44114">
        <ele>842.4</ele>
        <time>2020-03-05T03:12:11.172Z</time>
      </trkpt>
      <trkpt lat="42.26844" lon="2.44112">
        <ele>841.8</ele>
        <time>2020-03-05T03:12:12.505Z</time>
      </trkpt>
      <trkpt lat="42.26849" lon="2.44095">
        <ele>843.7</ele>
        <time>2020-03-05T03:12:25.769Z</time>
      </trkpt>
      <trkpt lat="42.26847" lon="2.44088">
        <ele>843.6</ele>
        <time>2020-03-05T03:12:31.390Z</time>
      </trkpt>
      <trkpt lat="42.26848" lon="2.44089">
        <ele>844.1</ele>
        <time>2020-03-05T03:12:32.230Z</time>
      </trkpt>
      <trkpt lat="42.26849" lon="2.44082">
        <ele>845.1</ele>
        <time>2020-03-05T03:12:37.558Z</time>
      </trkpt>
      <trkpt lat="42.26856" lon="2.44076">
        <ele>847.1</ele>
        <time>2020-03-05T03:12:45.952Z</time>
      </trkpt>
      <trkpt lat="42.2686" lon="2.44077">
        <ele>848</ele>
        <time>2020-03-05T03:12:49.645Z</time>
      </trkpt>
      <trkpt lat="42.26862" lon="2.44076">
        <ele>848.9</ele>
        <time>2020-03-05T03:12:52.623Z</time>
      </trkpt>
      <trkpt lat="42.26866" lon="2.44072">
        <ele>851.1</ele>
        <time>2020-03-05T03:12:57.946Z</time>
      </trkpt>
      <trkpt lat="42.26867" lon="2.44071">
        <ele>849.5</ele>
        <time>2020-03-05T03:12:59.544Z</time>
      </trkpt>
      <trkpt lat="42.26868" lon="2.44061">
        <ele>850.6</ele>
        <time>2020-03-05T03:13:06.701Z</time>
      </trkpt>
      <trkpt lat="42.26869" lon="2.44059">
        <ele>850.6</ele>
        <time>2020-03-05T03:13:08.761Z</time>
      </trkpt>
      <trkpt lat="42.26869" lon="2.44055">
        <ele>850.5</ele>
        <time>2020-03-05T03:13:11.610Z</time>
      </trkpt>
      <trkpt lat="42.26868" lon="2.44044">
        <ele>850.4</ele>
        <time>2020-03-05T03:13:19.620Z</time>
      </trkpt>
      <trkpt lat="42.26867" lon="2.44042">
        <ele>850.9</ele>
        <time>2020-03-05T03:13:21.293Z</time>
      </trkpt>
      <trkpt lat="42.26871" lon="2.44033">
        <ele>852.5</ele>
        <time>2020-03-05T03:13:28.397Z</time>
      </trkpt>
      <trkpt lat="42.26876" lon="2.44019">
        <ele>853</ele>
        <time>2020-03-05T03:13:40.191Z</time>
      </trkpt>
      <trkpt lat="42.2688" lon="2.44012">
        <ele>853.4</ele>
        <time>2020-03-05T03:13:46.281Z</time>
      </trkpt>
      <trkpt lat="42.26885" lon="2.44003">
        <ele>854.3</ele>
        <time>2020-03-05T03:13:54.994Z</time>
      </trkpt>
      <trkpt lat="42.26889" lon="2.43998">
        <ele>855.2</ele>
        <time>2020-03-05T03:14:00.147Z</time>
      </trkpt>
      <trkpt lat="42.26892" lon="2.4399">
        <ele>855.9</ele>
        <time>2020-03-05T03:14:06.649Z</time>
      </trkpt>
      <trkpt lat="42.26898" lon="2.43986">
        <ele>856.8</ele>
        <time>2020-03-05T03:14:13.820Z</time>
      </trkpt>
      <trkpt lat="42.26902" lon="2.43991">
        <ele>858.3</ele>
        <time>2020-03-05T03:14:19.203Z</time>
      </trkpt>
      <trkpt lat="42.26905" lon="2.4399">
        <ele>859.1</ele>
        <time>2020-03-05T03:14:21.793Z</time>
      </trkpt>
      <trkpt lat="42.26907" lon="2.4399">
        <ele>859.2</ele>
        <time>2020-03-05T03:14:23.676Z</time>
      </trkpt>
      <trkpt lat="42.26914" lon="2.43987">
        <ele>862.5</ele>
        <time>2020-03-05T03:14:31.393Z</time>
      </trkpt>
      <trkpt lat="42.26922" lon="2.43984">
        <ele>865.3</ele>
        <time>2020-03-05T03:14:40.255Z</time>
      </trkpt>
      <trkpt lat="42.26923" lon="2.43984">
        <ele>868.8</ele>
        <time>2020-03-05T03:14:43.425Z</time>
      </trkpt>
      <trkpt lat="42.26924" lon="2.43984">
        <ele>862.5</ele>
        <time>2020-03-05T03:14:49.006Z</time>
      </trkpt>
      <trkpt lat="42.26926" lon="2.43984">
        <ele>866.8</ele>
        <time>2020-03-05T03:14:53.614Z</time>
      </trkpt>
      <trkpt lat="42.26926" lon="2.43984">
        <ele>872.6</ele>
        <time>2020-03-05T03:14:58.744Z</time>
      </trkpt>
      <trkpt lat="42.26926" lon="2.43984">
        <ele>858.7</ele>
        <time>2020-03-05T03:15:11.084Z</time>
      </trkpt>
      <trkpt lat="42.26926" lon="2.43984">
        <ele>878.7</ele>
        <time>2020-03-05T03:15:28.828Z</time>
      </trkpt>
      <trkpt lat="42.26926" lon="2.43984">
        <ele>857.2</ele>
        <time>2020-03-05T03:15:47.837Z</time>
      </trkpt>
      <trkpt lat="42.26926" lon="2.43984">
        <ele>880.3</ele>
        <time>2020-03-05T03:16:08.273Z</time>
      </trkpt>
      <trkpt lat="42.26926" lon="2.43983">
        <ele>857.2</ele>
        <time>2020-03-05T03:16:28.713Z</time>
      </trkpt>
      <trkpt lat="42.26927" lon="2.43983">
        <ele>868.2</ele>
        <time>2020-03-05T03:16:38.445Z</time>
      </trkpt>
      <trkpt lat="42.26927" lon="2.43983">
        <ele>860.6</ele>
        <time>2020-03-05T03:16:45.232Z</time>
      </trkpt>
      <trkpt lat="42.26931" lon="2.43981">
        <ele>867.2</ele>
        <time>2020-03-05T03:16:52.104Z</time>
      </trkpt>
      <trkpt lat="42.26935" lon="2.43972">
        <ele>869.2</ele>
        <time>2020-03-05T03:17:00.146Z</time>
      </trkpt>
      <trkpt lat="42.26936" lon="2.43971">
        <ele>873.1</ele>
        <time>2020-03-05T03:17:03.783Z</time>
      </trkpt>
      <trkpt lat="42.26937" lon="2.43969">
        <ele>867.8</ele>
        <time>2020-03-05T03:17:08.810Z</time>
      </trkpt>
      <trkpt lat="42.26937" lon="2.43968">
        <ele>873.6</ele>
        <time>2020-03-05T03:17:13.983Z</time>
      </trkpt>
      <trkpt lat="42.26937" lon="2.43967">
        <ele>868.4</ele>
        <time>2020-03-05T03:17:18.631Z</time>
      </trkpt>
      <trkpt lat="42.26941" lon="2.43961">
        <ele>871.5</ele>
        <time>2020-03-05T03:17:25.136Z</time>
      </trkpt>
      <trkpt lat="42.26944" lon="2.43959">
        <ele>874</ele>
        <time>2020-03-05T03:17:29.067Z</time>
      </trkpt>
      <trkpt lat="42.26946" lon="2.43964">
        <ele>872.1</ele>
        <time>2020-03-05T03:17:33.421Z</time>
      </trkpt>
      <trkpt lat="42.26948" lon="2.43962">
        <ele>873.2</ele>
        <time>2020-03-05T03:17:36.212Z</time>
      </trkpt>
      <trkpt lat="42.26953" lon="2.4396">
        <ele>872.6</ele>
        <time>2020-03-05T03:17:41.180Z</time>
      </trkpt>
      <trkpt lat="42.26958" lon="2.43955">
        <ele>872.5</ele>
        <time>2020-03-05T03:17:47.131Z</time>
      </trkpt>
      <trkpt lat="42.26963" lon="2.43946">
        <ele>873.6</ele>
        <time>2020-03-05T03:17:55.272Z</time>
      </trkpt>
      <trkpt lat="42.26972" lon="2.4394">
        <ele>874.9</ele>
        <time>2020-03-05T03:18:05.171Z</time>
      </trkpt>
      <trkpt lat="42.26975" lon="2.43937">
        <ele>875.6</ele>
        <time>2020-03-05T03:18:08.845Z</time>
      </trkpt>
      <trkpt lat="42.26983" lon="2.43929">
        <ele>876.3</ele>
        <time>2020-03-05T03:18:18.752Z</time>
      </trkpt>
      <trkpt lat="42.26984" lon="2.43928">
        <ele>876.3</ele>
        <time>2020-03-05T03:18:19.919Z</time>
      </trkpt>
      <trkpt lat="42.26994" lon="2.43918">
        <ele>877.5</ele>
        <time>2020-03-05T03:18:32.457Z</time>
      </trkpt>
      <trkpt lat="42.27001" lon="2.43909">
        <ele>876.9</ele>
        <time>2020-03-05T03:18:41.755Z</time>
      </trkpt>
      <trkpt lat="42.27009" lon="2.43903">
        <ele>877.4</ele>
        <time>2020-03-05T03:18:51.104Z</time>
      </trkpt>
      <trkpt lat="42.27018" lon="2.43896">
        <ele>878.5</ele>
        <time>2020-03-05T03:19:00.947Z</time>
      </trkpt>
      <trkpt lat="42.27025" lon="2.43887">
        <ele>878.3</ele>
        <time>2020-03-05T03:19:10.607Z</time>
      </trkpt>
      <trkpt lat="42.27039" lon="2.43876">
        <ele>880.8</ele>
        <time>2020-03-05T03:19:26.512Z</time>
      </trkpt>
      <trkpt lat="42.27042" lon="2.43873">
        <ele>882.2</ele>
        <time>2020-03-05T03:19:30.412Z</time>
      </trkpt>
      <trkpt lat="42.27043" lon="2.43872">
        <ele>882.2</ele>
        <time>2020-03-05T03:19:31.771Z</time>
      </trkpt>
      <trkpt lat="42.27044" lon="2.43871">
        <ele>876.5</ele>
        <time>2020-03-05T03:19:36.938Z</time>
      </trkpt>
      <trkpt lat="42.27053" lon="2.43862">
        <ele>882.2</ele>
        <time>2020-03-05T03:19:49.467Z</time>
      </trkpt>
      <trkpt lat="42.27055" lon="2.43861">
        <ele>882.7</ele>
        <time>2020-03-05T03:19:51.081Z</time>
      </trkpt>
      <trkpt lat="42.27057" lon="2.43858">
        <ele>882.7</ele>
        <time>2020-03-05T03:19:53.737Z</time>
      </trkpt>
      <trkpt lat="42.2706" lon="2.43854">
        <ele>883.3</ele>
        <time>2020-03-05T03:19:57.654Z</time>
      </trkpt>
      <trkpt lat="42.27061" lon="2.43854">
        <ele>883.3</ele>
        <time>2020-03-05T03:19:58.852Z</time>
      </trkpt>
      <trkpt lat="42.2707" lon="2.43846">
        <ele>883.6</ele>
        <time>2020-03-05T03:20:09.614Z</time>
      </trkpt>
      <trkpt lat="42.27075" lon="2.43841">
        <ele>884.5</ele>
        <time>2020-03-05T03:20:15.923Z</time>
      </trkpt>
      <trkpt lat="42.27081" lon="2.43836">
        <ele>885</ele>
        <time>2020-03-05T03:20:22.934Z</time>
      </trkpt>
      <trkpt lat="42.27081" lon="2.43838">
        <ele>885</ele>
        <time>2020-03-05T03:20:24.094Z</time>
      </trkpt>
      <trkpt lat="42.27085" lon="2.43836">
        <ele>885</ele>
        <time>2020-03-05T03:20:28.379Z</time>
      </trkpt>
      <trkpt lat="42.27087" lon="2.43836">
        <ele>885.1</ele>
        <time>2020-03-05T03:20:30.463Z</time>
      </trkpt>
      <trkpt lat="42.27096" lon="2.43833">
        <ele>885.6</ele>
        <time>2020-03-05T03:20:39.124Z</time>
      </trkpt>
      <trkpt lat="42.27106" lon="2.43832">
        <ele>886</ele>
        <time>2020-03-05T03:20:49.300Z</time>
      </trkpt>
      <trkpt lat="42.27115" lon="2.43834">
        <ele>886.5</ele>
        <time>2020-03-05T03:20:58.556Z</time>
      </trkpt>
      <trkpt lat="42.27127" lon="2.43834">
        <ele>886</ele>
        <time>2020-03-05T03:21:09.694Z</time>
      </trkpt>
      <trkpt lat="42.27133" lon="2.43831">
        <ele>886</ele>
        <time>2020-03-05T03:21:16.124Z</time>
      </trkpt>
      <trkpt lat="42.27137" lon="2.43829">
        <ele>885.7</ele>
        <time>2020-03-05T03:21:20.239Z</time>
      </trkpt>
      <trkpt lat="42.27147" lon="2.43827">
        <ele>885.6</ele>
        <time>2020-03-05T03:21:30.159Z</time>
      </trkpt>
      <trkpt lat="42.27152" lon="2.43826">
        <ele>885.5</ele>
        <time>2020-03-05T03:21:35.230Z</time>
      </trkpt>
      <trkpt lat="42.27167" lon="2.43826">
        <ele>886.6</ele>
        <time>2020-03-05T03:21:49.830Z</time>
      </trkpt>
      <trkpt lat="42.2718" lon="2.43828">
        <ele>887.5</ele>
        <time>2020-03-05T03:22:03.236Z</time>
      </trkpt>
      <trkpt lat="42.27185" lon="2.43829">
        <ele>887.5</ele>
        <time>2020-03-05T03:22:07.734Z</time>
      </trkpt>
      <trkpt lat="42.27198" lon="2.43827">
        <ele>887</ele>
        <time>2020-03-05T03:22:20.924Z</time>
      </trkpt>
      <trkpt lat="42.272" lon="2.43827">
        <ele>887</ele>
        <time>2020-03-05T03:22:22.795Z</time>
      </trkpt>
      <trkpt lat="42.27212" lon="2.43819">
        <ele>889.3</ele>
        <time>2020-03-05T03:22:36.511Z</time>
      </trkpt>
      <trkpt lat="42.27213" lon="2.43818">
        <ele>886.5</ele>
        <time>2020-03-05T03:22:39.302Z</time>
      </trkpt>
      <trkpt lat="42.27224" lon="2.43806">
        <ele>888.9</ele>
        <time>2020-03-05T03:22:53.500Z</time>
      </trkpt>
      <trkpt lat="42.27226" lon="2.43804">
        <ele>892.8</ele>
        <time>2020-03-05T03:22:57.697Z</time>
      </trkpt>
      <trkpt lat="42.27229" lon="2.43801">
        <ele>889.3</ele>
        <time>2020-03-05T03:23:02.080Z</time>
      </trkpt>
      <trkpt lat="42.27229" lon="2.438">
        <ele>894.6</ele>
        <time>2020-03-05T03:23:06.823Z</time>
      </trkpt>
      <trkpt lat="42.2723" lon="2.438">
        <ele>886</ele>
        <time>2020-03-05T03:23:14.467Z</time>
      </trkpt>
      <trkpt lat="42.2723" lon="2.43799">
        <ele>893.7</ele>
        <time>2020-03-05T03:23:21.337Z</time>
      </trkpt>
      <trkpt lat="42.27231" lon="2.43799">
        <ele>889.5</ele>
        <time>2020-03-05T03:23:25.229Z</time>
      </trkpt>
      <trkpt lat="42.27231" lon="2.43798">
        <ele>888.8</ele>
        <time>2020-03-05T03:23:26.329Z</time>
      </trkpt>
      <trkpt lat="42.27233" lon="2.43795">
        <ele>892.3</ele>
        <time>2020-03-05T03:23:30.645Z</time>
      </trkpt>
      <trkpt lat="42.27234" lon="2.43794">
        <ele>884.7</ele>
        <time>2020-03-05T03:23:37.434Z</time>
      </trkpt>
      <trkpt lat="42.2724" lon="2.43789">
        <ele>888.9</ele>
        <time>2020-03-05T03:23:44.813Z</time>
      </trkpt>
      <trkpt lat="42.27294" lon="2.43763">
        <ele>885.9</ele>
        <time>2020-03-05T03:24:41.859Z</time>
      </trkpt>
      <trkpt lat="42.2729" lon="2.43762">
        <ele>884.9</ele>
        <time>2020-03-05T03:24:46.469Z</time>
      </trkpt>
      <trkpt lat="42.27284" lon="2.4376">
        <ele>884.2</ele>
        <time>2020-03-05T03:24:52.019Z</time>
      </trkpt>
      <trkpt lat="42.2728" lon="2.43758">
        <ele>883.4</ele>
        <time>2020-03-05T03:24:56.783Z</time>
      </trkpt>
      <trkpt lat="42.27275" lon="2.43756">
        <ele>882.8</ele>
        <time>2020-03-05T03:25:01.856Z</time>
      </trkpt>
      <trkpt lat="42.27272" lon="2.43755">
        <ele>881.9</ele>
        <time>2020-03-05T03:25:04.982Z</time>
      </trkpt>
      <trkpt lat="42.27272" lon="2.43754">
        <ele>881.9</ele>
        <time>2020-03-05T03:25:05.789Z</time>
      </trkpt>
      <trkpt lat="42.27272" lon="2.43747">
        <ele>881.2</ele>
        <time>2020-03-05T03:25:11.443Z</time>
      </trkpt>
      <trkpt lat="42.27273" lon="2.43739">
        <ele>880.3</ele>
        <time>2020-03-05T03:25:16.743Z</time>
      </trkpt>
      <trkpt lat="42.27274" lon="2.43733">
        <ele>879.6</ele>
        <time>2020-03-05T03:25:21.344Z</time>
      </trkpt>
      <trkpt lat="42.27275" lon="2.4373">
        <ele>878.5</ele>
        <time>2020-03-05T03:25:24.520Z</time>
      </trkpt>
      <trkpt lat="42.27276" lon="2.4373">
        <ele>878.1</ele>
        <time>2020-03-05T03:25:24.917Z</time>
      </trkpt>
      <trkpt lat="42.27276" lon="2.4373">
        <ele>877.8</ele>
        <time>2020-03-05T03:25:25.358Z</time>
      </trkpt>
      <trkpt lat="42.27276" lon="2.43729">
        <ele>877.7</ele>
        <time>2020-03-05T03:25:25.620Z</time>
      </trkpt>
      <trkpt lat="42.27279" lon="2.43724">
        <ele>877.3</ele>
        <time>2020-03-05T03:25:30.197Z</time>
      </trkpt>
      <trkpt lat="42.27282" lon="2.43717">
        <ele>876.7</ele>
        <time>2020-03-05T03:25:36.279Z</time>
      </trkpt>
      <trkpt lat="42.27286" lon="2.43711">
        <ele>875.7</ele>
        <time>2020-03-05T03:25:42.017Z</time>
      </trkpt>
      <trkpt lat="42.2729" lon="2.43707">
        <ele>875</ele>
        <time>2020-03-05T03:25:47.407Z</time>
      </trkpt>
      <trkpt lat="42.27293" lon="2.43702">
        <ele>874</ele>
        <time>2020-03-05T03:25:52.344Z</time>
      </trkpt>
      <trkpt lat="42.27298" lon="2.43696">
        <ele>873.3</ele>
        <time>2020-03-05T03:25:58.284Z</time>
      </trkpt>
      <trkpt lat="42.27301" lon="2.43692">
        <ele>872.6</ele>
        <time>2020-03-05T03:26:02.936Z</time>
      </trkpt>
      <trkpt lat="42.27305" lon="2.43688">
        <ele>872</ele>
        <time>2020-03-05T03:26:07.504Z</time>
      </trkpt>
      <trkpt lat="42.27308" lon="2.43684">
        <ele>871.5</ele>
        <time>2020-03-05T03:26:12.494Z</time>
      </trkpt>
      <trkpt lat="42.27311" lon="2.43678">
        <ele>870.6</ele>
        <time>2020-03-05T03:26:17.384Z</time>
      </trkpt>
      <trkpt lat="42.27315" lon="2.43675">
        <ele>870.1</ele>
        <time>2020-03-05T03:26:21.938Z</time>
      </trkpt>
      <trkpt lat="42.27319" lon="2.43671">
        <ele>869</ele>
        <time>2020-03-05T03:26:26.901Z</time>
      </trkpt>
      <trkpt lat="42.27323" lon="2.43666">
        <ele>868</ele>
        <time>2020-03-05T03:26:32.379Z</time>
      </trkpt>
      <trkpt lat="42.27326" lon="2.43659">
        <ele>866.9</ele>
        <time>2020-03-05T03:26:37.930Z</time>
      </trkpt>
      <trkpt lat="42.27328" lon="2.43654">
        <ele>865.8</ele>
        <time>2020-03-05T03:26:42.970Z</time>
      </trkpt>
      <trkpt lat="42.27331" lon="2.43647">
        <ele>865.1</ele>
        <time>2020-03-05T03:26:48.400Z</time>
      </trkpt>
      <trkpt lat="42.27334" lon="2.43642">
        <ele>864.2</ele>
        <time>2020-03-05T03:26:53.330Z</time>
      </trkpt>
      <trkpt lat="42.27336" lon="2.43635">
        <ele>863.5</ele>
        <time>2020-03-05T03:26:58.364Z</time>
      </trkpt>
      <trkpt lat="42.27338" lon="2.43629">
        <ele>862.6</ele>
        <time>2020-03-05T03:27:03.177Z</time>
      </trkpt>
      <trkpt lat="42.27341" lon="2.43625">
        <ele>862</ele>
        <time>2020-03-05T03:27:07.691Z</time>
      </trkpt>
      <trkpt lat="42.27343" lon="2.43619">
        <ele>861.8</ele>
        <time>2020-03-05T03:27:12.346Z</time>
      </trkpt>
      <trkpt lat="42.27344" lon="2.43613">
        <ele>861.4</ele>
        <time>2020-03-05T03:27:17.018Z</time>
      </trkpt>
      <trkpt lat="42.27345" lon="2.43607">
        <ele>860.9</ele>
        <time>2020-03-05T03:27:21.609Z</time>
      </trkpt>
      <trkpt lat="42.27346" lon="2.43601">
        <ele>860.8</ele>
        <time>2020-03-05T03:27:26.083Z</time>
      </trkpt>
      <trkpt lat="42.27346" lon="2.43595">
        <ele>860.4</ele>
        <time>2020-03-05T03:27:30.835Z</time>
      </trkpt>
      <trkpt lat="42.27347" lon="2.43587">
        <ele>859.5</ele>
        <time>2020-03-05T03:27:36.512Z</time>
      </trkpt>
      <trkpt lat="42.27346" lon="2.43581">
        <ele>858.5</ele>
        <time>2020-03-05T03:27:41.069Z</time>
      </trkpt>
      <trkpt lat="42.27346" lon="2.43575">
        <ele>857.8</ele>
        <time>2020-03-05T03:27:45.637Z</time>
      </trkpt>
      <trkpt lat="42.27345" lon="2.43568">
        <ele>856.7</ele>
        <time>2020-03-05T03:27:50.477Z</time>
      </trkpt>
      <trkpt lat="42.27344" lon="2.43562">
        <ele>855.7</ele>
        <time>2020-03-05T03:27:55.415Z</time>
      </trkpt>
      <trkpt lat="42.27343" lon="2.43555">
        <ele>854.8</ele>
        <time>2020-03-05T03:28:00.417Z</time>
      </trkpt>
      <trkpt lat="42.27343" lon="2.43549">
        <ele>853.7</ele>
        <time>2020-03-05T03:28:05.134Z</time>
      </trkpt>
      <trkpt lat="42.27342" lon="2.43542">
        <ele>853.1</ele>
        <time>2020-03-05T03:28:09.913Z</time>
      </trkpt>
      <trkpt lat="42.27342" lon="2.43536">
        <ele>852</ele>
        <time>2020-03-05T03:28:14.949Z</time>
      </trkpt>
      <trkpt lat="42.2734" lon="2.43529">
        <ele>850.9</ele>
        <time>2020-03-05T03:28:19.732Z</time>
      </trkpt>
      <trkpt lat="42.27339" lon="2.43523">
        <ele>849.8</ele>
        <time>2020-03-05T03:28:24.995Z</time>
      </trkpt>
      <trkpt lat="42.27338" lon="2.43516">
        <ele>849.1</ele>
        <time>2020-03-05T03:28:29.923Z</time>
      </trkpt>
      <trkpt lat="42.27338" lon="2.4351">
        <ele>848.1</ele>
        <time>2020-03-05T03:28:34.525Z</time>
      </trkpt>
      <trkpt lat="42.27339" lon="2.43503">
        <ele>847.2</ele>
        <time>2020-03-05T03:28:39.763Z</time>
      </trkpt>
      <trkpt lat="42.27339" lon="2.43495">
        <ele>846.2</ele>
        <time>2020-03-05T03:28:45.372Z</time>
      </trkpt>
      <trkpt lat="42.27339" lon="2.43488">
        <ele>844.9</ele>
        <time>2020-03-05T03:28:50.958Z</time>
      </trkpt>
      <trkpt lat="42.27337" lon="2.43482">
        <ele>844.4</ele>
        <time>2020-03-05T03:28:55.526Z</time>
      </trkpt>
      <trkpt lat="42.27335" lon="2.43476">
        <ele>843.8</ele>
        <time>2020-03-05T03:29:00.020Z</time>
      </trkpt>
      <trkpt lat="42.27333" lon="2.43471">
        <ele>843.9</ele>
        <time>2020-03-05T03:29:04.547Z</time>
      </trkpt>
      <trkpt lat="42.27332" lon="2.43468">
        <ele>843.6</ele>
        <time>2020-03-05T03:29:07.020Z</time>
      </trkpt>
      <trkpt lat="42.27332" lon="2.43467">
        <ele>843.6</ele>
        <time>2020-03-05T03:29:07.438Z</time>
      </trkpt>
      <trkpt lat="42.27332" lon="2.43467">
        <ele>843.6</ele>
        <time>2020-03-05T03:29:07.658Z</time>
      </trkpt>
      <trkpt lat="42.27332" lon="2.43466">
        <ele>843.5</ele>
        <time>2020-03-05T03:29:08.077Z</time>
      </trkpt>
      <trkpt lat="42.27331" lon="2.43459">
        <ele>843.6</ele>
        <time>2020-03-05T03:29:13.581Z</time>
      </trkpt>
      <trkpt lat="42.2733" lon="2.43454">
        <ele>843.9</ele>
        <time>2020-03-05T03:29:17.151Z</time>
      </trkpt>
      <trkpt lat="42.2733" lon="2.43454">
        <ele>844</ele>
        <time>2020-03-05T03:29:17.526Z</time>
      </trkpt>
      <trkpt lat="42.27329" lon="2.43453">
        <ele>844.1</ele>
        <time>2020-03-05T03:29:18.280Z</time>
      </trkpt>
      <trkpt lat="42.27329" lon="2.43453">
        <ele>843.8</ele>
        <time>2020-03-05T03:29:18.570Z</time>
      </trkpt>
      <trkpt lat="42.27326" lon="2.43448">
        <ele>843.2</ele>
        <time>2020-03-05T03:29:23.744Z</time>
      </trkpt>
      <trkpt lat="42.27323" lon="2.43444">
        <ele>842.4</ele>
        <time>2020-03-05T03:29:27.958Z</time>
      </trkpt>
      <trkpt lat="42.27322" lon="2.43444">
        <ele>842.3</ele>
        <time>2020-03-05T03:29:28.267Z</time>
      </trkpt>
      <trkpt lat="42.27322" lon="2.43444">
        <ele>842.2</ele>
        <time>2020-03-05T03:29:28.402Z</time>
      </trkpt>
      <trkpt lat="42.27322" lon="2.43444">
        <ele>842.1</ele>
        <time>2020-03-05T03:29:28.606Z</time>
      </trkpt>
      <trkpt lat="42.27322" lon="2.43444">
        <ele>842</ele>
        <time>2020-03-05T03:29:28.637Z</time>
      </trkpt>
      <trkpt lat="42.27323" lon="2.43444">
        <ele>841.9</ele>
        <time>2020-03-05T03:29:28.905Z</time>
      </trkpt>
      <trkpt lat="42.27324" lon="2.43446">
        <ele>842.1</ele>
        <time>2020-03-05T03:29:30.911Z</time>
      </trkpt>
      <trkpt lat="42.27324" lon="2.43445">
        <ele>842.1</ele>
        <time>2020-03-05T03:29:31.577Z</time>
      </trkpt>
      <trkpt lat="42.27324" lon="2.43438">
        <ele>842.7</ele>
        <time>2020-03-05T03:29:36.779Z</time>
      </trkpt>
      <trkpt lat="42.27324" lon="2.43436">
        <ele>842.8</ele>
        <time>2020-03-05T03:29:38.318Z</time>
      </trkpt>
      <trkpt lat="42.27324" lon="2.43436">
        <ele>842.7</ele>
        <time>2020-03-05T03:29:38.534Z</time>
      </trkpt>
      <trkpt lat="42.27327" lon="2.4344">
        <ele>843.2</ele>
        <time>2020-03-05T03:29:42.546Z</time>
      </trkpt>
      <trkpt lat="42.27326" lon="2.4344">
        <ele>843.4</ele>
        <time>2020-03-05T03:29:42.796Z</time>
      </trkpt>
      <trkpt lat="42.27326" lon="2.4344">
        <ele>843.4</ele>
        <time>2020-03-05T03:29:42.800Z</time>
      </trkpt>
      <trkpt lat="42.27326" lon="2.43439">
        <ele>843.4</ele>
        <time>2020-03-05T03:29:43.679Z</time>
      </trkpt>
      <trkpt lat="42.27326" lon="2.43435">
        <ele>843.7</ele>
        <time>2020-03-05T03:29:46.684Z</time>
      </trkpt>
      <trkpt lat="42.27326" lon="2.43435">
        <ele>843.7</ele>
        <time>2020-03-05T03:29:47.054Z</time>
      </trkpt>
      <trkpt lat="42.27324" lon="2.43434">
        <ele>843.4</ele>
        <time>2020-03-05T03:29:49.402Z</time>
      </trkpt>
      <trkpt lat="42.27324" lon="2.43433">
        <ele>843.4</ele>
        <time>2020-03-05T03:29:50.429Z</time>
      </trkpt>
      <trkpt lat="42.27325" lon="2.43425">
        <ele>843.8</ele>
        <time>2020-03-05T03:29:56.009Z</time>
      </trkpt>
      <trkpt lat="42.27328" lon="2.43421">
        <ele>844.2</ele>
        <time>2020-03-05T03:30:00.308Z</time>
      </trkpt>
      <trkpt lat="42.27328" lon="2.4342">
        <ele>844.4</ele>
        <time>2020-03-05T03:30:01.191Z</time>
      </trkpt>
      <trkpt lat="42.27323" lon="2.43417">
        <ele>844.7</ele>
        <time>2020-03-05T03:30:06.716Z</time>
      </trkpt>
      <trkpt lat="42.27323" lon="2.4341">
        <ele>844.1</ele>
        <time>2020-03-05T03:30:11.476Z</time>
      </trkpt>
      <trkpt lat="42.27323" lon="2.43404">
        <ele>843.8</ele>
        <time>2020-03-05T03:30:16.442Z</time>
      </trkpt>
      <trkpt lat="42.27324" lon="2.43397">
        <ele>843.3</ele>
        <time>2020-03-05T03:30:21.070Z</time>
      </trkpt>
      <trkpt lat="42.27324" lon="2.43391">
        <ele>842.7</ele>
        <time>2020-03-05T03:30:25.987Z</time>
      </trkpt>
      <trkpt lat="42.27322" lon="2.43385">
        <ele>842.2</ele>
        <time>2020-03-05T03:30:30.521Z</time>
      </trkpt>
      <trkpt lat="42.27319" lon="2.43382">
        <ele>842.1</ele>
        <time>2020-03-05T03:30:33.789Z</time>
      </trkpt>
      <trkpt lat="42.2732" lon="2.43382">
        <ele>842.1</ele>
        <time>2020-03-05T03:30:34.085Z</time>
      </trkpt>
      <trkpt lat="42.2732" lon="2.43382">
        <ele>842.1</ele>
        <time>2020-03-05T03:30:34.105Z</time>
      </trkpt>
      <trkpt lat="42.27319" lon="2.43382">
        <ele>842.2</ele>
        <time>2020-03-05T03:30:34.323Z</time>
      </trkpt>
      <trkpt lat="42.27315" lon="2.43379">
        <ele>842.2</ele>
        <time>2020-03-05T03:30:38.997Z</time>
      </trkpt>
      <trkpt lat="42.27311" lon="2.43375">
        <ele>842.1</ele>
        <time>2020-03-05T03:30:44.025Z</time>
      </trkpt>
      <trkpt lat="42.27306" lon="2.43372">
        <ele>841.6</ele>
        <time>2020-03-05T03:30:49.170Z</time>
      </trkpt>
      <trkpt lat="42.27301" lon="2.4337">
        <ele>841.3</ele>
        <time>2020-03-05T03:30:54.449Z</time>
      </trkpt>
      <trkpt lat="42.27296" lon="2.43368">
        <ele>840.8</ele>
        <time>2020-03-05T03:30:59.639Z</time>
      </trkpt>
      <trkpt lat="42.27295" lon="2.43372">
        <ele>840.1</ele>
        <time>2020-03-05T03:31:02.730Z</time>
      </trkpt>
      <trkpt lat="42.27295" lon="2.43372">
        <ele>839.8</ele>
        <time>2020-03-05T03:31:03.096Z</time>
      </trkpt>
      <trkpt lat="42.27295" lon="2.43372">
        <ele>839.8</ele>
        <time>2020-03-05T03:31:03.405Z</time>
      </trkpt>
      <trkpt lat="42.27295" lon="2.43373">
        <ele>839.9</ele>
        <time>2020-03-05T03:31:03.653Z</time>
      </trkpt>
      <trkpt lat="42.27291" lon="2.43369">
        <ele>839.6</ele>
        <time>2020-03-05T03:31:08.660Z</time>
      </trkpt>
      <trkpt lat="42.27286" lon="2.43367">
        <ele>839.4</ele>
        <time>2020-03-05T03:31:13.316Z</time>
      </trkpt>
      <trkpt lat="42.27283" lon="2.43363">
        <ele>838.6</ele>
        <time>2020-03-05T03:31:17.977Z</time>
      </trkpt>
      <trkpt lat="42.27282" lon="2.4336">
        <ele>838.2</ele>
        <time>2020-03-05T03:31:20.006Z</time>
      </trkpt>
      <trkpt lat="42.27281" lon="2.4336">
        <ele>837.9</ele>
        <time>2020-03-05T03:31:20.696Z</time>
      </trkpt>
      <trkpt lat="42.27279" lon="2.43353">
        <ele>836.7</ele>
        <time>2020-03-05T03:31:26.217Z</time>
      </trkpt>
      <trkpt lat="42.27279" lon="2.43349">
        <ele>835.3</ele>
        <time>2020-03-05T03:31:29.731Z</time>
      </trkpt>
      <trkpt lat="42.27279" lon="2.43349">
        <ele>834.4</ele>
        <time>2020-03-05T03:31:30.579Z</time>
      </trkpt>
      <trkpt lat="42.2728" lon="2.43342">
        <ele>833.4</ele>
        <time>2020-03-05T03:31:35.676Z</time>
      </trkpt>
      <trkpt lat="42.27282" lon="2.43337">
        <ele>832.1</ele>
        <time>2020-03-05T03:31:40.278Z</time>
      </trkpt>
      <trkpt lat="42.27287" lon="2.43333">
        <ele>831.5</ele>
        <time>2020-03-05T03:31:45.523Z</time>
      </trkpt>
      <trkpt lat="42.2729" lon="2.43329">
        <ele>830.7</ele>
        <time>2020-03-05T03:31:50.252Z</time>
      </trkpt>
      <trkpt lat="42.27285" lon="2.43326">
        <ele>828.3</ele>
        <time>2020-03-05T03:31:55.791Z</time>
      </trkpt>
      <trkpt lat="42.27281" lon="2.43325">
        <ele>826.8</ele>
        <time>2020-03-05T03:32:00.527Z</time>
      </trkpt>
      <trkpt lat="42.27277" lon="2.43322">
        <ele>824.8</ele>
        <time>2020-03-05T03:32:05.612Z</time>
      </trkpt>
      <trkpt lat="42.27272" lon="2.43321">
        <ele>823.2</ele>
        <time>2020-03-05T03:32:10.302Z</time>
      </trkpt>
      <trkpt lat="42.27268" lon="2.43318">
        <ele>822.3</ele>
        <time>2020-03-05T03:32:15.121Z</time>
      </trkpt>
      <trkpt lat="42.27264" lon="2.43321">
        <ele>821.9</ele>
        <time>2020-03-05T03:32:19.696Z</time>
      </trkpt>
      <trkpt lat="42.27259" lon="2.4332">
        <ele>821.6</ele>
        <time>2020-03-05T03:32:24.535Z</time>
      </trkpt>
      <trkpt lat="42.27254" lon="2.43316">
        <ele>820.6</ele>
        <time>2020-03-05T03:32:30.162Z</time>
      </trkpt>
      <trkpt lat="42.2725" lon="2.43316">
        <ele>819.4</ele>
        <time>2020-03-05T03:32:34.706Z</time>
      </trkpt>
      <trkpt lat="42.27246" lon="2.4332">
        <ele>819</ele>
        <time>2020-03-05T03:32:39.471Z</time>
      </trkpt>
      <trkpt lat="42.27248" lon="2.43326">
        <ele>820</ele>
        <time>2020-03-05T03:32:44.571Z</time>
      </trkpt>
      <trkpt lat="42.27245" lon="2.43332">
        <ele>821</ele>
        <time>2020-03-05T03:32:49.191Z</time>
      </trkpt>
      <trkpt lat="42.27241" lon="2.4333">
        <ele>820.5</ele>
        <time>2020-03-05T03:32:53.239Z</time>
      </trkpt>
      <trkpt lat="42.27241" lon="2.4333">
        <ele>820.3</ele>
        <time>2020-03-05T03:32:53.678Z</time>
      </trkpt>
      <trkpt lat="42.27241" lon="2.4333">
        <ele>820.1</ele>
        <time>2020-03-05T03:32:54.203Z</time>
      </trkpt>
      <trkpt lat="42.27241" lon="2.4333">
        <ele>820.1</ele>
        <time>2020-03-05T03:32:54.615Z</time>
      </trkpt>
      <trkpt lat="42.27242" lon="2.43331">
        <ele>820.1</ele>
        <time>2020-03-05T03:32:55.196Z</time>
      </trkpt>
      <trkpt lat="42.27242" lon="2.43331">
        <ele>820.1</ele>
        <time>2020-03-05T03:32:55.566Z</time>
      </trkpt>
      <trkpt lat="42.27239" lon="2.43327">
        <ele>819.9</ele>
        <time>2020-03-05T03:33:00.184Z</time>
      </trkpt>
      <trkpt lat="42.27237" lon="2.4332">
        <ele>818.7</ele>
        <time>2020-03-05T03:33:05.615Z</time>
      </trkpt>
      <trkpt lat="42.27237" lon="2.43314">
        <ele>816.7</ele>
        <time>2020-03-05T03:33:10.673Z</time>
      </trkpt>
      <trkpt lat="42.2724" lon="2.43309">
        <ele>815.2</ele>
        <time>2020-03-05T03:33:15.452Z</time>
      </trkpt>
      <trkpt lat="42.27245" lon="2.43305">
        <ele>814</ele>
        <time>2020-03-05T03:33:21.523Z</time>
      </trkpt>
      <trkpt lat="42.27251" lon="2.43302">
        <ele>813</ele>
        <time>2020-03-05T03:33:27.663Z</time>
      </trkpt>
      <trkpt lat="42.27256" lon="2.433">
        <ele>812.2</ele>
        <time>2020-03-05T03:33:32.804Z</time>
      </trkpt>
      <trkpt lat="42.27261" lon="2.43299">
        <ele>811.9</ele>
        <time>2020-03-05T03:33:38.529Z</time>
      </trkpt>
      <trkpt lat="42.27266" lon="2.43297">
        <ele>811.7</ele>
        <time>2020-03-05T03:33:43.529Z</time>
      </trkpt>
      <trkpt lat="42.27269" lon="2.4329">
        <ele>810.1</ele>
        <time>2020-03-05T03:33:49.128Z</time>
      </trkpt>
      <trkpt lat="42.27267" lon="2.43284">
        <ele>807.9</ele>
        <time>2020-03-05T03:33:54.125Z</time>
      </trkpt>
      <trkpt lat="42.27263" lon="2.43282">
        <ele>805.6</ele>
        <time>2020-03-05T03:33:59.370Z</time>
      </trkpt>
      <trkpt lat="42.27257" lon="2.4328">
        <ele>803.9</ele>
        <time>2020-03-05T03:34:05.093Z</time>
      </trkpt>
      <trkpt lat="42.27253" lon="2.43278">
        <ele>803</ele>
        <time>2020-03-05T03:34:09.739Z</time>
      </trkpt>
      <trkpt lat="42.27248" lon="2.43274">
        <ele>801.8</ele>
        <time>2020-03-05T03:34:15.113Z</time>
      </trkpt>
      <trkpt lat="42.27243" lon="2.43272">
        <ele>800.5</ele>
        <time>2020-03-05T03:34:20.226Z</time>
      </trkpt>
      <trkpt lat="42.27239" lon="2.43268">
        <ele>799</ele>
        <time>2020-03-05T03:34:25.284Z</time>
      </trkpt>
      <trkpt lat="42.27235" lon="2.43265">
        <ele>798</ele>
        <time>2020-03-05T03:34:29.807Z</time>
      </trkpt>
      <trkpt lat="42.27231" lon="2.43264">
        <ele>797.2</ele>
        <time>2020-03-05T03:34:34.417Z</time>
      </trkpt>
      <trkpt lat="42.27225" lon="2.43262">
        <ele>796.2</ele>
        <time>2020-03-05T03:34:39.936Z</time>
      </trkpt>
      <trkpt lat="42.27221" lon="2.4326">
        <ele>795.1</ele>
        <time>2020-03-05T03:34:44.658Z</time>
      </trkpt>
      <trkpt lat="42.27216" lon="2.43257">
        <ele>794</ele>
        <time>2020-03-05T03:34:49.984Z</time>
      </trkpt>
      <trkpt lat="42.27211" lon="2.43254">
        <ele>792.3</ele>
        <time>2020-03-05T03:34:55.401Z</time>
      </trkpt>
      <trkpt lat="42.27206" lon="2.43254">
        <ele>790.9</ele>
        <time>2020-03-05T03:35:00.761Z</time>
      </trkpt>
      <trkpt lat="42.27201" lon="2.43252">
        <ele>789.6</ele>
        <time>2020-03-05T03:35:05.665Z</time>
      </trkpt>
      <trkpt lat="42.27196" lon="2.43249">
        <ele>788.3</ele>
        <time>2020-03-05T03:35:11.235Z</time>
      </trkpt>
      <trkpt lat="42.27191" lon="2.43246">
        <ele>786.6</ele>
        <time>2020-03-05T03:35:16.813Z</time>
      </trkpt>
      <trkpt lat="42.27187" lon="2.43244">
        <ele>785.5</ele>
        <time>2020-03-05T03:35:21.343Z</time>
      </trkpt>
      <trkpt lat="42.27182" lon="2.43243">
        <ele>784.4</ele>
        <time>2020-03-05T03:35:26.988Z</time>
      </trkpt>
      <trkpt lat="42.27179" lon="2.43237">
        <ele>782.2</ele>
        <time>2020-03-05T03:35:32.217Z</time>
      </trkpt>
      <trkpt lat="42.27174" lon="2.43235">
        <ele>780.1</ele>
        <time>2020-03-05T03:35:37.538Z</time>
      </trkpt>
      <trkpt lat="42.27169" lon="2.43235">
        <ele>778.9</ele>
        <time>2020-03-05T03:35:43.057Z</time>
      </trkpt>
      <trkpt lat="42.27164" lon="2.43237">
        <ele>778.3</ele>
        <time>2020-03-05T03:35:47.598Z</time>
      </trkpt>
      <trkpt lat="42.2716" lon="2.43239">
        <ele>778.2</ele>
        <time>2020-03-05T03:35:52.342Z</time>
      </trkpt>
      <trkpt lat="42.27155" lon="2.43238">
        <ele>777.9</ele>
        <time>2020-03-05T03:35:57.540Z</time>
      </trkpt>
      <trkpt lat="42.2715" lon="2.43239">
        <ele>777</ele>
        <time>2020-03-05T03:36:02.589Z</time>
      </trkpt>
      <trkpt lat="42.27145" lon="2.43243">
        <ele>776.7</ele>
        <time>2020-03-05T03:36:07.821Z</time>
      </trkpt>
      <trkpt lat="42.2714" lon="2.43241">
        <ele>776.1</ele>
        <time>2020-03-05T03:36:12.457Z</time>
      </trkpt>
      <trkpt lat="42.27135" lon="2.43241">
        <ele>774.6</ele>
        <time>2020-03-05T03:36:18.018Z</time>
      </trkpt>
      <trkpt lat="42.2713" lon="2.43241">
        <ele>773.6</ele>
        <time>2020-03-05T03:36:22.778Z</time>
      </trkpt>
      <trkpt lat="42.27125" lon="2.43242">
        <ele>772.3</ele>
        <time>2020-03-05T03:36:27.688Z</time>
      </trkpt>
      <trkpt lat="42.2712" lon="2.43244">
        <ele>771.1</ele>
        <time>2020-03-05T03:36:33.355Z</time>
      </trkpt>
      <trkpt lat="42.27116" lon="2.43248">
        <ele>770.1</ele>
        <time>2020-03-05T03:36:38.179Z</time>
      </trkpt>
      <trkpt lat="42.27114" lon="2.43254">
        <ele>769.9</ele>
        <time>2020-03-05T03:36:42.863Z</time>
      </trkpt>
      <trkpt lat="42.27111" lon="2.43258">
        <ele>769.7</ele>
        <time>2020-03-05T03:36:47.352Z</time>
      </trkpt>
      <trkpt lat="42.27106" lon="2.4326">
        <ele>768.8</ele>
        <time>2020-03-05T03:36:52.150Z</time>
      </trkpt>
      <trkpt lat="42.27105" lon="2.43254">
        <ele>767.9</ele>
        <time>2020-03-05T03:36:57.310Z</time>
      </trkpt>
      <trkpt lat="42.27101" lon="2.43257">
        <ele>767.2</ele>
        <time>2020-03-05T03:37:01.887Z</time>
      </trkpt>
      <trkpt lat="42.27106" lon="2.43253">
        <ele>767</ele>
        <time>2020-03-05T03:37:07.810Z</time>
      </trkpt>
      <trkpt lat="42.2711" lon="2.43248">
        <ele>767</ele>
        <time>2020-03-05T03:37:12.719Z</time>
      </trkpt>
      <trkpt lat="42.27113" lon="2.43243">
        <ele>766.9</ele>
        <time>2020-03-05T03:37:17.710Z</time>
      </trkpt>
      <trkpt lat="42.27117" lon="2.43239">
        <ele>766.6</ele>
        <time>2020-03-05T03:37:22.228Z</time>
      </trkpt>
      <trkpt lat="42.2712" lon="2.43234">
        <ele>766.2</ele>
        <time>2020-03-05T03:37:27.367Z</time>
      </trkpt>
      <trkpt lat="42.27124" lon="2.43229">
        <ele>766</ele>
        <time>2020-03-05T03:37:32.158Z</time>
      </trkpt>
      <trkpt lat="42.27128" lon="2.43225">
        <ele>765.7</ele>
        <time>2020-03-05T03:37:37.420Z</time>
      </trkpt>
      <trkpt lat="42.27133" lon="2.43221">
        <ele>765.2</ele>
        <time>2020-03-05T03:37:42.564Z</time>
      </trkpt>
      <trkpt lat="42.27137" lon="2.43218">
        <ele>764.7</ele>
        <time>2020-03-05T03:37:47.481Z</time>
      </trkpt>
      <trkpt lat="42.27141" lon="2.43214">
        <ele>764.4</ele>
        <time>2020-03-05T03:37:52.473Z</time>
      </trkpt>
      <trkpt lat="42.27146" lon="2.4321">
        <ele>763.7</ele>
        <time>2020-03-05T03:37:58.546Z</time>
      </trkpt>
      <trkpt lat="42.27151" lon="2.43206">
        <ele>763.2</ele>
        <time>2020-03-05T03:38:04.018Z</time>
      </trkpt>
      <trkpt lat="42.27156" lon="2.43203">
        <ele>762.7</ele>
        <time>2020-03-05T03:38:09.512Z</time>
      </trkpt>
      <trkpt lat="42.27161" lon="2.43199">
        <ele>762.1</ele>
        <time>2020-03-05T03:38:15.266Z</time>
      </trkpt>
      <trkpt lat="42.27166" lon="2.43197">
        <ele>761.7</ele>
        <time>2020-03-05T03:38:19.883Z</time>
      </trkpt>
      <trkpt lat="42.27171" lon="2.43195">
        <ele>760.9</ele>
        <time>2020-03-05T03:38:25.281Z</time>
      </trkpt>
      <trkpt lat="42.27175" lon="2.43193">
        <ele>760.3</ele>
        <time>2020-03-05T03:38:29.912Z</time>
      </trkpt>
      <trkpt lat="42.27181" lon="2.4319">
        <ele>759.4</ele>
        <time>2020-03-05T03:38:36.005Z</time>
      </trkpt>
      <trkpt lat="42.27186" lon="2.43188">
        <ele>758.5</ele>
        <time>2020-03-05T03:38:40.779Z</time>
      </trkpt>
      <trkpt lat="42.27191" lon="2.43185">
        <ele>757.6</ele>
        <time>2020-03-05T03:38:46.694Z</time>
      </trkpt>
      <trkpt lat="42.27195" lon="2.43181">
        <ele>756.7</ele>
        <time>2020-03-05T03:38:51.304Z</time>
      </trkpt>
      <trkpt lat="42.272" lon="2.43182">
        <ele>756.4</ele>
        <time>2020-03-05T03:38:56.242Z</time>
      </trkpt>
      <trkpt lat="42.27205" lon="2.4318">
        <ele>756.1</ele>
        <time>2020-03-05T03:39:01.110Z</time>
      </trkpt>
      <trkpt lat="42.27209" lon="2.43177">
        <ele>755.3</ele>
        <time>2020-03-05T03:39:05.735Z</time>
      </trkpt>
      <trkpt lat="42.27213" lon="2.43175">
        <ele>754.4</ele>
        <time>2020-03-05T03:39:10.355Z</time>
      </trkpt>
      <trkpt lat="42.27218" lon="2.43174">
        <ele>754.1</ele>
        <time>2020-03-05T03:39:14.922Z</time>
      </trkpt>
      <trkpt lat="42.27223" lon="2.43173">
        <ele>753.6</ele>
        <time>2020-03-05T03:39:19.872Z</time>
      </trkpt>
      <trkpt lat="42.27227" lon="2.43171">
        <ele>753</ele>
        <time>2020-03-05T03:39:24.570Z</time>
      </trkpt>
      <trkpt lat="42.27232" lon="2.43169">
        <ele>752.5</ele>
        <time>2020-03-05T03:39:29.835Z</time>
      </trkpt>
      <trkpt lat="42.27237" lon="2.43166">
        <ele>751.7</ele>
        <time>2020-03-05T03:39:35.052Z</time>
      </trkpt>
      <trkpt lat="42.27242" lon="2.43164">
        <ele>750.6</ele>
        <time>2020-03-05T03:39:40.570Z</time>
      </trkpt>
      <trkpt lat="42.27246" lon="2.43161">
        <ele>749.1</ele>
        <time>2020-03-05T03:39:45.318Z</time>
      </trkpt>
      <trkpt lat="42.27251" lon="2.4316">
        <ele>747.8</ele>
        <time>2020-03-05T03:39:50.066Z</time>
      </trkpt>
      <trkpt lat="42.27256" lon="2.43158">
        <ele>746.9</ele>
        <time>2020-03-05T03:39:55.362Z</time>
      </trkpt>
      <trkpt lat="42.27261" lon="2.43156">
        <ele>745.7</ele>
        <time>2020-03-05T03:40:00.477Z</time>
      </trkpt>
      <trkpt lat="42.27266" lon="2.43155">
        <ele>744.8</ele>
        <time>2020-03-05T03:40:05.259Z</time>
      </trkpt>
      <trkpt lat="42.27271" lon="2.43155">
        <ele>744.5</ele>
        <time>2020-03-05T03:40:10.402Z</time>
      </trkpt>
      <trkpt lat="42.27276" lon="2.43152">
        <ele>743.5</ele>
        <time>2020-03-05T03:40:16.177Z</time>
      </trkpt>
      <trkpt lat="42.27281" lon="2.43149">
        <ele>742.3</ele>
        <time>2020-03-05T03:40:21.416Z</time>
      </trkpt>
      <trkpt lat="42.27285" lon="2.43146">
        <ele>740.9</ele>
        <time>2020-03-05T03:40:26.150Z</time>
      </trkpt>
      <trkpt lat="42.27289" lon="2.43144">
        <ele>739.3</ele>
        <time>2020-03-05T03:40:30.931Z</time>
      </trkpt>
      <trkpt lat="42.27294" lon="2.43143">
        <ele>738.2</ele>
        <time>2020-03-05T03:40:35.596Z</time>
      </trkpt>
      <trkpt lat="42.27298" lon="2.43146">
        <ele>738.2</ele>
        <time>2020-03-05T03:40:40.543Z</time>
      </trkpt>
      <trkpt lat="42.27303" lon="2.43149">
        <ele>738.8</ele>
        <time>2020-03-05T03:40:45.656Z</time>
      </trkpt>
      <trkpt lat="42.27307" lon="2.43153">
        <ele>739.7</ele>
        <time>2020-03-05T03:40:50.704Z</time>
      </trkpt>
      <trkpt lat="42.27311" lon="2.43157">
        <ele>740.2</ele>
        <time>2020-03-05T03:40:55.488Z</time>
      </trkpt>
      <trkpt lat="42.27315" lon="2.4316">
        <ele>741.1</ele>
        <time>2020-03-05T03:41:00.141Z</time>
      </trkpt>
      <trkpt lat="42.2732" lon="2.43159">
        <ele>740.7</ele>
        <time>2020-03-05T03:41:04.820Z</time>
      </trkpt>
      <trkpt lat="42.27322" lon="2.43151">
        <ele>739.1</ele>
        <time>2020-03-05T03:41:11.434Z</time>
      </trkpt>
      <trkpt lat="42.27319" lon="2.43146">
        <ele>738</ele>
        <time>2020-03-05T03:41:15.981Z</time>
      </trkpt>
      <trkpt lat="42.27315" lon="2.43142">
        <ele>736.7</ele>
        <time>2020-03-05T03:41:21.151Z</time>
      </trkpt>
      <trkpt lat="42.27311" lon="2.43139">
        <ele>736</ele>
        <time>2020-03-05T03:41:26.309Z</time>
      </trkpt>
      <trkpt lat="42.27307" lon="2.43133">
        <ele>735.2</ele>
        <time>2020-03-05T03:41:31.583Z</time>
      </trkpt>
      <trkpt lat="42.27307" lon="2.43127">
        <ele>734.5</ele>
        <time>2020-03-05T03:41:36.224Z</time>
      </trkpt>
      <trkpt lat="42.27311" lon="2.4312">
        <ele>734.6</ele>
        <time>2020-03-05T03:41:42.628Z</time>
      </trkpt>
      <trkpt lat="42.27312" lon="2.43113">
        <ele>735</ele>
        <time>2020-03-05T03:41:47.408Z</time>
      </trkpt>
      <trkpt lat="42.27307" lon="2.43113">
        <ele>735.1</ele>
        <time>2020-03-05T03:41:52.533Z</time>
      </trkpt>
      <trkpt lat="42.273" lon="2.43113">
        <ele>734.6</ele>
        <time>2020-03-05T03:41:59.453Z</time>
      </trkpt>
      <trkpt lat="42.27295" lon="2.43113">
        <ele>733.7</ele>
        <time>2020-03-05T03:42:04.543Z</time>
      </trkpt>
      <trkpt lat="42.27289" lon="2.43112">
        <ele>733</ele>
        <time>2020-03-05T03:42:10.197Z</time>
      </trkpt>
      <trkpt lat="42.27284" lon="2.43113">
        <ele>732.3</ele>
        <time>2020-03-05T03:42:15.685Z</time>
      </trkpt>
      <trkpt lat="42.27278" lon="2.43115">
        <ele>732.2</ele>
        <time>2020-03-05T03:42:21.047Z</time>
      </trkpt>
      <trkpt lat="42.27274" lon="2.43117">
        <ele>732.1</ele>
        <time>2020-03-05T03:42:25.704Z</time>
      </trkpt>
      <trkpt lat="42.27268" lon="2.43118">
        <ele>731.4</ele>
        <time>2020-03-05T03:42:31.465Z</time>
      </trkpt>
      <trkpt lat="42.27263" lon="2.43118">
        <ele>731.1</ele>
        <time>2020-03-05T03:42:36.691Z</time>
      </trkpt>
      <trkpt lat="42.27258" lon="2.43116">
        <ele>730.7</ele>
        <time>2020-03-05T03:42:41.361Z</time>
      </trkpt>
      <trkpt lat="42.27254" lon="2.43112">
        <ele>730.2</ele>
        <time>2020-03-05T03:42:46.413Z</time>
      </trkpt>
      <trkpt lat="42.2725" lon="2.43107">
        <ele>729.7</ele>
        <time>2020-03-05T03:42:51.796Z</time>
      </trkpt>
      <trkpt lat="42.27245" lon="2.43104">
        <ele>729</ele>
        <time>2020-03-05T03:42:57.141Z</time>
      </trkpt>
      <trkpt lat="42.2724" lon="2.43101">
        <ele>728.6</ele>
        <time>2020-03-05T03:43:02.898Z</time>
      </trkpt>
      <trkpt lat="42.27235" lon="2.43099">
        <ele>727.7</ele>
        <time>2020-03-05T03:43:08.375Z</time>
      </trkpt>
      <trkpt lat="42.2723" lon="2.43098">
        <ele>727</ele>
        <time>2020-03-05T03:43:13.403Z</time>
      </trkpt>
      <trkpt lat="42.27225" lon="2.43098">
        <ele>726.4</ele>
        <time>2020-03-05T03:43:17.878Z</time>
      </trkpt>
      <trkpt lat="42.2722" lon="2.431">
        <ele>725.8</ele>
        <time>2020-03-05T03:43:22.749Z</time>
      </trkpt>
      <trkpt lat="42.27215" lon="2.43102">
        <ele>726</ele>
        <time>2020-03-05T03:43:28.183Z</time>
      </trkpt>
      <trkpt lat="42.2721" lon="2.43103">
        <ele>725.6</ele>
        <time>2020-03-05T03:43:32.929Z</time>
      </trkpt>
      <trkpt lat="42.27205" lon="2.43103">
        <ele>725.3</ele>
        <time>2020-03-05T03:43:38.167Z</time>
      </trkpt>
      <trkpt lat="42.272" lon="2.43102">
        <ele>725.2</ele>
        <time>2020-03-05T03:43:43.176Z</time>
      </trkpt>
      <trkpt lat="42.27194" lon="2.431">
        <ele>724.9</ele>
        <time>2020-03-05T03:43:49.249Z</time>
      </trkpt>
      <trkpt lat="42.27189" lon="2.43098">
        <ele>724.3</ele>
        <time>2020-03-05T03:43:54.025Z</time>
      </trkpt>
      <trkpt lat="42.27184" lon="2.43095">
        <ele>723.7</ele>
        <time>2020-03-05T03:43:59.712Z</time>
      </trkpt>
      <trkpt lat="42.27179" lon="2.43092">
        <ele>722.8</ele>
        <time>2020-03-05T03:44:05.220Z</time>
      </trkpt>
      <trkpt lat="42.27175" lon="2.43089">
        <ele>722.1</ele>
        <time>2020-03-05T03:44:09.872Z</time>
      </trkpt>
      <trkpt lat="42.2717" lon="2.43086">
        <ele>721.3</ele>
        <time>2020-03-05T03:44:15.012Z</time>
      </trkpt>
      <trkpt lat="42.27166" lon="2.43084">
        <ele>720.5</ele>
        <time>2020-03-05T03:44:19.607Z</time>
      </trkpt>
      <trkpt lat="42.27157" lon="2.43079">
        <ele>719.5</ele>
        <time>2020-03-05T03:44:28.823Z</time>
      </trkpt>
      <trkpt lat="42.27123" lon="2.4309">
        <ele>718.8</ele>
        <time>2020-03-05T03:45:03.275Z</time>
      </trkpt>
      <trkpt lat="42.27118" lon="2.43093">
        <ele>717.4</ele>
        <time>2020-03-05T03:45:08.836Z</time>
      </trkpt>
      <trkpt lat="42.27113" lon="2.43094">
        <ele>716.5</ele>
        <time>2020-03-05T03:45:13.862Z</time>
      </trkpt>
      <trkpt lat="42.27108" lon="2.43097">
        <ele>715.9</ele>
        <time>2020-03-05T03:45:19.273Z</time>
      </trkpt>
      <trkpt lat="42.27103" lon="2.43098">
        <ele>715.5</ele>
        <time>2020-03-05T03:45:24.322Z</time>
      </trkpt>
      <trkpt lat="42.27098" lon="2.43101">
        <ele>715.2</ele>
        <time>2020-03-05T03:45:29.497Z</time>
      </trkpt>
      <trkpt lat="42.27094" lon="2.43103">
        <ele>715.2</ele>
        <time>2020-03-05T03:45:33.965Z</time>
      </trkpt>
      <trkpt lat="42.27089" lon="2.43106">
        <ele>714.8</ele>
        <time>2020-03-05T03:45:39.484Z</time>
      </trkpt>
      <trkpt lat="42.27084" lon="2.43108">
        <ele>714.5</ele>
        <time>2020-03-05T03:45:44.210Z</time>
      </trkpt>
      <trkpt lat="42.2708" lon="2.43111">
        <ele>714.6</ele>
        <time>2020-03-05T03:45:49.245Z</time>
      </trkpt>
      <trkpt lat="42.27075" lon="2.43114">
        <ele>714.2</ele>
        <time>2020-03-05T03:45:54.555Z</time>
      </trkpt>
      <trkpt lat="42.2707" lon="2.43118">
        <ele>713.9</ele>
        <time>2020-03-05T03:46:00.185Z</time>
      </trkpt>
      <trkpt lat="42.27065" lon="2.43121">
        <ele>713.6</ele>
        <time>2020-03-05T03:46:05.483Z</time>
      </trkpt>
      <trkpt lat="42.2706" lon="2.43125">
        <ele>712.9</ele>
        <time>2020-03-05T03:46:10.869Z</time>
      </trkpt>
      <trkpt lat="42.27056" lon="2.43128">
        <ele>712.6</ele>
        <time>2020-03-05T03:46:15.902Z</time>
      </trkpt>
      <trkpt lat="42.27051" lon="2.43132">
        <ele>712.5</ele>
        <time>2020-03-05T03:46:21.453Z</time>
      </trkpt>
      <trkpt lat="42.27047" lon="2.43137">
        <ele>712.3</ele>
        <time>2020-03-05T03:46:26.735Z</time>
      </trkpt>
      <trkpt lat="42.27043" lon="2.43142">
        <ele>712.1</ele>
        <time>2020-03-05T03:46:32.104Z</time>
      </trkpt>
      <trkpt lat="42.2704" lon="2.43148">
        <ele>711.7</ele>
        <time>2020-03-05T03:46:37.328Z</time>
      </trkpt>
      <trkpt lat="42.27037" lon="2.43153">
        <ele>711.7</ele>
        <time>2020-03-05T03:46:42.190Z</time>
      </trkpt>
      <trkpt lat="42.27034" lon="2.43158">
        <ele>711.4</ele>
        <time>2020-03-05T03:46:46.888Z</time>
      </trkpt>
      <trkpt lat="42.2703" lon="2.43163">
        <ele>710.6</ele>
        <time>2020-03-05T03:46:52.053Z</time>
      </trkpt>
      <trkpt lat="42.27027" lon="2.43168">
        <ele>710.3</ele>
        <time>2020-03-05T03:46:57.179Z</time>
      </trkpt>
      <trkpt lat="42.27023" lon="2.43172">
        <ele>709.9</ele>
        <time>2020-03-05T03:47:02.313Z</time>
      </trkpt>
      <trkpt lat="42.27019" lon="2.43177">
        <ele>709.3</ele>
        <time>2020-03-05T03:47:07.001Z</time>
      </trkpt>
      <trkpt lat="42.27015" lon="2.43181">
        <ele>708.8</ele>
        <time>2020-03-05T03:47:11.929Z</time>
      </trkpt>
      <trkpt lat="42.27012" lon="2.43186">
        <ele>708.3</ele>
        <time>2020-03-05T03:47:17.017Z</time>
      </trkpt>
      <trkpt lat="42.27008" lon="2.43192">
        <ele>707.9</ele>
        <time>2020-03-05T03:47:22.445Z</time>
      </trkpt>
      <trkpt lat="42.27004" lon="2.43197">
        <ele>707.5</ele>
        <time>2020-03-05T03:47:27.983Z</time>
      </trkpt>
      <trkpt lat="42.27001" lon="2.43203">
        <ele>707</ele>
        <time>2020-03-05T03:47:33.243Z</time>
      </trkpt>
      <trkpt lat="42.26997" lon="2.43208">
        <ele>706.4</ele>
        <time>2020-03-05T03:47:38.600Z</time>
      </trkpt>
      <trkpt lat="42.26995" lon="2.43214">
        <ele>705.7</ele>
        <time>2020-03-05T03:47:43.530Z</time>
      </trkpt>
      <trkpt lat="42.26992" lon="2.43219">
        <ele>705.5</ele>
        <time>2020-03-05T03:47:48.383Z</time>
      </trkpt>
      <trkpt lat="42.26988" lon="2.43224">
        <ele>704.6</ele>
        <time>2020-03-05T03:47:53.512Z</time>
      </trkpt>
      <trkpt lat="42.26984" lon="2.43228">
        <ele>703.5</ele>
        <time>2020-03-05T03:47:58.974Z</time>
      </trkpt>
      <trkpt lat="42.26979" lon="2.4323">
        <ele>702.4</ele>
        <time>2020-03-05T03:48:03.741Z</time>
      </trkpt>
      <trkpt lat="42.26974" lon="2.43229">
        <ele>701.1</ele>
        <time>2020-03-05T03:48:08.650Z</time>
      </trkpt>
      <trkpt lat="42.26969" lon="2.43228">
        <ele>699.9</ele>
        <time>2020-03-05T03:48:13.827Z</time>
      </trkpt>
      <trkpt lat="42.26965" lon="2.43224">
        <ele>698.8</ele>
        <time>2020-03-05T03:48:19.023Z</time>
      </trkpt>
      <trkpt lat="42.2696" lon="2.4322">
        <ele>697.6</ele>
        <time>2020-03-05T03:48:24.648Z</time>
      </trkpt>
      <trkpt lat="42.26957" lon="2.43215">
        <ele>697</ele>
        <time>2020-03-05T03:48:29.394Z</time>
      </trkpt>
      <trkpt lat="42.26952" lon="2.43211">
        <ele>696.3</ele>
        <time>2020-03-05T03:48:34.965Z</time>
      </trkpt>
      <trkpt lat="42.26949" lon="2.43207">
        <ele>695.5</ele>
        <time>2020-03-05T03:48:39.592Z</time>
      </trkpt>
      <trkpt lat="42.26945" lon="2.43202">
        <ele>694.5</ele>
        <time>2020-03-05T03:48:44.861Z</time>
      </trkpt>
      <trkpt lat="42.2694" lon="2.43197">
        <ele>693.8</ele>
        <time>2020-03-05T03:48:50.418Z</time>
      </trkpt>
      <trkpt lat="42.26936" lon="2.43194">
        <ele>693</ele>
        <time>2020-03-05T03:48:55.732Z</time>
      </trkpt>
      <trkpt lat="42.26932" lon="2.43189">
        <ele>691.9</ele>
        <time>2020-03-05T03:49:00.845Z</time>
      </trkpt>
      <trkpt lat="42.26928" lon="2.43184">
        <ele>690.8</ele>
        <time>2020-03-05T03:49:06.383Z</time>
      </trkpt>
      <trkpt lat="42.26924" lon="2.43181">
        <ele>690</ele>
        <time>2020-03-05T03:49:11.024Z</time>
      </trkpt>
      <trkpt lat="42.26919" lon="2.43178">
        <ele>688.5</ele>
        <time>2020-03-05T03:49:16.538Z</time>
      </trkpt>
      <trkpt lat="42.26913" lon="2.43175">
        <ele>687.5</ele>
        <time>2020-03-05T03:49:22.339Z</time>
      </trkpt>
      <trkpt lat="42.26908" lon="2.43173">
        <ele>686.5</ele>
        <time>2020-03-05T03:49:28.275Z</time>
      </trkpt>
      <trkpt lat="42.26902" lon="2.43171">
        <ele>685.4</ele>
        <time>2020-03-05T03:49:33.647Z</time>
      </trkpt>
      <trkpt lat="42.26897" lon="2.4317">
        <ele>684.5</ele>
        <time>2020-03-05T03:49:38.759Z</time>
      </trkpt>
      <trkpt lat="42.26892" lon="2.43168">
        <ele>683.8</ele>
        <time>2020-03-05T03:49:44.401Z</time>
      </trkpt>
      <trkpt lat="42.26887" lon="2.43165">
        <ele>683.1</ele>
        <time>2020-03-05T03:49:49.507Z</time>
      </trkpt>
      <trkpt lat="42.26883" lon="2.43163">
        <ele>682.1</ele>
        <time>2020-03-05T03:49:54.106Z</time>
      </trkpt>
      <trkpt lat="42.26879" lon="2.43158">
        <ele>681</ele>
        <time>2020-03-05T03:49:59.179Z</time>
      </trkpt>
      <trkpt lat="42.26875" lon="2.43154">
        <ele>680.1</ele>
        <time>2020-03-05T03:50:04.584Z</time>
      </trkpt>
      <trkpt lat="42.2687" lon="2.43149">
        <ele>679.5</ele>
        <time>2020-03-05T03:50:10.399Z</time>
      </trkpt>
      <trkpt lat="42.26866" lon="2.43145">
        <ele>679.5</ele>
        <time>2020-03-05T03:50:15.312Z</time>
      </trkpt>
      <trkpt lat="42.26861" lon="2.43143">
        <ele>679.6</ele>
        <time>2020-03-05T03:50:20.122Z</time>
      </trkpt>
      <trkpt lat="42.26856" lon="2.43141">
        <ele>679.3</ele>
        <time>2020-03-05T03:50:25.552Z</time>
      </trkpt>
      <trkpt lat="42.26851" lon="2.43139">
        <ele>678.9</ele>
        <time>2020-03-05T03:50:30.958Z</time>
      </trkpt>
      <trkpt lat="42.26846" lon="2.43137">
        <ele>678.8</ele>
        <time>2020-03-05T03:50:35.442Z</time>
      </trkpt>
      <trkpt lat="42.26841" lon="2.43136">
        <ele>679</ele>
        <time>2020-03-05T03:50:40.887Z</time>
      </trkpt>
      <trkpt lat="42.26836" lon="2.43137">
        <ele>678.6</ele>
        <time>2020-03-05T03:50:45.912Z</time>
      </trkpt>
      <trkpt lat="42.26831" lon="2.4314">
        <ele>678</ele>
        <time>2020-03-05T03:50:51.075Z</time>
      </trkpt>
      <trkpt lat="42.26827" lon="2.43144">
        <ele>677.4</ele>
        <time>2020-03-05T03:50:55.669Z</time>
      </trkpt>
      <trkpt lat="42.26823" lon="2.43148">
        <ele>677.3</ele>
        <time>2020-03-05T03:51:00.796Z</time>
      </trkpt>
      <trkpt lat="42.2682" lon="2.43152">
        <ele>677</ele>
        <time>2020-03-05T03:51:05.227Z</time>
      </trkpt>
      <trkpt lat="42.26816" lon="2.43155">
        <ele>676.6</ele>
        <time>2020-03-05T03:51:09.910Z</time>
      </trkpt>
      <trkpt lat="42.26811" lon="2.43158">
        <ele>676.1</ele>
        <time>2020-03-05T03:51:14.964Z</time>
      </trkpt>
      <trkpt lat="42.26806" lon="2.43158">
        <ele>675.5</ele>
        <time>2020-03-05T03:51:19.920Z</time>
      </trkpt>
      <trkpt lat="42.26801" lon="2.43157">
        <ele>674.9</ele>
        <time>2020-03-05T03:51:24.970Z</time>
      </trkpt>
      <trkpt lat="42.26796" lon="2.43156">
        <ele>674.5</ele>
        <time>2020-03-05T03:51:29.509Z</time>
      </trkpt>
      <trkpt lat="42.26791" lon="2.43152">
        <ele>673.8</ele>
        <time>2020-03-05T03:51:35.198Z</time>
      </trkpt>
      <trkpt lat="42.26787" lon="2.43149">
        <ele>673.4</ele>
        <time>2020-03-05T03:51:40.112Z</time>
      </trkpt>
      <trkpt lat="42.26782" lon="2.43146">
        <ele>673.2</ele>
        <time>2020-03-05T03:51:45.095Z</time>
      </trkpt>
      <trkpt lat="42.26778" lon="2.43145">
        <ele>672.6</ele>
        <time>2020-03-05T03:51:49.724Z</time>
      </trkpt>
      <trkpt lat="42.26773" lon="2.43146">
        <ele>672.1</ele>
        <time>2020-03-05T03:51:54.718Z</time>
      </trkpt>
      <trkpt lat="42.26772" lon="2.43146">
        <ele>671.7</ele>
        <time>2020-03-05T03:51:55.747Z</time>
      </trkpt>
      <trkpt lat="42.26772" lon="2.43146">
        <ele>671.4</ele>
        <time>2020-03-05T03:51:56.106Z</time>
      </trkpt>
      <trkpt lat="42.26772" lon="2.43147">
        <ele>671.5</ele>
        <time>2020-03-05T03:51:56.699Z</time>
      </trkpt>
      <trkpt lat="42.26773" lon="2.43147">
        <ele>671.3</ele>
        <time>2020-03-05T03:51:56.974Z</time>
      </trkpt>
      <trkpt lat="42.26773" lon="2.43148">
        <ele>671.4</ele>
        <time>2020-03-05T03:51:57.348Z</time>
      </trkpt>
      <trkpt lat="42.26773" lon="2.43147">
        <ele>671.3</ele>
        <time>2020-03-05T03:51:57.552Z</time>
      </trkpt>
      <trkpt lat="42.26773" lon="2.43147">
        <ele>671.2</ele>
        <time>2020-03-05T03:51:57.631Z</time>
      </trkpt>
      <trkpt lat="42.26773" lon="2.43148">
        <ele>671.2</ele>
        <time>2020-03-05T03:51:57.998Z</time>
      </trkpt>
      <trkpt lat="42.26769" lon="2.43152">
        <ele>670.7</ele>
        <time>2020-03-05T03:52:02.974Z</time>
      </trkpt>
      <trkpt lat="42.26764" lon="2.43153">
        <ele>669.7</ele>
        <time>2020-03-05T03:52:07.698Z</time>
      </trkpt>
      <trkpt lat="42.2676" lon="2.43155">
        <ele>668.1</ele>
        <time>2020-03-05T03:52:12.368Z</time>
      </trkpt>
      <trkpt lat="42.26756" lon="2.43157">
        <ele>666.2</ele>
        <time>2020-03-05T03:52:17.212Z</time>
      </trkpt>
      <trkpt lat="42.26751" lon="2.43158">
        <ele>665.4</ele>
        <time>2020-03-05T03:52:21.707Z</time>
      </trkpt>
      <trkpt lat="42.26751" lon="2.43159">
        <ele>665.3</ele>
        <time>2020-03-05T03:52:22.596Z</time>
      </trkpt>
      <trkpt lat="42.26751" lon="2.43159">
        <ele>665.2</ele>
        <time>2020-03-05T03:52:23.255Z</time>
      </trkpt>
      <trkpt lat="42.26746" lon="2.43163">
        <ele>663.3</ele>
        <time>2020-03-05T03:52:28.276Z</time>
      </trkpt>
      <trkpt lat="42.26745" lon="2.43164">
        <ele>662.6</ele>
        <time>2020-03-05T03:52:29.737Z</time>
      </trkpt>
      <trkpt lat="42.26745" lon="2.43163">
        <ele>662.5</ele>
        <time>2020-03-05T03:52:29.997Z</time>
      </trkpt>
      <trkpt lat="42.26745" lon="2.43164">
        <ele>662.6</ele>
        <time>2020-03-05T03:52:30.265Z</time>
      </trkpt>
      <trkpt lat="42.26745" lon="2.43164">
        <ele>662.6</ele>
        <time>2020-03-05T03:52:30.581Z</time>
      </trkpt>
      <trkpt lat="42.26742" lon="2.4316">
        <ele>663.7</ele>
        <time>2020-03-05T03:52:34.465Z</time>
      </trkpt>
      <trkpt lat="42.26742" lon="2.4316">
        <ele>663.7</ele>
        <time>2020-03-05T03:52:34.667Z</time>
      </trkpt>
      <trkpt lat="42.26742" lon="2.4316">
        <ele>663.7</ele>
        <time>2020-03-05T03:52:35.065Z</time>
      </trkpt>
      <trkpt lat="42.26742" lon="2.4316">
        <ele>663.6</ele>
        <time>2020-03-05T03:52:35.442Z</time>
      </trkpt>
      <trkpt lat="42.26746" lon="2.43164">
        <ele>662.6</ele>
        <time>2020-03-05T03:52:40.098Z</time>
      </trkpt>
      <trkpt lat="42.26748" lon="2.43162">
        <ele>662.9</ele>
        <time>2020-03-05T03:52:42.365Z</time>
      </trkpt>
      <trkpt lat="42.26748" lon="2.43163">
        <ele>663.1</ele>
        <time>2020-03-05T03:52:42.925Z</time>
      </trkpt>
      <trkpt lat="42.26748" lon="2.43164">
        <ele>662.9</ele>
        <time>2020-03-05T03:52:44.125Z</time>
      </trkpt>
      <trkpt lat="42.26748" lon="2.43164">
        <ele>662.8</ele>
        <time>2020-03-05T03:52:44.588Z</time>
      </trkpt>
      <trkpt lat="42.26751" lon="2.43163">
        <ele>663.1</ele>
        <time>2020-03-05T03:52:46.886Z</time>
      </trkpt>
      <trkpt lat="42.26751" lon="2.43163">
        <ele>663.2</ele>
        <time>2020-03-05T03:52:47.146Z</time>
      </trkpt>
      <trkpt lat="42.26752" lon="2.43161">
        <ele>664.3</ele>
        <time>2020-03-05T03:52:49.534Z</time>
      </trkpt>
      <trkpt lat="42.26752" lon="2.43161">
        <ele>664.4</ele>
        <time>2020-03-05T03:52:50.113Z</time>
      </trkpt>
      <trkpt lat="42.26748" lon="2.43157">
        <ele>664.7</ele>
        <time>2020-03-05T03:52:54.870Z</time>
      </trkpt>
      <trkpt lat="42.26743" lon="2.43156">
        <ele>664.6</ele>
        <time>2020-03-05T03:52:59.832Z</time>
      </trkpt>
      <trkpt lat="42.26747" lon="2.43154">
        <ele>665.3</ele>
        <time>2020-03-05T03:53:04.376Z</time>
      </trkpt>
      <trkpt lat="42.26747" lon="2.43154">
        <ele>665.3</ele>
        <time>2020-03-05T03:53:04.525Z</time>
      </trkpt>
      <trkpt lat="42.26747" lon="2.43153">
        <ele>665.4</ele>
        <time>2020-03-05T03:53:05.493Z</time>
      </trkpt>
      <trkpt lat="42.26745" lon="2.43148">
        <ele>666.2</ele>
        <time>2020-03-05T03:53:10.179Z</time>
      </trkpt>
      <trkpt lat="42.26744" lon="2.43143">
        <ele>667.1</ele>
        <time>2020-03-05T03:53:13.482Z</time>
      </trkpt>
      <trkpt lat="42.26744" lon="2.43143">
        <ele>667.3</ele>
        <time>2020-03-05T03:53:13.772Z</time>
      </trkpt>
      <trkpt lat="42.26745" lon="2.43143">
        <ele>667.4</ele>
        <time>2020-03-05T03:53:14.275Z</time>
      </trkpt>
      <trkpt lat="42.26745" lon="2.43142">
        <ele>667.5</ele>
        <time>2020-03-05T03:53:14.951Z</time>
      </trkpt>
      <trkpt lat="42.26745" lon="2.43142">
        <ele>667.5</ele>
        <time>2020-03-05T03:53:14.964Z</time>
      </trkpt>
      <trkpt lat="42.26745" lon="2.43143">
        <ele>667.5</ele>
        <time>2020-03-05T03:53:15.425Z</time>
      </trkpt>
      <trkpt lat="42.26745" lon="2.43143">
        <ele>667.7</ele>
        <time>2020-03-05T03:53:15.643Z</time>
      </trkpt>
      <trkpt lat="42.26745" lon="2.43143">
        <ele>667.7</ele>
        <time>2020-03-05T03:53:16.096Z</time>
      </trkpt>
      <trkpt lat="42.26746" lon="2.43144">
        <ele>667.6</ele>
        <time>2020-03-05T03:53:17.229Z</time>
      </trkpt>
      <trkpt lat="42.26746" lon="2.43145">
        <ele>667.6</ele>
        <time>2020-03-05T03:53:17.523Z</time>
      </trkpt>
      <trkpt lat="42.26746" lon="2.43145">
        <ele>667.3</ele>
        <time>2020-03-05T03:53:18.043Z</time>
      </trkpt>
      <trkpt lat="42.26746" lon="2.43145">
        <ele>667.3</ele>
        <time>2020-03-05T03:53:18.543Z</time>
      </trkpt>
      <trkpt lat="42.26744" lon="2.43139">
        <ele>667.9</ele>
        <time>2020-03-05T03:53:23.293Z</time>
      </trkpt>
      <trkpt lat="42.26741" lon="2.43134">
        <ele>668.1</ele>
        <time>2020-03-05T03:53:28.165Z</time>
      </trkpt>
      <trkpt lat="42.26738" lon="2.43129">
        <ele>668.2</ele>
        <time>2020-03-05T03:53:32.925Z</time>
      </trkpt>
      <trkpt lat="42.26735" lon="2.43124">
        <ele>668.1</ele>
        <time>2020-03-05T03:53:37.815Z</time>
      </trkpt>
      <trkpt lat="42.2673" lon="2.4312">
        <ele>668</ele>
        <time>2020-03-05T03:53:43.478Z</time>
      </trkpt>
      <trkpt lat="42.26725" lon="2.43118">
        <ele>667.7</ele>
        <time>2020-03-05T03:53:48.477Z</time>
      </trkpt>
      <trkpt lat="42.2672" lon="2.43118">
        <ele>667.5</ele>
        <time>2020-03-05T03:53:53.709Z</time>
      </trkpt>
      <trkpt lat="42.26715" lon="2.43119">
        <ele>666.9</ele>
        <time>2020-03-05T03:53:58.485Z</time>
      </trkpt>
      <trkpt lat="42.2671" lon="2.4312">
        <ele>666.4</ele>
        <time>2020-03-05T03:54:03.413Z</time>
      </trkpt>
      <trkpt lat="42.26705" lon="2.43123">
        <ele>665.8</ele>
        <time>2020-03-05T03:54:08.393Z</time>
      </trkpt>
      <trkpt lat="42.26701" lon="2.43125">
        <ele>665.5</ele>
        <time>2020-03-05T03:54:13.461Z</time>
      </trkpt>
      <trkpt lat="42.26696" lon="2.43129">
        <ele>665.2</ele>
        <time>2020-03-05T03:54:18.831Z</time>
      </trkpt>
      <trkpt lat="42.26692" lon="2.43132">
        <ele>664.7</ele>
        <time>2020-03-05T03:54:23.509Z</time>
      </trkpt>
      <trkpt lat="42.26686" lon="2.43135">
        <ele>663.7</ele>
        <time>2020-03-05T03:54:29.258Z</time>
      </trkpt>
      <trkpt lat="42.26682" lon="2.43138">
        <ele>663.2</ele>
        <time>2020-03-05T03:54:34.170Z</time>
      </trkpt>
      <trkpt lat="42.26677" lon="2.43139">
        <ele>662.5</ele>
        <time>2020-03-05T03:54:39.242Z</time>
      </trkpt>
      <trkpt lat="42.26672" lon="2.43139">
        <ele>662.1</ele>
        <time>2020-03-05T03:54:44.370Z</time>
      </trkpt>
      <trkpt lat="42.26667" lon="2.43137">
        <ele>661.3</ele>
        <time>2020-03-05T03:54:49.585Z</time>
      </trkpt>
      <trkpt lat="42.26662" lon="2.43136">
        <ele>660.3</ele>
        <time>2020-03-05T03:54:54.399Z</time>
      </trkpt>
      <trkpt lat="42.26657" lon="2.43134">
        <ele>659.4</ele>
        <time>2020-03-05T03:54:59.353Z</time>
      </trkpt>
      <trkpt lat="42.26652" lon="2.43132">
        <ele>658.3</ele>
        <time>2020-03-05T03:55:04.486Z</time>
      </trkpt>
      <trkpt lat="42.26647" lon="2.43132">
        <ele>657.5</ele>
        <time>2020-03-05T03:55:09.276Z</time>
      </trkpt>
      <trkpt lat="42.26642" lon="2.43132">
        <ele>656.3</ele>
        <time>2020-03-05T03:55:14.488Z</time>
      </trkpt>
      <trkpt lat="42.26639" lon="2.43132">
        <ele>655.3</ele>
        <time>2020-03-05T03:55:17.392Z</time>
      </trkpt>
      <trkpt lat="42.26639" lon="2.43133">
        <ele>655.1</ele>
        <time>2020-03-05T03:55:17.621Z</time>
      </trkpt>
      <trkpt lat="42.26639" lon="2.43132">
        <ele>655</ele>
        <time>2020-03-05T03:55:18.003Z</time>
      </trkpt>
      <trkpt lat="42.2664" lon="2.43132">
        <ele>655.2</ele>
        <time>2020-03-05T03:55:18.437Z</time>
      </trkpt>
      <trkpt lat="42.26635" lon="2.4313">
        <ele>655.3</ele>
        <time>2020-03-05T03:55:23.477Z</time>
      </trkpt>
      <trkpt lat="42.26629" lon="2.43128">
        <ele>655.2</ele>
        <time>2020-03-05T03:55:28.758Z</time>
      </trkpt>
      <trkpt lat="42.26625" lon="2.43126">
        <ele>655.5</ele>
        <time>2020-03-05T03:55:33.248Z</time>
      </trkpt>
      <trkpt lat="42.26621" lon="2.43124">
        <ele>655.5</ele>
        <time>2020-03-05T03:55:38.031Z</time>
      </trkpt>
      <trkpt lat="42.26616" lon="2.43121">
        <ele>655.7</ele>
        <time>2020-03-05T03:55:42.949Z</time>
      </trkpt>
      <trkpt lat="42.26612" lon="2.43119">
        <ele>655.5</ele>
        <time>2020-03-05T03:55:47.609Z</time>
      </trkpt>
      <trkpt lat="42.26608" lon="2.43115">
        <ele>655.2</ele>
        <time>2020-03-05T03:55:52.040Z</time>
      </trkpt>
      <trkpt lat="42.26605" lon="2.43121">
        <ele>654.1</ele>
        <time>2020-03-05T03:55:57.506Z</time>
      </trkpt>
      <trkpt lat="42.26605" lon="2.43122">
        <ele>653.3</ele>
        <time>2020-03-05T03:55:58.682Z</time>
      </trkpt>
      <trkpt lat="42.26605" lon="2.43122">
        <ele>653.1</ele>
        <time>2020-03-05T03:55:59.098Z</time>
      </trkpt>
      <trkpt lat="42.26605" lon="2.43122">
        <ele>653</ele>
        <time>2020-03-05T03:55:59.249Z</time>
      </trkpt>
      <trkpt lat="42.26605" lon="2.43121">
        <ele>652.9</ele>
        <time>2020-03-05T03:55:59.678Z</time>
      </trkpt>
      <trkpt lat="42.26605" lon="2.43128">
        <ele>651.9</ele>
        <time>2020-03-05T03:56:04.858Z</time>
      </trkpt>
      <trkpt lat="42.26605" lon="2.43135">
        <ele>649</ele>
        <time>2020-03-05T03:56:10.441Z</time>
      </trkpt>
      <trkpt lat="42.26603" lon="2.43141">
        <ele>648.3</ele>
        <time>2020-03-05T03:56:14.901Z</time>
      </trkpt>
      <trkpt lat="42.26599" lon="2.43143">
        <ele>644.3</ele>
        <time>2020-03-05T04:20:42.000Z</time>
      </trkpt>
      <trkpt lat="42.26601" lon="2.43145">
        <ele>644.3</ele>
        <time>2020-03-05T04:20:44.208Z</time>
      </trkpt>
      <trkpt lat="42.26603" lon="2.43145">
        <ele>643.7</ele>
        <time>2020-03-05T04:20:46.547Z</time>
      </trkpt>
      <trkpt lat="42.26602" lon="2.43148">
        <ele>643.7</ele>
        <time>2020-03-05T04:20:49.291Z</time>
      </trkpt>
      <trkpt lat="42.26599" lon="2.4315">
        <ele>644.3</ele>
        <time>2020-03-05T04:20:52.573Z</time>
      </trkpt>
      <trkpt lat="42.26601" lon="2.43149">
        <ele>645.7</ele>
        <time>2020-03-05T04:20:54.908Z</time>
      </trkpt>
      <trkpt lat="42.266" lon="2.43148">
        <ele>644.8</ele>
        <time>2020-03-05T04:20:55.934Z</time>
      </trkpt>
      <trkpt lat="42.26604" lon="2.43146">
        <ele>644.2</ele>
        <time>2020-03-05T04:21:00.059Z</time>
      </trkpt>
      <trkpt lat="42.26606" lon="2.43145">
        <ele>643.8</ele>
        <time>2020-03-05T04:21:02.013Z</time>
      </trkpt>
      <trkpt lat="42.26605" lon="2.43139">
        <ele>641.8</ele>
        <time>2020-03-05T04:21:07.713Z</time>
      </trkpt>
      <trkpt lat="42.26605" lon="2.43135">
        <ele>645.7</ele>
        <time>2020-03-05T04:21:12.536Z</time>
      </trkpt>
      <trkpt lat="42.26605" lon="2.43132">
        <ele>644.4</ele>
        <time>2020-03-05T04:21:15.291Z</time>
      </trkpt>
      <trkpt lat="42.26608" lon="2.43114">
        <ele>644.8</ele>
        <time>2020-03-05T04:21:30.128Z</time>
      </trkpt>
      <trkpt lat="42.26613" lon="2.43115">
        <ele>643.7</ele>
        <time>2020-03-05T04:21:35.794Z</time>
      </trkpt>
      <trkpt lat="42.26633" lon="2.43128">
        <ele>641.8</ele>
        <time>2020-03-05T04:22:00.121Z</time>
      </trkpt>
      <trkpt lat="42.26637" lon="2.4313">
        <ele>642.3</ele>
        <time>2020-03-05T04:22:04.894Z</time>
      </trkpt>
      <trkpt lat="42.26643" lon="2.43133">
        <ele>643.8</ele>
        <time>2020-03-05T04:22:11.410Z</time>
      </trkpt>
      <trkpt lat="42.26647" lon="2.43135">
        <ele>644.7</ele>
        <time>2020-03-05T04:22:16.160Z</time>
      </trkpt>
      <trkpt lat="42.2666" lon="2.43137">
        <ele>647.2</ele>
        <time>2020-03-05T04:22:30.425Z</time>
      </trkpt>
      <trkpt lat="42.26672" lon="2.43138">
        <ele>648.5</ele>
        <time>2020-03-05T04:22:43.325Z</time>
      </trkpt>
      <trkpt lat="42.26674" lon="2.43138">
        <ele>649.6</ele>
        <time>2020-03-05T04:22:46.379Z</time>
      </trkpt>
      <trkpt lat="42.26685" lon="2.43136">
        <ele>651.5</ele>
        <time>2020-03-05T04:22:58.679Z</time>
      </trkpt>
      <trkpt lat="42.26698" lon="2.43129">
        <ele>653.8</ele>
        <time>2020-03-05T04:23:13.924Z</time>
      </trkpt>
      <trkpt lat="42.26699" lon="2.43128">
        <ele>653.9</ele>
        <time>2020-03-05T04:23:14.966Z</time>
      </trkpt>
      <trkpt lat="42.26701" lon="2.43127">
        <ele>654</ele>
        <time>2020-03-05T04:23:17.088Z</time>
      </trkpt>
      <trkpt lat="42.26717" lon="2.4312">
        <ele>655.8</ele>
        <time>2020-03-05T04:23:35.436Z</time>
      </trkpt>
      <trkpt lat="42.26732" lon="2.4312">
        <ele>658.1</ele>
        <time>2020-03-05T04:23:52.149Z</time>
      </trkpt>
      <trkpt lat="42.26738" lon="2.43129">
        <ele>658.6</ele>
        <time>2020-03-05T04:24:02.273Z</time>
      </trkpt>
      <trkpt lat="42.26744" lon="2.43139">
        <ele>657.8</ele>
        <time>2020-03-05T04:24:12.623Z</time>
      </trkpt>
      <trkpt lat="42.26747" lon="2.43131">
        <ele>659.2</ele>
        <time>2020-03-05T04:24:20.347Z</time>
      </trkpt>
      <trkpt lat="42.26749" lon="2.4313">
        <ele>660.1</ele>
        <time>2020-03-05T04:24:22.799Z</time>
      </trkpt>
      <trkpt lat="42.26767" lon="2.43131">
        <ele>661.1</ele>
        <time>2020-03-05T04:24:42.019Z</time>
      </trkpt>
      <trkpt lat="42.26784" lon="2.43146">
        <ele>662.5</ele>
        <time>2020-03-05T04:25:03.541Z</time>
      </trkpt>
      <trkpt lat="42.268" lon="2.43156">
        <ele>664</ele>
        <time>2020-03-05T04:25:22.923Z</time>
      </trkpt>
      <trkpt lat="42.26808" lon="2.43158">
        <ele>664.9</ele>
        <time>2020-03-05T04:25:31.686Z</time>
      </trkpt>
      <trkpt lat="42.26812" lon="2.43159">
        <ele>665</ele>
        <time>2020-03-05T04:25:36.294Z</time>
      </trkpt>
      <trkpt lat="42.26815" lon="2.43163">
        <ele>665.3</ele>
        <time>2020-03-05T04:25:40.705Z</time>
      </trkpt>
      <trkpt lat="42.26819" lon="2.43158">
        <ele>665.8</ele>
        <time>2020-03-05T04:25:46.622Z</time>
      </trkpt>
      <trkpt lat="42.26823" lon="2.43155">
        <ele>666.3</ele>
        <time>2020-03-05T04:25:51.811Z</time>
      </trkpt>
      <trkpt lat="42.26829" lon="2.4314">
        <ele>668.7</ele>
        <time>2020-03-05T04:26:05.683Z</time>
      </trkpt>
      <trkpt lat="42.26837" lon="2.43124">
        <ele>671.1</ele>
        <time>2020-03-05T04:26:20.628Z</time>
      </trkpt>
      <trkpt lat="42.26837" lon="2.43124">
        <ele>671.1</ele>
        <time>2020-03-05T04:26:21.483Z</time>
      </trkpt>
      <trkpt lat="42.26842" lon="2.43111">
        <ele>673.7</ele>
        <time>2020-03-05T04:26:33.321Z</time>
      </trkpt>
      <trkpt lat="42.26842" lon="2.43105">
        <ele>674.6</ele>
        <time>2020-03-05T04:26:38.216Z</time>
      </trkpt>
      <trkpt lat="42.26845" lon="2.43091">
        <ele>677.3</ele>
        <time>2020-03-05T04:26:49.689Z</time>
      </trkpt>
      <trkpt lat="42.2685" lon="2.43075">
        <ele>676.5</ele>
        <time>2020-03-05T04:27:04.380Z</time>
      </trkpt>
      <trkpt lat="42.26852" lon="2.43073">
        <ele>677.8</ele>
        <time>2020-03-05T04:27:07.002Z</time>
      </trkpt>
      <trkpt lat="42.26865" lon="2.43061">
        <ele>680.3</ele>
        <time>2020-03-05T04:27:24.305Z</time>
      </trkpt>
      <trkpt lat="42.26878" lon="2.43048">
        <ele>683.7</ele>
        <time>2020-03-05T04:27:41.950Z</time>
      </trkpt>
      <trkpt lat="42.26888" lon="2.43034">
        <ele>685.1</ele>
        <time>2020-03-05T04:27:57.070Z</time>
      </trkpt>
      <trkpt lat="42.26888" lon="2.43033">
        <ele>686</ele>
        <time>2020-03-05T04:27:58.798Z</time>
      </trkpt>
      <trkpt lat="42.26881" lon="2.43038">
        <ele>685</ele>
        <time>2020-03-05T04:28:08.015Z</time>
      </trkpt>
      <trkpt lat="42.26879" lon="2.43046">
        <ele>685.7</ele>
        <time>2020-03-05T04:28:14.176Z</time>
      </trkpt>
      <trkpt lat="42.26885" lon="2.43051">
        <ele>688.5</ele>
        <time>2020-03-05T04:28:22.111Z</time>
      </trkpt>
      <trkpt lat="42.2689" lon="2.43051">
        <ele>690.3</ele>
        <time>2020-03-05T04:28:27.891Z</time>
      </trkpt>
      <trkpt lat="42.26897" lon="2.43056">
        <ele>692.8</ele>
        <time>2020-03-05T04:28:37.406Z</time>
      </trkpt>
      <trkpt lat="42.26904" lon="2.43054">
        <ele>695.2</ele>
        <time>2020-03-05T04:28:44.740Z</time>
      </trkpt>
      <trkpt lat="42.26912" lon="2.43056">
        <ele>698.6</ele>
        <time>2020-03-05T04:28:54.827Z</time>
      </trkpt>
      <trkpt lat="42.26916" lon="2.43055">
        <ele>700.1</ele>
        <time>2020-03-05T04:28:59.252Z</time>
      </trkpt>
      <trkpt lat="42.26923" lon="2.43048">
        <ele>702</ele>
        <time>2020-03-05T04:29:08.449Z</time>
      </trkpt>
      <trkpt lat="42.26922" lon="2.43044">
        <ele>703</ele>
        <time>2020-03-05T04:29:11.738Z</time>
      </trkpt>
      <trkpt lat="42.26927" lon="2.43053">
        <ele>703.9</ele>
        <time>2020-03-05T04:29:20.989Z</time>
      </trkpt>
      <trkpt lat="42.26937" lon="2.4305">
        <ele>706.2</ele>
        <time>2020-03-05T04:29:31.453Z</time>
      </trkpt>
      <trkpt lat="42.26946" lon="2.43047">
        <ele>709.1</ele>
        <time>2020-03-05T04:29:42.255Z</time>
      </trkpt>
      <trkpt lat="42.26954" lon="2.43038">
        <ele>712.4</ele>
        <time>2020-03-05T04:29:54.082Z</time>
      </trkpt>
      <trkpt lat="42.26963" lon="2.4303">
        <ele>715</ele>
        <time>2020-03-05T04:30:06.021Z</time>
      </trkpt>
      <trkpt lat="42.26974" lon="2.43022">
        <ele>717.3</ele>
        <time>2020-03-05T04:30:19.421Z</time>
      </trkpt>
      <trkpt lat="42.26982" lon="2.43011">
        <ele>720.2</ele>
        <time>2020-03-05T04:30:31.927Z</time>
      </trkpt>
      <trkpt lat="42.26983" lon="2.4301">
        <ele>720.2</ele>
        <time>2020-03-05T04:30:33.234Z</time>
      </trkpt>
      <trkpt lat="42.2699" lon="2.43002">
        <ele>722.6</ele>
        <time>2020-03-05T04:30:43.845Z</time>
      </trkpt>
      <trkpt lat="42.26999" lon="2.42992">
        <ele>725.5</ele>
        <time>2020-03-05T04:30:56.789Z</time>
      </trkpt>
      <trkpt lat="42.27007" lon="2.42985">
        <ele>729.4</ele>
        <time>2020-03-05T04:31:07.437Z</time>
      </trkpt>
      <trkpt lat="42.27017" lon="2.42979">
        <ele>731.9</ele>
        <time>2020-03-05T04:31:19.276Z</time>
      </trkpt>
      <trkpt lat="42.27028" lon="2.4297">
        <ele>734.5</ele>
        <time>2020-03-05T04:31:33.272Z</time>
      </trkpt>
      <trkpt lat="42.27035" lon="2.42961">
        <ele>736.9</ele>
        <time>2020-03-05T04:31:44.877Z</time>
      </trkpt>
      <trkpt lat="42.27036" lon="2.42959">
        <ele>737.4</ele>
        <time>2020-03-05T04:31:46.994Z</time>
      </trkpt>
      <trkpt lat="42.27042" lon="2.42949">
        <ele>741</ele>
        <time>2020-03-05T04:31:57.325Z</time>
      </trkpt>
      <trkpt lat="42.27047" lon="2.42944">
        <ele>743.4</ele>
        <time>2020-03-05T04:32:03.934Z</time>
      </trkpt>
      <trkpt lat="42.27053" lon="2.42941">
        <ele>745.6</ele>
        <time>2020-03-05T04:32:11.664Z</time>
      </trkpt>
      <trkpt lat="42.27053" lon="2.42939">
        <ele>747</ele>
        <time>2020-03-05T04:32:13.680Z</time>
      </trkpt>
      <trkpt lat="42.2705" lon="2.4294">
        <ele>746.2</ele>
        <time>2020-03-05T04:32:17.575Z</time>
      </trkpt>
      <trkpt lat="42.27045" lon="2.42943">
        <ele>743.9</ele>
        <time>2020-03-05T04:32:24.395Z</time>
      </trkpt>
      <trkpt lat="42.27054" lon="2.42951">
        <ele>741.4</ele>
        <time>2020-03-05T04:32:36.539Z</time>
      </trkpt>
      <trkpt lat="42.27074" lon="2.42944">
        <ele>741.9</ele>
        <time>2020-03-05T04:32:59.364Z</time>
      </trkpt>
      <trkpt lat="42.27087" lon="2.42947">
        <ele>741.4</ele>
        <time>2020-03-05T04:33:13.354Z</time>
      </trkpt>
      <trkpt lat="42.27086" lon="2.42943">
        <ele>741.5</ele>
        <time>2020-03-05T04:33:17.179Z</time>
      </trkpt>
      <trkpt lat="42.2709" lon="2.42934">
        <ele>742.7</ele>
        <time>2020-03-05T04:33:25.454Z</time>
      </trkpt>
      <trkpt lat="42.27098" lon="2.42929">
        <ele>743.2</ele>
        <time>2020-03-05T04:33:35.018Z</time>
      </trkpt>
      <trkpt lat="42.2711" lon="2.42917">
        <ele>745.2</ele>
        <time>2020-03-05T04:33:51.356Z</time>
      </trkpt>
      <trkpt lat="42.2713" lon="2.4292">
        <ele>746.8</ele>
        <time>2020-03-05T04:34:13.293Z</time>
      </trkpt>
      <trkpt lat="42.2714" lon="2.42917">
        <ele>747.6</ele>
        <time>2020-03-05T04:34:24.275Z</time>
      </trkpt>
      <trkpt lat="42.27164" lon="2.42918">
        <ele>749.9</ele>
        <time>2020-03-05T04:34:50.233Z</time>
      </trkpt>
      <trkpt lat="42.2718" lon="2.42918">
        <ele>752.4</ele>
        <time>2020-03-05T04:35:07.913Z</time>
      </trkpt>
      <trkpt lat="42.27199" lon="2.42922">
        <ele>754.3</ele>
        <time>2020-03-05T04:35:28.817Z</time>
      </trkpt>
      <trkpt lat="42.27212" lon="2.4293">
        <ele>756.4</ele>
        <time>2020-03-05T04:35:44.054Z</time>
      </trkpt>
      <trkpt lat="42.27223" lon="2.42941">
        <ele>758.3</ele>
        <time>2020-03-05T04:35:58.655Z</time>
      </trkpt>
      <trkpt lat="42.27224" lon="2.42937">
        <ele>760.2</ele>
        <time>2020-03-05T04:36:02.625Z</time>
      </trkpt>
      <trkpt lat="42.27219" lon="2.42922">
        <ele>763</ele>
        <time>2020-03-05T04:36:15.651Z</time>
      </trkpt>
      <trkpt lat="42.27218" lon="2.42905">
        <ele>765.3</ele>
        <time>2020-03-05T04:36:29.465Z</time>
      </trkpt>
      <trkpt lat="42.27211" lon="2.42893">
        <ele>768.2</ele>
        <time>2020-03-05T04:36:42.206Z</time>
      </trkpt>
      <trkpt lat="42.27203" lon="2.4289">
        <ele>769.2</ele>
        <time>2020-03-05T04:36:50.844Z</time>
      </trkpt>
      <trkpt lat="42.27199" lon="2.42888">
        <ele>769.6</ele>
        <time>2020-03-05T04:36:55.927Z</time>
      </trkpt>
      <trkpt lat="42.27186" lon="2.4288">
        <ele>772.6</ele>
        <time>2020-03-05T04:37:11.311Z</time>
      </trkpt>
      <trkpt lat="42.27184" lon="2.42867">
        <ele>775.5</ele>
        <time>2020-03-05T04:37:22.731Z</time>
      </trkpt>
      <trkpt lat="42.27177" lon="2.42854">
        <ele>777.9</ele>
        <time>2020-03-05T04:37:35.339Z</time>
      </trkpt>
      <trkpt lat="42.27171" lon="2.42843">
        <ele>780.4</ele>
        <time>2020-03-05T04:37:46.427Z</time>
      </trkpt>
      <trkpt lat="42.27161" lon="2.42835">
        <ele>782.7</ele>
        <time>2020-03-05T04:37:59.855Z</time>
      </trkpt>
      <trkpt lat="42.2716" lon="2.42834">
        <ele>783.7</ele>
        <time>2020-03-05T04:38:01.653Z</time>
      </trkpt>
      <trkpt lat="42.27148" lon="2.42827">
        <ele>785.5</ele>
        <time>2020-03-05T04:38:15.279Z</time>
      </trkpt>
      <trkpt lat="42.27137" lon="2.42822">
        <ele>788</ele>
        <time>2020-03-05T04:38:28.028Z</time>
      </trkpt>
      <trkpt lat="42.27147" lon="2.42815">
        <ele>789.8</ele>
        <time>2020-03-05T04:38:40.088Z</time>
      </trkpt>
      <trkpt lat="42.2715" lon="2.42812">
        <ele>790.3</ele>
        <time>2020-03-05T04:38:44.195Z</time>
      </trkpt>
      <trkpt lat="42.2716" lon="2.42803">
        <ele>793.9</ele>
        <time>2020-03-05T04:38:57.709Z</time>
      </trkpt>
      <trkpt lat="42.27169" lon="2.42798">
        <ele>796.5</ele>
        <time>2020-03-05T04:39:08.705Z</time>
      </trkpt>
      <trkpt lat="42.27177" lon="2.42801">
        <ele>799.9</ele>
        <time>2020-03-05T04:39:17.988Z</time>
      </trkpt>
      <trkpt lat="42.27188" lon="2.42797">
        <ele>802.4</ele>
        <time>2020-03-05T04:39:30.628Z</time>
      </trkpt>
      <trkpt lat="42.27194" lon="2.4279">
        <ele>805.8</ele>
        <time>2020-03-05T04:39:39.773Z</time>
      </trkpt>
      <trkpt lat="42.27202" lon="2.42789">
        <ele>808.8</ele>
        <time>2020-03-05T04:39:49.221Z</time>
      </trkpt>
      <trkpt lat="42.27212" lon="2.42789">
        <ele>812.1</ele>
        <time>2020-03-05T04:40:00.723Z</time>
      </trkpt>
      <trkpt lat="42.27221" lon="2.42785">
        <ele>814.4</ele>
        <time>2020-03-05T04:40:10.218Z</time>
      </trkpt>
      <trkpt lat="42.27227" lon="2.42779">
        <ele>816.9</ele>
        <time>2020-03-05T04:40:19.499Z</time>
      </trkpt>
      <trkpt lat="42.27238" lon="2.42773">
        <ele>819.7</ele>
        <time>2020-03-05T04:40:31.784Z</time>
      </trkpt>
      <trkpt lat="42.27247" lon="2.42772">
        <ele>821.1</ele>
        <time>2020-03-05T04:40:42.136Z</time>
      </trkpt>
      <trkpt lat="42.27259" lon="2.42772">
        <ele>823.9</ele>
        <time>2020-03-05T04:40:55.511Z</time>
      </trkpt>
      <trkpt lat="42.27269" lon="2.42773">
        <ele>827</ele>
        <time>2020-03-05T04:41:06.230Z</time>
      </trkpt>
      <trkpt lat="42.27269" lon="2.42773">
        <ele>827.4</ele>
        <time>2020-03-05T04:41:06.633Z</time>
      </trkpt>
      <trkpt lat="42.27277" lon="2.42782">
        <ele>830.9</ele>
        <time>2020-03-05T04:41:18.089Z</time>
      </trkpt>
      <trkpt lat="42.27287" lon="2.42786">
        <ele>834.1</ele>
        <time>2020-03-05T04:41:29.992Z</time>
      </trkpt>
      <trkpt lat="42.27293" lon="2.42785">
        <ele>836.9</ele>
        <time>2020-03-05T04:41:36.842Z</time>
      </trkpt>
      <trkpt lat="42.27303" lon="2.42781">
        <ele>840.3</ele>
        <time>2020-03-05T04:41:48.785Z</time>
      </trkpt>
      <trkpt lat="42.27309" lon="2.42782">
        <ele>843.3</ele>
        <time>2020-03-05T04:41:56.411Z</time>
      </trkpt>
      <trkpt lat="42.27311" lon="2.42782">
        <ele>844.1</ele>
        <time>2020-03-05T04:41:58.282Z</time>
      </trkpt>
      <trkpt lat="42.27311" lon="2.42783">
        <ele>844.6</ele>
        <time>2020-03-05T04:41:59.358Z</time>
      </trkpt>
      <trkpt lat="42.27311" lon="2.42796">
        <ele>846.3</ele>
        <time>2020-03-05T04:42:09.258Z</time>
      </trkpt>
      <trkpt lat="42.2732" lon="2.42796">
        <ele>849.4</ele>
        <time>2020-03-05T04:42:19.570Z</time>
      </trkpt>
      <trkpt lat="42.27333" lon="2.42794">
        <ele>852.3</ele>
        <time>2020-03-05T04:42:34.004Z</time>
      </trkpt>
      <trkpt lat="42.2734" lon="2.42792">
        <ele>854.8</ele>
        <time>2020-03-05T04:42:41.495Z</time>
      </trkpt>
      <trkpt lat="42.27342" lon="2.42795">
        <ele>855.3</ele>
        <time>2020-03-05T04:42:45.344Z</time>
      </trkpt>
      <trkpt lat="42.27355" lon="2.42794">
        <ele>857.3</ele>
        <time>2020-03-05T04:42:58.957Z</time>
      </trkpt>
      <trkpt lat="42.27358" lon="2.42795">
        <ele>857.7</ele>
        <time>2020-03-05T04:43:03.155Z</time>
      </trkpt>
      <trkpt lat="42.27373" lon="2.42789">
        <ele>860.1</ele>
        <time>2020-03-05T04:43:20.093Z</time>
      </trkpt>
      <trkpt lat="42.27385" lon="2.4279">
        <ele>862.5</ele>
        <time>2020-03-05T04:43:33.085Z</time>
      </trkpt>
      <trkpt lat="42.27393" lon="2.42793">
        <ele>865.9</ele>
        <time>2020-03-05T04:43:42.299Z</time>
      </trkpt>
      <trkpt lat="42.27397" lon="2.42792">
        <ele>869.1</ele>
        <time>2020-03-05T04:43:47.610Z</time>
      </trkpt>
      <trkpt lat="42.27397" lon="2.42789">
        <ele>868.7</ele>
        <time>2020-03-05T04:43:49.983Z</time>
      </trkpt>
      <trkpt lat="42.27404" lon="2.42787">
        <ele>871.6</ele>
        <time>2020-03-05T04:43:58.544Z</time>
      </trkpt>
      <trkpt lat="42.27411" lon="2.42788">
        <ele>874.4</ele>
        <time>2020-03-05T04:44:06.542Z</time>
      </trkpt>
      <trkpt lat="42.27418" lon="2.42786">
        <ele>877.3</ele>
        <time>2020-03-05T04:44:14.500Z</time>
      </trkpt>
      <trkpt lat="42.27426" lon="2.42785">
        <ele>880.3</ele>
        <time>2020-03-05T04:44:23.463Z</time>
      </trkpt>
      <trkpt lat="42.27435" lon="2.42777">
        <ele>883.6</ele>
        <time>2020-03-05T04:44:35.822Z</time>
      </trkpt>
      <trkpt lat="42.27444" lon="2.42766">
        <ele>884</ele>
        <time>2020-03-05T04:44:48.608Z</time>
      </trkpt>
      <trkpt lat="42.27448" lon="2.4276">
        <ele>884.1</ele>
        <time>2020-03-05T04:44:55.536Z</time>
      </trkpt>
      <trkpt lat="42.27457" lon="2.42755">
        <ele>885.1</ele>
        <time>2020-03-05T04:45:05.774Z</time>
      </trkpt>
      <trkpt lat="42.27468" lon="2.42747">
        <ele>886.6</ele>
        <time>2020-03-05T04:45:18.855Z</time>
      </trkpt>
      <trkpt lat="42.2748" lon="2.42744">
        <ele>890</ele>
        <time>2020-03-05T04:45:32.388Z</time>
      </trkpt>
      <trkpt lat="42.27491" lon="2.42738">
        <ele>892.7</ele>
        <time>2020-03-05T04:45:45.407Z</time>
      </trkpt>
      <trkpt lat="42.27498" lon="2.42734">
        <ele>896.1</ele>
        <time>2020-03-05T04:45:54.412Z</time>
      </trkpt>
      <trkpt lat="42.27503" lon="2.42736">
        <ele>899.5</ele>
        <time>2020-03-05T04:46:01.308Z</time>
      </trkpt>
      <trkpt lat="42.27507" lon="2.42738">
        <ele>902.8</ele>
        <time>2020-03-05T04:46:06.894Z</time>
      </trkpt>
      <trkpt lat="42.27513" lon="2.42731">
        <ele>905.7</ele>
        <time>2020-03-05T04:46:15.504Z</time>
      </trkpt>
      <trkpt lat="42.27519" lon="2.42734">
        <ele>908.7</ele>
        <time>2020-03-05T04:46:22.578Z</time>
      </trkpt>
      <trkpt lat="42.27524" lon="2.42734">
        <ele>912</ele>
        <time>2020-03-05T04:46:29.180Z</time>
      </trkpt>
      <trkpt lat="42.27531" lon="2.4273">
        <ele>915.5</ele>
        <time>2020-03-05T04:46:38.344Z</time>
      </trkpt>
      <trkpt lat="42.27536" lon="2.42732">
        <ele>918.3</ele>
        <time>2020-03-05T04:46:43.893Z</time>
      </trkpt>
      <trkpt lat="42.2754" lon="2.42728">
        <ele>921.7</ele>
        <time>2020-03-05T04:46:50.431Z</time>
      </trkpt>
      <trkpt lat="42.27548" lon="2.42723">
        <ele>924.5</ele>
        <time>2020-03-05T04:47:00.314Z</time>
      </trkpt>
      <trkpt lat="42.27551" lon="2.42724">
        <ele>926.9</ele>
        <time>2020-03-05T04:47:04.951Z</time>
      </trkpt>
      <trkpt lat="42.27553" lon="2.4273">
        <ele>929.8</ele>
        <time>2020-03-05T04:47:10.729Z</time>
      </trkpt>
      <trkpt lat="42.27556" lon="2.42741">
        <ele>933.6</ele>
        <time>2020-03-05T04:47:20.593Z</time>
      </trkpt>
      <trkpt lat="42.27561" lon="2.42747">
        <ele>937</ele>
        <time>2020-03-05T04:47:28.429Z</time>
      </trkpt>
      <trkpt lat="42.27563" lon="2.42744">
        <ele>939.3</ele>
        <time>2020-03-05T04:47:32.990Z</time>
      </trkpt>
      <trkpt lat="42.27567" lon="2.4275">
        <ele>941.7</ele>
        <time>2020-03-05T04:47:39.371Z</time>
      </trkpt>
      <trkpt lat="42.27569" lon="2.42752">
        <ele>943.8</ele>
        <time>2020-03-05T04:47:42.837Z</time>
      </trkpt>
      <trkpt lat="42.27573" lon="2.42751">
        <ele>946.2</ele>
        <time>2020-03-05T04:47:47.477Z</time>
      </trkpt>
      <trkpt lat="42.27577" lon="2.42751">
        <ele>949.4</ele>
        <time>2020-03-05T04:47:52.940Z</time>
      </trkpt>
      <trkpt lat="42.27583" lon="2.42754">
        <ele>952.5</ele>
        <time>2020-03-05T04:48:00.782Z</time>
      </trkpt>
      <trkpt lat="42.27589" lon="2.42753">
        <ele>955.7</ele>
        <time>2020-03-05T04:48:07.929Z</time>
      </trkpt>
      <trkpt lat="42.27593" lon="2.42749">
        <ele>958</ele>
        <time>2020-03-05T04:48:13.747Z</time>
      </trkpt>
      <trkpt lat="42.27599" lon="2.42742">
        <ele>960.5</ele>
        <time>2020-03-05T04:48:22.235Z</time>
      </trkpt>
      <trkpt lat="42.27599" lon="2.42741">
        <ele>962.4</ele>
        <time>2020-03-05T04:48:24.215Z</time>
      </trkpt>
      <trkpt lat="42.27598" lon="2.42739">
        <ele>962.5</ele>
        <time>2020-03-05T04:48:25.762Z</time>
      </trkpt>
      <trkpt lat="42.27603" lon="2.42734">
        <ele>962.6</ele>
        <time>2020-03-05T04:48:32.025Z</time>
      </trkpt>
      <trkpt lat="42.27612" lon="2.42727">
        <ele>964.3</ele>
        <time>2020-03-05T04:48:43.721Z</time>
      </trkpt>
      <trkpt lat="42.2762" lon="2.42719">
        <ele>965.7</ele>
        <time>2020-03-05T04:48:54.522Z</time>
      </trkpt>
      <trkpt lat="42.27621" lon="2.42719">
        <ele>965.8</ele>
        <time>2020-03-05T04:48:56.099Z</time>
      </trkpt>
      <trkpt lat="42.27637" lon="2.4272">
        <ele>966.8</ele>
        <time>2020-03-05T04:49:12.577Z</time>
      </trkpt>
      <trkpt lat="42.27645" lon="2.42711">
        <ele>967.9</ele>
        <time>2020-03-05T04:49:24.402Z</time>
      </trkpt>
      <trkpt lat="42.27655" lon="2.42705">
        <ele>969.6</ele>
        <time>2020-03-05T04:49:35.777Z</time>
      </trkpt>
      <trkpt lat="42.27663" lon="2.42694">
        <ele>972.5</ele>
        <time>2020-03-05T04:49:48.312Z</time>
      </trkpt>
      <trkpt lat="42.27667" lon="2.42682">
        <ele>974.6</ele>
        <time>2020-03-05T04:49:59.598Z</time>
      </trkpt>
      <trkpt lat="42.27676" lon="2.42684">
        <ele>978.3</ele>
        <time>2020-03-05T04:50:10.362Z</time>
      </trkpt>
      <trkpt lat="42.27685" lon="2.42684">
        <ele>980.8</ele>
        <time>2020-03-05T04:50:19.973Z</time>
      </trkpt>
      <trkpt lat="42.27693" lon="2.42683">
        <ele>982.2</ele>
        <time>2020-03-05T04:50:28.657Z</time>
      </trkpt>
      <trkpt lat="42.27698" lon="2.42684">
        <ele>985.4</ele>
        <time>2020-03-05T04:50:34.776Z</time>
      </trkpt>
      <trkpt lat="42.27705" lon="2.42682">
        <ele>988.3</ele>
        <time>2020-03-05T04:50:43.310Z</time>
      </trkpt>
      <trkpt lat="42.27713" lon="2.42678">
        <ele>991.7</ele>
        <time>2020-03-05T04:50:52.985Z</time>
      </trkpt>
      <trkpt lat="42.2772" lon="2.42675">
        <ele>994.1</ele>
        <time>2020-03-05T04:51:01.401Z</time>
      </trkpt>
      <trkpt lat="42.27725" lon="2.42671">
        <ele>997.2</ele>
        <time>2020-03-05T04:51:08.464Z</time>
      </trkpt>
      <trkpt lat="42.27729" lon="2.42669">
        <ele>1000.1</ele>
        <time>2020-03-05T04:51:13.751Z</time>
      </trkpt>
      <trkpt lat="42.27736" lon="2.42665">
        <ele>1002.9</ele>
        <time>2020-03-05T04:51:22.670Z</time>
      </trkpt>
      <trkpt lat="42.27743" lon="2.42662">
        <ele>1005.3</ele>
        <time>2020-03-05T04:51:31.086Z</time>
      </trkpt>
      <trkpt lat="42.27748" lon="2.42657">
        <ele>1007.7</ele>
        <time>2020-03-05T04:51:38.292Z</time>
      </trkpt>
      <trkpt lat="42.27751" lon="2.4266">
        <ele>1010.5</ele>
        <time>2020-03-05T04:51:42.886Z</time>
      </trkpt>
      <trkpt lat="42.27757" lon="2.42667">
        <ele>1013.4</ele>
        <time>2020-03-05T04:51:51.468Z</time>
      </trkpt>
      <trkpt lat="42.27763" lon="2.42671">
        <ele>1016.2</ele>
        <time>2020-03-05T04:51:59.515Z</time>
      </trkpt>
      <trkpt lat="42.27768" lon="2.42664">
        <ele>1019.3</ele>
        <time>2020-03-05T04:52:07.431Z</time>
      </trkpt>
      <trkpt lat="42.27772" lon="2.42658">
        <ele>1021</ele>
        <time>2020-03-05T04:52:13.611Z</time>
      </trkpt>
      <trkpt lat="42.27779" lon="2.42656">
        <ele>1024.4</ele>
        <time>2020-03-05T04:52:22.754Z</time>
      </trkpt>
      <trkpt lat="42.27784" lon="2.4265">
        <ele>1026.9</ele>
        <time>2020-03-05T04:52:30.486Z</time>
      </trkpt>
      <trkpt lat="42.27792" lon="2.42646">
        <ele>1030.7</ele>
        <time>2020-03-05T04:52:39.888Z</time>
      </trkpt>
      <trkpt lat="42.27799" lon="2.42646">
        <ele>1033.6</ele>
        <time>2020-03-05T04:52:48.700Z</time>
      </trkpt>
      <trkpt lat="42.27806" lon="2.42645">
        <ele>1037.1</ele>
        <time>2020-03-05T04:52:56.688Z</time>
      </trkpt>
      <trkpt lat="42.27813" lon="2.42641">
        <ele>1040.9</ele>
        <time>2020-03-05T04:53:06.046Z</time>
      </trkpt>
      <trkpt lat="42.2781" lon="2.42642">
        <ele>1042.4</ele>
        <time>2020-03-05T04:53:09.733Z</time>
      </trkpt>
      <trkpt lat="42.2781" lon="2.42643">
        <ele>1037.9</ele>
        <time>2020-03-05T04:53:14.215Z</time>
      </trkpt>
      <trkpt lat="42.2781" lon="2.42643">
        <ele>1042.8</ele>
        <time>2020-03-05T04:53:18.962Z</time>
      </trkpt>
      <trkpt lat="42.2781" lon="2.42643">
        <ele>1041.8</ele>
        <time>2020-03-05T04:53:19.946Z</time>
      </trkpt>
      <trkpt lat="42.27808" lon="2.42639">
        <ele>1041.4</ele>
        <time>2020-03-05T04:53:23.648Z</time>
      </trkpt>
      <trkpt lat="42.2781" lon="2.4264">
        <ele>1041.2</ele>
        <time>2020-03-05T04:53:25.426Z</time>
      </trkpt>
      <trkpt lat="42.2781" lon="2.4264">
        <ele>1042.6</ele>
        <time>2020-03-05T04:53:26.800Z</time>
      </trkpt>
      <trkpt lat="42.27809" lon="2.42639">
        <ele>1044.2</ele>
        <time>2020-03-05T04:53:28.670Z</time>
      </trkpt>
      <trkpt lat="42.2782" lon="2.4264">
        <ele>1047.5</ele>
        <time>2020-03-05T04:53:40.666Z</time>
      </trkpt>
      <trkpt lat="42.27825" lon="2.4264">
        <ele>1050.4</ele>
        <time>2020-03-05T04:53:47.328Z</time>
      </trkpt>
      <trkpt lat="42.27831" lon="2.42636">
        <ele>1053.8</ele>
        <time>2020-03-05T04:53:54.737Z</time>
      </trkpt>
      <trkpt lat="42.27839" lon="2.42635">
        <ele>1056.7</ele>
        <time>2020-03-05T04:54:04.084Z</time>
      </trkpt>
      <trkpt lat="42.2784" lon="2.42647">
        <ele>1059.1</ele>
        <time>2020-03-05T04:54:13.851Z</time>
      </trkpt>
      <trkpt lat="42.27844" lon="2.42654">
        <ele>1062.5</ele>
        <time>2020-03-05T04:54:21.629Z</time>
      </trkpt>
      <trkpt lat="42.27848" lon="2.42659">
        <ele>1064.8</ele>
        <time>2020-03-05T04:54:27.992Z</time>
      </trkpt>
      <trkpt lat="42.27848" lon="2.42667">
        <ele>1066.7</ele>
        <time>2020-03-05T04:54:34.899Z</time>
      </trkpt>
      <trkpt lat="42.27853" lon="2.42672">
        <ele>1069.7</ele>
        <time>2020-03-05T04:54:42.046Z</time>
      </trkpt>
      <trkpt lat="42.2786" lon="2.42675">
        <ele>1072.9</ele>
        <time>2020-03-05T04:54:50.728Z</time>
      </trkpt>
      <trkpt lat="42.27865" lon="2.42676">
        <ele>1075.3</ele>
        <time>2020-03-05T04:54:56.425Z</time>
      </trkpt>
      <trkpt lat="42.27871" lon="2.4268">
        <ele>1078.8</ele>
        <time>2020-03-05T04:55:04.313Z</time>
      </trkpt>
      <trkpt lat="42.27873" lon="2.42686">
        <ele>1082.1</ele>
        <time>2020-03-05T04:55:11.208Z</time>
      </trkpt>
      <trkpt lat="42.27876" lon="2.42691">
        <ele>1085.6</ele>
        <time>2020-03-05T04:55:17.129Z</time>
      </trkpt>
      <trkpt lat="42.27881" lon="2.42698">
        <ele>1088.4</ele>
        <time>2020-03-05T04:55:25.239Z</time>
      </trkpt>
      <trkpt lat="42.27887" lon="2.42701">
        <ele>1091.8</ele>
        <time>2020-03-05T04:55:33.024Z</time>
      </trkpt>
      <trkpt lat="42.27885" lon="2.42698">
        <ele>1092.3</ele>
        <time>2020-03-05T04:55:36.907Z</time>
      </trkpt>
      <trkpt lat="42.27885" lon="2.42698">
        <ele>1092.8</ele>
        <time>2020-03-05T04:55:37.469Z</time>
      </trkpt>
      <trkpt lat="42.27889" lon="2.42698">
        <ele>1091.8</ele>
        <time>2020-03-05T04:55:42.550Z</time>
      </trkpt>
      <trkpt lat="42.27893" lon="2.42702">
        <ele>1095.2</ele>
        <time>2020-03-05T04:55:48.213Z</time>
      </trkpt>
      <trkpt lat="42.27895" lon="2.42699">
        <ele>1097.1</ele>
        <time>2020-03-05T04:55:51.816Z</time>
      </trkpt>
      <trkpt lat="42.27901" lon="2.42699">
        <ele>1100.3</ele>
        <time>2020-03-05T04:55:59.511Z</time>
      </trkpt>
      <trkpt lat="42.27905" lon="2.42703">
        <ele>1102.7</ele>
        <time>2020-03-05T04:56:05.140Z</time>
      </trkpt>
      <trkpt lat="42.27906" lon="2.42705">
        <ele>1104.4</ele>
        <time>2020-03-05T04:56:07.507Z</time>
      </trkpt>
      <trkpt lat="42.27909" lon="2.42713">
        <ele>1106.6</ele>
        <time>2020-03-05T04:56:15.519Z</time>
      </trkpt>
      <trkpt lat="42.27912" lon="2.42715">
        <ele>1109.6</ele>
        <time>2020-03-05T04:56:19.851Z</time>
      </trkpt>
      <trkpt lat="42.27917" lon="2.42721">
        <ele>1110.4</ele>
        <time>2020-03-05T04:56:26.821Z</time>
      </trkpt>
      <trkpt lat="42.27931" lon="2.42727">
        <ele>1111.9</ele>
        <time>2020-03-05T04:56:43.231Z</time>
      </trkpt>
      <trkpt lat="42.27937" lon="2.42735">
        <ele>1115.8</ele>
        <time>2020-03-05T04:56:52.804Z</time>
      </trkpt>
      <trkpt lat="42.2794" lon="2.42745">
        <ele>1119.7</ele>
        <time>2020-03-05T04:57:02.484Z</time>
      </trkpt>
      <trkpt lat="42.27949" lon="2.42751">
        <ele>1122.5</ele>
        <time>2020-03-05T04:57:13.725Z</time>
      </trkpt>
      <trkpt lat="42.27957" lon="2.42753">
        <ele>1125.4</ele>
        <time>2020-03-05T04:57:22.612Z</time>
      </trkpt>
      <trkpt lat="42.27965" lon="2.42751">
        <ele>1128.3</ele>
        <time>2020-03-05T04:57:32.030Z</time>
      </trkpt>
      <trkpt lat="42.2797" lon="2.42755">
        <ele>1130.6</ele>
        <time>2020-03-05T04:57:38.519Z</time>
      </trkpt>
      <trkpt lat="42.2797" lon="2.4276">
        <ele>1129.2</ele>
        <time>2020-03-05T04:57:42.798Z</time>
      </trkpt>
      <trkpt lat="42.27972" lon="2.42754">
        <ele>1131.2</ele>
        <time>2020-03-05T04:57:48.588Z</time>
      </trkpt>
      <trkpt lat="42.27973" lon="2.42752">
        <ele>1131.3</ele>
        <time>2020-03-05T04:57:50.139Z</time>
      </trkpt>
      <trkpt lat="42.27979" lon="2.42753">
        <ele>1135.1</ele>
        <time>2020-03-05T04:57:57.688Z</time>
      </trkpt>
      <trkpt lat="42.27978" lon="2.42762">
        <ele>1138.3</ele>
        <time>2020-03-05T04:58:05.806Z</time>
      </trkpt>
      <trkpt lat="42.27978" lon="2.42763">
        <ele>1138.5</ele>
        <time>2020-03-05T04:58:06.868Z</time>
      </trkpt>
      <trkpt lat="42.27976" lon="2.42773">
        <ele>1139.4</ele>
        <time>2020-03-05T04:58:14.520Z</time>
      </trkpt>
      <trkpt lat="42.27979" lon="2.42777">
        <ele>1141.3</ele>
        <time>2020-03-05T04:58:19.780Z</time>
      </trkpt>
      <trkpt lat="42.27982" lon="2.42773">
        <ele>1142.1</ele>
        <time>2020-03-05T04:58:24.682Z</time>
      </trkpt>
      <trkpt lat="42.27983" lon="2.42771">
        <ele>1144.2</ele>
        <time>2020-03-05T04:58:27.540Z</time>
      </trkpt>
      <trkpt lat="42.27985" lon="2.42764">
        <ele>1144.2</ele>
        <time>2020-03-05T04:58:33.058Z</time>
      </trkpt>
      <trkpt lat="42.27987" lon="2.42766">
        <ele>1146</ele>
        <time>2020-03-05T04:58:36.334Z</time>
      </trkpt>
      <trkpt lat="42.27988" lon="2.42769">
        <ele>1148.9</ele>
        <time>2020-03-05T04:58:40.416Z</time>
      </trkpt>
      <trkpt lat="42.27992" lon="2.42767">
        <ele>1149.8</ele>
        <time>2020-03-05T04:58:44.982Z</time>
      </trkpt>
      <trkpt lat="42.27994" lon="2.42771">
        <ele>1152.7</ele>
        <time>2020-03-05T04:58:49.381Z</time>
      </trkpt>
      <trkpt lat="42.27996" lon="2.42775">
        <ele>1155.8</ele>
        <time>2020-03-05T04:58:54.614Z</time>
      </trkpt>
      <trkpt lat="42.27997" lon="2.42775">
        <ele>1156.2</ele>
        <time>2020-03-05T04:58:55.920Z</time>
      </trkpt>
      <trkpt lat="42.28001" lon="2.42775">
        <ele>1157.1</ele>
        <time>2020-03-05T04:59:00.543Z</time>
      </trkpt>
      <trkpt lat="42.28005" lon="2.42771">
        <ele>1160.1</ele>
        <time>2020-03-05T04:59:06.194Z</time>
      </trkpt>
      <trkpt lat="42.28014" lon="2.42774">
        <ele>1163</ele>
        <time>2020-03-05T04:59:16.514Z</time>
      </trkpt>
      <trkpt lat="42.2802" lon="2.42773">
        <ele>1166.3</ele>
        <time>2020-03-05T04:59:23.792Z</time>
      </trkpt>
      <trkpt lat="42.28029" lon="2.42779">
        <ele>1168.8</ele>
        <time>2020-03-05T04:59:35.297Z</time>
      </trkpt>
      <trkpt lat="42.2804" lon="2.42783">
        <ele>1171.6</ele>
        <time>2020-03-05T04:59:47.460Z</time>
      </trkpt>
      <trkpt lat="42.28047" lon="2.42787">
        <ele>1173.4</ele>
        <time>2020-03-05T04:59:56.245Z</time>
      </trkpt>
      <trkpt lat="42.28048" lon="2.42793">
        <ele>1173.9</ele>
        <time>2020-03-05T05:00:01.469Z</time>
      </trkpt>
      <trkpt lat="42.28051" lon="2.42809">
        <ele>1172.6</ele>
        <time>2020-03-05T05:00:14.312Z</time>
      </trkpt>
      <trkpt lat="42.28053" lon="2.42816">
        <ele>1174.1</ele>
        <time>2020-03-05T05:00:20.644Z</time>
      </trkpt>
      <trkpt lat="42.28053" lon="2.42816">
        <ele>1177.4</ele>
        <time>2020-03-05T05:00:23.857Z</time>
      </trkpt>
      <trkpt lat="42.28053" lon="2.42817">
        <ele>1175.3</ele>
        <time>2020-03-05T05:00:25.823Z</time>
      </trkpt>
      <trkpt lat="42.28053" lon="2.42814">
        <ele>1172.5</ele>
        <time>2020-03-05T05:00:29.092Z</time>
      </trkpt>
      <trkpt lat="42.28047" lon="2.42801">
        <ele>1174</ele>
        <time>2020-03-05T05:00:42.161Z</time>
      </trkpt>
      <trkpt lat="42.28049" lon="2.42803">
        <ele>1176.3</ele>
        <time>2020-03-05T05:00:46.023Z</time>
      </trkpt>
      <trkpt lat="42.28052" lon="2.42798">
        <ele>1178.8</ele>
        <time>2020-03-05T05:00:50.815Z</time>
      </trkpt>
      <trkpt lat="42.28052" lon="2.42796">
        <ele>1181.8</ele>
        <time>2020-03-05T05:00:54.395Z</time>
      </trkpt>
      <trkpt lat="42.28052" lon="2.42795">
        <ele>1181.7</ele>
        <time>2020-03-05T05:00:54.860Z</time>
      </trkpt>
      <trkpt lat="42.28053" lon="2.42792">
        <ele>1181.6</ele>
        <time>2020-03-05T05:00:58.600Z</time>
      </trkpt>
      <trkpt lat="42.28058" lon="2.42791">
        <ele>1184.4</ele>
        <time>2020-03-05T05:01:04.494Z</time>
      </trkpt>
      <trkpt lat="42.28064" lon="2.42789">
        <ele>1188</ele>
        <time>2020-03-05T05:01:11.774Z</time>
      </trkpt>
      <trkpt lat="42.28068" lon="2.42793">
        <ele>1190.3</ele>
        <time>2020-03-05T05:01:18.246Z</time>
      </trkpt>
      <trkpt lat="42.2807" lon="2.42794">
        <ele>1192.1</ele>
        <time>2020-03-05T05:01:20.712Z</time>
      </trkpt>
      <trkpt lat="42.28075" lon="2.42799">
        <ele>1194.6</ele>
        <time>2020-03-05T05:01:27.766Z</time>
      </trkpt>
      <trkpt lat="42.2808" lon="2.42804">
        <ele>1198</ele>
        <time>2020-03-05T05:01:35.519Z</time>
      </trkpt>
      <trkpt lat="42.28092" lon="2.42812">
        <ele>1200.9</ele>
        <time>2020-03-05T05:01:49.842Z</time>
      </trkpt>
      <trkpt lat="42.28098" lon="2.42819">
        <ele>1203.3</ele>
        <time>2020-03-05T05:01:59.210Z</time>
      </trkpt>
      <trkpt lat="42.28109" lon="2.42832">
        <ele>1206.6</ele>
        <time>2020-03-05T05:02:15.254Z</time>
      </trkpt>
      <trkpt lat="42.28121" lon="2.42843">
        <ele>1209.1</ele>
        <time>2020-03-05T05:02:31.390Z</time>
      </trkpt>
      <trkpt lat="42.28134" lon="2.42834">
        <ele>1211</ele>
        <time>2020-03-05T05:02:47.319Z</time>
      </trkpt>
      <trkpt lat="42.28151" lon="2.42828">
        <ele>1213.8</ele>
        <time>2020-03-05T05:03:06.897Z</time>
      </trkpt>
      <trkpt lat="42.28162" lon="2.42826">
        <ele>1216.2</ele>
        <time>2020-03-05T05:03:18.557Z</time>
      </trkpt>
      <trkpt lat="42.28168" lon="2.42818">
        <ele>1219.7</ele>
        <time>2020-03-05T05:03:28.371Z</time>
      </trkpt>
      <trkpt lat="42.2817" lon="2.42819">
        <ele>1222.9</ele>
        <time>2020-03-05T05:03:32.639Z</time>
      </trkpt>
      <trkpt lat="42.28179" lon="2.42818">
        <ele>1226.7</ele>
        <time>2020-03-05T05:03:43.293Z</time>
      </trkpt>
      <trkpt lat="42.28187" lon="2.42824">
        <ele>1229.2</ele>
        <time>2020-03-05T05:03:52.751Z</time>
      </trkpt>
      <trkpt lat="42.28187" lon="2.42833">
        <ele>1232.1</ele>
        <time>2020-03-05T05:04:00.156Z</time>
      </trkpt>
      <trkpt lat="42.28187" lon="2.4284">
        <ele>1236.1</ele>
        <time>2020-03-05T05:04:07.401Z</time>
      </trkpt>
      <trkpt lat="42.28193" lon="2.42849">
        <ele>1238.4</ele>
        <time>2020-03-05T05:04:18.065Z</time>
      </trkpt>
      <trkpt lat="42.28197" lon="2.42858">
        <ele>1241.7</ele>
        <time>2020-03-05T05:04:26.893Z</time>
      </trkpt>
      <trkpt lat="42.28205" lon="2.42868">
        <ele>1245.1</ele>
        <time>2020-03-05T05:04:39.288Z</time>
      </trkpt>
      <trkpt lat="42.28209" lon="2.42878">
        <ele>1248.4</ele>
        <time>2020-03-05T05:04:48.273Z</time>
      </trkpt>
      <trkpt lat="42.2821" lon="2.42887">
        <ele>1250.8</ele>
        <time>2020-03-05T05:04:56.470Z</time>
      </trkpt>
      <trkpt lat="42.28211" lon="2.42885">
        <ele>1251.2</ele>
        <time>2020-03-05T05:04:58.834Z</time>
      </trkpt>
      <trkpt lat="42.28211" lon="2.42884">
        <ele>1253.3</ele>
        <time>2020-03-05T05:05:00.899Z</time>
      </trkpt>
      <trkpt lat="42.2821" lon="2.42886">
        <ele>1251.4</ele>
        <time>2020-03-05T05:05:03.653Z</time>
      </trkpt>
      <trkpt lat="42.28213" lon="2.42887">
        <ele>1252.8</ele>
        <time>2020-03-05T05:05:07.457Z</time>
      </trkpt>
      <trkpt lat="42.28214" lon="2.42889">
        <ele>1252.3</ele>
        <time>2020-03-05T05:05:09.245Z</time>
      </trkpt>
      <trkpt lat="42.28214" lon="2.42887">
        <ele>1251.3</ele>
        <time>2020-03-05T05:05:11.225Z</time>
      </trkpt>
      <trkpt lat="42.28214" lon="2.42887">
        <ele>1251.4</ele>
        <time>2020-03-05T05:05:11.748Z</time>
      </trkpt>
      <trkpt lat="42.28224" lon="2.42888">
        <ele>1252.3</ele>
        <time>2020-03-05T05:05:21.999Z</time>
      </trkpt>
      <trkpt lat="42.2823" lon="2.42884">
        <ele>1254.1</ele>
        <time>2020-03-05T05:05:29.617Z</time>
      </trkpt>
      <trkpt lat="42.28238" lon="2.42882">
        <ele>1257.1</ele>
        <time>2020-03-05T05:05:39.462Z</time>
      </trkpt>
      <trkpt lat="42.28241" lon="2.42879">
        <ele>1259</ele>
        <time>2020-03-05T05:05:43.724Z</time>
      </trkpt>
      <trkpt lat="42.28245" lon="2.42878">
        <ele>1259.9</ele>
        <time>2020-03-05T05:05:48.340Z</time>
      </trkpt>
      <trkpt lat="42.28254" lon="2.42878">
        <ele>1262.8</ele>
        <time>2020-03-05T05:05:57.956Z</time>
      </trkpt>
      <trkpt lat="42.28264" lon="2.42875">
        <ele>1266.2</ele>
        <time>2020-03-05T05:06:09.825Z</time>
      </trkpt>
      <trkpt lat="42.28275" lon="2.42864">
        <ele>1265.8</ele>
        <time>2020-03-05T05:06:24.956Z</time>
      </trkpt>
      <trkpt lat="42.28277" lon="2.42859">
        <ele>1267.3</ele>
        <time>2020-03-05T05:06:29.448Z</time>
      </trkpt>
      <trkpt lat="42.28282" lon="2.42852">
        <ele>1269.6</ele>
        <time>2020-03-05T05:06:37.336Z</time>
      </trkpt>
      <trkpt lat="42.28289" lon="2.42849">
        <ele>1272.9</ele>
        <time>2020-03-05T05:06:46.117Z</time>
      </trkpt>
      <trkpt lat="42.28292" lon="2.42846">
        <ele>1274</ele>
        <time>2020-03-05T05:06:50.227Z</time>
      </trkpt>
      <trkpt lat="42.283" lon="2.4284">
        <ele>1276.8</ele>
        <time>2020-03-05T05:07:00.686Z</time>
      </trkpt>
      <trkpt lat="42.28306" lon="2.42833">
        <ele>1279.8</ele>
        <time>2020-03-05T05:07:09.626Z</time>
      </trkpt>
      <trkpt lat="42.28309" lon="2.42821">
        <ele>1283</ele>
        <time>2020-03-05T05:07:20.174Z</time>
      </trkpt>
      <trkpt lat="42.28316" lon="2.42817">
        <ele>1286.5</ele>
        <time>2020-03-05T05:07:29.046Z</time>
      </trkpt>
      <trkpt lat="42.28321" lon="2.42808">
        <ele>1288.3</ele>
        <time>2020-03-05T05:07:38.499Z</time>
      </trkpt>
      <trkpt lat="42.28323" lon="2.42806">
        <ele>1292.6</ele>
        <time>2020-03-05T05:07:43.457Z</time>
      </trkpt>
      <trkpt lat="42.28323" lon="2.42805">
        <ele>1292.8</ele>
        <time>2020-03-05T05:07:43.674Z</time>
      </trkpt>
      <trkpt lat="42.28323" lon="2.42805">
        <ele>1291.2</ele>
        <time>2020-03-05T05:07:45.333Z</time>
      </trkpt>
      <trkpt lat="42.28321" lon="2.42802">
        <ele>1291.7</ele>
        <time>2020-03-05T05:07:48.717Z</time>
      </trkpt>
      <trkpt lat="42.2832" lon="2.42802">
        <ele>1290.3</ele>
        <time>2020-03-05T05:07:50.138Z</time>
      </trkpt>
      <trkpt lat="42.28323" lon="2.428">
        <ele>1291.8</ele>
        <time>2020-03-05T05:07:53.300Z</time>
      </trkpt>
      <trkpt lat="42.28325" lon="2.42796">
        <ele>1295.1</ele>
        <time>2020-03-05T05:07:58.704Z</time>
      </trkpt>
      <trkpt lat="42.28326" lon="2.42795">
        <ele>1295</ele>
        <time>2020-03-05T05:07:59.744Z</time>
      </trkpt>
      <trkpt lat="42.28327" lon="2.42794">
        <ele>1292.2</ele>
        <time>2020-03-05T05:08:02.917Z</time>
      </trkpt>
      <trkpt lat="42.28332" lon="2.42781">
        <ele>1288.4</ele>
        <time>2020-03-05T05:08:15.382Z</time>
      </trkpt>
      <trkpt lat="42.28333" lon="2.42778">
        <ele>1288.3</ele>
        <time>2020-03-05T05:08:17.689Z</time>
      </trkpt>
      <trkpt lat="42.28335" lon="2.42771">
        <ele>1289.7</ele>
        <time>2020-03-05T05:08:24.300Z</time>
      </trkpt>
      <trkpt lat="42.28337" lon="2.42771">
        <ele>1291.1</ele>
        <time>2020-03-05T05:08:26.605Z</time>
      </trkpt>
      <trkpt lat="42.28338" lon="2.42772">
        <ele>1291.2</ele>
        <time>2020-03-05T05:08:27.646Z</time>
      </trkpt>
      <trkpt lat="42.28338" lon="2.42774">
        <ele>1291.2</ele>
        <time>2020-03-05T05:08:28.782Z</time>
      </trkpt>
      <trkpt lat="42.28338" lon="2.42783">
        <ele>1295.7</ele>
        <time>2020-03-05T05:08:37.447Z</time>
      </trkpt>
      <trkpt lat="42.28338" lon="2.42784">
        <ele>1295.5</ele>
        <time>2020-03-05T05:08:38.287Z</time>
      </trkpt>
      <trkpt lat="42.28335" lon="2.42795">
        <ele>1296.6</ele>
        <time>2020-03-05T05:08:47.345Z</time>
      </trkpt>
      <trkpt lat="42.28334" lon="2.42796">
        <ele>1298.5</ele>
        <time>2020-03-05T05:08:49.616Z</time>
      </trkpt>
      <trkpt lat="42.28335" lon="2.42797">
        <ele>1297.6</ele>
        <time>2020-03-05T05:08:50.673Z</time>
      </trkpt>
      <trkpt lat="42.28337" lon="2.42798">
        <ele>1297.6</ele>
        <time>2020-03-05T05:08:53.365Z</time>
      </trkpt>
      <trkpt lat="42.28338" lon="2.42797">
        <ele>1297.6</ele>
        <time>2020-03-05T05:08:54.538Z</time>
      </trkpt>
      <trkpt lat="42.28356" lon="2.42791">
        <ele>1296.9</ele>
        <time>2020-03-05T05:09:14.505Z</time>
      </trkpt>
      <trkpt lat="42.28368" lon="2.42785">
        <ele>1298.4</ele>
        <time>2020-03-05T05:09:28.756Z</time>
      </trkpt>
      <trkpt lat="42.28381" lon="2.4278">
        <ele>1295.9</ele>
        <time>2020-03-05T05:09:43.065Z</time>
      </trkpt>
      <trkpt lat="42.28382" lon="2.4278">
        <ele>1296</ele>
        <time>2020-03-05T05:09:44.484Z</time>
      </trkpt>
      <trkpt lat="42.28383" lon="2.42781">
        <ele>1296.1</ele>
        <time>2020-03-05T05:09:45.936Z</time>
      </trkpt>
      <trkpt lat="42.28404" lon="2.42777">
        <ele>1297.5</ele>
        <time>2020-03-05T05:10:08.119Z</time>
      </trkpt>
      <trkpt lat="42.28406" lon="2.42776">
        <ele>1299.5</ele>
        <time>2020-03-05T05:10:11.190Z</time>
      </trkpt>
      <trkpt lat="42.28413" lon="2.42772">
        <ele>1301.8</ele>
        <time>2020-03-05T05:10:19.868Z</time>
      </trkpt>
      <trkpt lat="42.28411" lon="2.42771">
        <ele>1298.4</ele>
        <time>2020-03-05T05:10:23.609Z</time>
      </trkpt>
      <trkpt lat="42.28409" lon="2.42772">
        <ele>1300.9</ele>
        <time>2020-03-05T05:10:26.984Z</time>
      </trkpt>
      <trkpt lat="42.28409" lon="2.42774">
        <ele>1298.9</ele>
        <time>2020-03-05T05:10:29.682Z</time>
      </trkpt>
      <trkpt lat="42.28412" lon="2.42774">
        <ele>1301.9</ele>
        <time>2020-03-05T05:10:33.695Z</time>
      </trkpt>
      <trkpt lat="42.28412" lon="2.42773">
        <ele>1300.5</ele>
        <time>2020-03-05T05:10:35.428Z</time>
      </trkpt>
      <trkpt lat="42.28415" lon="2.42772">
        <ele>1299.3</ele>
        <time>2020-03-05T05:10:38.224Z</time>
      </trkpt>
      <trkpt lat="42.28414" lon="2.42767">
        <ele>1298.8</ele>
        <time>2020-03-05T05:10:41.815Z</time>
      </trkpt>
      <trkpt lat="42.28412" lon="2.42768">
        <ele>1300.4</ele>
        <time>2020-03-05T05:10:44.572Z</time>
      </trkpt>
      <trkpt lat="42.28409" lon="2.42771">
        <ele>1298</ele>
        <time>2020-03-05T05:10:49.218Z</time>
      </trkpt>
      <trkpt lat="42.28411" lon="2.42773">
        <ele>1300.3</ele>
        <time>2020-03-05T05:10:52.198Z</time>
      </trkpt>
      <trkpt lat="42.28412" lon="2.42777">
        <ele>1298.5</ele>
        <time>2020-03-05T05:10:56.405Z</time>
      </trkpt>
      <trkpt lat="42.28413" lon="2.42778">
        <ele>1297.6</ele>
        <time>2020-03-05T05:10:57.982Z</time>
      </trkpt>
      <trkpt lat="42.28415" lon="2.42778">
        <ele>1297.6</ele>
        <time>2020-03-05T05:10:59.477Z</time>
      </trkpt>
      <trkpt lat="42.28416" lon="2.42778">
        <ele>1296.9</ele>
        <time>2020-03-05T05:11:01.220Z</time>
      </trkpt>
      <trkpt lat="42.28417" lon="2.42779">
        <ele>1296.4</ele>
        <time>2020-03-05T05:11:02.519Z</time>
      </trkpt>
      <trkpt lat="42.28419" lon="2.42779">
        <ele>1296</ele>
        <time>2020-03-05T05:11:04.011Z</time>
      </trkpt>
      <trkpt lat="42.2842" lon="2.4278">
        <ele>1295.5</ele>
        <time>2020-03-05T05:11:05.653Z</time>
      </trkpt>
      <trkpt lat="42.28421" lon="2.4278">
        <ele>1294.5</ele>
        <time>2020-03-05T05:11:07.564Z</time>
      </trkpt>
      <trkpt lat="42.28423" lon="2.4278">
        <ele>1294</ele>
        <time>2020-03-05T05:11:09.379Z</time>
      </trkpt>
      <trkpt lat="42.28434" lon="2.42785">
        <ele>1291.2</ele>
        <time>2020-03-05T05:11:22.122Z</time>
      </trkpt>
      <trkpt lat="42.28451" lon="2.42797">
        <ele>1292.6</ele>
        <time>2020-03-05T05:11:43.440Z</time>
      </trkpt>
      <trkpt lat="42.28471" lon="2.42802">
        <ele>1294.2</ele>
        <time>2020-03-05T05:12:04.808Z</time>
      </trkpt>
      <trkpt lat="42.28478" lon="2.42804">
        <ele>1290.3</ele>
        <time>2020-03-05T05:12:13.592Z</time>
      </trkpt>
      <trkpt lat="42.28483" lon="2.42808">
        <ele>1287.3</ele>
        <time>2020-03-05T05:12:20.718Z</time>
      </trkpt>
      <trkpt lat="42.28488" lon="2.42813">
        <ele>1283.7</ele>
        <time>2020-03-05T05:12:27.819Z</time>
      </trkpt>
      <trkpt lat="42.2849" lon="2.42818">
        <ele>1280.7</ele>
        <time>2020-03-05T05:12:33.510Z</time>
      </trkpt>
      <trkpt lat="42.28492" lon="2.42826">
        <ele>1277.3</ele>
        <time>2020-03-05T05:12:41.048Z</time>
      </trkpt>
      <trkpt lat="42.28493" lon="2.42835">
        <ele>1274</ele>
        <time>2020-03-05T05:12:48.820Z</time>
      </trkpt>
      <trkpt lat="42.28496" lon="2.42845">
        <ele>1270.6</ele>
        <time>2020-03-05T05:12:58.120Z</time>
      </trkpt>
      <trkpt lat="42.28496" lon="2.42851">
        <ele>1268.1</ele>
        <time>2020-03-05T05:13:03.566Z</time>
      </trkpt>
      <trkpt lat="42.285" lon="2.42857">
        <ele>1265.2</ele>
        <time>2020-03-05T05:13:10.180Z</time>
      </trkpt>
      <trkpt lat="42.28501" lon="2.42858">
        <ele>1265.4</ele>
        <time>2020-03-05T05:13:11.887Z</time>
      </trkpt>
      <trkpt lat="42.2852" lon="2.42869">
        <ele>1262.8</ele>
        <time>2020-03-05T05:13:35.145Z</time>
      </trkpt>
      <trkpt lat="42.28547" lon="2.42862">
        <ele>1259.5</ele>
        <time>2020-03-05T05:14:04.222Z</time>
      </trkpt>
      <trkpt lat="42.28552" lon="2.42866">
        <ele>1256.3</ele>
        <time>2020-03-05T05:14:11.306Z</time>
      </trkpt>
      <trkpt lat="42.28563" lon="2.42872">
        <ele>1252.8</ele>
        <time>2020-03-05T05:14:24.875Z</time>
      </trkpt>
      <trkpt lat="42.28576" lon="2.42869">
        <ele>1249</ele>
        <time>2020-03-05T05:14:39.233Z</time>
      </trkpt>
      <trkpt lat="42.28587" lon="2.42873">
        <ele>1246.2</ele>
        <time>2020-03-05T05:14:52.232Z</time>
      </trkpt>
      <trkpt lat="42.28596" lon="2.42874">
        <ele>1242.8</ele>
        <time>2020-03-05T05:15:02.417Z</time>
      </trkpt>
      <trkpt lat="42.28599" lon="2.42869">
        <ele>1239.2</ele>
        <time>2020-03-05T05:15:08.353Z</time>
      </trkpt>
      <trkpt lat="42.28607" lon="2.42874">
        <ele>1235.5</ele>
        <time>2020-03-05T05:15:18.958Z</time>
      </trkpt>
      <trkpt lat="42.28613" lon="2.42879">
        <ele>1232.5</ele>
        <time>2020-03-05T05:15:26.652Z</time>
      </trkpt>
      <trkpt lat="42.28622" lon="2.42885">
        <ele>1229.1</ele>
        <time>2020-03-05T05:15:38.697Z</time>
      </trkpt>
      <trkpt lat="42.2863" lon="2.42893">
        <ele>1226.4</ele>
        <time>2020-03-05T05:15:49.715Z</time>
      </trkpt>
      <trkpt lat="42.28638" lon="2.42908">
        <ele>1223.1</ele>
        <time>2020-03-05T05:16:04.740Z</time>
      </trkpt>
      <trkpt lat="42.28641" lon="2.42917">
        <ele>1219.6</ele>
        <time>2020-03-05T05:16:13.427Z</time>
      </trkpt>
      <trkpt lat="42.28644" lon="2.42927">
        <ele>1216.8</ele>
        <time>2020-03-05T05:16:22.299Z</time>
      </trkpt>
      <trkpt lat="42.28644" lon="2.42941">
        <ele>1213.5</ele>
        <time>2020-03-05T05:16:33.797Z</time>
      </trkpt>
      <trkpt lat="42.28649" lon="2.42949">
        <ele>1211.1</ele>
        <time>2020-03-05T05:16:42.778Z</time>
      </trkpt>
      <trkpt lat="42.28652" lon="2.42948">
        <ele>1211.1</ele>
        <time>2020-03-05T05:16:45.822Z</time>
      </trkpt>
      <trkpt lat="42.28653" lon="2.42952">
        <ele>1210.5</ele>
        <time>2020-03-05T05:16:49.387Z</time>
      </trkpt>
      <trkpt lat="42.28655" lon="2.42958">
        <ele>1210.5</ele>
        <time>2020-03-05T05:16:54.376Z</time>
      </trkpt>
      <trkpt lat="42.28655" lon="2.4297">
        <ele>1208.5</ele>
        <time>2020-03-05T05:17:04.016Z</time>
      </trkpt>
      <trkpt lat="42.28653" lon="2.42981">
        <ele>1205.1</ele>
        <time>2020-03-05T05:17:13.745Z</time>
      </trkpt>
      <trkpt lat="42.28643" lon="2.42989">
        <ele>1201.3</ele>
        <time>2020-03-05T05:17:26.670Z</time>
      </trkpt>
      <trkpt lat="42.2864" lon="2.42989">
        <ele>1200.5</ele>
        <time>2020-03-05T05:17:29.448Z</time>
      </trkpt>
      <trkpt lat="42.2863" lon="2.42996">
        <ele>1197</ele>
        <time>2020-03-05T05:17:41.967Z</time>
      </trkpt>
      <trkpt lat="42.28622" lon="2.43012">
        <ele>1193.7</ele>
        <time>2020-03-05T05:17:57.794Z</time>
      </trkpt>
      <trkpt lat="42.28619" lon="2.43025">
        <ele>1190.9</ele>
        <time>2020-03-05T05:18:08.750Z</time>
      </trkpt>
      <trkpt lat="42.28618" lon="2.43037">
        <ele>1187.3</ele>
        <time>2020-03-05T05:18:19.231Z</time>
      </trkpt>
      <trkpt lat="42.28615" lon="2.43055">
        <ele>1184.6</ele>
        <time>2020-03-05T05:18:34.015Z</time>
      </trkpt>
      <trkpt lat="42.28612" lon="2.43069">
        <ele>1180.6</ele>
        <time>2020-03-05T05:18:46.659Z</time>
      </trkpt>
      <trkpt lat="42.28611" lon="2.43086">
        <ele>1177.3</ele>
        <time>2020-03-05T05:19:00.249Z</time>
      </trkpt>
      <trkpt lat="42.28613" lon="2.43097">
        <ele>1174.3</ele>
        <time>2020-03-05T05:19:10.195Z</time>
      </trkpt>
      <trkpt lat="42.28617" lon="2.43117">
        <ele>1171.5</ele>
        <time>2020-03-05T05:19:26.916Z</time>
      </trkpt>
      <trkpt lat="42.2862" lon="2.43135">
        <ele>1168.1</ele>
        <time>2020-03-05T05:19:41.917Z</time>
      </trkpt>
      <trkpt lat="42.28611" lon="2.43183">
        <ele>1166.2</ele>
        <time>2020-03-05T05:20:21.899Z</time>
      </trkpt>
      <trkpt lat="42.28601" lon="2.43218">
        <ele>1163.9</ele>
        <time>2020-03-05T05:20:51.488Z</time>
      </trkpt>
      <trkpt lat="42.28593" lon="2.43241">
        <ele>1162.9</ele>
        <time>2020-03-05T05:21:11.940Z</time>
      </trkpt>
      <trkpt lat="42.28593" lon="2.43258">
        <ele>1162</ele>
        <time>2020-03-05T05:21:25.336Z</time>
      </trkpt>
      <trkpt lat="42.28607" lon="2.43262">
        <ele>1158.6</ele>
        <time>2020-03-05T05:21:40.878Z</time>
      </trkpt>
      <trkpt lat="42.2861" lon="2.43273">
        <ele>1155.8</ele>
        <time>2020-03-05T05:21:50.003Z</time>
      </trkpt>
      <trkpt lat="42.28602" lon="2.4329">
        <ele>1152.3</ele>
        <time>2020-03-05T05:22:06.455Z</time>
      </trkpt>
      <trkpt lat="42.28594" lon="2.43303">
        <ele>1149.4</ele>
        <time>2020-03-05T05:22:20.212Z</time>
      </trkpt>
      <trkpt lat="42.28587" lon="2.43324">
        <ele>1146</ele>
        <time>2020-03-05T05:22:39.634Z</time>
      </trkpt>
      <trkpt lat="42.2858" lon="2.43335">
        <ele>1142.8</ele>
        <time>2020-03-05T05:22:51.231Z</time>
      </trkpt>
      <trkpt lat="42.28574" lon="2.43347">
        <ele>1140.4</ele>
        <time>2020-03-05T05:23:03.324Z</time>
      </trkpt>
      <trkpt lat="42.28572" lon="2.43351">
        <ele>1137.3</ele>
        <time>2020-03-05T05:23:08.057Z</time>
      </trkpt>
      <trkpt lat="42.28571" lon="2.43361">
        <ele>1134.9</ele>
        <time>2020-03-05T05:23:15.973Z</time>
      </trkpt>
      <trkpt lat="42.28569" lon="2.43366">
        <ele>1137</ele>
        <time>2020-03-05T05:23:21.296Z</time>
      </trkpt>
      <trkpt lat="42.28566" lon="2.43371">
        <ele>1134.5</ele>
        <time>2020-03-05T05:23:26.947Z</time>
      </trkpt>
      <trkpt lat="42.28563" lon="2.43375">
        <ele>1133.2</ele>
        <time>2020-03-05T05:23:31.222Z</time>
      </trkpt>
      <trkpt lat="42.28544" lon="2.43396">
        <ele>1132.2</ele>
        <time>2020-03-05T05:23:57.846Z</time>
      </trkpt>
      <trkpt lat="42.28525" lon="2.43418">
        <ele>1130.3</ele>
        <time>2020-03-05T05:24:25.614Z</time>
      </trkpt>
      <trkpt lat="42.28519" lon="2.43425">
        <ele>1129.2</ele>
        <time>2020-03-05T05:24:34.467Z</time>
      </trkpt>
      <trkpt lat="42.28504" lon="2.43443">
        <ele>1128.2</ele>
        <time>2020-03-05T05:24:55.941Z</time>
      </trkpt>
      <trkpt lat="42.28504" lon="2.43445">
        <ele>1126.4</ele>
        <time>2020-03-05T05:24:58.171Z</time>
      </trkpt>
      <trkpt lat="42.28494" lon="2.4347">
        <ele>1123.5</ele>
        <time>2020-03-05T05:25:21.221Z</time>
      </trkpt>
      <trkpt lat="42.28488" lon="2.43493">
        <ele>1123.5</ele>
        <time>2020-03-05T05:25:40.551Z</time>
      </trkpt>
      <trkpt lat="42.2848" lon="2.43531">
        <ele>1124.4</ele>
        <time>2020-03-05T05:26:11.576Z</time>
      </trkpt>
      <trkpt lat="42.28479" lon="2.43539">
        <ele>1122.4</ele>
        <time>2020-03-05T05:26:18.795Z</time>
      </trkpt>
      <trkpt lat="42.28478" lon="2.43542">
        <ele>1124.1</ele>
        <time>2020-03-05T05:26:21.850Z</time>
      </trkpt>
      <trkpt lat="42.28473" lon="2.43574">
        <ele>1126</ele>
        <time>2020-03-05T05:26:48.234Z</time>
      </trkpt>
      <trkpt lat="42.28473" lon="2.43591">
        <ele>1125.3</ele>
        <time>2020-03-05T05:27:01.532Z</time>
      </trkpt>
      <trkpt lat="42.28474" lon="2.43602">
        <ele>1123.9</ele>
        <time>2020-03-05T05:27:10.649Z</time>
      </trkpt>
      <trkpt lat="42.28473" lon="2.43634">
        <ele>1121.5</ele>
        <time>2020-03-05T05:27:36.055Z</time>
      </trkpt>
      <trkpt lat="42.28471" lon="2.43651">
        <ele>1118.3</ele>
        <time>2020-03-05T05:27:50.344Z</time>
      </trkpt>
      <trkpt lat="42.28463" lon="2.4369">
        <ele>1115.3</ele>
        <time>2020-03-05T05:28:23.446Z</time>
      </trkpt>
      <trkpt lat="42.28452" lon="2.43724">
        <ele>1111.5</ele>
        <time>2020-03-05T05:28:53.279Z</time>
      </trkpt>
      <trkpt lat="42.28441" lon="2.43737">
        <ele>1109.6</ele>
        <time>2020-03-05T05:29:08.541Z</time>
      </trkpt>
      <trkpt lat="42.28439" lon="2.4374">
        <ele>1109.5</ele>
        <time>2020-03-05T05:29:12.256Z</time>
      </trkpt>
      <trkpt lat="42.2842" lon="2.43771">
        <ele>1109.5</ele>
        <time>2020-03-05T05:29:44.381Z</time>
      </trkpt>
      <trkpt lat="42.28418" lon="2.43772">
        <ele>1109.5</ele>
        <time>2020-03-05T05:29:46.001Z</time>
      </trkpt>
      <trkpt lat="42.28404" lon="2.43809">
        <ele>1109.6</ele>
        <time>2020-03-05T05:30:19.506Z</time>
      </trkpt>
      <trkpt lat="42.28398" lon="2.43844">
        <ele>1109.1</ele>
        <time>2020-03-05T05:30:48.398Z</time>
      </trkpt>
      <trkpt lat="42.28391" lon="2.43852">
        <ele>1110</ele>
        <time>2020-03-05T05:30:58.596Z</time>
      </trkpt>
      <trkpt lat="42.28372" lon="2.43877">
        <ele>1111.6</ele>
        <time>2020-03-05T05:31:27.122Z</time>
      </trkpt>
      <trkpt lat="42.28364" lon="2.4392">
        <ele>1113.4</ele>
        <time>2020-03-05T05:32:02.994Z</time>
      </trkpt>
      <trkpt lat="42.28356" lon="2.43951">
        <ele>1114.8</ele>
        <time>2020-03-05T05:32:28.763Z</time>
      </trkpt>
      <trkpt lat="42.2836" lon="2.43954">
        <ele>1119.2</ele>
        <time>2020-03-05T05:32:34.828Z</time>
      </trkpt>
      <trkpt lat="42.28361" lon="2.43944">
        <ele>1118.5</ele>
        <time>2020-03-05T05:32:42.947Z</time>
      </trkpt>
      <trkpt lat="42.28362" lon="2.43934">
        <ele>1117.9</ele>
        <time>2020-03-05T05:32:51.384Z</time>
      </trkpt>
      <trkpt lat="42.28362" lon="2.4393">
        <ele>1117.7</ele>
        <time>2020-03-05T05:32:54.696Z</time>
      </trkpt>
      <trkpt lat="42.28352" lon="2.43944">
        <ele>1127.7</ele>
        <time>2020-03-05T05:33:12.868Z</time>
      </trkpt>
      <trkpt lat="42.28348" lon="2.43952">
        <ele>1128</ele>
        <time>2020-03-05T05:33:20.672Z</time>
      </trkpt>
      <trkpt lat="42.28343" lon="2.43962">
        <ele>1127.3</ele>
        <time>2020-03-05T05:33:30.397Z</time>
      </trkpt>
      <trkpt lat="42.2834" lon="2.43969">
        <ele>1127</ele>
        <time>2020-03-05T05:33:36.907Z</time>
      </trkpt>
      <trkpt lat="42.28338" lon="2.43973">
        <ele>1126.8</ele>
        <time>2020-03-05T05:33:41.221Z</time>
      </trkpt>
      <trkpt lat="42.28336" lon="2.43978">
        <ele>1126.6</ele>
        <time>2020-03-05T05:33:45.293Z</time>
      </trkpt>
      <trkpt lat="42.28336" lon="2.43981">
        <ele>1126.4</ele>
        <time>2020-03-05T05:33:47.621Z</time>
      </trkpt>
      <trkpt lat="42.28334" lon="2.43987">
        <ele>1126.5</ele>
        <time>2020-03-05T05:33:53.333Z</time>
      </trkpt>
      <trkpt lat="42.28332" lon="2.4399">
        <ele>1126.8</ele>
        <time>2020-03-05T05:33:56.445Z</time>
      </trkpt>
      <trkpt lat="42.28331" lon="2.43994">
        <ele>1126.3</ele>
        <time>2020-03-05T05:33:59.856Z</time>
      </trkpt>
      <trkpt lat="42.28331" lon="2.43998">
        <ele>1126.1</ele>
        <time>2020-03-05T05:34:02.510Z</time>
      </trkpt>
      <trkpt lat="42.2833" lon="2.44007">
        <ele>1125.4</ele>
        <time>2020-03-05T05:34:09.859Z</time>
      </trkpt>
      <trkpt lat="42.28328" lon="2.44016">
        <ele>1125.2</ele>
        <time>2020-03-05T05:34:17.482Z</time>
      </trkpt>
      <trkpt lat="42.28325" lon="2.44025">
        <ele>1125.3</ele>
        <time>2020-03-05T05:34:25.355Z</time>
      </trkpt>
      <trkpt lat="42.28322" lon="2.44034">
        <ele>1125.2</ele>
        <time>2020-03-05T05:34:33.258Z</time>
      </trkpt>
      <trkpt lat="42.2832" lon="2.4404">
        <ele>1124.9</ele>
        <time>2020-03-05T05:34:39.059Z</time>
      </trkpt>
      <trkpt lat="42.28319" lon="2.44045">
        <ele>1124.6</ele>
        <time>2020-03-05T05:34:42.846Z</time>
      </trkpt>
      <trkpt lat="42.28318" lon="2.4405">
        <ele>1124.6</ele>
        <time>2020-03-05T05:34:46.948Z</time>
      </trkpt>
      <trkpt lat="42.28315" lon="2.44055">
        <ele>1124.4</ele>
        <time>2020-03-05T05:34:51.786Z</time>
      </trkpt>
      <trkpt lat="42.28311" lon="2.44065">
        <ele>1124.2</ele>
        <time>2020-03-05T05:35:01.702Z</time>
      </trkpt>
      <trkpt lat="42.28308" lon="2.44074">
        <ele>1124.1</ele>
        <time>2020-03-05T05:35:09.604Z</time>
      </trkpt>
      <trkpt lat="42.28307" lon="2.44078">
        <ele>1123.9</ele>
        <time>2020-03-05T05:35:12.831Z</time>
      </trkpt>
      <trkpt lat="42.28307" lon="2.44081">
        <ele>1124</ele>
        <time>2020-03-05T05:35:15.155Z</time>
      </trkpt>
      <trkpt lat="42.28306" lon="2.44086">
        <ele>1123.7</ele>
        <time>2020-03-05T05:35:19.305Z</time>
      </trkpt>
      <trkpt lat="42.28305" lon="2.44095">
        <ele>1122.5</ele>
        <time>2020-03-05T05:35:26.545Z</time>
      </trkpt>
      <trkpt lat="42.28303" lon="2.44096">
        <ele>1120.2</ele>
        <time>2020-03-05T05:35:30.351Z</time>
      </trkpt>
      <trkpt lat="42.283" lon="2.44097">
        <ele>1118.9</ele>
        <time>2020-03-05T05:35:33.442Z</time>
      </trkpt>
      <trkpt lat="42.28298" lon="2.44094">
        <ele>1119.3</ele>
        <time>2020-03-05T05:35:36.830Z</time>
      </trkpt>
      <trkpt lat="42.28297" lon="2.44091">
        <ele>1119.5</ele>
        <time>2020-03-05T05:35:39.684Z</time>
      </trkpt>
      <trkpt lat="42.28296" lon="2.44082">
        <ele>1120.3</ele>
        <time>2020-03-05T05:35:46.930Z</time>
      </trkpt>
      <trkpt lat="42.28296" lon="2.44078">
        <ele>1120.6</ele>
        <time>2020-03-05T05:35:50.388Z</time>
      </trkpt>
      <trkpt lat="42.28295" lon="2.44073">
        <ele>1120.9</ele>
        <time>2020-03-05T05:35:54.101Z</time>
      </trkpt>
      <trkpt lat="42.28293" lon="2.44068">
        <ele>1121.2</ele>
        <time>2020-03-05T05:35:58.422Z</time>
      </trkpt>
      <trkpt lat="42.28291" lon="2.44063">
        <ele>1121.6</ele>
        <time>2020-03-05T05:36:03.387Z</time>
      </trkpt>
      <trkpt lat="42.28286" lon="2.44056">
        <ele>1122.3</ele>
        <time>2020-03-05T05:36:11.469Z</time>
      </trkpt>
      <trkpt lat="42.28283" lon="2.44048">
        <ele>1122.8</ele>
        <time>2020-03-05T05:36:18.053Z</time>
      </trkpt>
      <trkpt lat="42.28282" lon="2.44044">
        <ele>1122.8</ele>
        <time>2020-03-05T05:36:21.768Z</time>
      </trkpt>
      <trkpt lat="42.2828" lon="2.44036">
        <ele>1122.7</ele>
        <time>2020-03-05T05:36:28.715Z</time>
      </trkpt>
      <trkpt lat="42.2828" lon="2.44031">
        <ele>1122.6</ele>
        <time>2020-03-05T05:36:32.084Z</time>
      </trkpt>
      <trkpt lat="42.28279" lon="2.44023">
        <ele>1122.6</ele>
        <time>2020-03-05T05:36:39.159Z</time>
      </trkpt>
      <trkpt lat="42.2828" lon="2.44017">
        <ele>1122.5</ele>
        <time>2020-03-05T05:36:43.546Z</time>
      </trkpt>
      <trkpt lat="42.28279" lon="2.44015">
        <ele>1122.4</ele>
        <time>2020-03-05T05:36:45.439Z</time>
      </trkpt>
      <trkpt lat="42.28278" lon="2.44008">
        <ele>1121.9</ele>
        <time>2020-03-05T05:36:51.329Z</time>
      </trkpt>
      <trkpt lat="42.28277" lon="2.44005">
        <ele>1121.6</ele>
        <time>2020-03-05T05:36:53.577Z</time>
      </trkpt>
      <trkpt lat="42.28276" lon="2.44001">
        <ele>1121.4</ele>
        <time>2020-03-05T05:36:57.604Z</time>
      </trkpt>
      <trkpt lat="42.28274" lon="2.43993">
        <ele>1121.4</ele>
        <time>2020-03-05T05:37:04.216Z</time>
      </trkpt>
      <trkpt lat="42.28273" lon="2.43989">
        <ele>1121.3</ele>
        <time>2020-03-05T05:37:07.327Z</time>
      </trkpt>
      <trkpt lat="42.28271" lon="2.43985">
        <ele>1121</ele>
        <time>2020-03-05T05:37:11.202Z</time>
      </trkpt>
      <trkpt lat="42.28271" lon="2.43981">
        <ele>1121.1</ele>
        <time>2020-03-05T05:37:14.512Z</time>
      </trkpt>
      <trkpt lat="42.2827" lon="2.43973">
        <ele>1120.1</ele>
        <time>2020-03-05T05:37:21.408Z</time>
      </trkpt>
      <trkpt lat="42.28269" lon="2.43968">
        <ele>1119.5</ele>
        <time>2020-03-05T05:37:24.976Z</time>
      </trkpt>
      <trkpt lat="42.2827" lon="2.43964">
        <ele>1118.7</ele>
        <time>2020-03-05T05:37:28.444Z</time>
      </trkpt>
      <trkpt lat="42.28269" lon="2.43955">
        <ele>1117.8</ele>
        <time>2020-03-05T05:37:35.488Z</time>
      </trkpt>
      <trkpt lat="42.28269" lon="2.43946">
        <ele>1116.9</ele>
        <time>2020-03-05T05:37:42.745Z</time>
      </trkpt>
      <trkpt lat="42.28268" lon="2.43943">
        <ele>1116.7</ele>
        <time>2020-03-05T05:37:45.354Z</time>
      </trkpt>
      <trkpt lat="42.28268" lon="2.43936">
        <ele>1116</ele>
        <time>2020-03-05T05:37:51.009Z</time>
      </trkpt>
      <trkpt lat="42.28265" lon="2.43928">
        <ele>1115.2</ele>
        <time>2020-03-05T05:37:57.927Z</time>
      </trkpt>
      <trkpt lat="42.28263" lon="2.43924">
        <ele>1115</ele>
        <time>2020-03-05T05:38:01.863Z</time>
      </trkpt>
      <trkpt lat="42.2826" lon="2.43897">
        <ele>1113.4</ele>
        <time>2020-03-05T05:38:23.880Z</time>
      </trkpt>
      <trkpt lat="42.28258" lon="2.43888">
        <ele>1112.7</ele>
        <time>2020-03-05T05:38:31.470Z</time>
      </trkpt>
      <trkpt lat="42.28257" lon="2.43884">
        <ele>1112.3</ele>
        <time>2020-03-05T05:38:35.036Z</time>
      </trkpt>
      <trkpt lat="42.28255" lon="2.43873">
        <ele>1111.5</ele>
        <time>2020-03-05T05:38:44.226Z</time>
      </trkpt>
      <trkpt lat="42.28254" lon="2.43869">
        <ele>1111</ele>
        <time>2020-03-05T05:38:47.817Z</time>
      </trkpt>
      <trkpt lat="42.28251" lon="2.43858">
        <ele>1110.2</ele>
        <time>2020-03-05T05:38:56.649Z</time>
      </trkpt>
      <trkpt lat="42.28249" lon="2.43849">
        <ele>1109</ele>
        <time>2020-03-05T05:39:04.675Z</time>
      </trkpt>
      <trkpt lat="42.28249" lon="2.43845">
        <ele>1108.3</ele>
        <time>2020-03-05T05:39:07.792Z</time>
      </trkpt>
      <trkpt lat="42.28248" lon="2.43841">
        <ele>1107.7</ele>
        <time>2020-03-05T05:39:11.543Z</time>
      </trkpt>
      <trkpt lat="42.28246" lon="2.43834">
        <ele>1106.6</ele>
        <time>2020-03-05T05:39:17.728Z</time>
      </trkpt>
      <trkpt lat="42.28245" lon="2.43829">
        <ele>1106</ele>
        <time>2020-03-05T05:39:21.701Z</time>
      </trkpt>
      <trkpt lat="42.28244" lon="2.43821">
        <ele>1105.2</ele>
        <time>2020-03-05T05:39:28.422Z</time>
      </trkpt>
      <trkpt lat="42.28243" lon="2.43817">
        <ele>1104.4</ele>
        <time>2020-03-05T05:39:31.951Z</time>
      </trkpt>
      <trkpt lat="42.28242" lon="2.43808">
        <ele>1102.9</ele>
        <time>2020-03-05T05:39:39.168Z</time>
      </trkpt>
      <trkpt lat="42.28242" lon="2.43799">
        <ele>1100.9</ele>
        <time>2020-03-05T05:39:46.204Z</time>
      </trkpt>
      <trkpt lat="42.28241" lon="2.43795">
        <ele>1100.3</ele>
        <time>2020-03-05T05:39:50.103Z</time>
      </trkpt>
      <trkpt lat="42.28239" lon="2.43785">
        <ele>1099</ele>
        <time>2020-03-05T05:39:58.403Z</time>
      </trkpt>
      <trkpt lat="42.28239" lon="2.43776">
        <ele>1097.7</ele>
        <time>2020-03-05T05:40:05.387Z</time>
      </trkpt>
      <trkpt lat="42.28238" lon="2.43768">
        <ele>1096.9</ele>
        <time>2020-03-05T05:40:12.056Z</time>
      </trkpt>
      <trkpt lat="42.28237" lon="2.43765">
        <ele>1096.1</ele>
        <time>2020-03-05T05:40:14.838Z</time>
      </trkpt>
      <trkpt lat="42.28237" lon="2.4376">
        <ele>1094.8</ele>
        <time>2020-03-05T05:40:18.984Z</time>
      </trkpt>
      <trkpt lat="42.28235" lon="2.43755">
        <ele>1093.3</ele>
        <time>2020-03-05T05:40:24.086Z</time>
      </trkpt>
      <trkpt lat="42.28233" lon="2.43751">
        <ele>1092.1</ele>
        <time>2020-03-05T05:40:28.083Z</time>
      </trkpt>
      <trkpt lat="42.28231" lon="2.43746">
        <ele>1091.2</ele>
        <time>2020-03-05T05:40:32.487Z</time>
      </trkpt>
      <trkpt lat="42.2823" lon="2.43741">
        <ele>1090.6</ele>
        <time>2020-03-05T05:40:36.719Z</time>
      </trkpt>
      <trkpt lat="42.28231" lon="2.43738">
        <ele>1090.4</ele>
        <time>2020-03-05T05:40:39.406Z</time>
      </trkpt>
      <trkpt lat="42.2823" lon="2.43731">
        <ele>1088.8</ele>
        <time>2020-03-05T05:40:45.239Z</time>
      </trkpt>
      <trkpt lat="42.2823" lon="2.43724">
        <ele>1087.4</ele>
        <time>2020-03-05T05:40:50.638Z</time>
      </trkpt>
      <trkpt lat="42.2823" lon="2.4372">
        <ele>1086.6</ele>
        <time>2020-03-05T05:40:53.787Z</time>
      </trkpt>
      <trkpt lat="42.28228" lon="2.43713">
        <ele>1085.1</ele>
        <time>2020-03-05T05:41:00.240Z</time>
      </trkpt>
      <trkpt lat="42.28227" lon="2.43709">
        <ele>1084.4</ele>
        <time>2020-03-05T05:41:03.806Z</time>
      </trkpt>
      <trkpt lat="42.28225" lon="2.43703">
        <ele>1083.1</ele>
        <time>2020-03-05T05:41:09.030Z</time>
      </trkpt>
      <trkpt lat="42.28223" lon="2.43698">
        <ele>1082.2</ele>
        <time>2020-03-05T05:41:13.868Z</time>
      </trkpt>
      <trkpt lat="42.28221" lon="2.43692">
        <ele>1081.1</ele>
        <time>2020-03-05T05:41:19.357Z</time>
      </trkpt>
      <trkpt lat="42.2822" lon="2.43684">
        <ele>1079.8</ele>
        <time>2020-03-05T05:41:26.185Z</time>
      </trkpt>
      <trkpt lat="42.28219" lon="2.43676">
        <ele>1078.4</ele>
        <time>2020-03-05T05:41:32.664Z</time>
      </trkpt>
      <trkpt lat="42.28217" lon="2.4367">
        <ele>1076.9</ele>
        <time>2020-03-05T05:41:37.791Z</time>
      </trkpt>
      <trkpt lat="42.28217" lon="2.43667">
        <ele>1076</ele>
        <time>2020-03-05T05:41:40.630Z</time>
      </trkpt>
      <trkpt lat="42.28215" lon="2.43661">
        <ele>1074.3</ele>
        <time>2020-03-05T05:41:45.981Z</time>
      </trkpt>
      <trkpt lat="42.28215" lon="2.43652">
        <ele>1072.9</ele>
        <time>2020-03-05T05:41:53.187Z</time>
      </trkpt>
      <trkpt lat="42.28214" lon="2.43648">
        <ele>1072.1</ele>
        <time>2020-03-05T05:41:56.597Z</time>
      </trkpt>
      <trkpt lat="42.28213" lon="2.43646">
        <ele>1071.6</ele>
        <time>2020-03-05T05:41:58.802Z</time>
      </trkpt>
      <trkpt lat="42.28211" lon="2.43642">
        <ele>1069.8</ele>
        <time>2020-03-05T05:42:02.505Z</time>
      </trkpt>
      <trkpt lat="42.28189" lon="2.43609">
        <ele>1057.3</ele>
        <time>2020-03-05T05:42:40.423Z</time>
      </trkpt>
      <trkpt lat="42.28184" lon="2.43605">
        <ele>1056.5</ele>
        <time>2020-03-05T05:42:46.255Z</time>
      </trkpt>
      <trkpt lat="42.28182" lon="2.43604">
        <ele>1056.1</ele>
        <time>2020-03-05T05:42:48.874Z</time>
      </trkpt>
      <trkpt lat="42.28179" lon="2.43601">
        <ele>1055.7</ele>
        <time>2020-03-05T05:42:53.018Z</time>
      </trkpt>
      <trkpt lat="42.28175" lon="2.43597">
        <ele>1055</ele>
        <time>2020-03-05T05:42:58.956Z</time>
      </trkpt>
      <trkpt lat="42.28173" lon="2.43594">
        <ele>1054.7</ele>
        <time>2020-03-05T05:43:01.996Z</time>
      </trkpt>
      <trkpt lat="42.28171" lon="2.43589">
        <ele>1053.6</ele>
        <time>2020-03-05T05:43:06.631Z</time>
      </trkpt>
      <trkpt lat="42.28167" lon="2.43585">
        <ele>1052.2</ele>
        <time>2020-03-05T05:43:11.817Z</time>
      </trkpt>
      <trkpt lat="42.28165" lon="2.43579">
        <ele>1050.9</ele>
        <time>2020-03-05T05:43:17.232Z</time>
      </trkpt>
      <trkpt lat="42.28165" lon="2.43576">
        <ele>1050.1</ele>
        <time>2020-03-05T05:43:19.529Z</time>
      </trkpt>
      <trkpt lat="42.28162" lon="2.43569">
        <ele>1048.5</ele>
        <time>2020-03-05T05:43:25.899Z</time>
      </trkpt>
      <trkpt lat="42.28161" lon="2.43567">
        <ele>1048.1</ele>
        <time>2020-03-05T05:43:27.877Z</time>
      </trkpt>
      <trkpt lat="42.28158" lon="2.43561">
        <ele>1047</ele>
        <time>2020-03-05T05:43:33.579Z</time>
      </trkpt>
      <trkpt lat="42.28158" lon="2.43559">
        <ele>1046.4</ele>
        <time>2020-03-05T05:43:35.349Z</time>
      </trkpt>
      <trkpt lat="42.28158" lon="2.43559">
        <ele>1045.8</ele>
        <time>2020-03-05T05:43:36.270Z</time>
      </trkpt>
      <trkpt lat="42.28156" lon="2.43556">
        <ele>1045.3</ele>
        <time>2020-03-05T05:43:39.092Z</time>
      </trkpt>
      <trkpt lat="42.28155" lon="2.43553">
        <ele>1045.4</ele>
        <time>2020-03-05T05:43:41.422Z</time>
      </trkpt>
      <trkpt lat="42.28155" lon="2.43554">
        <ele>1045.1</ele>
        <time>2020-03-05T05:43:41.762Z</time>
      </trkpt>
      <trkpt lat="42.28155" lon="2.43554">
        <ele>1045</ele>
        <time>2020-03-05T05:43:42.501Z</time>
      </trkpt>
      <trkpt lat="42.28148" lon="2.4355">
        <ele>1043.5</ele>
        <time>2020-03-05T05:43:50.999Z</time>
      </trkpt>
      <trkpt lat="42.28146" lon="2.4355">
        <ele>1043.3</ele>
        <time>2020-03-05T05:43:53.205Z</time>
      </trkpt>
      <trkpt lat="42.28143" lon="2.43549">
        <ele>1042.9</ele>
        <time>2020-03-05T05:43:56.255Z</time>
      </trkpt>
      <trkpt lat="42.28141" lon="2.4355">
        <ele>1042.5</ele>
        <time>2020-03-05T05:43:58.388Z</time>
      </trkpt>
      <trkpt lat="42.28138" lon="2.43553">
        <ele>1041.9</ele>
        <time>2020-03-05T05:44:02.301Z</time>
      </trkpt>
      <trkpt lat="42.28133" lon="2.43558">
        <ele>1041.5</ele>
        <time>2020-03-05T05:44:08.725Z</time>
      </trkpt>
      <trkpt lat="42.28131" lon="2.4356">
        <ele>1041.3</ele>
        <time>2020-03-05T05:44:12.057Z</time>
      </trkpt>
      <trkpt lat="42.28126" lon="2.43565">
        <ele>1041</ele>
        <time>2020-03-05T05:44:18.776Z</time>
      </trkpt>
      <trkpt lat="42.28122" lon="2.43568">
        <ele>1040.6</ele>
        <time>2020-03-05T05:44:23.921Z</time>
      </trkpt>
      <trkpt lat="42.28117" lon="2.43569">
        <ele>1039.9</ele>
        <time>2020-03-05T05:44:28.919Z</time>
      </trkpt>
      <trkpt lat="42.28115" lon="2.4357">
        <ele>1039.5</ele>
        <time>2020-03-05T05:44:31.117Z</time>
      </trkpt>
      <trkpt lat="42.28112" lon="2.4357">
        <ele>1039.2</ele>
        <time>2020-03-05T05:44:34.593Z</time>
      </trkpt>
      <trkpt lat="42.28106" lon="2.43572">
        <ele>1038.5</ele>
        <time>2020-03-05T05:44:41.299Z</time>
      </trkpt>
      <trkpt lat="42.281" lon="2.43574">
        <ele>1037.4</ele>
        <time>2020-03-05T05:44:48.341Z</time>
      </trkpt>
      <trkpt lat="42.28094" lon="2.43575">
        <ele>1036.6</ele>
        <time>2020-03-05T05:44:54.608Z</time>
      </trkpt>
      <trkpt lat="42.28091" lon="2.43575">
        <ele>1036.4</ele>
        <time>2020-03-05T05:44:58.195Z</time>
      </trkpt>
      <trkpt lat="42.28088" lon="2.43577">
        <ele>1036</ele>
        <time>2020-03-05T05:45:01.433Z</time>
      </trkpt>
      <trkpt lat="42.28085" lon="2.43578">
        <ele>1035.9</ele>
        <time>2020-03-05T05:45:04.468Z</time>
      </trkpt>
      <trkpt lat="42.2808" lon="2.43579">
        <ele>1035</ele>
        <time>2020-03-05T05:45:09.992Z</time>
      </trkpt>
      <trkpt lat="42.28076" lon="2.43577">
        <ele>1034.2</ele>
        <time>2020-03-05T05:45:15.056Z</time>
      </trkpt>
      <trkpt lat="42.28073" lon="2.43578">
        <ele>1033.8</ele>
        <time>2020-03-05T05:45:18.007Z</time>
      </trkpt>
      <trkpt lat="42.28068" lon="2.43578">
        <ele>1032.5</ele>
        <time>2020-03-05T05:45:23.470Z</time>
      </trkpt>
      <trkpt lat="42.28066" lon="2.43578">
        <ele>1032.1</ele>
        <time>2020-03-05T05:45:26.571Z</time>
      </trkpt>
      <trkpt lat="42.28061" lon="2.43581">
        <ele>1031.4</ele>
        <time>2020-03-05T05:45:32.497Z</time>
      </trkpt>
      <trkpt lat="42.28058" lon="2.43582">
        <ele>1031</ele>
        <time>2020-03-05T05:45:35.262Z</time>
      </trkpt>
      <trkpt lat="42.28056" lon="2.43583">
        <ele>1030.6</ele>
        <time>2020-03-05T05:45:38.137Z</time>
      </trkpt>
      <trkpt lat="42.28053" lon="2.43583">
        <ele>1030.2</ele>
        <time>2020-03-05T05:45:41.092Z</time>
      </trkpt>
      <trkpt lat="42.2805" lon="2.43584">
        <ele>1030</ele>
        <time>2020-03-05T05:45:44.151Z</time>
      </trkpt>
      <trkpt lat="42.28049" lon="2.43587">
        <ele>1029.8</ele>
        <time>2020-03-05T05:45:46.943Z</time>
      </trkpt>
      <trkpt lat="42.28044" lon="2.43595">
        <ele>1029.1</ele>
        <time>2020-03-05T05:45:54.941Z</time>
      </trkpt>
      <trkpt lat="42.28042" lon="2.43598">
        <ele>1028.7</ele>
        <time>2020-03-05T05:45:58.483Z</time>
      </trkpt>
      <trkpt lat="42.28038" lon="2.436">
        <ele>1028</ele>
        <time>2020-03-05T05:46:03.191Z</time>
      </trkpt>
      <trkpt lat="42.28033" lon="2.43606">
        <ele>1027.3</ele>
        <time>2020-03-05T05:46:10.074Z</time>
      </trkpt>
      <trkpt lat="42.28032" lon="2.43613">
        <ele>1026.8</ele>
        <time>2020-03-05T05:46:15.434Z</time>
      </trkpt>
      <trkpt lat="42.28029" lon="2.43616">
        <ele>1026.4</ele>
        <time>2020-03-05T05:46:19.843Z</time>
      </trkpt>
      <trkpt lat="42.28027" lon="2.4362">
        <ele>1026.3</ele>
        <time>2020-03-05T05:46:24.038Z</time>
      </trkpt>
      <trkpt lat="42.28025" lon="2.43622">
        <ele>1026.2</ele>
        <time>2020-03-05T05:46:27.008Z</time>
      </trkpt>
      <trkpt lat="42.28021" lon="2.43628">
        <ele>1025.9</ele>
        <time>2020-03-05T05:46:33.180Z</time>
      </trkpt>
      <trkpt lat="42.28019" lon="2.43632">
        <ele>1025.5</ele>
        <time>2020-03-05T05:46:36.939Z</time>
      </trkpt>
      <trkpt lat="42.28018" lon="2.43636">
        <ele>1024.9</ele>
        <time>2020-03-05T05:46:40.348Z</time>
      </trkpt>
      <trkpt lat="42.28016" lon="2.43636">
        <ele>1024.4</ele>
        <time>2020-03-05T05:46:42.544Z</time>
      </trkpt>
      <trkpt lat="42.28015" lon="2.43636">
        <ele>1023.8</ele>
        <time>2020-03-05T05:46:43.739Z</time>
      </trkpt>
      <trkpt lat="42.27998" lon="2.43646">
        <ele>1021.3</ele>
        <time>2020-03-05T05:47:04.100Z</time>
      </trkpt>
      <trkpt lat="42.27996" lon="2.43645">
        <ele>1021.1</ele>
        <time>2020-03-05T05:47:06.234Z</time>
      </trkpt>
      <trkpt lat="42.27994" lon="2.43647">
        <ele>1020.9</ele>
        <time>2020-03-05T05:47:08.927Z</time>
      </trkpt>
      <trkpt lat="42.27994" lon="2.43649">
        <ele>1020.9</ele>
        <time>2020-03-05T05:47:10.844Z</time>
      </trkpt>
      <trkpt lat="42.27991" lon="2.43653">
        <ele>1020.7</ele>
        <time>2020-03-05T05:47:15.347Z</time>
      </trkpt>
      <trkpt lat="42.27988" lon="2.43659">
        <ele>1020.1</ele>
        <time>2020-03-05T05:47:21.422Z</time>
      </trkpt>
      <trkpt lat="42.27986" lon="2.43662">
        <ele>1019.9</ele>
        <time>2020-03-05T05:47:24.461Z</time>
      </trkpt>
      <trkpt lat="42.2798" lon="2.43665">
        <ele>1019.3</ele>
        <time>2020-03-05T05:47:31.256Z</time>
      </trkpt>
      <trkpt lat="42.27977" lon="2.43668">
        <ele>1019.1</ele>
        <time>2020-03-05T05:47:35.159Z</time>
      </trkpt>
      <trkpt lat="42.27973" lon="2.43674">
        <ele>1018.8</ele>
        <time>2020-03-05T05:47:41.861Z</time>
      </trkpt>
      <trkpt lat="42.27965" lon="2.43686">
        <ele>1017.4</ele>
        <time>2020-03-05T05:47:54.761Z</time>
      </trkpt>
      <trkpt lat="42.27966" lon="2.43689">
        <ele>1017.6</ele>
        <time>2020-03-05T05:47:57.362Z</time>
      </trkpt>
      <trkpt lat="42.27965" lon="2.43697">
        <ele>1017.5</ele>
        <time>2020-03-05T05:48:03.536Z</time>
      </trkpt>
      <trkpt lat="42.27966" lon="2.43702">
        <ele>1017.8</ele>
        <time>2020-03-05T05:48:07.519Z</time>
      </trkpt>
      <trkpt lat="42.27964" lon="2.43707">
        <ele>1018.2</ele>
        <time>2020-03-05T05:48:12.325Z</time>
      </trkpt>
      <trkpt lat="42.27963" lon="2.43711">
        <ele>1018.2</ele>
        <time>2020-03-05T05:48:15.620Z</time>
      </trkpt>
      <trkpt lat="42.27961" lon="2.43717">
        <ele>1017.4</ele>
        <time>2020-03-05T05:48:21.073Z</time>
      </trkpt>
      <trkpt lat="42.27959" lon="2.4372">
        <ele>1017</ele>
        <time>2020-03-05T05:48:24.140Z</time>
      </trkpt>
      <trkpt lat="42.27957" lon="2.43724">
        <ele>1016.7</ele>
        <time>2020-03-05T05:48:27.697Z</time>
      </trkpt>
      <trkpt lat="42.27955" lon="2.43728">
        <ele>1016.4</ele>
        <time>2020-03-05T05:48:32.142Z</time>
      </trkpt>
      <trkpt lat="42.27954" lon="2.43732">
        <ele>1016.1</ele>
        <time>2020-03-05T05:48:35.321Z</time>
      </trkpt>
      <trkpt lat="42.27949" lon="2.4374">
        <ele>1015.2</ele>
        <time>2020-03-05T05:48:44.219Z</time>
      </trkpt>
      <trkpt lat="42.27945" lon="2.43747">
        <ele>1014.4</ele>
        <time>2020-03-05T05:48:50.769Z</time>
      </trkpt>
      <trkpt lat="42.27941" lon="2.43753">
        <ele>1013</ele>
        <time>2020-03-05T05:48:57.177Z</time>
      </trkpt>
      <trkpt lat="42.27941" lon="2.43755">
        <ele>1012.4</ele>
        <time>2020-03-05T05:48:58.879Z</time>
      </trkpt>
      <trkpt lat="42.27938" lon="2.43757">
        <ele>1011.8</ele>
        <time>2020-03-05T05:49:02.638Z</time>
      </trkpt>
      <trkpt lat="42.27935" lon="2.43762">
        <ele>1010.9</ele>
        <time>2020-03-05T05:49:07.892Z</time>
      </trkpt>
      <trkpt lat="42.27929" lon="2.43767">
        <ele>1010.4</ele>
        <time>2020-03-05T05:49:14.951Z</time>
      </trkpt>
      <trkpt lat="42.27924" lon="2.43771">
        <ele>1009.3</ele>
        <time>2020-03-05T05:49:21.849Z</time>
      </trkpt>
      <trkpt lat="42.27921" lon="2.43772">
        <ele>1008.6</ele>
        <time>2020-03-05T05:49:24.878Z</time>
      </trkpt>
      <trkpt lat="42.27916" lon="2.43775">
        <ele>1007.2</ele>
        <time>2020-03-05T05:49:30.757Z</time>
      </trkpt>
      <trkpt lat="42.27914" lon="2.43776">
        <ele>1006.8</ele>
        <time>2020-03-05T05:49:33.816Z</time>
      </trkpt>
      <trkpt lat="42.27911" lon="2.43776">
        <ele>1006.1</ele>
        <time>2020-03-05T05:49:36.395Z</time>
      </trkpt>
      <trkpt lat="42.27906" lon="2.43778">
        <ele>1005.1</ele>
        <time>2020-03-05T05:49:42.757Z</time>
      </trkpt>
      <trkpt lat="42.27903" lon="2.43778">
        <ele>1004.8</ele>
        <time>2020-03-05T05:49:45.803Z</time>
      </trkpt>
      <trkpt lat="42.27899" lon="2.43779">
        <ele>1004.4</ele>
        <time>2020-03-05T05:49:49.609Z</time>
      </trkpt>
      <trkpt lat="42.27897" lon="2.43781">
        <ele>1003.8</ele>
        <time>2020-03-05T05:49:53.084Z</time>
      </trkpt>
      <trkpt lat="42.27891" lon="2.43783">
        <ele>1002.3</ele>
        <time>2020-03-05T05:49:59.959Z</time>
      </trkpt>
      <trkpt lat="42.27887" lon="2.43784">
        <ele>1001.9</ele>
        <time>2020-03-05T05:50:04.115Z</time>
      </trkpt>
      <trkpt lat="42.27884" lon="2.43785">
        <ele>1001.6</ele>
        <time>2020-03-05T05:50:07.476Z</time>
      </trkpt>
      <trkpt lat="42.27878" lon="2.43789">
        <ele>1000.7</ele>
        <time>2020-03-05T05:50:14.927Z</time>
      </trkpt>
      <trkpt lat="42.27873" lon="2.43792">
        <ele>1000.1</ele>
        <time>2020-03-05T05:50:20.415Z</time>
      </trkpt>
      <trkpt lat="42.27869" lon="2.43793">
        <ele>999.3</ele>
        <time>2020-03-05T05:50:25.587Z</time>
      </trkpt>
      <trkpt lat="42.27865" lon="2.43793">
        <ele>998.5</ele>
        <time>2020-03-05T05:50:29.243Z</time>
      </trkpt>
      <trkpt lat="42.27863" lon="2.43796">
        <ele>998.5</ele>
        <time>2020-03-05T05:50:32.724Z</time>
      </trkpt>
      <trkpt lat="42.27863" lon="2.43801">
        <ele>998.5</ele>
        <time>2020-03-05T05:50:37.228Z</time>
      </trkpt>
      <trkpt lat="42.27864" lon="2.43806">
        <ele>998.7</ele>
        <time>2020-03-05T05:50:40.925Z</time>
      </trkpt>
      <trkpt lat="42.27867" lon="2.43811">
        <ele>999.7</ele>
        <time>2020-03-05T05:50:45.790Z</time>
      </trkpt>
      <trkpt lat="42.27867" lon="2.43812">
        <ele>999.7</ele>
        <time>2020-03-05T05:50:47.369Z</time>
      </trkpt>
      <trkpt lat="42.27867" lon="2.43815">
        <ele>999.4</ele>
        <time>2020-03-05T05:50:49.311Z</time>
      </trkpt>
      <trkpt lat="42.27868" lon="2.43815">
        <ele>999</ele>
        <time>2020-03-05T05:50:49.790Z</time>
      </trkpt>
      <trkpt lat="42.27867" lon="2.43815">
        <ele>999</ele>
        <time>2020-03-05T05:50:50.951Z</time>
      </trkpt>
      <trkpt lat="42.27865" lon="2.43815">
        <ele>999.1</ele>
        <time>2020-03-05T05:50:53.110Z</time>
      </trkpt>
      <trkpt lat="42.27862" lon="2.43817">
        <ele>999.4</ele>
        <time>2020-03-05T05:50:56.133Z</time>
      </trkpt>
      <trkpt lat="42.27862" lon="2.43819">
        <ele>999.6</ele>
        <time>2020-03-05T05:50:57.393Z</time>
      </trkpt>
      <trkpt lat="42.27861" lon="2.43819">
        <ele>999.5</ele>
        <time>2020-03-05T05:50:58.829Z</time>
      </trkpt>
      <trkpt lat="42.2786" lon="2.43818">
        <ele>999.6</ele>
        <time>2020-03-05T05:50:59.901Z</time>
      </trkpt>
      <trkpt lat="42.2786" lon="2.43819">
        <ele>999.6</ele>
        <time>2020-03-05T05:51:00.484Z</time>
      </trkpt>
      <trkpt lat="42.2786" lon="2.43819">
        <ele>999.5</ele>
        <time>2020-03-05T05:51:00.891Z</time>
      </trkpt>
      <trkpt lat="42.27858" lon="2.43819">
        <ele>999.6</ele>
        <time>2020-03-05T05:51:03.973Z</time>
      </trkpt>
      <trkpt lat="42.27854" lon="2.43818">
        <ele>999.3</ele>
        <time>2020-03-05T05:51:08.463Z</time>
      </trkpt>
      <trkpt lat="42.27851" lon="2.43816">
        <ele>999.1</ele>
        <time>2020-03-05T05:51:12.015Z</time>
      </trkpt>
      <trkpt lat="42.27845" lon="2.43815">
        <ele>998.7</ele>
        <time>2020-03-05T05:51:17.816Z</time>
      </trkpt>
      <trkpt lat="42.27843" lon="2.43815">
        <ele>998.8</ele>
        <time>2020-03-05T05:51:20.520Z</time>
      </trkpt>
      <trkpt lat="42.27837" lon="2.43813">
        <ele>998.5</ele>
        <time>2020-03-05T05:51:26.580Z</time>
      </trkpt>
      <trkpt lat="42.27835" lon="2.43814">
        <ele>998.6</ele>
        <time>2020-03-05T05:51:29.635Z</time>
      </trkpt>
      <trkpt lat="42.27831" lon="2.43812">
        <ele>998.2</ele>
        <time>2020-03-05T05:51:33.943Z</time>
      </trkpt>
      <trkpt lat="42.27827" lon="2.43812">
        <ele>998</ele>
        <time>2020-03-05T05:51:37.743Z</time>
      </trkpt>
      <trkpt lat="42.27824" lon="2.43811">
        <ele>997.6</ele>
        <time>2020-03-05T05:51:41.511Z</time>
      </trkpt>
      <trkpt lat="42.27821" lon="2.43811">
        <ele>997.2</ele>
        <time>2020-03-05T05:51:44.341Z</time>
      </trkpt>
      <trkpt lat="42.27815" lon="2.43814">
        <ele>997</ele>
        <time>2020-03-05T05:51:51.189Z</time>
      </trkpt>
      <trkpt lat="42.27814" lon="2.43815">
        <ele>996.9</ele>
        <time>2020-03-05T05:51:52.821Z</time>
      </trkpt>
      <trkpt lat="42.27812" lon="2.43817">
        <ele>996.5</ele>
        <time>2020-03-05T05:51:55.770Z</time>
      </trkpt>
      <trkpt lat="42.27809" lon="2.43817">
        <ele>996</ele>
        <time>2020-03-05T05:51:58.203Z</time>
      </trkpt>
      <trkpt lat="42.27808" lon="2.43817">
        <ele>995.8</ele>
        <time>2020-03-05T05:51:59.320Z</time>
      </trkpt>
      <trkpt lat="42.27809" lon="2.43814">
        <ele>995.8</ele>
        <time>2020-03-05T05:52:01.492Z</time>
      </trkpt>
      <trkpt lat="42.27813" lon="2.43811">
        <ele>995.4</ele>
        <time>2020-03-05T05:52:06.923Z</time>
      </trkpt>
      <trkpt lat="42.27814" lon="2.43808">
        <ele>995.2</ele>
        <time>2020-03-05T05:52:09.009Z</time>
      </trkpt>
      <trkpt lat="42.27815" lon="2.43801">
        <ele>994.8</ele>
        <time>2020-03-05T05:52:15.405Z</time>
      </trkpt>
      <trkpt lat="42.27812" lon="2.43798">
        <ele>994.3</ele>
        <time>2020-03-05T05:52:18.611Z</time>
      </trkpt>
      <trkpt lat="42.27808" lon="2.43795">
        <ele>993.6</ele>
        <time>2020-03-05T05:52:24.511Z</time>
      </trkpt>
      <trkpt lat="42.27806" lon="2.43794">
        <ele>993.3</ele>
        <time>2020-03-05T05:52:26.827Z</time>
      </trkpt>
      <trkpt lat="42.27805" lon="2.43793">
        <ele>992.5</ele>
        <time>2020-03-05T05:52:28.275Z</time>
      </trkpt>
      <trkpt lat="42.27803" lon="2.4379">
        <ele>991.7</ele>
        <time>2020-03-05T05:52:31.625Z</time>
      </trkpt>
      <trkpt lat="42.27799" lon="2.43788">
        <ele>990.9</ele>
        <time>2020-03-05T05:52:35.593Z</time>
      </trkpt>
      <trkpt lat="42.27795" lon="2.43787">
        <ele>990.3</ele>
        <time>2020-03-05T05:52:40.174Z</time>
      </trkpt>
      <trkpt lat="42.27791" lon="2.43788">
        <ele>989.3</ele>
        <time>2020-03-05T05:52:45.092Z</time>
      </trkpt>
      <trkpt lat="42.27789" lon="2.43785">
        <ele>989.3</ele>
        <time>2020-03-05T05:52:48.292Z</time>
      </trkpt>
      <trkpt lat="42.27788" lon="2.43782">
        <ele>988.9</ele>
        <time>2020-03-05T05:52:50.684Z</time>
      </trkpt>
      <trkpt lat="42.27786" lon="2.43778">
        <ele>987.8</ele>
        <time>2020-03-05T05:52:54.921Z</time>
      </trkpt>
      <trkpt lat="42.27787" lon="2.43773">
        <ele>986.4</ele>
        <time>2020-03-05T05:52:59.337Z</time>
      </trkpt>
      <trkpt lat="42.27784" lon="2.4377">
        <ele>984.5</ele>
        <time>2020-03-05T05:53:03.430Z</time>
      </trkpt>
      <trkpt lat="42.27781" lon="2.43768">
        <ele>983.7</ele>
        <time>2020-03-05T05:53:07.402Z</time>
      </trkpt>
      <trkpt lat="42.2778" lon="2.43767">
        <ele>982</ele>
        <time>2020-03-05T05:53:09.600Z</time>
      </trkpt>
      <trkpt lat="42.27777" lon="2.43764">
        <ele>981.3</ele>
        <time>2020-03-05T05:53:13.036Z</time>
      </trkpt>
      <trkpt lat="42.27776" lon="2.43764">
        <ele>980.8</ele>
        <time>2020-03-05T05:53:14.609Z</time>
      </trkpt>
      <trkpt lat="42.27772" lon="2.43762">
        <ele>980.2</ele>
        <time>2020-03-05T05:53:18.678Z</time>
      </trkpt>
      <trkpt lat="42.2777" lon="2.43762">
        <ele>979.7</ele>
        <time>2020-03-05T05:53:20.918Z</time>
      </trkpt>
      <trkpt lat="42.27768" lon="2.43758">
        <ele>978.8</ele>
        <time>2020-03-05T05:53:24.378Z</time>
      </trkpt>
      <trkpt lat="42.27765" lon="2.43757">
        <ele>977.4</ele>
        <time>2020-03-05T05:53:28.813Z</time>
      </trkpt>
      <trkpt lat="42.27763" lon="2.43756">
        <ele>977</ele>
        <time>2020-03-05T05:53:31.244Z</time>
      </trkpt>
      <trkpt lat="42.27759" lon="2.43754">
        <ele>975.7</ele>
        <time>2020-03-05T05:53:35.582Z</time>
      </trkpt>
      <trkpt lat="42.27755" lon="2.43752">
        <ele>974.3</ele>
        <time>2020-03-05T05:53:40.032Z</time>
      </trkpt>
      <trkpt lat="42.27752" lon="2.43753">
        <ele>972.9</ele>
        <time>2020-03-05T05:53:44.108Z</time>
      </trkpt>
      <trkpt lat="42.27748" lon="2.43757">
        <ele>971.4</ele>
        <time>2020-03-05T05:53:49.577Z</time>
      </trkpt>
      <trkpt lat="42.27744" lon="2.43757">
        <ele>970.8</ele>
        <time>2020-03-05T05:53:53.322Z</time>
      </trkpt>
      <trkpt lat="42.27741" lon="2.43756">
        <ele>970.3</ele>
        <time>2020-03-05T05:53:56.721Z</time>
      </trkpt>
      <trkpt lat="42.27739" lon="2.43754">
        <ele>970</ele>
        <time>2020-03-05T05:54:00.271Z</time>
      </trkpt>
      <trkpt lat="42.27737" lon="2.43752">
        <ele>969.7</ele>
        <time>2020-03-05T05:54:02.804Z</time>
      </trkpt>
      <trkpt lat="42.27734" lon="2.43749">
        <ele>968.9</ele>
        <time>2020-03-05T05:54:07.009Z</time>
      </trkpt>
      <trkpt lat="42.2773" lon="2.43747">
        <ele>968.1</ele>
        <time>2020-03-05T05:54:11.554Z</time>
      </trkpt>
      <trkpt lat="42.27727" lon="2.43745">
        <ele>967.5</ele>
        <time>2020-03-05T05:54:15.450Z</time>
      </trkpt>
      <trkpt lat="42.27724" lon="2.43744">
        <ele>966.5</ele>
        <time>2020-03-05T05:54:18.887Z</time>
      </trkpt>
      <trkpt lat="42.27722" lon="2.43743">
        <ele>966</ele>
        <time>2020-03-05T05:54:21.105Z</time>
      </trkpt>
      <trkpt lat="42.27718" lon="2.4374">
        <ele>965.1</ele>
        <time>2020-03-05T05:54:25.907Z</time>
      </trkpt>
      <trkpt lat="42.27714" lon="2.43738">
        <ele>964.6</ele>
        <time>2020-03-05T05:54:30.815Z</time>
      </trkpt>
      <trkpt lat="42.27709" lon="2.43734">
        <ele>964.3</ele>
        <time>2020-03-05T05:54:36.489Z</time>
      </trkpt>
      <trkpt lat="42.27709" lon="2.43732">
        <ele>963.4</ele>
        <time>2020-03-05T05:54:38.805Z</time>
      </trkpt>
      <trkpt lat="42.27705" lon="2.43731">
        <ele>962.8</ele>
        <time>2020-03-05T05:54:43.212Z</time>
      </trkpt>
      <trkpt lat="42.27701" lon="2.43729">
        <ele>962</ele>
        <time>2020-03-05T05:54:47.968Z</time>
      </trkpt>
      <trkpt lat="42.27697" lon="2.43727">
        <ele>961.1</ele>
        <time>2020-03-05T05:54:52.908Z</time>
      </trkpt>
      <trkpt lat="42.27695" lon="2.43725">
        <ele>960.5</ele>
        <time>2020-03-05T05:54:55.740Z</time>
      </trkpt>
      <trkpt lat="42.27691" lon="2.43724">
        <ele>959.2</ele>
        <time>2020-03-05T05:55:00.513Z</time>
      </trkpt>
      <trkpt lat="42.27688" lon="2.43723">
        <ele>958.3</ele>
        <time>2020-03-05T05:55:03.975Z</time>
      </trkpt>
      <trkpt lat="42.27685" lon="2.43722">
        <ele>957.9</ele>
        <time>2020-03-05T05:55:07.325Z</time>
      </trkpt>
      <trkpt lat="42.27682" lon="2.4372">
        <ele>957.1</ele>
        <time>2020-03-05T05:55:10.515Z</time>
      </trkpt>
      <trkpt lat="42.2768" lon="2.4372">
        <ele>956.5</ele>
        <time>2020-03-05T05:55:13.193Z</time>
      </trkpt>
      <trkpt lat="42.27675" lon="2.4372">
        <ele>955.5</ele>
        <time>2020-03-05T05:55:18.257Z</time>
      </trkpt>
      <trkpt lat="42.27672" lon="2.43721">
        <ele>954.7</ele>
        <time>2020-03-05T05:55:21.633Z</time>
      </trkpt>
      <trkpt lat="42.2767" lon="2.4372">
        <ele>954.4</ele>
        <time>2020-03-05T05:55:24.032Z</time>
      </trkpt>
      <trkpt lat="42.27667" lon="2.4372">
        <ele>954.3</ele>
        <time>2020-03-05T05:55:27.606Z</time>
      </trkpt>
      <trkpt lat="42.27665" lon="2.43721">
        <ele>954.1</ele>
        <time>2020-03-05T05:55:29.888Z</time>
      </trkpt>
      <trkpt lat="42.27658" lon="2.43721">
        <ele>953.5</ele>
        <time>2020-03-05T05:55:36.966Z</time>
      </trkpt>
      <trkpt lat="42.27653" lon="2.4372">
        <ele>952.6</ele>
        <time>2020-03-05T05:55:42.448Z</time>
      </trkpt>
      <trkpt lat="42.2765" lon="2.43719">
        <ele>951.7</ele>
        <time>2020-03-05T05:55:46.403Z</time>
      </trkpt>
      <trkpt lat="42.27648" lon="2.4372">
        <ele>951.2</ele>
        <time>2020-03-05T05:55:48.358Z</time>
      </trkpt>
      <trkpt lat="42.27647" lon="2.4372">
        <ele>950.3</ele>
        <time>2020-03-05T05:55:50.017Z</time>
      </trkpt>
      <trkpt lat="42.27645" lon="2.43719">
        <ele>949.9</ele>
        <time>2020-03-05T05:55:51.871Z</time>
      </trkpt>
      <trkpt lat="42.27644" lon="2.43718">
        <ele>949.4</ele>
        <time>2020-03-05T05:55:53.870Z</time>
      </trkpt>
      <trkpt lat="42.27639" lon="2.43717">
        <ele>949</ele>
        <time>2020-03-05T05:55:58.476Z</time>
      </trkpt>
      <trkpt lat="42.27627" lon="2.43709">
        <ele>942.9</ele>
        <time>2020-03-05T05:56:14.259Z</time>
      </trkpt>
      <trkpt lat="42.27626" lon="2.43707">
        <ele>941.9</ele>
        <time>2020-03-05T05:56:16.690Z</time>
      </trkpt>
      <trkpt lat="42.27623" lon="2.43707">
        <ele>940.9</ele>
        <time>2020-03-05T05:56:19.833Z</time>
      </trkpt>
      <trkpt lat="42.27621" lon="2.43705">
        <ele>940.2</ele>
        <time>2020-03-05T05:56:22.782Z</time>
      </trkpt>
      <trkpt lat="42.27617" lon="2.43702">
        <ele>939.5</ele>
        <time>2020-03-05T05:56:27.006Z</time>
      </trkpt>
      <trkpt lat="42.27614" lon="2.437">
        <ele>938.4</ele>
        <time>2020-03-05T05:56:31.331Z</time>
      </trkpt>
      <trkpt lat="42.2761" lon="2.43698">
        <ele>937.2</ele>
        <time>2020-03-05T05:56:35.498Z</time>
      </trkpt>
      <trkpt lat="42.27607" lon="2.43696">
        <ele>936.5</ele>
        <time>2020-03-05T05:56:39.374Z</time>
      </trkpt>
      <trkpt lat="42.27604" lon="2.43696">
        <ele>935.6</ele>
        <time>2020-03-05T05:56:43.471Z</time>
      </trkpt>
      <trkpt lat="42.27602" lon="2.43696">
        <ele>935.2</ele>
        <time>2020-03-05T05:56:44.972Z</time>
      </trkpt>
      <trkpt lat="42.27596" lon="2.43697">
        <ele>934.5</ele>
        <time>2020-03-05T05:56:51.501Z</time>
      </trkpt>
      <trkpt lat="42.27593" lon="2.43698">
        <ele>934.2</ele>
        <time>2020-03-05T05:56:54.796Z</time>
      </trkpt>
      <trkpt lat="42.27587" lon="2.43699">
        <ele>933.7</ele>
        <time>2020-03-05T05:57:02.190Z</time>
      </trkpt>
      <trkpt lat="42.27579" lon="2.437">
        <ele>933.4</ele>
        <time>2020-03-05T05:57:10.060Z</time>
      </trkpt>
      <trkpt lat="42.27576" lon="2.437">
        <ele>933.2</ele>
        <time>2020-03-05T05:57:14.169Z</time>
      </trkpt>
      <trkpt lat="42.27572" lon="2.43702">
        <ele>933.1</ele>
        <time>2020-03-05T05:57:18.150Z</time>
      </trkpt>
      <trkpt lat="42.27565" lon="2.43706">
        <ele>933.1</ele>
        <time>2020-03-05T05:57:26.075Z</time>
      </trkpt>
      <trkpt lat="42.27558" lon="2.43708">
        <ele>933.7</ele>
        <time>2020-03-05T05:57:34.763Z</time>
      </trkpt>
      <trkpt lat="42.27552" lon="2.43712">
        <ele>934</ele>
        <time>2020-03-05T05:57:42.010Z</time>
      </trkpt>
      <trkpt lat="42.27549" lon="2.43715">
        <ele>934.2</ele>
        <time>2020-03-05T05:57:45.552Z</time>
      </trkpt>
      <trkpt lat="42.27542" lon="2.43718">
        <ele>934.4</ele>
        <time>2020-03-05T05:57:53.484Z</time>
      </trkpt>
      <trkpt lat="42.27539" lon="2.43719">
        <ele>934.6</ele>
        <time>2020-03-05T05:57:56.746Z</time>
      </trkpt>
      <trkpt lat="42.27533" lon="2.43721">
        <ele>934.2</ele>
        <time>2020-03-05T05:58:03.587Z</time>
      </trkpt>
      <trkpt lat="42.27528" lon="2.43719">
        <ele>933.7</ele>
        <time>2020-03-05T05:58:08.989Z</time>
      </trkpt>
      <trkpt lat="42.27526" lon="2.43717">
        <ele>933.4</ele>
        <time>2020-03-05T05:58:12.030Z</time>
      </trkpt>
      <trkpt lat="42.27523" lon="2.43716">
        <ele>933.3</ele>
        <time>2020-03-05T05:58:15.077Z</time>
      </trkpt>
      <trkpt lat="42.2752" lon="2.43714">
        <ele>933.2</ele>
        <time>2020-03-05T05:58:18.509Z</time>
      </trkpt>
      <trkpt lat="42.27511" lon="2.43711">
        <ele>932.9</ele>
        <time>2020-03-05T05:58:28.314Z</time>
      </trkpt>
      <trkpt lat="42.27507" lon="2.43707">
        <ele>932.4</ele>
        <time>2020-03-05T05:58:33.631Z</time>
      </trkpt>
      <trkpt lat="42.27503" lon="2.43706">
        <ele>932.1</ele>
        <time>2020-03-05T05:58:38.437Z</time>
      </trkpt>
      <trkpt lat="42.27494" lon="2.43704">
        <ele>931.6</ele>
        <time>2020-03-05T05:58:48.118Z</time>
      </trkpt>
      <trkpt lat="42.2749" lon="2.43704">
        <ele>931.5</ele>
        <time>2020-03-05T05:58:52.460Z</time>
      </trkpt>
      <trkpt lat="42.27484" lon="2.43703">
        <ele>931.2</ele>
        <time>2020-03-05T05:58:59.747Z</time>
      </trkpt>
      <trkpt lat="42.27481" lon="2.43702">
        <ele>930.8</ele>
        <time>2020-03-05T05:59:02.455Z</time>
      </trkpt>
      <trkpt lat="42.27479" lon="2.43699">
        <ele>930.6</ele>
        <time>2020-03-05T05:59:05.379Z</time>
      </trkpt>
      <trkpt lat="42.27475" lon="2.43695">
        <ele>929.8</ele>
        <time>2020-03-05T05:59:11.430Z</time>
      </trkpt>
      <trkpt lat="42.2747" lon="2.43693">
        <ele>929.5</ele>
        <time>2020-03-05T05:59:17.326Z</time>
      </trkpt>
      <trkpt lat="42.27466" lon="2.43692">
        <ele>929.1</ele>
        <time>2020-03-05T05:59:21.732Z</time>
      </trkpt>
      <trkpt lat="42.27463" lon="2.43692">
        <ele>928.7</ele>
        <time>2020-03-05T05:59:24.461Z</time>
      </trkpt>
      <trkpt lat="42.2746" lon="2.43693">
        <ele>928.2</ele>
        <time>2020-03-05T05:59:27.864Z</time>
      </trkpt>
      <trkpt lat="42.27453" lon="2.43694">
        <ele>927.3</ele>
        <time>2020-03-05T05:59:35.794Z</time>
      </trkpt>
      <trkpt lat="42.2745" lon="2.43694">
        <ele>927</ele>
        <time>2020-03-05T05:59:38.524Z</time>
      </trkpt>
      <trkpt lat="42.2745" lon="2.43697">
        <ele>926.3</ele>
        <time>2020-03-05T05:59:40.871Z</time>
      </trkpt>
      <trkpt lat="42.27449" lon="2.43701">
        <ele>925.8</ele>
        <time>2020-03-05T05:59:44.934Z</time>
      </trkpt>
      <trkpt lat="42.27445" lon="2.43702">
        <ele>925.5</ele>
        <time>2020-03-05T05:59:48.751Z</time>
      </trkpt>
      <trkpt lat="42.27442" lon="2.43707">
        <ele>925.1</ele>
        <time>2020-03-05T05:59:53.798Z</time>
      </trkpt>
      <trkpt lat="42.27443" lon="2.43707">
        <ele>924.9</ele>
        <time>2020-03-05T05:59:54.602Z</time>
      </trkpt>
      <trkpt lat="42.27439" lon="2.43707">
        <ele>925</ele>
        <time>2020-03-05T05:59:58.220Z</time>
      </trkpt>
      <trkpt lat="42.27436" lon="2.43708">
        <ele>924.9</ele>
        <time>2020-03-05T06:00:02.309Z</time>
      </trkpt>
      <trkpt lat="42.27432" lon="2.4371">
        <ele>924.9</ele>
        <time>2020-03-05T06:00:06.328Z</time>
      </trkpt>
      <trkpt lat="42.2743" lon="2.43705">
        <ele>926.5</ele>
        <time>2020-03-05T06:00:10.942Z</time>
      </trkpt>
      <trkpt lat="42.27429" lon="2.43704">
        <ele>926</ele>
        <time>2020-03-05T06:00:13.100Z</time>
      </trkpt>
      <trkpt lat="42.27427" lon="2.43701">
        <ele>925.2</ele>
        <time>2020-03-05T06:00:16.268Z</time>
      </trkpt>
      <trkpt lat="42.27423" lon="2.437">
        <ele>924.5</ele>
        <time>2020-03-05T06:00:20.648Z</time>
      </trkpt>
      <trkpt lat="42.27421" lon="2.437">
        <ele>924</ele>
        <time>2020-03-05T06:00:22.503Z</time>
      </trkpt>
      <trkpt lat="42.27424" lon="2.43716">
        <ele>910.1</ele>
        <time>2020-03-05T06:00:41.079Z</time>
      </trkpt>
      <trkpt lat="42.27423" lon="2.43717">
        <ele>910.2</ele>
        <time>2020-03-05T06:00:42.730Z</time>
      </trkpt>
      <trkpt lat="42.27418" lon="2.43727">
        <ele>913.4</ele>
        <time>2020-03-05T06:00:52.571Z</time>
      </trkpt>
      <trkpt lat="42.2742" lon="2.43725">
        <ele>912</ele>
        <time>2020-03-05T06:00:55.264Z</time>
      </trkpt>
      <trkpt lat="42.2742" lon="2.43728">
        <ele>911</ele>
        <time>2020-03-05T06:00:58.097Z</time>
      </trkpt>
      <trkpt lat="42.2742" lon="2.43729">
        <ele>911</ele>
        <time>2020-03-05T06:00:58.295Z</time>
      </trkpt>
      <trkpt lat="42.27423" lon="2.43731">
        <ele>914.9</ele>
        <time>2020-03-05T06:01:03.511Z</time>
      </trkpt>
      <trkpt lat="42.27424" lon="2.43735">
        <ele>916.2</ele>
        <time>2020-03-05T06:01:06.781Z</time>
      </trkpt>
      <trkpt lat="42.27419" lon="2.43749">
        <ele>917.9</ele>
        <time>2020-03-05T06:01:19.750Z</time>
      </trkpt>
      <trkpt lat="42.27411" lon="2.43773">
        <ele>918.6</ele>
        <time>2020-03-05T06:01:40.779Z</time>
      </trkpt>
      <trkpt lat="42.2741" lon="2.43789">
        <ele>921.5</ele>
        <time>2020-03-05T06:01:53.611Z</time>
      </trkpt>
      <trkpt lat="42.27408" lon="2.43799">
        <ele>923.5</ele>
        <time>2020-03-05T06:02:02.534Z</time>
      </trkpt>
      <trkpt lat="42.27407" lon="2.43805">
        <ele>925.5</ele>
        <time>2020-03-05T06:02:07.678Z</time>
      </trkpt>
      <trkpt lat="42.27413" lon="2.43808">
        <ele>927.5</ele>
        <time>2020-03-05T06:02:14.901Z</time>
      </trkpt>
      <trkpt lat="42.27414" lon="2.43807">
        <ele>928.4</ele>
        <time>2020-03-05T06:02:17.080Z</time>
      </trkpt>
      <trkpt lat="42.27412" lon="2.43813">
        <ele>927.4</ele>
        <time>2020-03-05T06:02:22.644Z</time>
      </trkpt>
      <trkpt lat="42.27408" lon="2.43836">
        <ele>929.8</ele>
        <time>2020-03-05T06:02:41.952Z</time>
      </trkpt>
      <trkpt lat="42.27408" lon="2.43868">
        <ele>931.3</ele>
        <time>2020-03-05T06:03:07.289Z</time>
      </trkpt>
      <trkpt lat="42.27408" lon="2.4387">
        <ele>931.2</ele>
        <time>2020-03-05T06:03:08.680Z</time>
      </trkpt>
      <trkpt lat="42.27408" lon="2.43873">
        <ele>931.7</ele>
        <time>2020-03-05T06:03:11.236Z</time>
      </trkpt>
      <trkpt lat="42.27411" lon="2.4388">
        <ele>933.6</ele>
        <time>2020-03-05T06:03:17.759Z</time>
      </trkpt>
      <trkpt lat="42.27417" lon="2.43891">
        <ele>937.4</ele>
        <time>2020-03-05T06:03:29.788Z</time>
      </trkpt>
      <trkpt lat="42.27422" lon="2.43895">
        <ele>940.3</ele>
        <time>2020-03-05T06:03:36.311Z</time>
      </trkpt>
      <trkpt lat="42.2742" lon="2.43906">
        <ele>941.8</ele>
        <time>2020-03-05T06:03:45.002Z</time>
      </trkpt>
      <trkpt lat="42.27423" lon="2.43907">
        <ele>942.4</ele>
        <time>2020-03-05T06:03:48.284Z</time>
      </trkpt>
      <trkpt lat="42.27426" lon="2.43911">
        <ele>944.7</ele>
        <time>2020-03-05T06:03:53.641Z</time>
      </trkpt>
      <trkpt lat="42.27432" lon="2.43913">
        <ele>946.6</ele>
        <time>2020-03-05T06:04:00.147Z</time>
      </trkpt>
      <trkpt lat="42.27438" lon="2.43916">
        <ele>948.9</ele>
        <time>2020-03-05T06:04:08.076Z</time>
      </trkpt>
      <trkpt lat="42.27441" lon="2.43919">
        <ele>950.4</ele>
        <time>2020-03-05T06:04:12.149Z</time>
      </trkpt>
      <trkpt lat="42.27443" lon="2.43922">
        <ele>950.6</ele>
        <time>2020-03-05T06:04:15.645Z</time>
      </trkpt>
      <trkpt lat="42.27447" lon="2.4393">
        <ele>952.3</ele>
        <time>2020-03-05T06:04:22.858Z</time>
      </trkpt>
      <trkpt lat="42.27449" lon="2.43931">
        <ele>953.4</ele>
        <time>2020-03-05T06:04:25.471Z</time>
      </trkpt>
      <trkpt lat="42.27455" lon="2.43942">
        <ele>956.2</ele>
        <time>2020-03-05T06:04:37.011Z</time>
      </trkpt>
      <trkpt lat="42.27457" lon="2.4395">
        <ele>959</ele>
        <time>2020-03-05T06:04:44.150Z</time>
      </trkpt>
      <trkpt lat="42.27463" lon="2.43967">
        <ele>961.4</ele>
        <time>2020-03-05T06:04:59.693Z</time>
      </trkpt>
      <trkpt lat="42.27465" lon="2.4397">
        <ele>962.6</ele>
        <time>2020-03-05T06:05:03.203Z</time>
      </trkpt>
      <trkpt lat="42.27471" lon="2.43976">
        <ele>965.8</ele>
        <time>2020-03-05T06:05:11.687Z</time>
      </trkpt>
      <trkpt lat="42.2747" lon="2.43986">
        <ele>967.2</ele>
        <time>2020-03-05T06:05:19.700Z</time>
      </trkpt>
      <trkpt lat="42.27471" lon="2.4399">
        <ele>968.7</ele>
        <time>2020-03-05T06:05:23.155Z</time>
      </trkpt>
      <trkpt lat="42.27473" lon="2.43994">
        <ele>969.8</ele>
        <time>2020-03-05T06:05:27.149Z</time>
      </trkpt>
      <trkpt lat="42.2748" lon="2.43995">
        <ele>972.6</ele>
        <time>2020-03-05T06:05:35.865Z</time>
      </trkpt>
      <trkpt lat="42.27483" lon="2.44">
        <ele>974.5</ele>
        <time>2020-03-05T06:05:41.435Z</time>
      </trkpt>
      <trkpt lat="42.27484" lon="2.44003">
        <ele>974.5</ele>
        <time>2020-03-05T06:05:43.742Z</time>
      </trkpt>
      <trkpt lat="42.27485" lon="2.44012">
        <ele>977.4</ele>
        <time>2020-03-05T06:05:52.036Z</time>
      </trkpt>
      <trkpt lat="42.27487" lon="2.44023">
        <ele>981.6</ele>
        <time>2020-03-05T06:06:01.851Z</time>
      </trkpt>
      <trkpt lat="42.27491" lon="2.44027">
        <ele>983</ele>
        <time>2020-03-05T06:06:06.839Z</time>
      </trkpt>
      <trkpt lat="42.27494" lon="2.44035">
        <ele>985</ele>
        <time>2020-03-05T06:06:14.050Z</time>
      </trkpt>
      <trkpt lat="42.27496" lon="2.44049">
        <ele>988</ele>
        <time>2020-03-05T06:06:26.222Z</time>
      </trkpt>
      <trkpt lat="42.27497" lon="2.44054">
        <ele>990.4</ele>
        <time>2020-03-05T06:06:31.083Z</time>
      </trkpt>
      <trkpt lat="42.27497" lon="2.44056">
        <ele>990.5</ele>
        <time>2020-03-05T06:06:32.550Z</time>
      </trkpt>
      <trkpt lat="42.27499" lon="2.44059">
        <ele>991.9</ele>
        <time>2020-03-05T06:06:35.617Z</time>
      </trkpt>
      <trkpt lat="42.27499" lon="2.44062">
        <ele>993.1</ele>
        <time>2020-03-05T06:06:38.986Z</time>
      </trkpt>
      <trkpt lat="42.27505" lon="2.44079">
        <ele>996.5</ele>
        <time>2020-03-05T06:06:54.009Z</time>
      </trkpt>
      <trkpt lat="42.27506" lon="2.44087">
        <ele>998.5</ele>
        <time>2020-03-05T06:07:00.964Z</time>
      </trkpt>
      <trkpt lat="42.27508" lon="2.4409">
        <ele>1000.1</ele>
        <time>2020-03-05T06:07:04.418Z</time>
      </trkpt>
      <trkpt lat="42.2751" lon="2.44098">
        <ele>1003.4</ele>
        <time>2020-03-05T06:07:12.441Z</time>
      </trkpt>
      <trkpt lat="42.27514" lon="2.44108">
        <ele>1006.2</ele>
        <time>2020-03-05T06:07:22.006Z</time>
      </trkpt>
      <trkpt lat="42.27516" lon="2.44115">
        <ele>1009.5</ele>
        <time>2020-03-05T06:07:28.507Z</time>
      </trkpt>
      <trkpt lat="42.27518" lon="2.44118">
        <ele>1010.4</ele>
        <time>2020-03-05T06:07:31.669Z</time>
      </trkpt>
      <trkpt lat="42.27519" lon="2.44119">
        <ele>1011.5</ele>
        <time>2020-03-05T06:07:33.092Z</time>
      </trkpt>
      <trkpt lat="42.27525" lon="2.44124">
        <ele>1014.8</ele>
        <time>2020-03-05T06:07:41.320Z</time>
      </trkpt>
      <trkpt lat="42.27525" lon="2.44136">
        <ele>1015.4</ele>
        <time>2020-03-05T06:07:50.867Z</time>
      </trkpt>
      <trkpt lat="42.27521" lon="2.44139">
        <ele>1015.2</ele>
        <time>2020-03-05T06:07:55.881Z</time>
      </trkpt>
      <trkpt lat="42.27518" lon="2.44141">
        <ele>1015.3</ele>
        <time>2020-03-05T06:07:59.151Z</time>
      </trkpt>
      <trkpt lat="42.27523" lon="2.44137">
        <ele>1015.9</ele>
        <time>2020-03-05T06:08:04.884Z</time>
      </trkpt>
      <trkpt lat="42.27527" lon="2.44135">
        <ele>1017.3</ele>
        <time>2020-03-05T06:08:09.960Z</time>
      </trkpt>
      <trkpt lat="42.27532" lon="2.44133">
        <ele>1017.3</ele>
        <time>2020-03-05T06:08:15.447Z</time>
      </trkpt>
      <trkpt lat="42.27546" lon="2.44144">
        <ele>1018.6</ele>
        <time>2020-03-05T06:08:32.933Z</time>
      </trkpt>
      <trkpt lat="42.27552" lon="2.4415">
        <ele>1020.7</ele>
        <time>2020-03-05T06:08:41.288Z</time>
      </trkpt>
      <trkpt lat="42.27564" lon="2.44155">
        <ele>1023.4</ele>
        <time>2020-03-05T06:08:55.597Z</time>
      </trkpt>
      <trkpt lat="42.27574" lon="2.44163">
        <ele>1025.8</ele>
        <time>2020-03-05T06:09:07.976Z</time>
      </trkpt>
      <trkpt lat="42.27589" lon="2.44172">
        <ele>1028.7</ele>
        <time>2020-03-05T06:09:26.125Z</time>
      </trkpt>
      <trkpt lat="42.27591" lon="2.44173">
        <ele>1029.4</ele>
        <time>2020-03-05T06:09:28.326Z</time>
      </trkpt>
      <trkpt lat="42.27601" lon="2.44171">
        <ele>1032.7</ele>
        <time>2020-03-05T06:09:39.978Z</time>
      </trkpt>
      <trkpt lat="42.2761" lon="2.44178">
        <ele>1034.6</ele>
        <time>2020-03-05T06:09:50.674Z</time>
      </trkpt>
      <trkpt lat="42.27616" lon="2.44183">
        <ele>1037</ele>
        <time>2020-03-05T06:09:59.240Z</time>
      </trkpt>
      <trkpt lat="42.27624" lon="2.44187">
        <ele>1038.8</ele>
        <time>2020-03-05T06:10:08.114Z</time>
      </trkpt>
      <trkpt lat="42.27636" lon="2.44198">
        <ele>1040.9</ele>
        <time>2020-03-05T06:10:24.227Z</time>
      </trkpt>
      <trkpt lat="42.27649" lon="2.4421">
        <ele>1044.2</ele>
        <time>2020-03-05T06:10:41.455Z</time>
      </trkpt>
      <trkpt lat="42.27661" lon="2.44225">
        <ele>1046.2</ele>
        <time>2020-03-05T06:10:59.050Z</time>
      </trkpt>
      <trkpt lat="42.27674" lon="2.44239">
        <ele>1048.1</ele>
        <time>2020-03-05T06:11:17.222Z</time>
      </trkpt>
      <trkpt lat="42.27686" lon="2.44253">
        <ele>1050.8</ele>
        <time>2020-03-05T06:11:34.392Z</time>
      </trkpt>
      <trkpt lat="42.27693" lon="2.4426">
        <ele>1054.2</ele>
        <time>2020-03-05T06:11:44.452Z</time>
      </trkpt>
      <trkpt lat="42.27696" lon="2.44265">
        <ele>1055.7</ele>
        <time>2020-03-05T06:11:49.601Z</time>
      </trkpt>
      <trkpt lat="42.27702" lon="2.4427">
        <ele>1057.1</ele>
        <time>2020-03-05T06:11:57.745Z</time>
      </trkpt>
      <trkpt lat="42.27705" lon="2.44274">
        <ele>1057.7</ele>
        <time>2020-03-05T06:12:01.911Z</time>
      </trkpt>
      <trkpt lat="42.27708" lon="2.44281">
        <ele>1059.7</ele>
        <time>2020-03-05T06:12:09.130Z</time>
      </trkpt>
      <trkpt lat="42.27713" lon="2.4429">
        <ele>1062.4</ele>
        <time>2020-03-05T06:12:18.708Z</time>
      </trkpt>
      <trkpt lat="42.27715" lon="2.44294">
        <ele>1064</ele>
        <time>2020-03-05T06:12:22.839Z</time>
      </trkpt>
      <trkpt lat="42.27721" lon="2.44304">
        <ele>1067.7</ele>
        <time>2020-03-05T06:12:33.431Z</time>
      </trkpt>
      <trkpt lat="42.27723" lon="2.44309">
        <ele>1068.8</ele>
        <time>2020-03-05T06:12:38.003Z</time>
      </trkpt>
      <trkpt lat="42.27726" lon="2.44312">
        <ele>1069.8</ele>
        <time>2020-03-05T06:12:42.109Z</time>
      </trkpt>
      <trkpt lat="42.27727" lon="2.44317">
        <ele>1071.7</ele>
        <time>2020-03-05T06:12:46.444Z</time>
      </trkpt>
      <trkpt lat="42.27729" lon="2.44322">
        <ele>1070.5</ele>
        <time>2020-03-05T06:12:50.989Z</time>
      </trkpt>
      <trkpt lat="42.27732" lon="2.4433">
        <ele>1074.4</ele>
        <time>2020-03-05T06:12:59.526Z</time>
      </trkpt>
      <trkpt lat="42.27739" lon="2.44349">
        <ele>1076.3</ele>
        <time>2020-03-05T06:13:16.214Z</time>
      </trkpt>
      <trkpt lat="42.27744" lon="2.44373">
        <ele>1078.8</ele>
        <time>2020-03-05T06:13:36.516Z</time>
      </trkpt>
      <trkpt lat="42.27745" lon="2.44382">
        <ele>1079.9</ele>
        <time>2020-03-05T06:13:44.086Z</time>
      </trkpt>
      <trkpt lat="42.27748" lon="2.44404">
        <ele>1083.1</ele>
        <time>2020-03-05T06:14:02.125Z</time>
      </trkpt>
      <trkpt lat="42.27748" lon="2.44409">
        <ele>1083.6</ele>
        <time>2020-03-05T06:14:05.613Z</time>
      </trkpt>
      <trkpt lat="42.27751" lon="2.44425">
        <ele>1086.5</ele>
        <time>2020-03-05T06:14:19.365Z</time>
      </trkpt>
      <trkpt lat="42.27753" lon="2.44436">
        <ele>1085.9</ele>
        <time>2020-03-05T06:14:28.446Z</time>
      </trkpt>
      <trkpt lat="42.27754" lon="2.44429">
        <ele>1086.6</ele>
        <time>2020-03-05T06:14:34.485Z</time>
      </trkpt>
      <trkpt lat="42.2776" lon="2.44418">
        <ele>1089.4</ele>
        <time>2020-03-05T06:14:45.571Z</time>
      </trkpt>
      <trkpt lat="42.27764" lon="2.44413">
        <ele>1092.3</ele>
        <time>2020-03-05T06:14:52.077Z</time>
      </trkpt>
      <trkpt lat="42.27768" lon="2.44409">
        <ele>1095.5</ele>
        <time>2020-03-05T06:14:58.513Z</time>
      </trkpt>
      <trkpt lat="42.27772" lon="2.44406">
        <ele>1098.9</ele>
        <time>2020-03-05T06:15:04.124Z</time>
      </trkpt>
      <trkpt lat="42.27775" lon="2.44409">
        <ele>1102</ele>
        <time>2020-03-05T06:15:09.332Z</time>
      </trkpt>
      <trkpt lat="42.27775" lon="2.44411">
        <ele>1098.5</ele>
        <time>2020-03-05T06:15:12.912Z</time>
      </trkpt>
      <trkpt lat="42.27778" lon="2.44417">
        <ele>1101.4</ele>
        <time>2020-03-05T06:15:19.690Z</time>
      </trkpt>
      <trkpt lat="42.27779" lon="2.44426">
        <ele>1102.8</ele>
        <time>2020-03-05T06:15:26.962Z</time>
      </trkpt>
      <trkpt lat="42.27783" lon="2.44429">
        <ele>1104.6</ele>
        <time>2020-03-05T06:15:31.671Z</time>
      </trkpt>
      <trkpt lat="42.27788" lon="2.44431">
        <ele>1108.2</ele>
        <time>2020-03-05T06:15:38.658Z</time>
      </trkpt>
      <trkpt lat="42.27792" lon="2.44422">
        <ele>1111</ele>
        <time>2020-03-05T06:15:47.342Z</time>
      </trkpt>
      <trkpt lat="42.27796" lon="2.44412">
        <ele>1114.9</ele>
        <time>2020-03-05T06:15:57.360Z</time>
      </trkpt>
      <trkpt lat="42.27801" lon="2.4441">
        <ele>1117.8</ele>
        <time>2020-03-05T06:16:03.349Z</time>
      </trkpt>
      <trkpt lat="42.27805" lon="2.44399">
        <ele>1121.2</ele>
        <time>2020-03-05T06:16:13.202Z</time>
      </trkpt>
      <trkpt lat="42.27808" lon="2.44397">
        <ele>1124.4</ele>
        <time>2020-03-05T06:16:17.996Z</time>
      </trkpt>
      <trkpt lat="42.27811" lon="2.44405">
        <ele>1127.2</ele>
        <time>2020-03-05T06:16:25.697Z</time>
      </trkpt>
      <trkpt lat="42.2781" lon="2.44411">
        <ele>1126.9</ele>
        <time>2020-03-05T06:16:30.110Z</time>
      </trkpt>
      <trkpt lat="42.27812" lon="2.44413">
        <ele>1128.3</ele>
        <time>2020-03-05T06:16:32.702Z</time>
      </trkpt>
      <trkpt lat="42.27813" lon="2.44414">
        <ele>1127.9</ele>
        <time>2020-03-05T06:16:34.218Z</time>
      </trkpt>
      <trkpt lat="42.27818" lon="2.44402">
        <ele>1129.3</ele>
        <time>2020-03-05T06:16:44.918Z</time>
      </trkpt>
      <trkpt lat="42.27818" lon="2.44399">
        <ele>1129.8</ele>
        <time>2020-03-05T06:16:47.289Z</time>
      </trkpt>
      <trkpt lat="42.27819" lon="2.44398">
        <ele>1129.7</ele>
        <time>2020-03-05T06:16:48.329Z</time>
      </trkpt>
      <trkpt lat="42.27823" lon="2.44392">
        <ele>1132.6</ele>
        <time>2020-03-05T06:16:55.331Z</time>
      </trkpt>
      <trkpt lat="42.27826" lon="2.44389">
        <ele>1135.5</ele>
        <time>2020-03-05T06:17:00.709Z</time>
      </trkpt>
      <trkpt lat="42.27829" lon="2.44383">
        <ele>1138.8</ele>
        <time>2020-03-05T06:17:06.972Z</time>
      </trkpt>
      <trkpt lat="42.27831" lon="2.44379">
        <ele>1141.9</ele>
        <time>2020-03-05T06:17:12.062Z</time>
      </trkpt>
      <trkpt lat="42.27834" lon="2.44374">
        <ele>1144.5</ele>
        <time>2020-03-05T06:17:18.175Z</time>
      </trkpt>
      <trkpt lat="42.27839" lon="2.44368">
        <ele>1147.4</ele>
        <time>2020-03-05T06:17:26.013Z</time>
      </trkpt>
      <trkpt lat="42.27844" lon="2.44361">
        <ele>1151</ele>
        <time>2020-03-05T06:17:34.367Z</time>
      </trkpt>
      <trkpt lat="42.27845" lon="2.44358">
        <ele>1150.9</ele>
        <time>2020-03-05T06:17:37.017Z</time>
      </trkpt>
      <trkpt lat="42.27852" lon="2.44353">
        <ele>1151.4</ele>
        <time>2020-03-05T06:17:44.770Z</time>
      </trkpt>
      <trkpt lat="42.27864" lon="2.44342">
        <ele>1151.8</ele>
        <time>2020-03-05T06:18:00.593Z</time>
      </trkpt>
      <trkpt lat="42.27869" lon="2.44339">
        <ele>1152.8</ele>
        <time>2020-03-05T06:18:06.533Z</time>
      </trkpt>
      <trkpt lat="42.2787" lon="2.44339">
        <ele>1153.3</ele>
        <time>2020-03-05T06:18:08.084Z</time>
      </trkpt>
      <trkpt lat="42.27882" lon="2.44339">
        <ele>1156.7</ele>
        <time>2020-03-05T06:18:20.971Z</time>
      </trkpt>
      <trkpt lat="42.27892" lon="2.4434">
        <ele>1158.6</ele>
        <time>2020-03-05T06:18:32.794Z</time>
      </trkpt>
      <trkpt lat="42.27892" lon="2.44342">
        <ele>1158.6</ele>
        <time>2020-03-05T06:18:34.804Z</time>
      </trkpt>
      <trkpt lat="42.27892" lon="2.44344">
        <ele>1159.9</ele>
        <time>2020-03-05T06:18:36.830Z</time>
      </trkpt>
      <trkpt lat="42.27894" lon="2.4435">
        <ele>1162.8</ele>
        <time>2020-03-05T06:18:42.460Z</time>
      </trkpt>
      <trkpt lat="42.27903" lon="2.44348">
        <ele>1166.2</ele>
        <time>2020-03-05T06:18:53.381Z</time>
      </trkpt>
      <trkpt lat="42.27903" lon="2.44354">
        <ele>1169.3</ele>
        <time>2020-03-05T06:18:58.965Z</time>
      </trkpt>
      <trkpt lat="42.27898" lon="2.44363">
        <ele>1172</ele>
        <time>2020-03-05T06:19:09.118Z</time>
      </trkpt>
      <trkpt lat="42.27899" lon="2.4437">
        <ele>1175</ele>
        <time>2020-03-05T06:19:15.560Z</time>
      </trkpt>
      <trkpt lat="42.279" lon="2.44378">
        <ele>1178.8</ele>
        <time>2020-03-05T06:19:22.642Z</time>
      </trkpt>
      <trkpt lat="42.27899" lon="2.44379">
        <ele>1178.9</ele>
        <time>2020-03-05T06:19:23.672Z</time>
      </trkpt>
      <trkpt lat="42.27896" lon="2.44394">
        <ele>1182.7</ele>
        <time>2020-03-05T06:19:37.013Z</time>
      </trkpt>
      <trkpt lat="42.27896" lon="2.44398">
        <ele>1184.2</ele>
        <time>2020-03-05T06:19:40.572Z</time>
      </trkpt>
      <trkpt lat="42.27894" lon="2.44405">
        <ele>1186.8</ele>
        <time>2020-03-05T06:19:47.314Z</time>
      </trkpt>
      <trkpt lat="42.27896" lon="2.44416">
        <ele>1191.4</ele>
        <time>2020-03-05T06:19:57.375Z</time>
      </trkpt>
      <trkpt lat="42.27896" lon="2.44422">
        <ele>1192.6</ele>
        <time>2020-03-05T06:20:01.902Z</time>
      </trkpt>
      <trkpt lat="42.27895" lon="2.44424">
        <ele>1194</ele>
        <time>2020-03-05T06:20:04.053Z</time>
      </trkpt>
      <trkpt lat="42.27896" lon="2.44424">
        <ele>1192.6</ele>
        <time>2020-03-05T06:20:05.519Z</time>
      </trkpt>
      <trkpt lat="42.27896" lon="2.44424">
        <ele>1193.3</ele>
        <time>2020-03-05T06:20:06.213Z</time>
      </trkpt>
      <trkpt lat="42.27896" lon="2.44424">
        <ele>1194.7</ele>
        <time>2020-03-05T06:20:07.786Z</time>
      </trkpt>
      <trkpt lat="42.27897" lon="2.44424">
        <ele>1191.7</ele>
        <time>2020-03-05T06:20:10.694Z</time>
      </trkpt>
      <trkpt lat="42.27897" lon="2.44424">
        <ele>1191.7</ele>
        <time>2020-03-05T06:20:10.857Z</time>
      </trkpt>
      <trkpt lat="42.27898" lon="2.44427">
        <ele>1194.5</ele>
        <time>2020-03-05T06:20:15.324Z</time>
      </trkpt>
      <trkpt lat="42.27904" lon="2.44437">
        <ele>1197.9</ele>
        <time>2020-03-05T06:20:25.548Z</time>
      </trkpt>
      <trkpt lat="42.27903" lon="2.44438">
        <ele>1197.9</ele>
        <time>2020-03-05T06:20:26.066Z</time>
      </trkpt>
      <trkpt lat="42.27906" lon="2.44445">
        <ele>1200.9</ele>
        <time>2020-03-05T06:20:33.158Z</time>
      </trkpt>
      <trkpt lat="42.27904" lon="2.44453">
        <ele>1202.3</ele>
        <time>2020-03-05T06:20:39.949Z</time>
      </trkpt>
      <trkpt lat="42.27913" lon="2.44476">
        <ele>1204.7</ele>
        <time>2020-03-05T06:21:00.817Z</time>
      </trkpt>
      <trkpt lat="42.27916" lon="2.44479">
        <ele>1207.5</ele>
        <time>2020-03-05T06:21:05.395Z</time>
      </trkpt>
      <trkpt lat="42.27918" lon="2.44481">
        <ele>1207.5</ele>
        <time>2020-03-05T06:21:07.846Z</time>
      </trkpt>
      <trkpt lat="42.27922" lon="2.4449">
        <ele>1206.2</ele>
        <time>2020-03-05T06:21:16.482Z</time>
      </trkpt>
      <trkpt lat="42.27922" lon="2.44501">
        <ele>1208.1</ele>
        <time>2020-03-05T06:21:25.873Z</time>
      </trkpt>
      <trkpt lat="42.27922" lon="2.44503">
        <ele>1208.1</ele>
        <time>2020-03-05T06:21:26.969Z</time>
      </trkpt>
      <trkpt lat="42.27921" lon="2.44505">
        <ele>1204.7</ele>
        <time>2020-03-05T06:21:30.669Z</time>
      </trkpt>
      <trkpt lat="42.2792" lon="2.44509">
        <ele>1206.5</ele>
        <time>2020-03-05T06:21:34.319Z</time>
      </trkpt>
      <trkpt lat="42.27922" lon="2.4453">
        <ele>1207.1</ele>
        <time>2020-03-05T06:21:51.824Z</time>
      </trkpt>
      <trkpt lat="42.27928" lon="2.44554">
        <ele>1211</ele>
        <time>2020-03-05T06:22:11.882Z</time>
      </trkpt>
      <trkpt lat="42.27929" lon="2.44559">
        <ele>1212.4</ele>
        <time>2020-03-05T06:22:16.367Z</time>
      </trkpt>
      <trkpt lat="42.27934" lon="2.44574">
        <ele>1215.2</ele>
        <time>2020-03-05T06:22:29.742Z</time>
      </trkpt>
      <trkpt lat="42.2793" lon="2.44588">
        <ele>1216.6</ele>
        <time>2020-03-05T06:22:42.432Z</time>
      </trkpt>
      <trkpt lat="42.27926" lon="2.44597">
        <ele>1217.1</ele>
        <time>2020-03-05T06:22:50.160Z</time>
      </trkpt>
      <trkpt lat="42.27923" lon="2.44605">
        <ele>1217.1</ele>
        <time>2020-03-05T06:22:57.287Z</time>
      </trkpt>
      <trkpt lat="42.27924" lon="2.44608">
        <ele>1218.8</ele>
        <time>2020-03-05T06:23:00.313Z</time>
      </trkpt>
      <trkpt lat="42.27927" lon="2.44616">
        <ele>1221.2</ele>
        <time>2020-03-05T06:23:08.033Z</time>
      </trkpt>
      <trkpt lat="42.2793" lon="2.4462">
        <ele>1223.1</ele>
        <time>2020-03-05T06:23:13.057Z</time>
      </trkpt>
      <trkpt lat="42.27933" lon="2.44628">
        <ele>1224.8</ele>
        <time>2020-03-05T06:23:20.688Z</time>
      </trkpt>
      <trkpt lat="42.27936" lon="2.44636">
        <ele>1227.4</ele>
        <time>2020-03-05T06:23:27.911Z</time>
      </trkpt>
      <trkpt lat="42.27938" lon="2.44637">
        <ele>1228.8</ele>
        <time>2020-03-05T06:23:30.585Z</time>
      </trkpt>
      <trkpt lat="42.27941" lon="2.44641">
        <ele>1229.2</ele>
        <time>2020-03-05T06:23:34.723Z</time>
      </trkpt>
      <trkpt lat="42.27942" lon="2.44642">
        <ele>1229.2</ele>
        <time>2020-03-05T06:23:36.167Z</time>
      </trkpt>
      <trkpt lat="42.27945" lon="2.44648">
        <ele>1232.2</ele>
        <time>2020-03-05T06:23:43.304Z</time>
      </trkpt>
      <trkpt lat="42.27947" lon="2.4465">
        <ele>1232</ele>
        <time>2020-03-05T06:23:45.564Z</time>
      </trkpt>
      <trkpt lat="42.27949" lon="2.44658">
        <ele>1233.9</ele>
        <time>2020-03-05T06:23:52.435Z</time>
      </trkpt>
      <trkpt lat="42.27948" lon="2.44664">
        <ele>1235.4</ele>
        <time>2020-03-05T06:23:57.930Z</time>
      </trkpt>
      <trkpt lat="42.27948" lon="2.44664">
        <ele>1233.6</ele>
        <time>2020-03-05T06:23:59.709Z</time>
      </trkpt>
      <trkpt lat="42.27948" lon="2.44664">
        <ele>1233.7</ele>
        <time>2020-03-05T06:23:59.956Z</time>
      </trkpt>
      <trkpt lat="42.27949" lon="2.4467">
        <ele>1236.8</ele>
        <time>2020-03-05T06:24:05.259Z</time>
      </trkpt>
      <trkpt lat="42.27942" lon="2.44691">
        <ele>1237.9</ele>
        <time>2020-03-05T06:24:23.739Z</time>
      </trkpt>
      <trkpt lat="42.27944" lon="2.447">
        <ele>1240.3</ele>
        <time>2020-03-05T06:24:31.379Z</time>
      </trkpt>
      <trkpt lat="42.27944" lon="2.44702">
        <ele>1240.4</ele>
        <time>2020-03-05T06:24:32.698Z</time>
      </trkpt>
      <trkpt lat="42.27945" lon="2.44718">
        <ele>1244</ele>
        <time>2020-03-05T06:24:46.421Z</time>
      </trkpt>
      <trkpt lat="42.2795" lon="2.44725">
        <ele>1247</ele>
        <time>2020-03-05T06:24:54.674Z</time>
      </trkpt>
      <trkpt lat="42.27955" lon="2.44727">
        <ele>1247</ele>
        <time>2020-03-05T06:25:00.264Z</time>
      </trkpt>
      <trkpt lat="42.27956" lon="2.44733">
        <ele>1247.5</ele>
        <time>2020-03-05T06:25:05.279Z</time>
      </trkpt>
      <trkpt lat="42.27956" lon="2.44734">
        <ele>1247.9</ele>
        <time>2020-03-05T06:25:06.347Z</time>
      </trkpt>
      <trkpt lat="42.27955" lon="2.44748">
        <ele>1251.7</ele>
        <time>2020-03-05T06:25:18.498Z</time>
      </trkpt>
      <trkpt lat="42.27956" lon="2.44751">
        <ele>1252.7</ele>
        <time>2020-03-05T06:25:21.033Z</time>
      </trkpt>
      <trkpt lat="42.27963" lon="2.44756">
        <ele>1255.7</ele>
        <time>2020-03-05T06:25:29.886Z</time>
      </trkpt>
      <trkpt lat="42.27968" lon="2.44761">
        <ele>1257.7</ele>
        <time>2020-03-05T06:25:36.968Z</time>
      </trkpt>
      <trkpt lat="42.27976" lon="2.44767">
        <ele>1261.1</ele>
        <time>2020-03-05T06:25:47.191Z</time>
      </trkpt>
      <trkpt lat="42.27984" lon="2.44768">
        <ele>1262.3</ele>
        <time>2020-03-05T06:25:56.206Z</time>
      </trkpt>
      <trkpt lat="42.27993" lon="2.44772">
        <ele>1264.9</ele>
        <time>2020-03-05T06:26:06.623Z</time>
      </trkpt>
      <trkpt lat="42.28007" lon="2.44777">
        <ele>1268.3</ele>
        <time>2020-03-05T06:26:22.588Z</time>
      </trkpt>
      <trkpt lat="42.2801" lon="2.44776">
        <ele>1270.1</ele>
        <time>2020-03-05T06:26:26.525Z</time>
      </trkpt>
      <trkpt lat="42.28022" lon="2.44784">
        <ele>1271.5</ele>
        <time>2020-03-05T06:26:41.526Z</time>
      </trkpt>
      <trkpt lat="42.28026" lon="2.44793">
        <ele>1273.4</ele>
        <time>2020-03-05T06:26:49.905Z</time>
      </trkpt>
      <trkpt lat="42.28032" lon="2.44801">
        <ele>1273.4</ele>
        <time>2020-03-05T06:26:58.527Z</time>
      </trkpt>
      <trkpt lat="42.28045" lon="2.44759">
        <ele>1248.8</ele>
        <time>2020-03-05T06:27:42.149Z</time>
      </trkpt>
      <trkpt lat="42.28046" lon="2.44757">
        <ele>1248.7</ele>
        <time>2020-03-05T06:27:44.344Z</time>
      </trkpt>
      <trkpt lat="42.28049" lon="2.44752">
        <ele>1248.1</ele>
        <time>2020-03-05T06:27:49.800Z</time>
      </trkpt>
      <trkpt lat="42.28049" lon="2.44748">
        <ele>1248.4</ele>
        <time>2020-03-05T06:27:52.654Z</time>
      </trkpt>
      <trkpt lat="42.28049" lon="2.44748">
        <ele>1248.9</ele>
        <time>2020-03-05T06:27:53.389Z</time>
      </trkpt>
      <trkpt lat="42.2805" lon="2.44748">
        <ele>1249.7</ele>
        <time>2020-03-05T06:27:54.455Z</time>
      </trkpt>
      <trkpt lat="42.28051" lon="2.44748">
        <ele>1250.6</ele>
        <time>2020-03-05T06:27:56.283Z</time>
      </trkpt>
      <trkpt lat="42.2805" lon="2.44748">
        <ele>1251</ele>
        <time>2020-03-05T06:27:57.843Z</time>
      </trkpt>
      <trkpt lat="42.28051" lon="2.44752">
        <ele>1250.9</ele>
        <time>2020-03-05T06:28:01.337Z</time>
      </trkpt>
      <trkpt lat="42.28051" lon="2.4475">
        <ele>1250.9</ele>
        <time>2020-03-05T06:28:03.139Z</time>
      </trkpt>
      <trkpt lat="42.28044" lon="2.44739">
        <ele>1250.7</ele>
        <time>2020-03-05T06:28:13.943Z</time>
      </trkpt>
      <trkpt lat="42.28043" lon="2.44737">
        <ele>1250.8</ele>
        <time>2020-03-05T06:28:16.336Z</time>
      </trkpt>
      <trkpt lat="42.28043" lon="2.44737">
        <ele>1252.1</ele>
        <time>2020-03-05T06:28:17.670Z</time>
      </trkpt>
      <trkpt lat="42.28042" lon="2.44739">
        <ele>1252.4</ele>
        <time>2020-03-05T06:28:19.771Z</time>
      </trkpt>
      <trkpt lat="42.28043" lon="2.4474">
        <ele>1251.9</ele>
        <time>2020-03-05T06:28:21.094Z</time>
      </trkpt>
      <trkpt lat="42.28043" lon="2.44741">
        <ele>1252.1</ele>
        <time>2020-03-05T06:28:21.538Z</time>
      </trkpt>
      <trkpt lat="42.28043" lon="2.4474">
        <ele>1252.8</ele>
        <time>2020-03-05T06:28:22.287Z</time>
      </trkpt>
      <trkpt lat="42.28043" lon="2.44741">
        <ele>1253.5</ele>
        <time>2020-03-05T06:28:23.055Z</time>
      </trkpt>
      <trkpt lat="42.28042" lon="2.44741">
        <ele>1253.8</ele>
        <time>2020-03-05T06:28:24.201Z</time>
      </trkpt>
      <trkpt lat="42.28042" lon="2.44741">
        <ele>1254.6</ele>
        <time>2020-03-05T06:28:25.077Z</time>
      </trkpt>
      <trkpt lat="42.28042" lon="2.4474">
        <ele>1256</ele>
        <time>2020-03-05T06:28:26.802Z</time>
      </trkpt>
      <trkpt lat="42.28043" lon="2.44741">
        <ele>1256.5</ele>
        <time>2020-03-05T06:28:28.083Z</time>
      </trkpt>
      <trkpt lat="42.28041" lon="2.44741">
        <ele>1256.4</ele>
        <time>2020-03-05T06:28:29.396Z</time>
      </trkpt>
      <trkpt lat="42.2803" lon="2.44755">
        <ele>1253.8</ele>
        <time>2020-03-05T06:28:46.703Z</time>
      </trkpt>
      <trkpt lat="42.28026" lon="2.44759">
        <ele>1253.1</ele>
        <time>2020-03-05T06:28:51.563Z</time>
      </trkpt>
      <trkpt lat="42.28024" lon="2.44766">
        <ele>1252.7</ele>
        <time>2020-03-05T06:28:57.281Z</time>
      </trkpt>
      <trkpt lat="42.28033" lon="2.44792">
        <ele>1253.4</ele>
        <time>2020-03-05T06:29:20.264Z</time>
      </trkpt>
      <trkpt lat="42.28038" lon="2.44807">
        <ele>1255.1</ele>
        <time>2020-03-05T06:29:33.685Z</time>
      </trkpt>
      <trkpt lat="42.28048" lon="2.4482">
        <ele>1253.1</ele>
        <time>2020-03-05T06:29:48.790Z</time>
      </trkpt>
      <trkpt lat="42.28058" lon="2.44824">
        <ele>1250</ele>
        <time>2020-03-05T06:30:00.225Z</time>
      </trkpt>
      <trkpt lat="42.28069" lon="2.44829">
        <ele>1248.1</ele>
        <time>2020-03-05T06:30:13.076Z</time>
      </trkpt>
      <trkpt lat="42.2807" lon="2.44832">
        <ele>1247</ele>
        <time>2020-03-05T06:30:16.065Z</time>
      </trkpt>
      <trkpt lat="42.2807" lon="2.44846">
        <ele>1247.4</ele>
        <time>2020-03-05T06:30:26.794Z</time>
      </trkpt>
      <trkpt lat="42.2807" lon="2.44849">
        <ele>1247.2</ele>
        <time>2020-03-05T06:30:29.040Z</time>
      </trkpt>
      <trkpt lat="42.28073" lon="2.4486">
        <ele>1245.6</ele>
        <time>2020-03-05T06:30:38.700Z</time>
      </trkpt>
      <trkpt lat="42.28073" lon="2.44863">
        <ele>1245.7</ele>
        <time>2020-03-05T06:30:41.435Z</time>
      </trkpt>
      <trkpt lat="42.2808" lon="2.44875">
        <ele>1245.3</ele>
        <time>2020-03-05T06:30:53.406Z</time>
      </trkpt>
      <trkpt lat="42.28083" lon="2.4488">
        <ele>1243.5</ele>
        <time>2020-03-05T06:30:58.713Z</time>
      </trkpt>
      <trkpt lat="42.28087" lon="2.44887">
        <ele>1242.5</ele>
        <time>2020-03-05T06:31:05.753Z</time>
      </trkpt>
      <trkpt lat="42.28094" lon="2.44913">
        <ele>1240.6</ele>
        <time>2020-03-05T06:31:28.048Z</time>
      </trkpt>
      <trkpt lat="42.28094" lon="2.44915">
        <ele>1240.2</ele>
        <time>2020-03-05T06:31:30.053Z</time>
      </trkpt>
      <trkpt lat="42.28096" lon="2.44922">
        <ele>1239</ele>
        <time>2020-03-05T06:31:36.232Z</time>
      </trkpt>
      <trkpt lat="42.281" lon="2.44939">
        <ele>1235.2</ele>
        <time>2020-03-05T06:31:50.486Z</time>
      </trkpt>
      <trkpt lat="42.28106" lon="2.44963">
        <ele>1232</ele>
        <time>2020-03-05T06:32:10.837Z</time>
      </trkpt>
      <trkpt lat="42.2811" lon="2.4498">
        <ele>1229.4</ele>
        <time>2020-03-05T06:32:25.700Z</time>
      </trkpt>
      <trkpt lat="42.28121" lon="2.4498">
        <ele>1225.6</ele>
        <time>2020-03-05T06:32:38.555Z</time>
      </trkpt>
      <trkpt lat="42.28123" lon="2.4498">
        <ele>1224.7</ele>
        <time>2020-03-05T06:32:40.989Z</time>
      </trkpt>
      <trkpt lat="42.2813" lon="2.44982">
        <ele>1221.7</ele>
        <time>2020-03-05T06:32:48.784Z</time>
      </trkpt>
      <trkpt lat="42.28133" lon="2.44983">
        <ele>1219.8</ele>
        <time>2020-03-05T06:32:53.141Z</time>
      </trkpt>
      <trkpt lat="42.28137" lon="2.44984">
        <ele>1217.8</ele>
        <time>2020-03-05T06:32:57.431Z</time>
      </trkpt>
      <trkpt lat="42.2814" lon="2.44986">
        <ele>1215.5</ele>
        <time>2020-03-05T06:33:01.916Z</time>
      </trkpt>
      <trkpt lat="42.28143" lon="2.44994">
        <ele>1211.9</ele>
        <time>2020-03-05T06:33:09.864Z</time>
      </trkpt>
      <trkpt lat="42.28143" lon="2.45004">
        <ele>1209</ele>
        <time>2020-03-05T06:33:18.284Z</time>
      </trkpt>
      <trkpt lat="42.28148" lon="2.45017">
        <ele>1205.9</ele>
        <time>2020-03-05T06:33:30.050Z</time>
      </trkpt>
      <trkpt lat="42.28154" lon="2.45016">
        <ele>1203.9</ele>
        <time>2020-03-05T06:33:36.828Z</time>
      </trkpt>
      <trkpt lat="42.28161" lon="2.45005">
        <ele>1202.9</ele>
        <time>2020-03-05T06:33:48.628Z</time>
      </trkpt>
      <trkpt lat="42.28164" lon="2.44995">
        <ele>1199.9</ele>
        <time>2020-03-05T06:33:57.789Z</time>
      </trkpt>
      <trkpt lat="42.28169" lon="2.44999">
        <ele>1203</ele>
        <time>2020-03-05T06:34:05.122Z</time>
      </trkpt>
      <trkpt lat="42.28157" lon="2.45017">
        <ele>1204.5</ele>
        <time>2020-03-05T06:34:24.779Z</time>
      </trkpt>
      <trkpt lat="42.2815" lon="2.45022">
        <ele>1206.2</ele>
        <time>2020-03-05T06:34:32.827Z</time>
      </trkpt>
      <trkpt lat="42.28146" lon="2.45028">
        <ele>1203.3</ele>
        <time>2020-03-05T06:34:40.673Z</time>
      </trkpt>
      <trkpt lat="42.28142" lon="2.45031">
        <ele>1200.1</ele>
        <time>2020-03-05T06:34:46.723Z</time>
      </trkpt>
      <trkpt lat="42.28137" lon="2.45041">
        <ele>1197.6</ele>
        <time>2020-03-05T06:34:55.990Z</time>
      </trkpt>
      <trkpt lat="42.28139" lon="2.45053">
        <ele>1194.4</ele>
        <time>2020-03-05T06:35:06.257Z</time>
      </trkpt>
      <trkpt lat="42.2814" lon="2.45066">
        <ele>1191.5</ele>
        <time>2020-03-05T06:35:17.141Z</time>
      </trkpt>
      <trkpt lat="42.28154" lon="2.45069">
        <ele>1188.9</ele>
        <time>2020-03-05T06:35:32.554Z</time>
      </trkpt>
      <trkpt lat="42.28172" lon="2.45061">
        <ele>1191.1</ele>
        <time>2020-03-05T06:35:52.779Z</time>
      </trkpt>
      <trkpt lat="42.28186" lon="2.45039">
        <ele>1189.5</ele>
        <time>2020-03-05T06:36:16.226Z</time>
      </trkpt>
      <trkpt lat="42.28204" lon="2.45031">
        <ele>1185.8</ele>
        <time>2020-03-05T06:36:37.212Z</time>
      </trkpt>
      <trkpt lat="42.28209" lon="2.45036">
        <ele>1182.8</ele>
        <time>2020-03-05T06:36:44.041Z</time>
      </trkpt>
      <trkpt lat="42.28211" lon="2.4504">
        <ele>1179.3</ele>
        <time>2020-03-05T06:36:49.164Z</time>
      </trkpt>
      <trkpt lat="42.28213" lon="2.45042">
        <ele>1178.6</ele>
        <time>2020-03-05T06:36:52.216Z</time>
      </trkpt>
      <trkpt lat="42.28219" lon="2.45051">
        <ele>1175</ele>
        <time>2020-03-05T06:37:02.864Z</time>
      </trkpt>
      <trkpt lat="42.28221" lon="2.45058">
        <ele>1171.9</ele>
        <time>2020-03-05T06:37:09.471Z</time>
      </trkpt>
      <trkpt lat="42.28223" lon="2.45059">
        <ele>1170.5</ele>
        <time>2020-03-05T06:37:12.179Z</time>
      </trkpt>
      <trkpt lat="42.28233" lon="2.45057">
        <ele>1166.7</ele>
        <time>2020-03-05T06:37:23.234Z</time>
      </trkpt>
      <trkpt lat="42.28241" lon="2.4506">
        <ele>1163.5</ele>
        <time>2020-03-05T06:37:32.492Z</time>
      </trkpt>
      <trkpt lat="42.28244" lon="2.4506">
        <ele>1162.5</ele>
        <time>2020-03-05T06:37:35.787Z</time>
      </trkpt>
      <trkpt lat="42.28256" lon="2.45062">
        <ele>1158.8</ele>
        <time>2020-03-05T06:37:50.221Z</time>
      </trkpt>
      <trkpt lat="42.28258" lon="2.45063">
        <ele>1158.3</ele>
        <time>2020-03-05T06:37:52.032Z</time>
      </trkpt>
      <trkpt lat="42.28279" lon="2.45066">
        <ele>1154.8</ele>
        <time>2020-03-05T06:38:15.332Z</time>
      </trkpt>
      <trkpt lat="42.28296" lon="2.45073">
        <ele>1152.5</ele>
        <time>2020-03-05T06:38:34.967Z</time>
      </trkpt>
      <trkpt lat="42.28296" lon="2.45075">
        <ele>1151.8</ele>
        <time>2020-03-05T06:38:36.582Z</time>
      </trkpt>
      <trkpt lat="42.28292" lon="2.45071">
        <ele>1152.3</ele>
        <time>2020-03-05T06:38:41.479Z</time>
      </trkpt>
      <trkpt lat="42.2829" lon="2.45077">
        <ele>1152.7</ele>
        <time>2020-03-05T06:38:46.790Z</time>
      </trkpt>
      <trkpt lat="42.28285" lon="2.45086">
        <ele>1152.4</ele>
        <time>2020-03-05T06:38:56.074Z</time>
      </trkpt>
      <trkpt lat="42.28273" lon="2.45087">
        <ele>1151.5</ele>
        <time>2020-03-05T06:39:08.792Z</time>
      </trkpt>
      <trkpt lat="42.28267" lon="2.45104">
        <ele>1151.3</ele>
        <time>2020-03-05T06:39:24.013Z</time>
      </trkpt>
      <trkpt lat="42.28263" lon="2.45117">
        <ele>1149.5</ele>
        <time>2020-03-05T06:39:35.093Z</time>
      </trkpt>
      <trkpt lat="42.28258" lon="2.4512">
        <ele>1148.4</ele>
        <time>2020-03-05T06:39:41.240Z</time>
      </trkpt>
      <trkpt lat="42.28255" lon="2.45121">
        <ele>1147.9</ele>
        <time>2020-03-05T06:39:44.974Z</time>
      </trkpt>
      <trkpt lat="42.28244" lon="2.45131">
        <ele>1145.3</ele>
        <time>2020-03-05T06:39:59.417Z</time>
      </trkpt>
      <trkpt lat="42.28231" lon="2.45146">
        <ele>1143.2</ele>
        <time>2020-03-05T06:40:18.090Z</time>
      </trkpt>
      <trkpt lat="42.28219" lon="2.45159">
        <ele>1140.3</ele>
        <time>2020-03-05T06:40:34.937Z</time>
      </trkpt>
      <trkpt lat="42.28213" lon="2.45165">
        <ele>1139.2</ele>
        <time>2020-03-05T06:40:43.188Z</time>
      </trkpt>
      <trkpt lat="42.28199" lon="2.4517">
        <ele>1136.7</ele>
        <time>2020-03-05T06:40:59.322Z</time>
      </trkpt>
      <trkpt lat="42.28181" lon="2.45174">
        <ele>1134.6</ele>
        <time>2020-03-05T06:41:19.303Z</time>
      </trkpt>
      <trkpt lat="42.28169" lon="2.45181">
        <ele>1132.9</ele>
        <time>2020-03-05T06:41:33.507Z</time>
      </trkpt>
      <trkpt lat="42.28158" lon="2.45184">
        <ele>1131.8</ele>
        <time>2020-03-05T06:41:45.811Z</time>
      </trkpt>
      <trkpt lat="42.28153" lon="2.45186">
        <ele>1130.8</ele>
        <time>2020-03-05T06:41:50.821Z</time>
      </trkpt>
      <trkpt lat="42.28137" lon="2.45193">
        <ele>1127.4</ele>
        <time>2020-03-05T06:42:09.111Z</time>
      </trkpt>
      <trkpt lat="42.2813" lon="2.45195">
        <ele>1126.4</ele>
        <time>2020-03-05T06:42:16.983Z</time>
      </trkpt>
      <trkpt lat="42.28122" lon="2.45197">
        <ele>1124.3</ele>
        <time>2020-03-05T06:42:26.802Z</time>
      </trkpt>
      <trkpt lat="42.28119" lon="2.45201">
        <ele>1124.3</ele>
        <time>2020-03-05T06:42:30.722Z</time>
      </trkpt>
      <trkpt lat="42.28117" lon="2.45201">
        <ele>1122.3</ele>
        <time>2020-03-05T06:42:34.108Z</time>
      </trkpt>
      <trkpt lat="42.28116" lon="2.45194">
        <ele>1124.4</ele>
        <time>2020-03-05T06:42:40.840Z</time>
      </trkpt>
      <trkpt lat="42.28109" lon="2.45187">
        <ele>1124.2</ele>
        <time>2020-03-05T06:42:50.039Z</time>
      </trkpt>
      <trkpt lat="42.28099" lon="2.45181">
        <ele>1121.6</ele>
        <time>2020-03-05T06:43:02.312Z</time>
      </trkpt>
      <trkpt lat="42.28092" lon="2.45174">
        <ele>1120.1</ele>
        <time>2020-03-05T06:43:11.705Z</time>
      </trkpt>
      <trkpt lat="42.28081" lon="2.45164">
        <ele>1118.3</ele>
        <time>2020-03-05T06:43:25.586Z</time>
      </trkpt>
      <trkpt lat="42.28073" lon="2.45161">
        <ele>1116.1</ele>
        <time>2020-03-05T06:43:35.429Z</time>
      </trkpt>
      <trkpt lat="42.28063" lon="2.45155">
        <ele>1113.1</ele>
        <time>2020-03-05T06:43:47.419Z</time>
      </trkpt>
      <trkpt lat="42.28047" lon="2.4515">
        <ele>1111.7</ele>
        <time>2020-03-05T06:44:05.519Z</time>
      </trkpt>
      <trkpt lat="42.2803" lon="2.45147">
        <ele>1112.2</ele>
        <time>2020-03-05T06:44:23.817Z</time>
      </trkpt>
      <trkpt lat="42.2802" lon="2.4515">
        <ele>1112</ele>
        <time>2020-03-05T06:44:34.189Z</time>
      </trkpt>
      <trkpt lat="42.28002" lon="2.4516">
        <ele>1109.8</ele>
        <time>2020-03-05T06:44:55.746Z</time>
      </trkpt>
      <trkpt lat="42.27984" lon="2.45166">
        <ele>1107</ele>
        <time>2020-03-05T06:45:15.879Z</time>
      </trkpt>
      <trkpt lat="42.27966" lon="2.45169">
        <ele>1105.3</ele>
        <time>2020-03-05T06:45:35.449Z</time>
      </trkpt>
      <trkpt lat="42.27965" lon="2.45169">
        <ele>1105.1</ele>
        <time>2020-03-05T06:45:36.566Z</time>
      </trkpt>
      <trkpt lat="42.27955" lon="2.45164">
        <ele>1106.7</ele>
        <time>2020-03-05T06:45:48.093Z</time>
      </trkpt>
      <trkpt lat="42.27942" lon="2.45158">
        <ele>1106.1</ele>
        <time>2020-03-05T06:46:03.395Z</time>
      </trkpt>
      <trkpt lat="42.2794" lon="2.45157">
        <ele>1106.1</ele>
        <time>2020-03-05T06:46:05.675Z</time>
      </trkpt>
      <trkpt lat="42.27937" lon="2.45151">
        <ele>1105.7</ele>
        <time>2020-03-05T06:46:11.479Z</time>
      </trkpt>
      <trkpt lat="42.27927" lon="2.45151">
        <ele>1103.5</ele>
        <time>2020-03-05T06:46:22.196Z</time>
      </trkpt>
      <trkpt lat="42.27926" lon="2.45152">
        <ele>1103.4</ele>
        <time>2020-03-05T06:46:23.533Z</time>
      </trkpt>
      <trkpt lat="42.27917" lon="2.4515">
        <ele>1105.1</ele>
        <time>2020-03-05T06:46:33.460Z</time>
      </trkpt>
      <trkpt lat="42.27908" lon="2.45142">
        <ele>1105.9</ele>
        <time>2020-03-05T06:46:45.082Z</time>
      </trkpt>
      <trkpt lat="42.27901" lon="2.45137">
        <ele>1106.2</ele>
        <time>2020-03-05T06:46:54.222Z</time>
      </trkpt>
      <trkpt lat="42.27885" lon="2.45126">
        <ele>1103.6</ele>
        <time>2020-03-05T06:47:13.484Z</time>
      </trkpt>
      <trkpt lat="42.27885" lon="2.45129">
        <ele>1102.6</ele>
        <time>2020-03-05T06:47:15.850Z</time>
      </trkpt>
      <trkpt lat="42.27886" lon="2.45135">
        <ele>1101.3</ele>
        <time>2020-03-05T06:47:21.366Z</time>
      </trkpt>
      <trkpt lat="42.27887" lon="2.45136">
        <ele>1101.4</ele>
        <time>2020-03-05T06:47:22.474Z</time>
      </trkpt>
      <trkpt lat="42.2789" lon="2.45143">
        <ele>1101.1</ele>
        <time>2020-03-05T06:47:28.435Z</time>
      </trkpt>
      <trkpt lat="42.27898" lon="2.45165">
        <ele>1097.6</ele>
        <time>2020-03-05T06:47:48.649Z</time>
      </trkpt>
      <trkpt lat="42.27904" lon="2.45172">
        <ele>1094.5</ele>
        <time>2020-03-05T06:47:58.004Z</time>
      </trkpt>
      <trkpt lat="42.2791" lon="2.45179">
        <ele>1091.2</ele>
        <time>2020-03-05T06:48:06.562Z</time>
      </trkpt>
      <trkpt lat="42.27909" lon="2.45179">
        <ele>1090.8</ele>
        <time>2020-03-05T06:48:07.752Z</time>
      </trkpt>
      <trkpt lat="42.27901" lon="2.4519">
        <ele>1087</ele>
        <time>2020-03-05T06:48:19.755Z</time>
      </trkpt>
      <trkpt lat="42.27896" lon="2.45198">
        <ele>1084.1</ele>
        <time>2020-03-05T06:48:28.726Z</time>
      </trkpt>
      <trkpt lat="42.27889" lon="2.45207">
        <ele>1080.7</ele>
        <time>2020-03-05T06:48:39.979Z</time>
      </trkpt>
      <trkpt lat="42.27886" lon="2.4521">
        <ele>1079.2</ele>
        <time>2020-03-05T06:48:44.298Z</time>
      </trkpt>
      <trkpt lat="42.27881" lon="2.45217">
        <ele>1075.7</ele>
        <time>2020-03-05T06:48:53.176Z</time>
      </trkpt>
      <trkpt lat="42.27873" lon="2.45225">
        <ele>1072.1</ele>
        <time>2020-03-05T06:49:03.663Z</time>
      </trkpt>
      <trkpt lat="42.27867" lon="2.45227">
        <ele>1069</ele>
        <time>2020-03-05T06:49:11.691Z</time>
      </trkpt>
      <trkpt lat="42.27859" lon="2.4523">
        <ele>1065.8</ele>
        <time>2020-03-05T06:49:20.804Z</time>
      </trkpt>
      <trkpt lat="42.27857" lon="2.4523">
        <ele>1065.1</ele>
        <time>2020-03-05T06:49:22.927Z</time>
      </trkpt>
      <trkpt lat="42.2785" lon="2.45233">
        <ele>1062.9</ele>
        <time>2020-03-05T06:49:31.537Z</time>
      </trkpt>
      <trkpt lat="42.27839" lon="2.45237">
        <ele>1059.4</ele>
        <time>2020-03-05T06:49:44.831Z</time>
      </trkpt>
      <trkpt lat="42.27824" lon="2.45245">
        <ele>1055.5</ele>
        <time>2020-03-05T06:50:01.773Z</time>
      </trkpt>
      <trkpt lat="42.27819" lon="2.45251">
        <ele>1052.3</ele>
        <time>2020-03-05T06:50:10.270Z</time>
      </trkpt>
      <trkpt lat="42.27818" lon="2.45252">
        <ele>1051.7</ele>
        <time>2020-03-05T06:50:11.965Z</time>
      </trkpt>
      <trkpt lat="42.27812" lon="2.45271">
        <ele>1048.1</ele>
        <time>2020-03-05T06:50:28.560Z</time>
      </trkpt>
      <trkpt lat="42.27813" lon="2.45274">
        <ele>1047.9</ele>
        <time>2020-03-05T06:50:31.184Z</time>
      </trkpt>
      <trkpt lat="42.27813" lon="2.45283">
        <ele>1047.6</ele>
        <time>2020-03-05T06:50:38.528Z</time>
      </trkpt>
      <trkpt lat="42.27814" lon="2.45292">
        <ele>1047.6</ele>
        <time>2020-03-05T06:50:45.435Z</time>
      </trkpt>
      <trkpt lat="42.27817" lon="2.45302">
        <ele>1047.5</ele>
        <time>2020-03-05T06:50:53.857Z</time>
      </trkpt>
      <trkpt lat="42.27821" lon="2.45309">
        <ele>1047.4</ele>
        <time>2020-03-05T06:51:01.270Z</time>
      </trkpt>
      <trkpt lat="42.2783" lon="2.45318">
        <ele>1047.1</ele>
        <time>2020-03-05T06:51:13.646Z</time>
      </trkpt>
      <trkpt lat="42.27846" lon="2.45307">
        <ele>1046.3</ele>
        <time>2020-03-05T06:51:32.771Z</time>
      </trkpt>
      <trkpt lat="42.27859" lon="2.45296">
        <ele>1044.4</ele>
        <time>2020-03-05T06:51:49.314Z</time>
      </trkpt>
      <trkpt lat="42.27886" lon="2.45285">
        <ele>1043</ele>
        <time>2020-03-05T06:52:19.637Z</time>
      </trkpt>
      <trkpt lat="42.27913" lon="2.45279">
        <ele>1041.8</ele>
        <time>2020-03-05T06:52:49.237Z</time>
      </trkpt>
      <trkpt lat="42.27944" lon="2.45278">
        <ele>1040.1</ele>
        <time>2020-03-05T06:53:23.030Z</time>
      </trkpt>
      <trkpt lat="42.27964" lon="2.4528">
        <ele>1039.2</ele>
        <time>2020-03-05T06:53:44.430Z</time>
      </trkpt>
      <trkpt lat="42.27968" lon="2.4528">
        <ele>1038.8</ele>
        <time>2020-03-05T06:53:48.654Z</time>
      </trkpt>
      <trkpt lat="42.27973" lon="2.45281">
        <ele>1038.7</ele>
        <time>2020-03-05T06:53:54.841Z</time>
      </trkpt>
      <trkpt lat="42.27975" lon="2.45282">
        <ele>1038.3</ele>
        <time>2020-03-05T06:53:56.906Z</time>
      </trkpt>
      <trkpt lat="42.2798" lon="2.45282">
        <ele>1038.4</ele>
        <time>2020-03-05T06:54:02.419Z</time>
      </trkpt>
      <trkpt lat="42.27997" lon="2.45294">
        <ele>1038</ele>
        <time>2020-03-05T06:54:23.110Z</time>
      </trkpt>
      <trkpt lat="42.28024" lon="2.45313">
        <ele>1035.7</ele>
        <time>2020-03-05T06:54:55.763Z</time>
      </trkpt>
      <trkpt lat="42.28042" lon="2.45328">
        <ele>1032.4</ele>
        <time>2020-03-05T06:55:18.894Z</time>
      </trkpt>
      <trkpt lat="42.28043" lon="2.45331">
        <ele>1032.1</ele>
        <time>2020-03-05T06:55:21.547Z</time>
      </trkpt>
      <trkpt lat="42.28048" lon="2.45356">
        <ele>1029.5</ele>
        <time>2020-03-05T06:55:42.441Z</time>
      </trkpt>
      <trkpt lat="42.2805" lon="2.45368">
        <ele>1028.7</ele>
        <time>2020-03-05T06:55:52.309Z</time>
      </trkpt>
      <trkpt lat="42.28067" lon="2.4538">
        <ele>1025.4</ele>
        <time>2020-03-05T06:56:13.625Z</time>
      </trkpt>
      <trkpt lat="42.28067" lon="2.45384">
        <ele>1022.9</ele>
        <time>2020-03-05T06:56:17.884Z</time>
      </trkpt>
      <trkpt lat="42.28068" lon="2.45387">
        <ele>1022.6</ele>
        <time>2020-03-05T06:56:20.574Z</time>
      </trkpt>
      <trkpt lat="42.28068" lon="2.45389">
        <ele>1021.7</ele>
        <time>2020-03-05T06:56:22.330Z</time>
      </trkpt>
      <trkpt lat="42.2806" lon="2.45396">
        <ele>1019</ele>
        <time>2020-03-05T06:56:32.813Z</time>
      </trkpt>
      <trkpt lat="42.28053" lon="2.45398">
        <ele>1015.9</ele>
        <time>2020-03-05T06:56:41.427Z</time>
      </trkpt>
      <trkpt lat="42.28054" lon="2.45397">
        <ele>1014.2</ele>
        <time>2020-03-05T06:56:43.443Z</time>
      </trkpt>
      <trkpt lat="42.28045" lon="2.45404">
        <ele>1010.5</ele>
        <time>2020-03-05T06:56:55.325Z</time>
      </trkpt>
      <trkpt lat="42.28035" lon="2.45414">
        <ele>1007.4</ele>
        <time>2020-03-05T06:57:08.393Z</time>
      </trkpt>
      <trkpt lat="42.28028" lon="2.45427">
        <ele>1004.7</ele>
        <time>2020-03-05T06:57:21.223Z</time>
      </trkpt>
      <trkpt lat="42.28028" lon="2.45428">
        <ele>1004.6</ele>
        <time>2020-03-05T06:57:22.410Z</time>
      </trkpt>
      <trkpt lat="42.2802" lon="2.45439">
        <ele>1001.1</ele>
        <time>2020-03-05T06:57:35.263Z</time>
      </trkpt>
      <trkpt lat="42.28015" lon="2.45444">
        <ele>998.6</ele>
        <time>2020-03-05T06:57:42.237Z</time>
      </trkpt>
      <trkpt lat="42.28006" lon="2.45452">
        <ele>995.6</ele>
        <time>2020-03-05T06:57:54.788Z</time>
      </trkpt>
      <trkpt lat="42.28005" lon="2.45463">
        <ele>992.6</ele>
        <time>2020-03-05T06:58:04.029Z</time>
      </trkpt>
      <trkpt lat="42.28" lon="2.45465">
        <ele>989.6</ele>
        <time>2020-03-05T06:58:10.326Z</time>
      </trkpt>
      <trkpt lat="42.27993" lon="2.45463">
        <ele>988.1</ele>
        <time>2020-03-05T06:58:17.679Z</time>
      </trkpt>
      <trkpt lat="42.27993" lon="2.45455">
        <ele>987.7</ele>
        <time>2020-03-05T06:58:23.629Z</time>
      </trkpt>
      <trkpt lat="42.27993" lon="2.4545">
        <ele>987</ele>
        <time>2020-03-05T06:58:27.859Z</time>
      </trkpt>
      <trkpt lat="42.27999" lon="2.45427">
        <ele>984.6</ele>
        <time>2020-03-05T06:58:47.266Z</time>
      </trkpt>
      <trkpt lat="42.27991" lon="2.45411">
        <ele>982.6</ele>
        <time>2020-03-05T06:59:03.050Z</time>
      </trkpt>
      <trkpt lat="42.27983" lon="2.45404">
        <ele>982.8</ele>
        <time>2020-03-05T06:59:13.629Z</time>
      </trkpt>
      <trkpt lat="42.27965" lon="2.45396">
        <ele>985</ele>
        <time>2020-03-05T06:59:33.585Z</time>
      </trkpt>
      <trkpt lat="42.27948" lon="2.45394">
        <ele>986.8</ele>
        <time>2020-03-05T06:59:52.672Z</time>
      </trkpt>
      <trkpt lat="42.27936" lon="2.45388">
        <ele>986.7</ele>
        <time>2020-03-05T07:00:06.110Z</time>
      </trkpt>
      <trkpt lat="42.27934" lon="2.45389">
        <ele>986.7</ele>
        <time>2020-03-05T07:00:08.466Z</time>
      </trkpt>
      <trkpt lat="42.2793" lon="2.45389">
        <ele>986.9</ele>
        <time>2020-03-05T07:00:13.027Z</time>
      </trkpt>
      <trkpt lat="42.27914" lon="2.45398">
        <ele>985.4</ele>
        <time>2020-03-05T07:00:32.166Z</time>
      </trkpt>
      <trkpt lat="42.27898" lon="2.45398">
        <ele>984</ele>
        <time>2020-03-05T07:00:49.640Z</time>
      </trkpt>
      <trkpt lat="42.2788" lon="2.45404">
        <ele>980.9</ele>
        <time>2020-03-05T07:01:09.514Z</time>
      </trkpt>
      <trkpt lat="42.27864" lon="2.45411">
        <ele>978</ele>
        <time>2020-03-05T07:01:27.484Z</time>
      </trkpt>
      <trkpt lat="42.27851" lon="2.45415">
        <ele>975.8</ele>
        <time>2020-03-05T07:01:42.080Z</time>
      </trkpt>
      <trkpt lat="42.27828" lon="2.45425">
        <ele>972.5</ele>
        <time>2020-03-05T07:02:08.775Z</time>
      </trkpt>
      <trkpt lat="42.27819" lon="2.4543">
        <ele>969.1</ele>
        <time>2020-03-05T07:02:19.998Z</time>
      </trkpt>
      <trkpt lat="42.27812" lon="2.45434">
        <ele>965.9</ele>
        <time>2020-03-05T07:02:28.663Z</time>
      </trkpt>
      <trkpt lat="42.27804" lon="2.45437">
        <ele>963.3</ele>
        <time>2020-03-05T07:02:37.761Z</time>
      </trkpt>
      <trkpt lat="42.27804" lon="2.45436">
        <ele>963.1</ele>
        <time>2020-03-05T07:02:38.369Z</time>
      </trkpt>
      <trkpt lat="42.27783" lon="2.45452">
        <ele>960</ele>
        <time>2020-03-05T07:03:04.630Z</time>
      </trkpt>
      <trkpt lat="42.27768" lon="2.45457">
        <ele>956.8</ele>
        <time>2020-03-05T07:03:20.968Z</time>
      </trkpt>
      <trkpt lat="42.27757" lon="2.45458">
        <ele>953.6</ele>
        <time>2020-03-05T07:03:33.305Z</time>
      </trkpt>
      <trkpt lat="42.27738" lon="2.4546">
        <ele>951.2</ele>
        <time>2020-03-05T07:03:54.472Z</time>
      </trkpt>
      <trkpt lat="42.27723" lon="2.45454">
        <ele>953.2</ele>
        <time>2020-03-05T07:04:11.135Z</time>
      </trkpt>
      <trkpt lat="42.2771" lon="2.45454">
        <ele>955.3</ele>
        <time>2020-03-05T07:04:25.223Z</time>
      </trkpt>
      <trkpt lat="42.27697" lon="2.45457">
        <ele>954.3</ele>
        <time>2020-03-05T07:04:40.036Z</time>
      </trkpt>
      <trkpt lat="42.27684" lon="2.45457">
        <ele>951</ele>
        <time>2020-03-05T07:04:53.826Z</time>
      </trkpt>
      <trkpt lat="42.27679" lon="2.45456">
        <ele>948</ele>
        <time>2020-03-05T07:05:00.690Z</time>
      </trkpt>
      <trkpt lat="42.27667" lon="2.45452">
        <ele>944.8</ele>
        <time>2020-03-05T07:05:14.356Z</time>
      </trkpt>
      <trkpt lat="42.27656" lon="2.45443">
        <ele>941.6</ele>
        <time>2020-03-05T07:05:28.778Z</time>
      </trkpt>
      <trkpt lat="42.27654" lon="2.45441">
        <ele>941.2</ele>
        <time>2020-03-05T07:05:31.513Z</time>
      </trkpt>
      <trkpt lat="42.27647" lon="2.4544">
        <ele>938.9</ele>
        <time>2020-03-05T07:05:39.383Z</time>
      </trkpt>
      <trkpt lat="42.27638" lon="2.45441">
        <ele>935.6</ele>
        <time>2020-03-05T07:05:49.779Z</time>
      </trkpt>
      <trkpt lat="42.27634" lon="2.45441">
        <ele>932.5</ele>
        <time>2020-03-05T07:05:54.366Z</time>
      </trkpt>
      <trkpt lat="42.27629" lon="2.45446">
        <ele>929</ele>
        <time>2020-03-05T07:06:02.727Z</time>
      </trkpt>
      <trkpt lat="42.27627" lon="2.45452">
        <ele>925.5</ele>
        <time>2020-03-05T07:06:08.846Z</time>
      </trkpt>
      <trkpt lat="42.27621" lon="2.4546">
        <ele>922.1</ele>
        <time>2020-03-05T07:06:18.067Z</time>
      </trkpt>
      <trkpt lat="42.27617" lon="2.45461">
        <ele>919.1</ele>
        <time>2020-03-05T07:06:23.496Z</time>
      </trkpt>
      <trkpt lat="42.27617" lon="2.45461">
        <ele>918.7</ele>
        <time>2020-03-05T07:06:24.068Z</time>
      </trkpt>
      <trkpt lat="42.27608" lon="2.45465">
        <ele>915.5</ele>
        <time>2020-03-05T07:06:34.441Z</time>
      </trkpt>
      <trkpt lat="42.27604" lon="2.45467">
        <ele>912.6</ele>
        <time>2020-03-05T07:06:39.606Z</time>
      </trkpt>
      <trkpt lat="42.27599" lon="2.45471">
        <ele>909.2</ele>
        <time>2020-03-05T07:06:46.952Z</time>
      </trkpt>
      <trkpt lat="42.27592" lon="2.45469">
        <ele>906.3</ele>
        <time>2020-03-05T07:06:55.499Z</time>
      </trkpt>
      <trkpt lat="42.2759" lon="2.45469">
        <ele>906.3</ele>
        <time>2020-03-05T07:06:57.023Z</time>
      </trkpt>
      <trkpt lat="42.27586" lon="2.4547">
        <ele>906</ele>
        <time>2020-03-05T07:07:02.291Z</time>
      </trkpt>
      <trkpt lat="42.27586" lon="2.45473">
        <ele>906.6</ele>
        <time>2020-03-05T07:07:04.436Z</time>
      </trkpt>
      <trkpt lat="42.27584" lon="2.45468">
        <ele>906.5</ele>
        <time>2020-03-05T07:07:08.436Z</time>
      </trkpt>
      <trkpt lat="42.27577" lon="2.45459">
        <ele>903.2</ele>
        <time>2020-03-05T07:07:19.463Z</time>
      </trkpt>
      <trkpt lat="42.27571" lon="2.45458">
        <ele>900.1</ele>
        <time>2020-03-05T07:07:26.864Z</time>
      </trkpt>
      <trkpt lat="42.27563" lon="2.45458">
        <ele>896.6</ele>
        <time>2020-03-05T07:07:35.472Z</time>
      </trkpt>
      <trkpt lat="42.27559" lon="2.45458">
        <ele>894.1</ele>
        <time>2020-03-05T07:07:41.030Z</time>
      </trkpt>
      <trkpt lat="42.27547" lon="2.45463">
        <ele>890.5</ele>
        <time>2020-03-05T07:07:55.148Z</time>
      </trkpt>
      <trkpt lat="42.27537" lon="2.45465">
        <ele>887.6</ele>
        <time>2020-03-05T07:08:05.865Z</time>
      </trkpt>
      <trkpt lat="42.27535" lon="2.45465">
        <ele>885.9</ele>
        <time>2020-03-05T07:08:08.484Z</time>
      </trkpt>
      <trkpt lat="42.27525" lon="2.4546">
        <ele>882.5</ele>
        <time>2020-03-05T07:08:21.360Z</time>
      </trkpt>
      <trkpt lat="42.27518" lon="2.45458">
        <ele>879.5</ele>
        <time>2020-03-05T07:08:29.320Z</time>
      </trkpt>
      <trkpt lat="42.27515" lon="2.45461">
        <ele>877.9</ele>
        <time>2020-03-05T07:08:33.485Z</time>
      </trkpt>
      <trkpt lat="42.27508" lon="2.45463">
        <ele>874.5</ele>
        <time>2020-03-05T07:08:41.992Z</time>
      </trkpt>
      <trkpt lat="42.27501" lon="2.45465">
        <ele>871.3</ele>
        <time>2020-03-05T07:08:50.087Z</time>
      </trkpt>
      <trkpt lat="42.275" lon="2.45466">
        <ele>870.2</ele>
        <time>2020-03-05T07:08:52.251Z</time>
      </trkpt>
      <trkpt lat="42.2749" lon="2.45475">
        <ele>866.6</ele>
        <time>2020-03-05T07:09:05.351Z</time>
      </trkpt>
      <trkpt lat="42.27487" lon="2.45478">
        <ele>863.6</ele>
        <time>2020-03-05T07:09:10.654Z</time>
      </trkpt>
      <trkpt lat="42.27477" lon="2.45482">
        <ele>862.1</ele>
        <time>2020-03-05T07:09:21.702Z</time>
      </trkpt>
      <trkpt lat="42.27456" lon="2.4549">
        <ele>859.9</ele>
        <time>2020-03-05T07:09:45.952Z</time>
      </trkpt>
      <trkpt lat="42.2744" lon="2.45492">
        <ele>857</ele>
        <time>2020-03-05T07:10:02.579Z</time>
      </trkpt>
      <trkpt lat="42.27427" lon="2.45483">
        <ele>855.7</ele>
        <time>2020-03-05T07:10:18.457Z</time>
      </trkpt>
      <trkpt lat="42.27413" lon="2.45473">
        <ele>855.9</ele>
        <time>2020-03-05T07:10:35.798Z</time>
      </trkpt>
      <trkpt lat="42.27395" lon="2.45478">
        <ele>852.5</ele>
        <time>2020-03-05T07:10:55.800Z</time>
      </trkpt>
      <trkpt lat="42.27389" lon="2.45483">
        <ele>850</ele>
        <time>2020-03-05T07:11:03.974Z</time>
      </trkpt>
      <trkpt lat="42.2738" lon="2.45483">
        <ele>847.8</ele>
        <time>2020-03-05T07:11:13.950Z</time>
      </trkpt>
      <trkpt lat="42.27367" lon="2.45486">
        <ele>845.4</ele>
        <time>2020-03-05T07:11:27.518Z</time>
      </trkpt>
      <trkpt lat="42.27359" lon="2.45487">
        <ele>843.1</ele>
        <time>2020-03-05T07:11:37.192Z</time>
      </trkpt>
      <trkpt lat="42.2735" lon="2.45489">
        <ele>840.5</ele>
        <time>2020-03-05T07:11:46.987Z</time>
      </trkpt>
      <trkpt lat="42.27345" lon="2.4549">
        <ele>839.3</ele>
        <time>2020-03-05T07:11:52.585Z</time>
      </trkpt>
      <trkpt lat="42.27333" lon="2.45494">
        <ele>838</ele>
        <time>2020-03-05T07:12:06.533Z</time>
      </trkpt>
      <trkpt lat="42.27332" lon="2.45492">
        <ele>837.9</ele>
        <time>2020-03-05T07:12:08.532Z</time>
      </trkpt>
      <trkpt lat="42.27329" lon="2.45489">
        <ele>837.3</ele>
        <time>2020-03-05T07:12:12.469Z</time>
      </trkpt>
      <trkpt lat="42.27325" lon="2.45485">
        <ele>837.1</ele>
        <time>2020-03-05T07:12:17.793Z</time>
      </trkpt>
      <trkpt lat="42.27309" lon="2.45484">
        <ele>834.2</ele>
        <time>2020-03-05T07:12:35.129Z</time>
      </trkpt>
      <trkpt lat="42.27302" lon="2.45482">
        <ele>831.2</ele>
        <time>2020-03-05T07:12:43.584Z</time>
      </trkpt>
      <trkpt lat="42.27301" lon="2.45482">
        <ele>830.5</ele>
        <time>2020-03-05T07:12:45.259Z</time>
      </trkpt>
      <trkpt lat="42.27296" lon="2.45481">
        <ele>829.3</ele>
        <time>2020-03-05T07:12:50.399Z</time>
      </trkpt>
      <trkpt lat="42.27286" lon="2.45484">
        <ele>827.6</ele>
        <time>2020-03-05T07:13:01.315Z</time>
      </trkpt>
      <trkpt lat="42.27274" lon="2.45489">
        <ele>825.8</ele>
        <time>2020-03-05T07:13:15.185Z</time>
      </trkpt>
      <trkpt lat="42.27261" lon="2.45494">
        <ele>824.8</ele>
        <time>2020-03-05T07:13:30.251Z</time>
      </trkpt>
      <trkpt lat="42.27242" lon="2.45508">
        <ele>822.6</ele>
        <time>2020-03-05T07:13:53.092Z</time>
      </trkpt>
      <trkpt lat="42.27235" lon="2.45514">
        <ele>821.1</ele>
        <time>2020-03-05T07:14:02.710Z</time>
      </trkpt>
      <trkpt lat="42.27226" lon="2.45522">
        <ele>819.5</ele>
        <time>2020-03-05T07:14:14.340Z</time>
      </trkpt>
      <trkpt lat="42.27211" lon="2.45535">
        <ele>816</ele>
        <time>2020-03-05T07:14:34.096Z</time>
      </trkpt>
      <trkpt lat="42.27208" lon="2.45536">
        <ele>815.1</ele>
        <time>2020-03-05T07:14:36.884Z</time>
      </trkpt>
      <trkpt lat="42.27196" lon="2.45545">
        <ele>812.3</ele>
        <time>2020-03-05T07:14:52.264Z</time>
      </trkpt>
      <trkpt lat="42.27179" lon="2.45552">
        <ele>809</ele>
        <time>2020-03-05T07:15:12.037Z</time>
      </trkpt>
      <trkpt lat="42.27171" lon="2.45555">
        <ele>806.6</ele>
        <time>2020-03-05T07:15:21.099Z</time>
      </trkpt>
      <trkpt lat="42.27163" lon="2.45556">
        <ele>805</ele>
        <time>2020-03-05T07:15:29.899Z</time>
      </trkpt>
      <trkpt lat="42.27149" lon="2.4556">
        <ele>803.7</ele>
        <time>2020-03-05T07:15:45.078Z</time>
      </trkpt>
      <trkpt lat="42.27125" lon="2.45575">
        <ele>802.9</ele>
        <time>2020-03-05T07:16:14.487Z</time>
      </trkpt>
      <trkpt lat="42.27117" lon="2.45585">
        <ele>802.8</ele>
        <time>2020-03-05T07:16:25.930Z</time>
      </trkpt>
      <trkpt lat="42.27108" lon="2.45598">
        <ele>799.8</ele>
        <time>2020-03-05T07:16:40.413Z</time>
      </trkpt>
      <trkpt lat="42.27097" lon="2.45611">
        <ele>797.1</ele>
        <time>2020-03-05T07:16:56.569Z</time>
      </trkpt>
      <trkpt lat="42.27092" lon="2.45619">
        <ele>795.1</ele>
        <time>2020-03-05T07:17:04.994Z</time>
      </trkpt>
      <trkpt lat="42.27075" lon="2.45652">
        <ele>791.8</ele>
        <time>2020-03-05T07:17:37.985Z</time>
      </trkpt>
      <trkpt lat="42.27059" lon="2.45676">
        <ele>789.8</ele>
        <time>2020-03-05T07:18:03.075Z</time>
      </trkpt>
      <trkpt lat="42.27037" lon="2.45716">
        <ele>789.8</ele>
        <time>2020-03-05T07:18:43.875Z</time>
      </trkpt>
      <trkpt lat="42.27017" lon="2.4575">
        <ele>789.9</ele>
        <time>2020-03-05T07:19:17.915Z</time>
      </trkpt>
      <trkpt lat="42.27003" lon="2.45771">
        <ele>790.2</ele>
        <time>2020-03-05T07:19:40.766Z</time>
      </trkpt>
      <trkpt lat="42.26992" lon="2.45791">
        <ele>791</ele>
        <time>2020-03-05T07:20:00.673Z</time>
      </trkpt>
      <trkpt lat="42.26992" lon="2.45803">
        <ele>791.1</ele>
        <time>2020-03-05T07:20:09.982Z</time>
      </trkpt>
      <trkpt lat="42.26995" lon="2.45803">
        <ele>791.3</ele>
        <time>2020-03-05T07:20:13.773Z</time>
      </trkpt>
      <trkpt lat="42.26991" lon="2.45805">
        <ele>791.2</ele>
        <time>2020-03-05T07:20:19.114Z</time>
      </trkpt>
      <trkpt lat="42.26986" lon="2.45799">
        <ele>791.2</ele>
        <time>2020-03-05T07:20:25.560Z</time>
      </trkpt>
      <trkpt lat="42.26983" lon="2.45797">
        <ele>791.1</ele>
        <time>2020-03-05T07:20:29.394Z</time>
      </trkpt>
      <trkpt lat="42.26983" lon="2.45797">
        <ele>791.2</ele>
        <time>2020-03-05T07:20:29.645Z</time>
      </trkpt>
      <trkpt lat="42.26979" lon="2.45794">
        <ele>791</ele>
        <time>2020-03-05T07:20:34.677Z</time>
      </trkpt>
      <trkpt lat="42.26974" lon="2.45795">
        <ele>790.3</ele>
        <time>2020-03-05T07:20:39.906Z</time>
      </trkpt>
      <trkpt lat="42.26964" lon="2.4579">
        <ele>787</ele>
        <time>2020-03-05T07:20:52.628Z</time>
      </trkpt>
      <trkpt lat="42.2696" lon="2.45786">
        <ele>783.6</ele>
        <time>2020-03-05T07:20:58.695Z</time>
      </trkpt>
      <trkpt lat="42.26955" lon="2.45775">
        <ele>780.8</ele>
        <time>2020-03-05T07:21:09.521Z</time>
      </trkpt>
      <trkpt lat="42.26948" lon="2.45767">
        <ele>777.3</ele>
        <time>2020-03-05T07:21:20.015Z</time>
      </trkpt>
      <trkpt lat="42.26941" lon="2.4576">
        <ele>774.2</ele>
        <time>2020-03-05T07:21:29.961Z</time>
      </trkpt>
      <trkpt lat="42.26935" lon="2.45751">
        <ele>770.8</ele>
        <time>2020-03-05T07:21:39.671Z</time>
      </trkpt>
      <trkpt lat="42.26927" lon="2.45739">
        <ele>767.7</ele>
        <time>2020-03-05T07:21:53.242Z</time>
      </trkpt>
      <trkpt lat="42.26919" lon="2.45732">
        <ele>764.7</ele>
        <time>2020-03-05T07:22:03.765Z</time>
      </trkpt>
      <trkpt lat="42.26912" lon="2.45718">
        <ele>760.7</ele>
        <time>2020-03-05T07:22:18.146Z</time>
      </trkpt>
      <trkpt lat="42.26906" lon="2.45711">
        <ele>757.2</ele>
        <time>2020-03-05T07:22:27.107Z</time>
      </trkpt>
      <trkpt lat="42.269" lon="2.45702">
        <ele>754</ele>
        <time>2020-03-05T07:22:37.494Z</time>
      </trkpt>
      <trkpt lat="42.26895" lon="2.45692">
        <ele>751.1</ele>
        <time>2020-03-05T07:22:47.377Z</time>
      </trkpt>
      <trkpt lat="42.2689" lon="2.45685">
        <ele>748</ele>
        <time>2020-03-05T07:22:55.553Z</time>
      </trkpt>
      <trkpt lat="42.26879" lon="2.45677">
        <ele>745.7</ele>
        <time>2020-03-05T07:23:09.115Z</time>
      </trkpt>
      <trkpt lat="42.26867" lon="2.45679">
        <ele>742.5</ele>
        <time>2020-03-05T07:23:22.929Z</time>
      </trkpt>
      <trkpt lat="42.2686" lon="2.45674">
        <ele>738.9</ele>
        <time>2020-03-05T07:23:32.244Z</time>
      </trkpt>
      <trkpt lat="42.26855" lon="2.45668">
        <ele>736.3</ele>
        <time>2020-03-05T07:23:39.571Z</time>
      </trkpt>
      <trkpt lat="42.26852" lon="2.45666">
        <ele>735.6</ele>
        <time>2020-03-05T07:23:43.546Z</time>
      </trkpt>
      <trkpt lat="42.26843" lon="2.45665">
        <ele>732.7</ele>
        <time>2020-03-05T07:23:53.541Z</time>
      </trkpt>
      <trkpt lat="42.26837" lon="2.45668">
        <ele>729.6</ele>
        <time>2020-03-05T07:24:01.061Z</time>
      </trkpt>
      <trkpt lat="42.26824" lon="2.45671">
        <ele>726.3</ele>
        <time>2020-03-05T07:24:15.588Z</time>
      </trkpt>
      <trkpt lat="42.26814" lon="2.45674">
        <ele>723</ele>
        <time>2020-03-05T07:24:27.046Z</time>
      </trkpt>
      <trkpt lat="42.26802" lon="2.45676">
        <ele>719.6</ele>
        <time>2020-03-05T07:24:40.461Z</time>
      </trkpt>
      <trkpt lat="42.26788" lon="2.45677">
        <ele>716.4</ele>
        <time>2020-03-05T07:24:56.394Z</time>
      </trkpt>
      <trkpt lat="42.26777" lon="2.45677">
        <ele>713.3</ele>
        <time>2020-03-05T07:25:08.677Z</time>
      </trkpt>
      <trkpt lat="42.2676" lon="2.45681">
        <ele>711.4</ele>
        <time>2020-03-05T07:25:27.628Z</time>
      </trkpt>
      <trkpt lat="42.26755" lon="2.45688">
        <ele>711.5</ele>
        <time>2020-03-05T07:25:35.291Z</time>
      </trkpt>
      <trkpt lat="42.26758" lon="2.45687">
        <ele>712.3</ele>
        <time>2020-03-05T07:25:39.631Z</time>
      </trkpt>
      <trkpt lat="42.26754" lon="2.45684">
        <ele>712.1</ele>
        <time>2020-03-05T07:25:44.853Z</time>
      </trkpt>
      <trkpt lat="42.26739" lon="2.4569">
        <ele>711.4</ele>
        <time>2020-03-05T07:26:01.854Z</time>
      </trkpt>
      <trkpt lat="42.26736" lon="2.45693">
        <ele>711.2</ele>
        <time>2020-03-05T07:26:05.404Z</time>
      </trkpt>
      <trkpt lat="42.26709" lon="2.45706">
        <ele>709.6</ele>
        <time>2020-03-05T07:26:36.495Z</time>
      </trkpt>
      <trkpt lat="42.26687" lon="2.45717">
        <ele>706.7</ele>
        <time>2020-03-05T07:27:02.626Z</time>
      </trkpt>
      <trkpt lat="42.26679" lon="2.45715">
        <ele>705.8</ele>
        <time>2020-03-05T07:27:10.802Z</time>
      </trkpt>
      <trkpt lat="42.26672" lon="2.45715">
        <ele>705.5</ele>
        <time>2020-03-05T07:27:18.369Z</time>
      </trkpt>
      <trkpt lat="42.26661" lon="2.45719">
        <ele>704</ele>
        <time>2020-03-05T07:27:31.264Z</time>
      </trkpt>
      <trkpt lat="42.26658" lon="2.4572">
        <ele>703.3</ele>
        <time>2020-03-05T07:27:33.998Z</time>
      </trkpt>
      <trkpt lat="42.26642" lon="2.45731">
        <ele>700.2</ele>
        <time>2020-03-05T07:27:54.193Z</time>
      </trkpt>
      <trkpt lat="42.26638" lon="2.45738">
        <ele>698.9</ele>
        <time>2020-03-05T07:28:01.638Z</time>
      </trkpt>
      <trkpt lat="42.26635" lon="2.45741">
        <ele>699</ele>
        <time>2020-03-05T07:28:05.587Z</time>
      </trkpt>
      <trkpt lat="42.26633" lon="2.45744">
        <ele>697.3</ele>
        <time>2020-03-05T07:28:09.270Z</time>
      </trkpt>
      <trkpt lat="42.26628" lon="2.45747">
        <ele>697.9</ele>
        <time>2020-03-05T07:28:14.664Z</time>
      </trkpt>
      <trkpt lat="42.26626" lon="2.45748">
        <ele>696.6</ele>
        <time>2020-03-05T07:28:17.838Z</time>
      </trkpt>
      <trkpt lat="42.26626" lon="2.45753">
        <ele>693.7</ele>
        <time>2020-03-05T07:28:22.814Z</time>
      </trkpt>
      <trkpt lat="42.26625" lon="2.4575">
        <ele>692.6</ele>
        <time>2020-03-05T07:28:25.623Z</time>
      </trkpt>
      <trkpt lat="42.26627" lon="2.45749">
        <ele>695.7</ele>
        <time>2020-03-05T07:28:29.165Z</time>
      </trkpt>
      <trkpt lat="42.26626" lon="2.45755">
        <ele>695</ele>
        <time>2020-03-05T07:28:34.018Z</time>
      </trkpt>
      <trkpt lat="42.26614" lon="2.45746">
        <ele>695.3</ele>
        <time>2020-03-05T07:28:48.387Z</time>
      </trkpt>
      <trkpt lat="42.26604" lon="2.4574">
        <ele>693.2</ele>
        <time>2020-03-05T07:29:00.923Z</time>
      </trkpt>
      <trkpt lat="42.266" lon="2.45743">
        <ele>692.2</ele>
        <time>2020-03-05T07:29:05.954Z</time>
      </trkpt>
      <trkpt lat="42.26592" lon="2.45746">
        <ele>690.5</ele>
        <time>2020-03-05T07:29:14.691Z</time>
      </trkpt>
      <trkpt lat="42.26588" lon="2.45748">
        <ele>689.2</ele>
        <time>2020-03-05T07:29:19.921Z</time>
      </trkpt>
      <trkpt lat="42.26578" lon="2.45748">
        <ele>686.7</ele>
        <time>2020-03-05T07:29:30.385Z</time>
      </trkpt>
      <trkpt lat="42.26561" lon="2.45752">
        <ele>686.3</ele>
        <time>2020-03-05T07:29:49.543Z</time>
      </trkpt>
      <trkpt lat="42.2654" lon="2.45758">
        <ele>686.2</ele>
        <time>2020-03-05T07:30:11.925Z</time>
      </trkpt>
      <trkpt lat="42.2653" lon="2.45768">
        <ele>684.1</ele>
        <time>2020-03-05T07:30:26.270Z</time>
      </trkpt>
      <trkpt lat="42.26525" lon="2.45775">
        <ele>683.2</ele>
        <time>2020-03-05T07:30:34.131Z</time>
      </trkpt>
      <trkpt lat="42.26513" lon="2.45787">
        <ele>679.5</ele>
        <time>2020-03-05T07:30:50.606Z</time>
      </trkpt>
      <trkpt lat="42.26508" lon="2.45794">
        <ele>676.6</ele>
        <time>2020-03-05T07:30:58.448Z</time>
      </trkpt>
      <trkpt lat="42.26506" lon="2.45796">
        <ele>676.1</ele>
        <time>2020-03-05T07:31:01.209Z</time>
      </trkpt>
      <trkpt lat="42.26502" lon="2.45803">
        <ele>674.2</ele>
        <time>2020-03-05T07:31:08.701Z</time>
      </trkpt>
      <trkpt lat="42.26498" lon="2.45808">
        <ele>672.6</ele>
        <time>2020-03-05T07:31:15.186Z</time>
      </trkpt>
      <trkpt lat="42.26494" lon="2.45814">
        <ele>670.5</ele>
        <time>2020-03-05T07:31:21.463Z</time>
      </trkpt>
      <trkpt lat="42.26487" lon="2.4582">
        <ele>667.5</ele>
        <time>2020-03-05T07:31:31.425Z</time>
      </trkpt>
      <trkpt lat="42.26483" lon="2.45829">
        <ele>664</ele>
        <time>2020-03-05T07:31:40.526Z</time>
      </trkpt>
      <trkpt lat="42.26483" lon="2.45832">
        <ele>663.3</ele>
        <time>2020-03-05T07:31:42.908Z</time>
      </trkpt>
      <trkpt lat="42.26478" lon="2.4584">
        <ele>661.2</ele>
        <time>2020-03-05T07:31:51.410Z</time>
      </trkpt>
      <trkpt lat="42.26474" lon="2.45846">
        <ele>659</ele>
        <time>2020-03-05T07:31:57.787Z</time>
      </trkpt>
      <trkpt lat="42.2647" lon="2.45858">
        <ele>655.8</ele>
        <time>2020-03-05T07:32:08.827Z</time>
      </trkpt>
      <trkpt lat="42.26466" lon="2.4586">
        <ele>654</ele>
        <time>2020-03-05T07:32:13.693Z</time>
      </trkpt>
      <trkpt lat="42.26462" lon="2.45869">
        <ele>649.8</ele>
        <time>2020-03-05T07:32:23.012Z</time>
      </trkpt>
      <trkpt lat="42.26457" lon="2.45875">
        <ele>646.8</ele>
        <time>2020-03-05T07:32:30.909Z</time>
      </trkpt>
      <trkpt lat="42.26453" lon="2.4588">
        <ele>644.1</ele>
        <time>2020-03-05T07:32:36.885Z</time>
      </trkpt>
      <trkpt lat="42.26447" lon="2.45889">
        <ele>640.3</ele>
        <time>2020-03-05T07:32:47.771Z</time>
      </trkpt>
      <trkpt lat="42.26442" lon="2.45898">
        <ele>637.4</ele>
        <time>2020-03-05T07:32:56.820Z</time>
      </trkpt>
      <trkpt lat="42.26441" lon="2.45899">
        <ele>636.4</ele>
        <time>2020-03-05T07:32:58.576Z</time>
      </trkpt>
      <trkpt lat="42.26439" lon="2.45906">
        <ele>633</ele>
        <time>2020-03-05T07:33:05.704Z</time>
      </trkpt>
      <trkpt lat="42.26435" lon="2.45913">
        <ele>631.1</ele>
        <time>2020-03-05T07:33:12.801Z</time>
      </trkpt>
      <trkpt lat="42.2643" lon="2.45922">
        <ele>627.1</ele>
        <time>2020-03-05T07:33:22.475Z</time>
      </trkpt>
      <trkpt lat="42.26427" lon="2.45929">
        <ele>624.1</ele>
        <time>2020-03-05T07:33:29.386Z</time>
      </trkpt>
      <trkpt lat="42.26424" lon="2.45934">
        <ele>621.8</ele>
        <time>2020-03-05T07:33:35.174Z</time>
      </trkpt>
      <trkpt lat="42.2642" lon="2.45946">
        <ele>617.9</ele>
        <time>2020-03-05T07:33:46.396Z</time>
      </trkpt>
      <trkpt lat="42.26416" lon="2.45949">
        <ele>616.6</ele>
        <time>2020-03-05T07:33:51.048Z</time>
      </trkpt>
      <trkpt lat="42.26414" lon="2.45951">
        <ele>615.4</ele>
        <time>2020-03-05T07:33:54.235Z</time>
      </trkpt>
      <trkpt lat="42.26409" lon="2.45956">
        <ele>611.5</ele>
        <time>2020-03-05T07:34:01.985Z</time>
      </trkpt>
      <trkpt lat="42.26404" lon="2.45962">
        <ele>608.1</ele>
        <time>2020-03-05T07:34:10.016Z</time>
      </trkpt>
      <trkpt lat="42.264" lon="2.45966">
        <ele>604.7</ele>
        <time>2020-03-05T07:34:15.654Z</time>
      </trkpt>
      <trkpt lat="42.26393" lon="2.45969">
        <ele>602.3</ele>
        <time>2020-03-05T07:34:24.341Z</time>
      </trkpt>
      <trkpt lat="42.26384" lon="2.45974">
        <ele>599.3</ele>
        <time>2020-03-05T07:34:35.457Z</time>
      </trkpt>
      <trkpt lat="42.26382" lon="2.45975">
        <ele>598.7</ele>
        <time>2020-03-05T07:34:37.948Z</time>
      </trkpt>
      <trkpt lat="42.26377" lon="2.45983">
        <ele>595.4</ele>
        <time>2020-03-05T07:34:47.054Z</time>
      </trkpt>
      <trkpt lat="42.26377" lon="2.45983">
        <ele>593.2</ele>
        <time>2020-03-05T07:34:49.215Z</time>
      </trkpt>
      <trkpt lat="42.26366" lon="2.45988">
        <ele>586</ele>
        <time>2020-03-05T07:35:02.894Z</time>
      </trkpt>
      <trkpt lat="42.26366" lon="2.45983">
        <ele>582.9</ele>
        <time>2020-03-05T07:35:07.801Z</time>
      </trkpt>
      <trkpt lat="42.26361" lon="2.45982">
        <ele>580.7</ele>
        <time>2020-03-05T07:35:13.184Z</time>
      </trkpt>
      <trkpt lat="42.26356" lon="2.45979">
        <ele>577.4</ele>
        <time>2020-03-05T07:35:20.085Z</time>
      </trkpt>
      <trkpt lat="42.26355" lon="2.45972">
        <ele>576.4</ele>
        <time>2020-03-05T07:35:26.006Z</time>
      </trkpt>
      <trkpt lat="42.26355" lon="2.4596">
        <ele>572.9</ele>
        <time>2020-03-05T07:35:36.476Z</time>
      </trkpt>
      <trkpt lat="42.26356" lon="2.45951">
        <ele>570.7</ele>
        <time>2020-03-05T07:35:44.115Z</time>
      </trkpt>
      <trkpt lat="42.26353" lon="2.45949">
        <ele>570.9</ele>
        <time>2020-03-05T07:35:48.265Z</time>
      </trkpt>
      <trkpt lat="42.26351" lon="2.45947">
        <ele>568</ele>
        <time>2020-03-05T07:35:52.005Z</time>
      </trkpt>
      <trkpt lat="42.26344" lon="2.45952">
        <ele>568.2</ele>
        <time>2020-03-05T07:35:59.885Z</time>
      </trkpt>
      <trkpt lat="42.26342" lon="2.45949">
        <ele>565.3</ele>
        <time>2020-03-05T07:36:04.316Z</time>
      </trkpt>
      <trkpt lat="42.26341" lon="2.45943">
        <ele>564.6</ele>
        <time>2020-03-05T07:36:09.291Z</time>
      </trkpt>
      <trkpt lat="42.26335" lon="2.45941">
        <ele>563.9</ele>
        <time>2020-03-05T07:36:15.586Z</time>
      </trkpt>
      <trkpt lat="42.26323" lon="2.45949">
        <ele>561.9</ele>
        <time>2020-03-05T07:36:30.159Z</time>
      </trkpt>
      <trkpt lat="42.26321" lon="2.45952">
        <ele>561.2</ele>
        <time>2020-03-05T07:36:33.834Z</time>
      </trkpt>
      <trkpt lat="42.2632" lon="2.45968">
        <ele>559.6</ele>
        <time>2020-03-05T07:36:47.173Z</time>
      </trkpt>
      <trkpt lat="42.26321" lon="2.4597">
        <ele>559.6</ele>
        <time>2020-03-05T07:36:48.534Z</time>
      </trkpt>
      <trkpt lat="42.26322" lon="2.45976">
        <ele>559.5</ele>
        <time>2020-03-05T07:36:53.879Z</time>
      </trkpt>
      <trkpt lat="42.26325" lon="2.45983">
        <ele>543</ele>
        <time>2020-03-05T07:37:10.956Z</time>
      </trkpt>
      <trkpt lat="42.26325" lon="2.46003">
        <ele>541.6</ele>
        <time>2020-03-05T07:37:27.039Z</time>
      </trkpt>
      <trkpt lat="42.26331" lon="2.46019">
        <ele>540.8</ele>
        <time>2020-03-05T07:37:41.606Z</time>
      </trkpt>
      <trkpt lat="42.26336" lon="2.46037">
        <ele>539.7</ele>
        <time>2020-03-05T07:37:57.233Z</time>
      </trkpt>
      <trkpt lat="42.26343" lon="2.46045">
        <ele>539.8</ele>
        <time>2020-03-05T07:38:06.896Z</time>
      </trkpt>
      <trkpt lat="42.26353" lon="2.46054">
        <ele>539.7</ele>
        <time>2020-03-05T07:38:19.642Z</time>
      </trkpt>
      <trkpt lat="42.2636" lon="2.4606">
        <ele>539</ele>
        <time>2020-03-05T07:38:28.896Z</time>
      </trkpt>
      <trkpt lat="42.26372" lon="2.46062">
        <ele>539.1</ele>
        <time>2020-03-05T07:38:41.785Z</time>
      </trkpt>
      <trkpt lat="42.26375" lon="2.46063">
        <ele>539.1</ele>
        <time>2020-03-05T07:38:45.724Z</time>
      </trkpt>
      <trkpt lat="42.26386" lon="2.46054">
        <ele>539.3</ele>
        <time>2020-03-05T07:38:59.531Z</time>
      </trkpt>
      <trkpt lat="42.26399" lon="2.46063">
        <ele>539.6</ele>
        <time>2020-03-05T07:39:15.983Z</time>
      </trkpt>
      <trkpt lat="42.26408" lon="2.46074">
        <ele>540.1</ele>
        <time>2020-03-05T07:39:29.425Z</time>
      </trkpt>
      <trkpt lat="42.26417" lon="2.46084">
        <ele>539.6</ele>
        <time>2020-03-05T07:39:41.685Z</time>
      </trkpt>
      <trkpt lat="42.26428" lon="2.46087">
        <ele>539.3</ele>
        <time>2020-03-05T07:39:53.778Z</time>
      </trkpt>
      <trkpt lat="42.26442" lon="2.46091">
        <ele>538.8</ele>
        <time>2020-03-05T07:40:08.989Z</time>
      </trkpt>
      <trkpt lat="42.26455" lon="2.46098">
        <ele>537.8</ele>
        <time>2020-03-05T07:40:23.903Z</time>
      </trkpt>
      <trkpt lat="42.26469" lon="2.46106">
        <ele>537.6</ele>
        <time>2020-03-05T07:40:40.110Z</time>
      </trkpt>
      <trkpt lat="42.26488" lon="2.46116">
        <ele>536.9</ele>
        <time>2020-03-05T07:41:02.810Z</time>
      </trkpt>
      <trkpt lat="42.26505" lon="2.46124">
        <ele>536.3</ele>
        <time>2020-03-05T07:41:22.319Z</time>
      </trkpt>
      <trkpt lat="42.26521" lon="2.46127">
        <ele>536.2</ele>
        <time>2020-03-05T07:41:39.227Z</time>
      </trkpt>
      <trkpt lat="42.26535" lon="2.46128">
        <ele>536.2</ele>
        <time>2020-03-05T07:41:54.826Z</time>
      </trkpt>
      <trkpt lat="42.26551" lon="2.46128">
        <ele>536.2</ele>
        <time>2020-03-05T07:42:12.036Z</time>
      </trkpt>
      <trkpt lat="42.26561" lon="2.46124">
        <ele>536.7</ele>
        <time>2020-03-05T07:42:22.878Z</time>
      </trkpt>
      <trkpt lat="42.26576" lon="2.46119">
        <ele>536.8</ele>
        <time>2020-03-05T07:42:40.349Z</time>
      </trkpt>
      <trkpt lat="42.26579" lon="2.46118">
        <ele>536.7</ele>
        <time>2020-03-05T07:42:43.528Z</time>
      </trkpt>
      <trkpt lat="42.26591" lon="2.46113">
        <ele>537</ele>
        <time>2020-03-05T07:42:57.329Z</time>
      </trkpt>
      <trkpt lat="42.26601" lon="2.46119">
        <ele>536.1</ele>
        <time>2020-03-05T07:43:08.772Z</time>
      </trkpt>
      <trkpt lat="42.26606" lon="2.46121">
        <ele>534.3</ele>
        <time>2020-03-05T07:43:15.109Z</time>
      </trkpt>
      <trkpt lat="42.26609" lon="2.46123">
        <ele>532.6</ele>
        <time>2020-03-05T07:43:18.976Z</time>
      </trkpt>
      <trkpt lat="42.26617" lon="2.46124">
        <ele>532.3</ele>
        <time>2020-03-05T07:43:27.242Z</time>
      </trkpt>
      <trkpt lat="42.2662" lon="2.46126">
        <ele>532.4</ele>
        <time>2020-03-05T07:43:30.502Z</time>
      </trkpt>
      <trkpt lat="42.2663" lon="2.46131">
        <ele>533.9</ele>
        <time>2020-03-05T07:43:42.363Z</time>
      </trkpt>
      <trkpt lat="42.26639" lon="2.46137">
        <ele>535</ele>
        <time>2020-03-05T07:43:53.101Z</time>
      </trkpt>
      <trkpt lat="42.26647" lon="2.46145">
        <ele>535.3</ele>
        <time>2020-03-05T07:44:04.176Z</time>
      </trkpt>
      <trkpt lat="42.26659" lon="2.46151">
        <ele>537.3</ele>
        <time>2020-03-05T07:44:18.176Z</time>
      </trkpt>
      <trkpt lat="42.26661" lon="2.46152">
        <ele>537.2</ele>
        <time>2020-03-05T07:44:20.088Z</time>
      </trkpt>
      <trkpt lat="42.26671" lon="2.46157">
        <ele>537.1</ele>
        <time>2020-03-05T07:44:31.932Z</time>
      </trkpt>
      <trkpt lat="42.26683" lon="2.46164">
        <ele>538.2</ele>
        <time>2020-03-05T07:44:46.674Z</time>
      </trkpt>
      <trkpt lat="42.26692" lon="2.46174">
        <ele>538.4</ele>
        <time>2020-03-05T07:44:58.713Z</time>
      </trkpt>
      <trkpt lat="42.26693" lon="2.46174">
        <ele>538.3</ele>
        <time>2020-03-05T07:44:59.603Z</time>
      </trkpt>
      <trkpt lat="42.26698" lon="2.46177">
        <ele>538.6</ele>
        <time>2020-03-05T07:45:05.278Z</time>
      </trkpt>
      <trkpt lat="42.26706" lon="2.46187">
        <ele>538.9</ele>
        <time>2020-03-05T07:45:17.554Z</time>
      </trkpt>
      <trkpt lat="42.26707" lon="2.46195">
        <ele>538</ele>
        <time>2020-03-05T07:45:23.553Z</time>
      </trkpt>
      <trkpt lat="42.26712" lon="2.46209">
        <ele>537</ele>
        <time>2020-03-05T07:45:35.866Z</time>
      </trkpt>
      <trkpt lat="42.26713" lon="2.46212">
        <ele>537.4</ele>
        <time>2020-03-05T07:45:39.110Z</time>
      </trkpt>
      <trkpt lat="42.26719" lon="2.46228">
        <ele>537.2</ele>
        <time>2020-03-05T07:45:53.612Z</time>
      </trkpt>
      <trkpt lat="42.26726" lon="2.46243">
        <ele>537.6</ele>
        <time>2020-03-05T07:46:07.597Z</time>
      </trkpt>
      <trkpt lat="42.26734" lon="2.46242">
        <ele>537.4</ele>
        <time>2020-03-05T07:46:16.503Z</time>
      </trkpt>
      <trkpt lat="42.26737" lon="2.46241">
        <ele>537.3</ele>
        <time>2020-03-05T07:46:19.475Z</time>
      </trkpt>
      <trkpt lat="42.26745" lon="2.46254">
        <ele>537.2</ele>
        <time>2020-03-05T07:46:32.674Z</time>
      </trkpt>
      <trkpt lat="42.2675" lon="2.46264">
        <ele>535.6</ele>
        <time>2020-03-05T07:46:43.600Z</time>
      </trkpt>
      <trkpt lat="42.26752" lon="2.46268">
        <ele>535.6</ele>
        <time>2020-03-05T07:46:47.279Z</time>
      </trkpt>
      <trkpt lat="42.2676" lon="2.46279">
        <ele>534.3</ele>
        <time>2020-03-05T07:46:59.676Z</time>
      </trkpt>
      <trkpt lat="42.26763" lon="2.46284">
        <ele>534</ele>
        <time>2020-03-05T07:47:04.193Z</time>
      </trkpt>
      <trkpt lat="42.26763" lon="2.46287">
        <ele>533.5</ele>
        <time>2020-03-05T07:47:07.009Z</time>
      </trkpt>
      <trkpt lat="42.26768" lon="2.46293">
        <ele>533.3</ele>
        <time>2020-03-05T07:47:13.884Z</time>
      </trkpt>
      <trkpt lat="42.26777" lon="2.46302">
        <ele>532.1</ele>
        <time>2020-03-05T07:47:26.317Z</time>
      </trkpt>
      <trkpt lat="42.2678" lon="2.46308">
        <ele>530.2</ele>
        <time>2020-03-05T07:47:32.435Z</time>
      </trkpt>
      <trkpt lat="42.26783" lon="2.46313">
        <ele>528.8</ele>
        <time>2020-03-05T07:47:38.010Z</time>
      </trkpt>
      <trkpt lat="42.26786" lon="2.46318">
        <ele>527.3</ele>
        <time>2020-03-05T07:47:43.112Z</time>
      </trkpt>
      <trkpt lat="42.26777" lon="2.46329">
        <ele>525</ele>
        <time>2020-03-05T07:47:56.298Z</time>
      </trkpt>
      <trkpt lat="42.26777" lon="2.46334">
        <ele>525.1</ele>
        <time>2020-03-05T07:48:00.218Z</time>
      </trkpt>
      <trkpt lat="42.26782" lon="2.46338">
        <ele>523.8</ele>
        <time>2020-03-05T07:48:06.956Z</time>
      </trkpt>
      <trkpt lat="42.26784" lon="2.46328">
        <ele>523.8</ele>
        <time>2020-03-05T07:48:15.313Z</time>
      </trkpt>
      <trkpt lat="42.26802" lon="2.46331">
        <ele>520.8</ele>
        <time>2020-03-05T07:48:34.912Z</time>
      </trkpt>
      <trkpt lat="42.26821" lon="2.46332">
        <ele>519.4</ele>
        <time>2020-03-05T07:48:56.281Z</time>
      </trkpt>
      <trkpt lat="42.26818" lon="2.46338">
        <ele>521.1</ele>
        <time>2020-03-05T07:49:02.622Z</time>
      </trkpt>
      <trkpt lat="42.26835" lon="2.46351">
        <ele>557.2</ele>
        <time>2020-03-05T07:49:43.611Z</time>
      </trkpt>
      <trkpt lat="42.2684" lon="2.46352">
        <ele>557.7</ele>
        <time>2020-03-05T07:49:49.753Z</time>
      </trkpt>
      <trkpt lat="42.26843" lon="2.46351">
        <ele>559.6</ele>
        <time>2020-03-05T07:49:53.403Z</time>
      </trkpt>
      <trkpt lat="42.26852" lon="2.46345">
        <ele>560.1</ele>
        <time>2020-03-05T07:50:04.211Z</time>
      </trkpt>
      <trkpt lat="42.2685" lon="2.46341">
        <ele>560.7</ele>
        <time>2020-03-05T07:50:08.399Z</time>
      </trkpt>
      <trkpt lat="42.26843" lon="2.4633">
        <ele>562</ele>
        <time>2020-03-05T07:50:20.595Z</time>
      </trkpt>
      <trkpt lat="42.26845" lon="2.46316">
        <ele>564</ele>
        <time>2020-03-05T07:50:32.102Z</time>
      </trkpt>
      <trkpt lat="42.26847" lon="2.46308">
        <ele>566.9</ele>
        <time>2020-03-05T07:50:39.076Z</time>
      </trkpt>
      <trkpt lat="42.26845" lon="2.46305">
        <ele>565.3</ele>
        <time>2020-03-05T07:50:42.447Z</time>
      </trkpt>
      <trkpt lat="42.26842" lon="2.46302">
        <ele>565.3</ele>
        <time>2020-03-05T07:50:46.677Z</time>
      </trkpt>
      <trkpt lat="42.26846" lon="2.46288">
        <ele>567</ele>
        <time>2020-03-05T07:50:58.834Z</time>
      </trkpt>
      <trkpt lat="42.26853" lon="2.4628">
        <ele>569.2</ele>
        <time>2020-03-05T07:51:08.371Z</time>
      </trkpt>
      <trkpt lat="42.26856" lon="2.46277">
        <ele>571.1</ele>
        <time>2020-03-05T07:51:13.430Z</time>
      </trkpt>
      <trkpt lat="42.26866" lon="2.46264">
        <ele>573.1</ele>
        <time>2020-03-05T07:51:28.741Z</time>
      </trkpt>
      <trkpt lat="42.26868" lon="2.46271">
        <ele>574.5</ele>
        <time>2020-03-05T07:51:35.194Z</time>
      </trkpt>
      <trkpt lat="42.26872" lon="2.46282">
        <ele>575.4</ele>
        <time>2020-03-05T07:51:45.030Z</time>
      </trkpt>
      <trkpt lat="42.26878" lon="2.46291">
        <ele>577.1</ele>
        <time>2020-03-05T07:51:54.850Z</time>
      </trkpt>
      <trkpt lat="42.26882" lon="2.46285">
        <ele>578.8</ele>
        <time>2020-03-05T07:52:01.449Z</time>
      </trkpt>
      <trkpt lat="42.26882" lon="2.46284">
        <ele>580.4</ele>
        <time>2020-03-05T07:52:03.289Z</time>
      </trkpt>
      <trkpt lat="42.26881" lon="2.46277">
        <ele>580.7</ele>
        <time>2020-03-05T07:52:08.934Z</time>
      </trkpt>
      <trkpt lat="42.26877" lon="2.4628">
        <ele>580.8</ele>
        <time>2020-03-05T07:52:14.012Z</time>
      </trkpt>
      <trkpt lat="42.26879" lon="2.4628">
        <ele>580.9</ele>
        <time>2020-03-05T07:52:15.948Z</time>
      </trkpt>
      <trkpt lat="42.26882" lon="2.46278">
        <ele>584.8</ele>
        <time>2020-03-05T07:52:21.225Z</time>
      </trkpt>
      <trkpt lat="42.26882" lon="2.46278">
        <ele>581.3</ele>
        <time>2020-03-05T07:52:24.590Z</time>
      </trkpt>
      <trkpt lat="42.26882" lon="2.46277">
        <ele>575.5</ele>
        <time>2020-03-05T07:52:30.300Z</time>
      </trkpt>
      <trkpt lat="42.26882" lon="2.46277">
        <ele>588.9</ele>
        <time>2020-03-05T07:52:43.358Z</time>
      </trkpt>
      <trkpt lat="42.26882" lon="2.46277">
        <ele>584.6</ele>
        <time>2020-03-05T07:52:47.539Z</time>
      </trkpt>
      <trkpt lat="42.26882" lon="2.46277">
        <ele>577.9</ele>
        <time>2020-03-05T07:52:54.130Z</time>
      </trkpt>
      <trkpt lat="42.26882" lon="2.46277">
        <ele>584.3</ele>
        <time>2020-03-05T07:53:00.390Z</time>
      </trkpt>
      <trkpt lat="42.26882" lon="2.46277">
        <ele>575.6</ele>
        <time>2020-03-05T07:53:08.882Z</time>
      </trkpt>
      <trkpt lat="42.26882" lon="2.46277">
        <ele>585.7</ele>
        <time>2020-03-05T07:53:18.717Z</time>
      </trkpt>
      <trkpt lat="42.26882" lon="2.46277">
        <ele>577.1</ele>
        <time>2020-03-05T07:53:27.103Z</time>
      </trkpt>
      <trkpt lat="42.26882" lon="2.46277">
        <ele>582.8</ele>
        <time>2020-03-05T07:53:32.733Z</time>
      </trkpt>
      <trkpt lat="42.26882" lon="2.46277">
        <ele>574.5</ele>
        <time>2020-03-05T07:53:40.818Z</time>
      </trkpt>
      <trkpt lat="42.26881" lon="2.46277">
        <ele>588.9</ele>
        <time>2020-03-05T07:53:54.840Z</time>
      </trkpt>
      <trkpt lat="42.26881" lon="2.46277">
        <ele>579.3</ele>
        <time>2020-03-05T07:54:04.215Z</time>
      </trkpt>
      <trkpt lat="42.26881" lon="2.46277">
        <ele>584.7</ele>
        <time>2020-03-05T07:54:09.464Z</time>
      </trkpt>
      <trkpt lat="42.26881" lon="2.46277">
        <ele>581.2</ele>
        <time>2020-03-05T07:54:12.840Z</time>
      </trkpt>
      <trkpt lat="42.26881" lon="2.46277">
        <ele>581.3</ele>
        <time>2020-03-05T07:54:12.872Z</time>
      </trkpt>
      <trkpt lat="42.2688" lon="2.46277">
        <ele>579.9</ele>
        <time>2020-03-05T07:54:14.626Z</time>
      </trkpt>
      <trkpt lat="42.26881" lon="2.46276">
        <ele>584.7</ele>
        <time>2020-03-05T07:54:19.356Z</time>
      </trkpt>
      <trkpt lat="42.26881" lon="2.46276">
        <ele>580.8</ele>
        <time>2020-03-05T07:54:23.170Z</time>
      </trkpt>
      <trkpt lat="42.26882" lon="2.46278">
        <ele>581.3</ele>
        <time>2020-03-05T07:54:24.935Z</time>
      </trkpt>
      <trkpt lat="42.26886" lon="2.46274">
        <ele>583.2</ele>
        <time>2020-03-05T07:54:30.789Z</time>
      </trkpt>
      <trkpt lat="42.26886" lon="2.4627">
        <ele>584.7</ele>
        <time>2020-03-05T07:54:33.744Z</time>
      </trkpt>
      <trkpt lat="42.26891" lon="2.46265">
        <ele>586.5</ele>
        <time>2020-03-05T07:54:40.591Z</time>
      </trkpt>
      <trkpt lat="42.26896" lon="2.46264">
        <ele>589</ele>
        <time>2020-03-05T07:54:47.353Z</time>
      </trkpt>
      <trkpt lat="42.26903" lon="2.4627">
        <ele>591.4</ele>
        <time>2020-03-05T07:54:55.845Z</time>
      </trkpt>
      <trkpt lat="42.26913" lon="2.46272">
        <ele>592.8</ele>
        <time>2020-03-05T07:55:07.070Z</time>
      </trkpt>
      <trkpt lat="42.26918" lon="2.46274">
        <ele>594.3</ele>
        <time>2020-03-05T07:55:13.187Z</time>
      </trkpt>
      <trkpt lat="42.2692" lon="2.46266">
        <ele>596.1</ele>
        <time>2020-03-05T07:55:19.723Z</time>
      </trkpt>
      <trkpt lat="42.2692" lon="2.46253">
        <ele>597.7</ele>
        <time>2020-03-05T07:55:30.307Z</time>
      </trkpt>
      <trkpt lat="42.26926" lon="2.46243">
        <ele>598.5</ele>
        <time>2020-03-05T07:55:40.791Z</time>
      </trkpt>
      <trkpt lat="42.26934" lon="2.46235">
        <ele>599.6</ele>
        <time>2020-03-05T07:55:51.597Z</time>
      </trkpt>
      <trkpt lat="42.26943" lon="2.4623">
        <ele>601.5</ele>
        <time>2020-03-05T07:56:03.055Z</time>
      </trkpt>
      <trkpt lat="42.26953" lon="2.46218">
        <ele>603.4</ele>
        <time>2020-03-05T07:56:17.014Z</time>
      </trkpt>
      <trkpt lat="42.2696" lon="2.46207">
        <ele>603.8</ele>
        <time>2020-03-05T07:56:29.181Z</time>
      </trkpt>
      <trkpt lat="42.26962" lon="2.46207">
        <ele>606.4</ele>
        <time>2020-03-05T07:56:32.007Z</time>
      </trkpt>
      <trkpt lat="42.26962" lon="2.46216">
        <ele>608.3</ele>
        <time>2020-03-05T07:56:39.089Z</time>
      </trkpt>
      <trkpt lat="42.26964" lon="2.46216">
        <ele>610</ele>
        <time>2020-03-05T07:56:41.722Z</time>
      </trkpt>
      <trkpt lat="42.26972" lon="2.46213">
        <ele>612.5</ele>
        <time>2020-03-05T07:56:50.672Z</time>
      </trkpt>
      <trkpt lat="42.26976" lon="2.46213">
        <ele>615.4</ele>
        <time>2020-03-05T07:56:56.648Z</time>
      </trkpt>
      <trkpt lat="42.26977" lon="2.46223">
        <ele>616.8</ele>
        <time>2020-03-05T07:57:04.952Z</time>
      </trkpt>
      <trkpt lat="42.26977" lon="2.46227">
        <ele>618.8</ele>
        <time>2020-03-05T07:57:08.813Z</time>
      </trkpt>
      <trkpt lat="42.26978" lon="2.46233">
        <ele>622.3</ele>
        <time>2020-03-05T07:57:14.438Z</time>
      </trkpt>
      <trkpt lat="42.26982" lon="2.46243">
        <ele>624.6</ele>
        <time>2020-03-05T07:57:23.831Z</time>
      </trkpt>
      <trkpt lat="42.26986" lon="2.46246">
        <ele>626.5</ele>
        <time>2020-03-05T07:57:28.591Z</time>
      </trkpt>
      <trkpt lat="42.2699" lon="2.46247">
        <ele>628.9</ele>
        <time>2020-03-05T07:57:34.196Z</time>
      </trkpt>
      <trkpt lat="42.26995" lon="2.4625">
        <ele>629.3</ele>
        <time>2020-03-05T07:57:40.028Z</time>
      </trkpt>
      <trkpt lat="42.26998" lon="2.46249">
        <ele>631.4</ele>
        <time>2020-03-05T07:57:43.783Z</time>
      </trkpt>
      <trkpt lat="42.27002" lon="2.46247">
        <ele>632.6</ele>
        <time>2020-03-05T07:57:48.976Z</time>
      </trkpt>
      <trkpt lat="42.27008" lon="2.46245">
        <ele>635.1</ele>
        <time>2020-03-05T07:57:55.307Z</time>
      </trkpt>
      <trkpt lat="42.27011" lon="2.46244">
        <ele>638.4</ele>
        <time>2020-03-05T07:58:00.755Z</time>
      </trkpt>
      <trkpt lat="42.27015" lon="2.46244">
        <ele>640.4</ele>
        <time>2020-03-05T07:58:04.747Z</time>
      </trkpt>
      <trkpt lat="42.27015" lon="2.46244">
        <ele>644.3</ele>
        <time>2020-03-05T07:58:08.531Z</time>
      </trkpt>
      <trkpt lat="42.27015" lon="2.46244">
        <ele>641.9</ele>
        <time>2020-03-05T07:58:10.889Z</time>
      </trkpt>
      <trkpt lat="42.27015" lon="2.46241">
        <ele>639.9</ele>
        <time>2020-03-05T07:58:13.990Z</time>
      </trkpt>
      <trkpt lat="42.27012" lon="2.46239">
        <ele>639.6</ele>
        <time>2020-03-05T07:58:16.854Z</time>
      </trkpt>
      <trkpt lat="42.27013" lon="2.46239">
        <ele>625.5</ele>
        <time>2020-03-05T07:58:30.535Z</time>
      </trkpt>
      <trkpt lat="42.27013" lon="2.46239">
        <ele>652.1</ele>
        <time>2020-03-05T07:58:56.338Z</time>
      </trkpt>
      <trkpt lat="42.27013" lon="2.46239">
        <ele>636.6</ele>
        <time>2020-03-05T07:59:11.412Z</time>
      </trkpt>
      <trkpt lat="42.27013" lon="2.46239">
        <ele>642.4</ele>
        <time>2020-03-05T07:59:17.137Z</time>
      </trkpt>
      <trkpt lat="42.27013" lon="2.46239">
        <ele>639.1</ele>
        <time>2020-03-05T07:59:20.436Z</time>
      </trkpt>
      <trkpt lat="42.27013" lon="2.46239">
        <ele>639</ele>
        <time>2020-03-05T07:59:20.710Z</time>
      </trkpt>
      <trkpt lat="42.27029" lon="2.46242">
        <ele>640.3</ele>
        <time>2020-03-05T07:59:37.948Z</time>
      </trkpt>
      <trkpt lat="42.2703" lon="2.46242">
        <ele>640.3</ele>
        <time>2020-03-05T07:59:38.366Z</time>
      </trkpt>
      <trkpt lat="42.27035" lon="2.46247">
        <ele>641.4</ele>
        <time>2020-03-05T07:59:46.374Z</time>
      </trkpt>
      <trkpt lat="42.27037" lon="2.46251">
        <ele>642.4</ele>
        <time>2020-03-05T07:59:50.011Z</time>
      </trkpt>
      <trkpt lat="42.27042" lon="2.46256">
        <ele>643.8</ele>
        <time>2020-03-05T07:59:56.543Z</time>
      </trkpt>
      <trkpt lat="42.27045" lon="2.46259">
        <ele>645.2</ele>
        <time>2020-03-05T08:00:00.597Z</time>
      </trkpt>
      <trkpt lat="42.27049" lon="2.46266">
        <ele>647.1</ele>
        <time>2020-03-05T08:00:07.669Z</time>
      </trkpt>
      <trkpt lat="42.27051" lon="2.46268">
        <ele>648.7</ele>
        <time>2020-03-05T08:00:11.559Z</time>
      </trkpt>
      <trkpt lat="42.27056" lon="2.46275">
        <ele>652.4</ele>
        <time>2020-03-05T08:00:19.557Z</time>
      </trkpt>
      <trkpt lat="42.27057" lon="2.46272">
        <ele>652.1</ele>
        <time>2020-03-05T08:00:22.675Z</time>
      </trkpt>
      <trkpt lat="42.27059" lon="2.46272">
        <ele>654.4</ele>
        <time>2020-03-05T08:00:25.656Z</time>
      </trkpt>
      <trkpt lat="42.27061" lon="2.46277">
        <ele>653.9</ele>
        <time>2020-03-05T08:00:30.804Z</time>
      </trkpt>
      <trkpt lat="42.27066" lon="2.46277">
        <ele>655.7</ele>
        <time>2020-03-05T08:00:35.676Z</time>
      </trkpt>
      <trkpt lat="42.27069" lon="2.46274">
        <ele>658.8</ele>
        <time>2020-03-05T08:00:40.664Z</time>
      </trkpt>
      <trkpt lat="42.27071" lon="2.46275">
        <ele>655.3</ele>
        <time>2020-03-05T08:00:45.095Z</time>
      </trkpt>
      <trkpt lat="42.27071" lon="2.46275">
        <ele>662.5</ele>
        <time>2020-03-05T08:00:52.097Z</time>
      </trkpt>
      <trkpt lat="42.27071" lon="2.46275">
        <ele>651.4</ele>
        <time>2020-03-05T08:01:02.875Z</time>
      </trkpt>
      <trkpt lat="42.27071" lon="2.46275">
        <ele>657.8</ele>
        <time>2020-03-05T08:01:09.085Z</time>
      </trkpt>
      <trkpt lat="42.27071" lon="2.46275">
        <ele>670.7</ele>
        <time>2020-03-05T08:01:21.665Z</time>
      </trkpt>
      <trkpt lat="42.27071" lon="2.46275">
        <ele>660</ele>
        <time>2020-03-05T08:01:32.053Z</time>
      </trkpt>
      <trkpt lat="42.27072" lon="2.46282">
        <ele>662.2</ele>
        <time>2020-03-05T08:01:38.151Z</time>
      </trkpt>
      <trkpt lat="42.27077" lon="2.4629">
        <ele>664.6</ele>
        <time>2020-03-05T08:01:46.656Z</time>
      </trkpt>
      <trkpt lat="42.27078" lon="2.46292">
        <ele>664.6</ele>
        <time>2020-03-05T08:01:48.792Z</time>
      </trkpt>
      <trkpt lat="42.27082" lon="2.46293">
        <ele>665.9</ele>
        <time>2020-03-05T08:01:53.213Z</time>
      </trkpt>
      <trkpt lat="42.27089" lon="2.46291">
        <ele>668.3</ele>
        <time>2020-03-05T08:02:01.420Z</time>
      </trkpt>
      <trkpt lat="42.27096" lon="2.4629">
        <ele>669.7</ele>
        <time>2020-03-05T08:02:09.489Z</time>
      </trkpt>
      <trkpt lat="42.27097" lon="2.46291">
        <ele>671.7</ele>
        <time>2020-03-05T08:02:11.923Z</time>
      </trkpt>
      <trkpt lat="42.27099" lon="2.46295">
        <ele>672.6</ele>
        <time>2020-03-05T08:02:15.820Z</time>
      </trkpt>
      <trkpt lat="42.27105" lon="2.463">
        <ele>675.5</ele>
        <time>2020-03-05T08:02:23.789Z</time>
      </trkpt>
      <trkpt lat="42.27109" lon="2.46307">
        <ele>676.5</ele>
        <time>2020-03-05T08:02:31.538Z</time>
      </trkpt>
      <trkpt lat="42.27111" lon="2.46309">
        <ele>679.5</ele>
        <time>2020-03-05T08:02:35.491Z</time>
      </trkpt>
      <trkpt lat="42.27115" lon="2.46317">
        <ele>679.5</ele>
        <time>2020-03-05T08:02:42.892Z</time>
      </trkpt>
      <trkpt lat="42.27117" lon="2.4632">
        <ele>682.8</ele>
        <time>2020-03-05T08:02:47.031Z</time>
      </trkpt>
      <trkpt lat="42.27119" lon="2.46328">
        <ele>685.2</ele>
        <time>2020-03-05T08:02:55.025Z</time>
      </trkpt>
      <trkpt lat="42.27121" lon="2.46338">
        <ele>687.6</ele>
        <time>2020-03-05T08:03:03.528Z</time>
      </trkpt>
      <trkpt lat="42.27124" lon="2.46342">
        <ele>689.9</ele>
        <time>2020-03-05T08:03:08.875Z</time>
      </trkpt>
      <trkpt lat="42.27127" lon="2.46344">
        <ele>692.7</ele>
        <time>2020-03-05T08:03:12.771Z</time>
      </trkpt>
      <trkpt lat="42.27131" lon="2.46346">
        <ele>695.7</ele>
        <time>2020-03-05T08:03:18.779Z</time>
      </trkpt>
      <trkpt lat="42.27136" lon="2.46349">
        <ele>697.5</ele>
        <time>2020-03-05T08:03:25.190Z</time>
      </trkpt>
      <trkpt lat="42.27142" lon="2.46352">
        <ele>699.6</ele>
        <time>2020-03-05T08:03:32.493Z</time>
      </trkpt>
      <trkpt lat="42.27143" lon="2.46352">
        <ele>695.8</ele>
        <time>2020-03-05T08:03:36.206Z</time>
      </trkpt>
      <trkpt lat="42.27143" lon="2.46352">
        <ele>702</ele>
        <time>2020-03-05T08:03:42.319Z</time>
      </trkpt>
      <trkpt lat="42.27148" lon="2.46354">
        <ele>700.9</ele>
        <time>2020-03-05T08:03:48.160Z</time>
      </trkpt>
      <trkpt lat="42.27152" lon="2.46355">
        <ele>703.5</ele>
        <time>2020-03-05T08:03:54.056Z</time>
      </trkpt>
      <trkpt lat="42.27153" lon="2.46354">
        <ele>703.5</ele>
        <time>2020-03-05T08:03:54.697Z</time>
      </trkpt>
      <trkpt lat="42.27154" lon="2.46354">
        <ele>705.2</ele>
        <time>2020-03-05T08:03:57.021Z</time>
      </trkpt>
      <trkpt lat="42.27154" lon="2.46354">
        <ele>703.9</ele>
        <time>2020-03-05T08:03:58.337Z</time>
      </trkpt>
      <trkpt lat="42.27154" lon="2.46355">
        <ele>703.8</ele>
        <time>2020-03-05T08:03:58.945Z</time>
      </trkpt>
      <trkpt lat="42.27156" lon="2.46357">
        <ele>704.8</ele>
        <time>2020-03-05T08:04:01.304Z</time>
      </trkpt>
      <trkpt lat="42.27161" lon="2.46368">
        <ele>706.8</ele>
        <time>2020-03-05T08:04:12.370Z</time>
      </trkpt>
      <trkpt lat="42.27162" lon="2.46379">
        <ele>708.2</ele>
        <time>2020-03-05T08:04:20.762Z</time>
      </trkpt>
      <trkpt lat="42.27161" lon="2.46389">
        <ele>710</ele>
        <time>2020-03-05T08:04:29.449Z</time>
      </trkpt>
      <trkpt lat="42.27163" lon="2.46394">
        <ele>711</ele>
        <time>2020-03-05T08:04:34.076Z</time>
      </trkpt>
      <trkpt lat="42.27163" lon="2.46396">
        <ele>710.7</ele>
        <time>2020-03-05T08:04:35.570Z</time>
      </trkpt>
      <trkpt lat="42.27163" lon="2.46395">
        <ele>710.7</ele>
        <time>2020-03-05T08:04:36.486Z</time>
      </trkpt>
      <trkpt lat="42.27162" lon="2.46395">
        <ele>711.2</ele>
        <time>2020-03-05T08:04:37.791Z</time>
      </trkpt>
      <trkpt lat="42.27163" lon="2.46394">
        <ele>711.5</ele>
        <time>2020-03-05T08:04:38.667Z</time>
      </trkpt>
      <trkpt lat="42.27163" lon="2.46397">
        <ele>710.6</ele>
        <time>2020-03-05T08:04:41.211Z</time>
      </trkpt>
      <trkpt lat="42.27163" lon="2.46404">
        <ele>712.5</ele>
        <time>2020-03-05T08:04:47.459Z</time>
      </trkpt>
      <trkpt lat="42.27166" lon="2.46412">
        <ele>712.9</ele>
        <time>2020-03-05T08:04:54.720Z</time>
      </trkpt>
      <trkpt lat="42.27169" lon="2.46417">
        <ele>714.8</ele>
        <time>2020-03-05T08:05:00.090Z</time>
      </trkpt>
      <trkpt lat="42.2717" lon="2.46416">
        <ele>710.1</ele>
        <time>2020-03-05T08:05:04.981Z</time>
      </trkpt>
      <trkpt lat="42.27171" lon="2.46415">
        <ele>722.1</ele>
        <time>2020-03-05T08:05:16.682Z</time>
      </trkpt>
      <trkpt lat="42.27171" lon="2.46415">
        <ele>716.4</ele>
        <time>2020-03-05T08:05:22.301Z</time>
      </trkpt>
      <trkpt lat="42.27174" lon="2.46413">
        <ele>716.9</ele>
        <time>2020-03-05T08:05:25.566Z</time>
      </trkpt>
      <trkpt lat="42.27178" lon="2.46412">
        <ele>717.8</ele>
        <time>2020-03-05T08:05:29.769Z</time>
      </trkpt>
      <trkpt lat="42.27182" lon="2.46409">
        <ele>719.8</ele>
        <time>2020-03-05T08:05:35.118Z</time>
      </trkpt>
      <trkpt lat="42.27184" lon="2.46407">
        <ele>721.2</ele>
        <time>2020-03-05T08:05:38.305Z</time>
      </trkpt>
      <trkpt lat="42.2719" lon="2.464">
        <ele>724.1</ele>
        <time>2020-03-05T08:05:47.228Z</time>
      </trkpt>
      <trkpt lat="42.27198" lon="2.46386">
        <ele>725</ele>
        <time>2020-03-05T08:06:01.802Z</time>
      </trkpt>
      <trkpt lat="42.27202" lon="2.46383">
        <ele>728.3</ele>
        <time>2020-03-05T08:06:07.761Z</time>
      </trkpt>
      <trkpt lat="42.27205" lon="2.46388">
        <ele>729.4</ele>
        <time>2020-03-05T08:06:13.396Z</time>
      </trkpt>
      <trkpt lat="42.27206" lon="2.46394">
        <ele>730.2</ele>
        <time>2020-03-05T08:06:18.165Z</time>
      </trkpt>
      <trkpt lat="42.27218" lon="2.46397">
        <ele>733.3</ele>
        <time>2020-03-05T08:06:31.432Z</time>
      </trkpt>
      <trkpt lat="42.27221" lon="2.46401">
        <ele>734.1</ele>
        <time>2020-03-05T08:06:36.357Z</time>
      </trkpt>
      <trkpt lat="42.2722" lon="2.46407">
        <ele>735.6</ele>
        <time>2020-03-05T08:06:41.328Z</time>
      </trkpt>
      <trkpt lat="42.27224" lon="2.46415">
        <ele>738</ele>
        <time>2020-03-05T08:06:49.955Z</time>
      </trkpt>
      <trkpt lat="42.27227" lon="2.46419">
        <ele>740.4</ele>
        <time>2020-03-05T08:06:55.084Z</time>
      </trkpt>
      <trkpt lat="42.27228" lon="2.46424">
        <ele>741.4</ele>
        <time>2020-03-05T08:06:59.397Z</time>
      </trkpt>
      <trkpt lat="42.2723" lon="2.46424">
        <ele>741.8</ele>
        <time>2020-03-05T08:07:01.189Z</time>
      </trkpt>
      <trkpt lat="42.27238" lon="2.46418">
        <ele>743.4</ele>
        <time>2020-03-05T08:07:10.837Z</time>
      </trkpt>
      <trkpt lat="42.27241" lon="2.46414">
        <ele>745.3</ele>
        <time>2020-03-05T08:07:15.997Z</time>
      </trkpt>
      <trkpt lat="42.27243" lon="2.46402">
        <ele>746.6</ele>
        <time>2020-03-05T08:07:25.858Z</time>
      </trkpt>
      <trkpt lat="42.27247" lon="2.46394">
        <ele>748.1</ele>
        <time>2020-03-05T08:07:33.527Z</time>
      </trkpt>
      <trkpt lat="42.27252" lon="2.46382">
        <ele>750.5</ele>
        <time>2020-03-05T08:07:45.086Z</time>
      </trkpt>
      <trkpt lat="42.27253" lon="2.46377">
        <ele>753.4</ele>
        <time>2020-03-05T08:07:49.994Z</time>
      </trkpt>
      <trkpt lat="42.27257" lon="2.46381">
        <ele>755.7</ele>
        <time>2020-03-05T08:07:55.751Z</time>
      </trkpt>
      <trkpt lat="42.2726" lon="2.46389">
        <ele>757.2</ele>
        <time>2020-03-05T08:08:02.765Z</time>
      </trkpt>
      <trkpt lat="42.27261" lon="2.46399">
        <ele>758.6</ele>
        <time>2020-03-05T08:08:11.276Z</time>
      </trkpt>
      <trkpt lat="42.27262" lon="2.46409">
        <ele>760.2</ele>
        <time>2020-03-05T08:08:19.791Z</time>
      </trkpt>
      <trkpt lat="42.27266" lon="2.46407">
        <ele>762.1</ele>
        <time>2020-03-05T08:08:24.686Z</time>
      </trkpt>
      <trkpt lat="42.27268" lon="2.46412">
        <ele>763.1</ele>
        <time>2020-03-05T08:08:29.288Z</time>
      </trkpt>
      <trkpt lat="42.27272" lon="2.46422">
        <ele>765.9</ele>
        <time>2020-03-05T08:08:39.127Z</time>
      </trkpt>
      <trkpt lat="42.27276" lon="2.4642">
        <ele>767.4</ele>
        <time>2020-03-05T08:08:43.619Z</time>
      </trkpt>
      <trkpt lat="42.27276" lon="2.4642">
        <ele>767.3</ele>
        <time>2020-03-05T08:08:44.085Z</time>
      </trkpt>
      <trkpt lat="42.27279" lon="2.46421">
        <ele>768.3</ele>
        <time>2020-03-05T08:08:47.030Z</time>
      </trkpt>
      <trkpt lat="42.27278" lon="2.46425">
        <ele>768.8</ele>
        <time>2020-03-05T08:08:50.572Z</time>
      </trkpt>
      <trkpt lat="42.27283" lon="2.46435">
        <ele>770.7</ele>
        <time>2020-03-05T08:09:00.193Z</time>
      </trkpt>
      <trkpt lat="42.27286" lon="2.46445">
        <ele>773</ele>
        <time>2020-03-05T08:09:08.768Z</time>
      </trkpt>
      <trkpt lat="42.2729" lon="2.46447">
        <ele>776</ele>
        <time>2020-03-05T08:09:15.100Z</time>
      </trkpt>
      <trkpt lat="42.27295" lon="2.46451">
        <ele>776.9</ele>
        <time>2020-03-05T08:09:21.004Z</time>
      </trkpt>
      <trkpt lat="42.27296" lon="2.46451">
        <ele>777</ele>
        <time>2020-03-05T08:09:22.100Z</time>
      </trkpt>
      <trkpt lat="42.27299" lon="2.46455">
        <ele>778.3</ele>
        <time>2020-03-05T08:09:26.826Z</time>
      </trkpt>
      <trkpt lat="42.27302" lon="2.46449">
        <ele>780.3</ele>
        <time>2020-03-05T08:09:32.530Z</time>
      </trkpt>
      <trkpt lat="42.27303" lon="2.46451">
        <ele>780.7</ele>
        <time>2020-03-05T08:09:34.202Z</time>
      </trkpt>
      <trkpt lat="42.27303" lon="2.46452">
        <ele>780.7</ele>
        <time>2020-03-05T08:09:34.776Z</time>
      </trkpt>
      <trkpt lat="42.27306" lon="2.46455">
        <ele>781.7</ele>
        <time>2020-03-05T08:09:38.529Z</time>
      </trkpt>
      <trkpt lat="42.27309" lon="2.46456">
        <ele>785.1</ele>
        <time>2020-03-05T08:09:43.912Z</time>
      </trkpt>
      <trkpt lat="42.27312" lon="2.46458">
        <ele>784.1</ele>
        <time>2020-03-05T08:09:47.025Z</time>
      </trkpt>
      <trkpt lat="42.27318" lon="2.46461">
        <ele>786.5</ele>
        <time>2020-03-05T08:09:54.287Z</time>
      </trkpt>
      <trkpt lat="42.27325" lon="2.46462">
        <ele>789.4</ele>
        <time>2020-03-05T08:10:03.203Z</time>
      </trkpt>
      <trkpt lat="42.27329" lon="2.46466">
        <ele>791.7</ele>
        <time>2020-03-05T08:10:08.710Z</time>
      </trkpt>
      <trkpt lat="42.27336" lon="2.4647">
        <ele>793.3</ele>
        <time>2020-03-05T08:10:16.881Z</time>
      </trkpt>
      <trkpt lat="42.27338" lon="2.46472">
        <ele>795.7</ele>
        <time>2020-03-05T08:10:20.584Z</time>
      </trkpt>
      <trkpt lat="42.27339" lon="2.46472">
        <ele>796.3</ele>
        <time>2020-03-05T08:10:21.834Z</time>
      </trkpt>
      <trkpt lat="42.27342" lon="2.46476">
        <ele>798</ele>
        <time>2020-03-05T08:10:26.982Z</time>
      </trkpt>
      <trkpt lat="42.2735" lon="2.4648">
        <ele>800.4</ele>
        <time>2020-03-05T08:10:36.000Z</time>
      </trkpt>
      <trkpt lat="42.27354" lon="2.4648">
        <ele>802</ele>
        <time>2020-03-05T08:10:40.918Z</time>
      </trkpt>
      <trkpt lat="42.2736" lon="2.46487">
        <ele>804</ele>
        <time>2020-03-05T08:10:49.439Z</time>
      </trkpt>
      <trkpt lat="42.27366" lon="2.46488">
        <ele>806.7</ele>
        <time>2020-03-05T08:10:56.513Z</time>
      </trkpt>
      <trkpt lat="42.27368" lon="2.46487">
        <ele>807.7</ele>
        <time>2020-03-05T08:10:58.839Z</time>
      </trkpt>
      <trkpt lat="42.27369" lon="2.46488">
        <ele>807.7</ele>
        <time>2020-03-05T08:11:00.538Z</time>
      </trkpt>
      <trkpt lat="42.27368" lon="2.46489">
        <ele>808.1</ele>
        <time>2020-03-05T08:11:01.440Z</time>
      </trkpt>
      <trkpt lat="42.27368" lon="2.46489">
        <ele>808.1</ele>
        <time>2020-03-05T08:11:01.883Z</time>
      </trkpt>
      <trkpt lat="42.27366" lon="2.4649">
        <ele>808.3</ele>
        <time>2020-03-05T08:11:03.863Z</time>
      </trkpt>
      <trkpt lat="42.2737" lon="2.46485">
        <ele>809.7</ele>
        <time>2020-03-05T08:11:09.602Z</time>
      </trkpt>
      <trkpt lat="42.27373" lon="2.46485">
        <ele>811.2</ele>
        <time>2020-03-05T08:11:12.547Z</time>
      </trkpt>
      <trkpt lat="42.27378" lon="2.46487">
        <ele>814.5</ele>
        <time>2020-03-05T08:11:19.357Z</time>
      </trkpt>
      <trkpt lat="42.27383" lon="2.46492">
        <ele>814.4</ele>
        <time>2020-03-05T08:11:26.422Z</time>
      </trkpt>
      <trkpt lat="42.27385" lon="2.46491">
        <ele>817.9</ele>
        <time>2020-03-05T08:11:30.601Z</time>
      </trkpt>
      <trkpt lat="42.27388" lon="2.46492">
        <ele>814.5</ele>
        <time>2020-03-05T08:11:35.503Z</time>
      </trkpt>
      <trkpt lat="42.27389" lon="2.46492">
        <ele>819.6</ele>
        <time>2020-03-05T08:11:40.520Z</time>
      </trkpt>
      <trkpt lat="42.2739" lon="2.46493">
        <ele>815.9</ele>
        <time>2020-03-05T08:11:44.373Z</time>
      </trkpt>
      <trkpt lat="42.27394" lon="2.46495">
        <ele>819.2</ele>
        <time>2020-03-05T08:11:50.043Z</time>
      </trkpt>
      <trkpt lat="42.27399" lon="2.46497">
        <ele>820.6</ele>
        <time>2020-03-05T08:11:55.292Z</time>
      </trkpt>
      <trkpt lat="42.27405" lon="2.46501">
        <ele>822</ele>
        <time>2020-03-05T08:12:02.930Z</time>
      </trkpt>
      <trkpt lat="42.2741" lon="2.46504">
        <ele>825</ele>
        <time>2020-03-05T08:12:09.636Z</time>
      </trkpt>
      <trkpt lat="42.27414" lon="2.46508">
        <ele>828.3</ele>
        <time>2020-03-05T08:12:15.867Z</time>
      </trkpt>
      <trkpt lat="42.27419" lon="2.4651">
        <ele>829.8</ele>
        <time>2020-03-05T08:12:22.027Z</time>
      </trkpt>
      <trkpt lat="42.27422" lon="2.46512">
        <ele>831.3</ele>
        <time>2020-03-05T08:12:25.740Z</time>
      </trkpt>
      <trkpt lat="42.27429" lon="2.46509">
        <ele>833.8</ele>
        <time>2020-03-05T08:12:34.084Z</time>
      </trkpt>
      <trkpt lat="42.27434" lon="2.46501">
        <ele>836</ele>
        <time>2020-03-05T08:12:43.177Z</time>
      </trkpt>
      <trkpt lat="42.27439" lon="2.46501">
        <ele>839.5</ele>
        <time>2020-03-05T08:12:49.451Z</time>
      </trkpt>
      <trkpt lat="42.27439" lon="2.46501">
        <ele>833.7</ele>
        <time>2020-03-05T08:12:55.078Z</time>
      </trkpt>
      <trkpt lat="42.27439" lon="2.46501">
        <ele>844.7</ele>
        <time>2020-03-05T08:13:05.776Z</time>
      </trkpt>
      <trkpt lat="42.27439" lon="2.46501">
        <ele>839.8</ele>
        <time>2020-03-05T08:13:10.536Z</time>
      </trkpt>
      <trkpt lat="42.27442" lon="2.46503">
        <ele>840.3</ele>
        <time>2020-03-05T08:13:14.030Z</time>
      </trkpt>
      <trkpt lat="42.27447" lon="2.46507">
        <ele>842.7</ele>
        <time>2020-03-05T08:13:20.658Z</time>
      </trkpt>
      <trkpt lat="42.27448" lon="2.46507">
        <ele>843.7</ele>
        <time>2020-03-05T08:13:22.341Z</time>
      </trkpt>
      <trkpt lat="42.27454" lon="2.46509">
        <ele>844.8</ele>
        <time>2020-03-05T08:13:28.796Z</time>
      </trkpt>
      <trkpt lat="42.27459" lon="2.46513">
        <ele>846.2</ele>
        <time>2020-03-05T08:13:35.388Z</time>
      </trkpt>
      <trkpt lat="42.27461" lon="2.46514">
        <ele>846.3</ele>
        <time>2020-03-05T08:13:37.389Z</time>
      </trkpt>
      <trkpt lat="42.27465" lon="2.46516">
        <ele>848.5</ele>
        <time>2020-03-05T08:13:42.803Z</time>
      </trkpt>
      <trkpt lat="42.27465" lon="2.46516">
        <ele>847.2</ele>
        <time>2020-03-05T08:13:44.142Z</time>
      </trkpt>
      <trkpt lat="42.27465" lon="2.46517">
        <ele>843.2</ele>
        <time>2020-03-05T08:13:47.998Z</time>
      </trkpt>
      <trkpt lat="42.27465" lon="2.46517">
        <ele>851.8</ele>
        <time>2020-03-05T08:13:56.376Z</time>
      </trkpt>
      <trkpt lat="42.27465" lon="2.46517">
        <ele>848.6</ele>
        <time>2020-03-05T08:13:59.496Z</time>
      </trkpt>
      <trkpt lat="42.27468" lon="2.46517">
        <ele>848.9</ele>
        <time>2020-03-05T08:14:02.379Z</time>
      </trkpt>
      <trkpt lat="42.27473" lon="2.46522">
        <ele>851.3</ele>
        <time>2020-03-05T08:14:09.031Z</time>
      </trkpt>
      <trkpt lat="42.27479" lon="2.46524">
        <ele>852.8</ele>
        <time>2020-03-05T08:14:16.573Z</time>
      </trkpt>
      <trkpt lat="42.27482" lon="2.46525">
        <ele>855.3</ele>
        <time>2020-03-05T08:14:20.706Z</time>
      </trkpt>
      <trkpt lat="42.27487" lon="2.46526">
        <ele>858.1</ele>
        <time>2020-03-05T08:14:26.178Z</time>
      </trkpt>
      <trkpt lat="42.2749" lon="2.46522">
        <ele>860</ele>
        <time>2020-03-05T08:14:31.748Z</time>
      </trkpt>
      <trkpt lat="42.27492" lon="2.46516">
        <ele>861.6</ele>
        <time>2020-03-05T08:14:37.312Z</time>
      </trkpt>
      <trkpt lat="42.27498" lon="2.46518">
        <ele>863.4</ele>
        <time>2020-03-05T08:14:44.130Z</time>
      </trkpt>
      <trkpt lat="42.275" lon="2.46516">
        <ele>866.4</ele>
        <time>2020-03-05T08:14:48.582Z</time>
      </trkpt>
      <trkpt lat="42.27502" lon="2.46514">
        <ele>868.2</ele>
        <time>2020-03-05T08:14:51.690Z</time>
      </trkpt>
      <trkpt lat="42.27504" lon="2.46504">
        <ele>870.1</ele>
        <time>2020-03-05T08:14:59.512Z</time>
      </trkpt>
      <trkpt lat="42.27508" lon="2.46498">
        <ele>872.1</ele>
        <time>2020-03-05T08:15:06.892Z</time>
      </trkpt>
      <trkpt lat="42.27508" lon="2.46499">
        <ele>872.5</ele>
        <time>2020-03-05T08:15:08.034Z</time>
      </trkpt>
      <trkpt lat="42.27508" lon="2.46501">
        <ele>872.1</ele>
        <time>2020-03-05T08:15:09.701Z</time>
      </trkpt>
      <trkpt lat="42.27507" lon="2.46511">
        <ele>869.1</ele>
        <time>2020-03-05T08:15:18.200Z</time>
      </trkpt>
      <trkpt lat="42.27509" lon="2.46516">
        <ele>869.6</ele>
        <time>2020-03-05T08:15:22.795Z</time>
      </trkpt>
      <trkpt lat="42.2751" lon="2.46515">
        <ele>870.8</ele>
        <time>2020-03-05T08:15:24.651Z</time>
      </trkpt>
      <trkpt lat="42.2751" lon="2.46517">
        <ele>871</ele>
        <time>2020-03-05T08:15:26.588Z</time>
      </trkpt>
      <trkpt lat="42.27514" lon="2.46525">
        <ele>871.5</ele>
        <time>2020-03-05T08:15:34.147Z</time>
      </trkpt>
      <trkpt lat="42.27517" lon="2.46527">
        <ele>872.2</ele>
        <time>2020-03-05T08:15:38.371Z</time>
      </trkpt>
      <trkpt lat="42.27518" lon="2.46532">
        <ele>872.6</ele>
        <time>2020-03-05T08:15:42.604Z</time>
      </trkpt>
      <trkpt lat="42.27521" lon="2.46536">
        <ele>872.6</ele>
        <time>2020-03-05T08:15:47.159Z</time>
      </trkpt>
      <trkpt lat="42.27528" lon="2.46544">
        <ele>873.9</ele>
        <time>2020-03-05T08:15:57.285Z</time>
      </trkpt>
      <trkpt lat="42.27528" lon="2.46547">
        <ele>874.9</ele>
        <time>2020-03-05T08:16:00.164Z</time>
      </trkpt>
      <trkpt lat="42.27532" lon="2.46549">
        <ele>878.4</ele>
        <time>2020-03-05T08:16:06.072Z</time>
      </trkpt>
      <trkpt lat="42.27544" lon="2.46555">
        <ele>881.2</ele>
        <time>2020-03-05T08:16:19.386Z</time>
      </trkpt>
      <trkpt lat="42.27545" lon="2.46555">
        <ele>881.7</ele>
        <time>2020-03-05T08:16:21.402Z</time>
      </trkpt>
      <trkpt lat="42.27548" lon="2.46555">
        <ele>883.2</ele>
        <time>2020-03-05T08:16:24.365Z</time>
      </trkpt>
      <trkpt lat="42.2755" lon="2.46558">
        <ele>884.2</ele>
        <time>2020-03-05T08:16:27.871Z</time>
      </trkpt>
      <trkpt lat="42.27553" lon="2.46567">
        <ele>875</ele>
        <time>2020-03-05T08:16:39.724Z</time>
      </trkpt>
      <trkpt lat="42.27552" lon="2.46567">
        <ele>886</ele>
        <time>2020-03-05T08:16:50.399Z</time>
      </trkpt>
      <trkpt lat="42.27553" lon="2.46568">
        <ele>893.8</ele>
        <time>2020-03-05T08:16:57.989Z</time>
      </trkpt>
      <trkpt lat="42.27553" lon="2.46569">
        <ele>887.1</ele>
        <time>2020-03-05T08:17:04.533Z</time>
      </trkpt>
      <trkpt lat="42.27555" lon="2.46577">
        <ele>887.6</ele>
        <time>2020-03-05T08:17:11.041Z</time>
      </trkpt>
      <trkpt lat="42.27558" lon="2.46578">
        <ele>890.8</ele>
        <time>2020-03-05T08:17:15.617Z</time>
      </trkpt>
      <trkpt lat="42.27568" lon="2.46583">
        <ele>892.2</ele>
        <time>2020-03-05T08:17:27.423Z</time>
      </trkpt>
      <trkpt lat="42.27575" lon="2.46586">
        <ele>894.8</ele>
        <time>2020-03-05T08:17:35.312Z</time>
      </trkpt>
      <trkpt lat="42.27579" lon="2.4659">
        <ele>896.5</ele>
        <time>2020-03-05T08:17:40.720Z</time>
      </trkpt>
      <trkpt lat="42.27581" lon="2.46591">
        <ele>898.9</ele>
        <time>2020-03-05T08:17:44.061Z</time>
      </trkpt>
      <trkpt lat="42.27588" lon="2.46598">
        <ele>900.6</ele>
        <time>2020-03-05T08:17:53.801Z</time>
      </trkpt>
      <trkpt lat="42.27593" lon="2.46605">
        <ele>902.4</ele>
        <time>2020-03-05T08:18:01.693Z</time>
      </trkpt>
      <trkpt lat="42.27592" lon="2.46612">
        <ele>902.8</ele>
        <time>2020-03-05T08:18:07.249Z</time>
      </trkpt>
      <trkpt lat="42.27594" lon="2.46622">
        <ele>904.7</ele>
        <time>2020-03-05T08:18:15.779Z</time>
      </trkpt>
      <trkpt lat="42.27596" lon="2.46626">
        <ele>904.8</ele>
        <time>2020-03-05T08:18:19.623Z</time>
      </trkpt>
      <trkpt lat="42.276" lon="2.46631">
        <ele>904.7</ele>
        <time>2020-03-05T08:18:25.723Z</time>
      </trkpt>
      <trkpt lat="42.27609" lon="2.46634">
        <ele>907.1</ele>
        <time>2020-03-05T08:18:35.790Z</time>
      </trkpt>
      <trkpt lat="42.2761" lon="2.46632">
        <ele>908.1</ele>
        <time>2020-03-05T08:18:37.584Z</time>
      </trkpt>
      <trkpt lat="42.27618" lon="2.46637">
        <ele>908.2</ele>
        <time>2020-03-05T08:18:47.048Z</time>
      </trkpt>
      <trkpt lat="42.27626" lon="2.46642">
        <ele>908.6</ele>
        <time>2020-03-05T08:18:56.983Z</time>
      </trkpt>
      <trkpt lat="42.27635" lon="2.46649">
        <ele>909</ele>
        <time>2020-03-05T08:19:07.840Z</time>
      </trkpt>
      <trkpt lat="42.27639" lon="2.46654">
        <ele>910.1</ele>
        <time>2020-03-05T08:19:14.134Z</time>
      </trkpt>
      <trkpt lat="42.27648" lon="2.46661">
        <ele>910.7</ele>
        <time>2020-03-05T08:19:25.537Z</time>
      </trkpt>
      <trkpt lat="42.2766" lon="2.46662">
        <ele>913</ele>
        <time>2020-03-05T08:19:38.097Z</time>
      </trkpt>
      <trkpt lat="42.27666" lon="2.46667">
        <ele>914.4</ele>
        <time>2020-03-05T08:19:45.934Z</time>
      </trkpt>
      <trkpt lat="42.27673" lon="2.4667">
        <ele>915.5</ele>
        <time>2020-03-05T08:19:54.705Z</time>
      </trkpt>
      <trkpt lat="42.27684" lon="2.46676">
        <ele>916.4</ele>
        <time>2020-03-05T08:20:07.394Z</time>
      </trkpt>
      <trkpt lat="42.2769" lon="2.46674">
        <ele>917.7</ele>
        <time>2020-03-05T08:20:13.942Z</time>
      </trkpt>
      <trkpt lat="42.27697" lon="2.46672">
        <ele>921.1</ele>
        <time>2020-03-05T08:20:22.288Z</time>
      </trkpt>
      <trkpt lat="42.27698" lon="2.46673">
        <ele>921.1</ele>
        <time>2020-03-05T08:20:23.877Z</time>
      </trkpt>
      <trkpt lat="42.27703" lon="2.46682">
        <ele>920.1</ele>
        <time>2020-03-05T08:20:32.165Z</time>
      </trkpt>
      <trkpt lat="42.27719" lon="2.46702">
        <ele>872.3</ele>
        <time>2020-03-05T08:21:24.459Z</time>
      </trkpt>
      <trkpt lat="42.27714" lon="2.46714">
        <ele>870.8</ele>
        <time>2020-03-05T08:21:36.430Z</time>
      </trkpt>
      <trkpt lat="42.27711" lon="2.46715">
        <ele>867.6</ele>
        <time>2020-03-05T08:21:40.922Z</time>
      </trkpt>
      <trkpt lat="42.27707" lon="2.46714">
        <ele>864.4</ele>
        <time>2020-03-05T08:21:46.250Z</time>
      </trkpt>
      <trkpt lat="42.27698" lon="2.46728">
        <ele>861.1</ele>
        <time>2020-03-05T08:22:01.110Z</time>
      </trkpt>
      <trkpt lat="42.2769" lon="2.4675">
        <ele>858.2</ele>
        <time>2020-03-05T08:22:21.050Z</time>
      </trkpt>
      <trkpt lat="42.2769" lon="2.46762">
        <ele>855.1</ele>
        <time>2020-03-05T08:22:30.627Z</time>
      </trkpt>
      <trkpt lat="42.2769" lon="2.46777">
        <ele>851.7</ele>
        <time>2020-03-05T08:22:43.317Z</time>
      </trkpt>
      <trkpt lat="42.27688" lon="2.4679">
        <ele>851.2</ele>
        <time>2020-03-05T08:22:54.304Z</time>
      </trkpt>
      <trkpt lat="42.27689" lon="2.46792">
        <ele>850.8</ele>
        <time>2020-03-05T08:22:55.976Z</time>
      </trkpt>
      <trkpt lat="42.27696" lon="2.468">
        <ele>850.8</ele>
        <time>2020-03-05T08:23:05.583Z</time>
      </trkpt>
      <trkpt lat="42.27703" lon="2.46802">
        <ele>851.3</ele>
        <time>2020-03-05T08:23:13.313Z</time>
      </trkpt>
      <trkpt lat="42.27715" lon="2.46788">
        <ele>850</ele>
        <time>2020-03-05T08:23:30.270Z</time>
      </trkpt>
      <trkpt lat="42.27743" lon="2.46777">
        <ele>847</ele>
        <time>2020-03-05T08:24:02.144Z</time>
      </trkpt>
      <trkpt lat="42.2777" lon="2.46782">
        <ele>843.8</ele>
        <time>2020-03-05T08:24:31.886Z</time>
      </trkpt>
      <trkpt lat="42.27789" lon="2.46782">
        <ele>842.7</ele>
        <time>2020-03-05T08:24:52.138Z</time>
      </trkpt>
      <trkpt lat="42.27801" lon="2.46788">
        <ele>839.6</ele>
        <time>2020-03-05T08:25:06.268Z</time>
      </trkpt>
      <trkpt lat="42.27839" lon="2.46796">
        <ele>836.5</ele>
        <time>2020-03-05T08:25:47.981Z</time>
      </trkpt>
      <trkpt lat="42.27861" lon="2.46792">
        <ele>833.7</ele>
        <time>2020-03-05T08:26:12.688Z</time>
      </trkpt>
      <trkpt lat="42.27872" lon="2.46795">
        <ele>830.5</ele>
        <time>2020-03-05T08:26:24.830Z</time>
      </trkpt>
      <trkpt lat="42.27881" lon="2.46803">
        <ele>827.3</ele>
        <time>2020-03-05T08:26:36.611Z</time>
      </trkpt>
      <trkpt lat="42.27883" lon="2.46804">
        <ele>826.9</ele>
        <time>2020-03-05T08:26:39.537Z</time>
      </trkpt>
      <trkpt lat="42.27888" lon="2.46804">
        <ele>825.9</ele>
        <time>2020-03-05T08:26:44.923Z</time>
      </trkpt>
      <trkpt lat="42.27894" lon="2.46803">
        <ele>822.7</ele>
        <time>2020-03-05T08:26:52.538Z</time>
      </trkpt>
      <trkpt lat="42.27914" lon="2.46813">
        <ele>821.2</ele>
        <time>2020-03-05T08:27:15.390Z</time>
      </trkpt>
      <trkpt lat="42.27928" lon="2.46815">
        <ele>819.7</ele>
        <time>2020-03-05T08:27:30.083Z</time>
      </trkpt>
      <trkpt lat="42.27944" lon="2.46823">
        <ele>816.5</ele>
        <time>2020-03-05T08:27:49.111Z</time>
      </trkpt>
      <trkpt lat="42.2795" lon="2.46824">
        <ele>815.5</ele>
        <time>2020-03-05T08:27:55.222Z</time>
      </trkpt>
      <trkpt lat="42.27964" lon="2.46842">
        <ele>814</ele>
        <time>2020-03-05T08:28:15.794Z</time>
      </trkpt>
      <trkpt lat="42.27975" lon="2.46848">
        <ele>814.6</ele>
        <time>2020-03-05T08:28:29.562Z</time>
      </trkpt>
      <trkpt lat="42.27979" lon="2.46848">
        <ele>814.6</ele>
        <time>2020-03-05T08:28:32.914Z</time>
      </trkpt>
      <trkpt lat="42.27999" lon="2.46862">
        <ele>814.8</ele>
        <time>2020-03-05T08:28:57.594Z</time>
      </trkpt>
      <trkpt lat="42.28006" lon="2.46867">
        <ele>815</ele>
        <time>2020-03-05T08:29:05.826Z</time>
      </trkpt>
      <trkpt lat="42.28009" lon="2.46869">
        <ele>815</ele>
        <time>2020-03-05T08:29:09.774Z</time>
      </trkpt>
      <trkpt lat="42.28015" lon="2.46871">
        <ele>815.4</ele>
        <time>2020-03-05T08:29:16.493Z</time>
      </trkpt>
      <trkpt lat="42.28037" lon="2.46876">
        <ele>816.7</ele>
        <time>2020-03-05T08:29:41.029Z</time>
      </trkpt>
      <trkpt lat="42.28064" lon="2.46885">
        <ele>816.8</ele>
        <time>2020-03-05T08:30:10.516Z</time>
      </trkpt>
      <trkpt lat="42.28084" lon="2.46895">
        <ele>817.3</ele>
        <time>2020-03-05T08:30:33.941Z</time>
      </trkpt>
      <trkpt lat="42.28107" lon="2.46902">
        <ele>817.7</ele>
        <time>2020-03-05T08:30:59.556Z</time>
      </trkpt>
      <trkpt lat="42.28131" lon="2.46914">
        <ele>819.4</ele>
        <time>2020-03-05T08:31:26.862Z</time>
      </trkpt>
      <trkpt lat="42.28147" lon="2.46926">
        <ele>818.2</ele>
        <time>2020-03-05T08:31:46.894Z</time>
      </trkpt>
      <trkpt lat="42.28153" lon="2.4694">
        <ele>815.3</ele>
        <time>2020-03-05T08:32:00.146Z</time>
      </trkpt>
      <trkpt lat="42.28157" lon="2.4695">
        <ele>812.3</ele>
        <time>2020-03-05T08:32:09.635Z</time>
      </trkpt>
      <trkpt lat="42.28171" lon="2.46976">
        <ele>809.3</ele>
        <time>2020-03-05T08:32:35.360Z</time>
      </trkpt>
      <trkpt lat="42.28194" lon="2.46992">
        <ele>808.6</ele>
        <time>2020-03-05T08:33:03.354Z</time>
      </trkpt>
      <trkpt lat="42.28211" lon="2.46997">
        <ele>809.1</ele>
        <time>2020-03-05T08:33:22.021Z</time>
      </trkpt>
      <trkpt lat="42.28222" lon="2.47014">
        <ele>806.6</ele>
        <time>2020-03-05T08:33:40.464Z</time>
      </trkpt>
      <trkpt lat="42.28242" lon="2.47029">
        <ele>806.9</ele>
        <time>2020-03-05T08:34:05.490Z</time>
      </trkpt>
      <trkpt lat="42.28258" lon="2.4704">
        <ele>808.1</ele>
        <time>2020-03-05T08:34:25.070Z</time>
      </trkpt>
      <trkpt lat="42.28284" lon="2.47044">
        <ele>810.2</ele>
        <time>2020-03-05T08:34:52.584Z</time>
      </trkpt>
      <trkpt lat="42.28298" lon="2.47054">
        <ele>808.8</ele>
        <time>2020-03-05T08:35:09.470Z</time>
      </trkpt>
      <trkpt lat="42.2831" lon="2.47062">
        <ele>808.6</ele>
        <time>2020-03-05T08:35:25.093Z</time>
      </trkpt>
      <trkpt lat="42.28323" lon="2.47073">
        <ele>809.2</ele>
        <time>2020-03-05T08:35:41.001Z</time>
      </trkpt>
      <trkpt lat="42.28344" lon="2.47071">
        <ele>811.1</ele>
        <time>2020-03-05T08:36:03.929Z</time>
      </trkpt>
      <trkpt lat="42.28356" lon="2.47068">
        <ele>811.6</ele>
        <time>2020-03-05T08:36:17.006Z</time>
      </trkpt>
      <trkpt lat="42.28368" lon="2.47064">
        <ele>812</ele>
        <time>2020-03-05T08:36:30.323Z</time>
      </trkpt>
      <trkpt lat="42.28387" lon="2.47056">
        <ele>813.5</ele>
        <time>2020-03-05T08:36:52.076Z</time>
      </trkpt>
      <trkpt lat="42.28397" lon="2.47049">
        <ele>816.8</ele>
        <time>2020-03-05T08:37:04.884Z</time>
      </trkpt>
      <trkpt lat="42.28406" lon="2.47047">
        <ele>818.9</ele>
        <time>2020-03-05T08:37:14.989Z</time>
      </trkpt>
      <trkpt lat="42.28409" lon="2.47046">
        <ele>819.3</ele>
        <time>2020-03-05T08:37:17.774Z</time>
      </trkpt>
      <trkpt lat="42.28418" lon="2.47038">
        <ele>819.2</ele>
        <time>2020-03-05T08:37:29.654Z</time>
      </trkpt>
      <trkpt lat="42.28419" lon="2.47038">
        <ele>819.3</ele>
        <time>2020-03-05T08:37:30.969Z</time>
      </trkpt>
      <trkpt lat="42.28437" lon="2.4704">
        <ele>820</ele>
        <time>2020-03-05T08:37:49.781Z</time>
      </trkpt>
      <trkpt lat="42.28456" lon="2.47044">
        <ele>819.7</ele>
        <time>2020-03-05T08:38:11.523Z</time>
      </trkpt>
      <trkpt lat="42.28462" lon="2.47053">
        <ele>819.3</ele>
        <time>2020-03-05T08:38:20.861Z</time>
      </trkpt>
      <trkpt lat="42.28475" lon="2.47072">
        <ele>817</ele>
        <time>2020-03-05T08:38:41.957Z</time>
      </trkpt>
      <trkpt lat="42.28478" lon="2.47079">
        <ele>816.5</ele>
        <time>2020-03-05T08:38:48.224Z</time>
      </trkpt>
      <trkpt lat="42.28482" lon="2.47087">
        <ele>815.9</ele>
        <time>2020-03-05T08:38:55.976Z</time>
      </trkpt>
      <trkpt lat="42.28484" lon="2.47093">
        <ele>815.5</ele>
        <time>2020-03-05T08:39:01.574Z</time>
      </trkpt>
      <trkpt lat="42.28485" lon="2.471">
        <ele>814.7</ele>
        <time>2020-03-05T08:39:07.127Z</time>
      </trkpt>
      <trkpt lat="42.28485" lon="2.47101">
        <ele>814.7</ele>
        <time>2020-03-05T08:39:08.305Z</time>
      </trkpt>
      <trkpt lat="42.28501" lon="2.4712">
        <ele>814.6</ele>
        <time>2020-03-05T08:39:30.488Z</time>
      </trkpt>
      <trkpt lat="42.28514" lon="2.47138">
        <ele>813.5</ele>
        <time>2020-03-05T08:39:51.177Z</time>
      </trkpt>
      <trkpt lat="42.28522" lon="2.47157">
        <ele>810.8</ele>
        <time>2020-03-05T08:40:08.640Z</time>
      </trkpt>
      <trkpt lat="42.28529" lon="2.47176">
        <ele>808.1</ele>
        <time>2020-03-05T08:40:25.840Z</time>
      </trkpt>
      <trkpt lat="42.28529" lon="2.4718">
        <ele>807.9</ele>
        <time>2020-03-05T08:40:29.439Z</time>
      </trkpt>
      <trkpt lat="42.2853" lon="2.47181">
        <ele>807.7</ele>
        <time>2020-03-05T08:40:30.690Z</time>
      </trkpt>
      <trkpt lat="42.28526" lon="2.47182">
        <ele>807.6</ele>
        <time>2020-03-05T08:40:34.612Z</time>
      </trkpt>
      <trkpt lat="42.28512" lon="2.47194">
        <ele>804.4</ele>
        <time>2020-03-05T08:40:52.861Z</time>
      </trkpt>
      <trkpt lat="42.28514" lon="2.47208">
        <ele>802.7</ele>
        <time>2020-03-05T08:41:04.825Z</time>
      </trkpt>
      <trkpt lat="42.28518" lon="2.47216">
        <ele>801.7</ele>
        <time>2020-03-05T08:41:12.372Z</time>
      </trkpt>
      <trkpt lat="42.28522" lon="2.47222">
        <ele>800.8</ele>
        <time>2020-03-05T08:41:19.464Z</time>
      </trkpt>
      <trkpt lat="42.28534" lon="2.47235">
        <ele>798.6</ele>
        <time>2020-03-05T08:41:35.768Z</time>
      </trkpt>
      <trkpt lat="42.28542" lon="2.47256">
        <ele>797.8</ele>
        <time>2020-03-05T08:41:54.792Z</time>
      </trkpt>
      <trkpt lat="42.28541" lon="2.47291">
        <ele>796</ele>
        <time>2020-03-05T08:42:22.976Z</time>
      </trkpt>
      <trkpt lat="42.28534" lon="2.47319">
        <ele>793.5</ele>
        <time>2020-03-05T08:42:45.877Z</time>
      </trkpt>
      <trkpt lat="42.28531" lon="2.47325">
        <ele>792.3</ele>
        <time>2020-03-05T08:42:51.855Z</time>
      </trkpt>
      <trkpt lat="42.28519" lon="2.47344">
        <ele>790</ele>
        <time>2020-03-05T08:43:12.145Z</time>
      </trkpt>
      <trkpt lat="42.28516" lon="2.47348">
        <ele>790.2</ele>
        <time>2020-03-05T08:43:17.257Z</time>
      </trkpt>
      <trkpt lat="42.28516" lon="2.4735">
        <ele>790.1</ele>
        <time>2020-03-05T08:43:18.773Z</time>
      </trkpt>
      <trkpt lat="42.28514" lon="2.47353">
        <ele>788.3</ele>
        <time>2020-03-05T08:43:22.114Z</time>
      </trkpt>
      <trkpt lat="42.28503" lon="2.47372">
        <ele>785.8</ele>
        <time>2020-03-05T08:43:41.568Z</time>
      </trkpt>
      <trkpt lat="42.28499" lon="2.47378">
        <ele>784.9</ele>
        <time>2020-03-05T08:43:48.336Z</time>
      </trkpt>
      <trkpt lat="42.28492" lon="2.4738">
        <ele>783.4</ele>
        <time>2020-03-05T08:43:56.028Z</time>
      </trkpt>
      <trkpt lat="42.28477" lon="2.47396">
        <ele>779.9</ele>
        <time>2020-03-05T08:44:16.999Z</time>
      </trkpt>
      <trkpt lat="42.28482" lon="2.47425">
        <ele>777.6</ele>
        <time>2020-03-05T08:44:40.843Z</time>
      </trkpt>
      <trkpt lat="42.28481" lon="2.4743">
        <ele>777.8</ele>
        <time>2020-03-05T08:44:44.274Z</time>
      </trkpt>
      <trkpt lat="42.28483" lon="2.47431">
        <ele>777.6</ele>
        <time>2020-03-05T08:44:46.490Z</time>
      </trkpt>
      <trkpt lat="42.28484" lon="2.47434">
        <ele>777.4</ele>
        <time>2020-03-05T08:44:49.203Z</time>
      </trkpt>
      <trkpt lat="42.28483" lon="2.47434">
        <ele>777.5</ele>
        <time>2020-03-05T08:44:50.397Z</time>
      </trkpt>
      <trkpt lat="42.28483" lon="2.47434">
        <ele>777.4</ele>
        <time>2020-03-05T08:44:50.503Z</time>
      </trkpt>
      <trkpt lat="42.2847" lon="2.47428">
        <ele>776</ele>
        <time>2020-03-05T08:45:04.899Z</time>
      </trkpt>
      <trkpt lat="42.28466" lon="2.47423">
        <ele>775.2</ele>
        <time>2020-03-05T08:45:11.063Z</time>
      </trkpt>
      <trkpt lat="42.28454" lon="2.47412">
        <ele>774.3</ele>
        <time>2020-03-05T08:45:26.869Z</time>
      </trkpt>
      <trkpt lat="42.28449" lon="2.47407">
        <ele>773.7</ele>
        <time>2020-03-05T08:45:33.733Z</time>
      </trkpt>
      <trkpt lat="42.28437" lon="2.47398">
        <ele>772.6</ele>
        <time>2020-03-05T08:45:49.170Z</time>
      </trkpt>
      <trkpt lat="42.28424" lon="2.47376">
        <ele>769.9</ele>
        <time>2020-03-05T08:46:11.212Z</time>
      </trkpt>
      <trkpt lat="42.28424" lon="2.47373">
        <ele>769.8</ele>
        <time>2020-03-05T08:46:13.876Z</time>
      </trkpt>
      <trkpt lat="42.28421" lon="2.47355">
        <ele>768.2</ele>
        <time>2020-03-05T08:46:28.086Z</time>
      </trkpt>
      <trkpt lat="42.28419" lon="2.47352">
        <ele>767.7</ele>
        <time>2020-03-05T08:46:31.955Z</time>
      </trkpt>
      <trkpt lat="42.28404" lon="2.47348">
        <ele>765.7</ele>
        <time>2020-03-05T08:46:48.874Z</time>
      </trkpt>
      <trkpt lat="42.28387" lon="2.47337">
        <ele>762.4</ele>
        <time>2020-03-05T08:47:09.309Z</time>
      </trkpt>
      <trkpt lat="42.28377" lon="2.47336">
        <ele>760.4</ele>
        <time>2020-03-05T08:47:19.661Z</time>
      </trkpt>
      <trkpt lat="42.28369" lon="2.47324">
        <ele>759.4</ele>
        <time>2020-03-05T08:47:32.540Z</time>
      </trkpt>
      <trkpt lat="42.28366" lon="2.47296">
        <ele>758.5</ele>
        <time>2020-03-05T08:47:54.818Z</time>
      </trkpt>
      <trkpt lat="42.28365" lon="2.47287">
        <ele>758</ele>
        <time>2020-03-05T08:48:02.567Z</time>
      </trkpt>
      <trkpt lat="42.28364" lon="2.47276">
        <ele>757.2</ele>
        <time>2020-03-05T08:48:11.350Z</time>
      </trkpt>
      <trkpt lat="42.28356" lon="2.47261">
        <ele>756.8</ele>
        <time>2020-03-05T08:48:26.065Z</time>
      </trkpt>
      <trkpt lat="42.28351" lon="2.47257">
        <ele>756.3</ele>
        <time>2020-03-05T08:48:32.575Z</time>
      </trkpt>
      <trkpt lat="42.28346" lon="2.47251">
        <ele>755.9</ele>
        <time>2020-03-05T08:48:40.218Z</time>
      </trkpt>
      <trkpt lat="42.28325" lon="2.47231">
        <ele>755.5</ele>
        <time>2020-03-05T08:49:08.287Z</time>
      </trkpt>
      <trkpt lat="42.28306" lon="2.47221">
        <ele>753.7</ele>
        <time>2020-03-05T08:49:30.060Z</time>
      </trkpt>
      <trkpt lat="42.28293" lon="2.47219">
        <ele>751.4</ele>
        <time>2020-03-05T08:49:43.931Z</time>
      </trkpt>
      <trkpt lat="42.28281" lon="2.47213">
        <ele>750.5</ele>
        <time>2020-03-05T08:49:57.772Z</time>
      </trkpt>
      <trkpt lat="42.2827" lon="2.47204">
        <ele>750.9</ele>
        <time>2020-03-05T08:50:11.469Z</time>
      </trkpt>
      <trkpt lat="42.28268" lon="2.47204">
        <ele>750.8</ele>
        <time>2020-03-05T08:50:14.281Z</time>
      </trkpt>
      <trkpt lat="42.28263" lon="2.47201">
        <ele>750.8</ele>
        <time>2020-03-05T08:50:20.369Z</time>
      </trkpt>
      <trkpt lat="42.28261" lon="2.47201">
        <ele>750.5</ele>
        <time>2020-03-05T08:50:21.696Z</time>
      </trkpt>
      <trkpt lat="42.28264" lon="2.47203">
        <ele>750.4</ele>
        <time>2020-03-05T08:50:25.249Z</time>
      </trkpt>
      <trkpt lat="42.28264" lon="2.47203">
        <ele>750.5</ele>
        <time>2020-03-05T08:50:25.804Z</time>
      </trkpt>
      <trkpt lat="42.28263" lon="2.47202">
        <ele>750.3</ele>
        <time>2020-03-05T08:50:27.278Z</time>
      </trkpt>
      <trkpt lat="42.28265" lon="2.472">
        <ele>750.6</ele>
        <time>2020-03-05T08:50:29.730Z</time>
      </trkpt>
      <trkpt lat="42.28263" lon="2.47201">
        <ele>750.6</ele>
        <time>2020-03-05T08:50:32.154Z</time>
      </trkpt>
      <trkpt lat="42.28263" lon="2.47201">
        <ele>750.7</ele>
        <time>2020-03-05T08:50:32.375Z</time>
      </trkpt>
      <trkpt lat="42.28265" lon="2.4721">
        <ele>750.1</ele>
        <time>2020-03-05T08:50:40.279Z</time>
      </trkpt>
      <trkpt lat="42.28267" lon="2.47211">
        <ele>749.7</ele>
        <time>2020-03-05T08:50:42.248Z</time>
      </trkpt>
      <trkpt lat="42.2827" lon="2.4721">
        <ele>747.2</ele>
        <time>2020-03-05T08:50:46.527Z</time>
      </trkpt>
      <trkpt lat="42.28263" lon="2.47203">
        <ele>744</ele>
        <time>2020-03-05T08:50:56.769Z</time>
      </trkpt>
      <trkpt lat="42.28254" lon="2.47205">
        <ele>740.8</ele>
        <time>2020-03-05T08:51:06.468Z</time>
      </trkpt>
      <trkpt lat="42.28244" lon="2.47193">
        <ele>738.1</ele>
        <time>2020-03-05T08:51:21.080Z</time>
      </trkpt>
      <trkpt lat="42.2823" lon="2.4719">
        <ele>734.9</ele>
        <time>2020-03-05T08:51:36.708Z</time>
      </trkpt>
      <trkpt lat="42.28222" lon="2.47192">
        <ele>734.3</ele>
        <time>2020-03-05T08:51:46.015Z</time>
      </trkpt>
      <trkpt lat="42.28217" lon="2.47189">
        <ele>733.6</ele>
        <time>2020-03-05T08:51:51.902Z</time>
      </trkpt>
      <trkpt lat="42.28209" lon="2.47189">
        <ele>732.4</ele>
        <time>2020-03-05T08:52:00.327Z</time>
      </trkpt>
      <trkpt lat="42.28194" lon="2.47196">
        <ele>730.3</ele>
        <time>2020-03-05T08:52:18.193Z</time>
      </trkpt>
      <trkpt lat="42.28187" lon="2.47202">
        <ele>727.2</ele>
        <time>2020-03-05T08:52:26.941Z</time>
      </trkpt>
      <trkpt lat="42.28179" lon="2.47207">
        <ele>724</ele>
        <time>2020-03-05T08:52:37.685Z</time>
      </trkpt>
      <trkpt lat="42.28168" lon="2.47213">
        <ele>720.9</ele>
        <time>2020-03-05T08:52:50.044Z</time>
      </trkpt>
      <trkpt lat="42.28161" lon="2.47217">
        <ele>717.6</ele>
        <time>2020-03-05T08:52:58.880Z</time>
      </trkpt>
      <trkpt lat="42.28157" lon="2.47219">
        <ele>714.3</ele>
        <time>2020-03-05T08:53:05.188Z</time>
      </trkpt>
      <trkpt lat="42.2815" lon="2.47224">
        <ele>711.3</ele>
        <time>2020-03-05T08:53:13.614Z</time>
      </trkpt>
      <trkpt lat="42.28149" lon="2.47233">
        <ele>708.2</ele>
        <time>2020-03-05T08:53:21.861Z</time>
      </trkpt>
      <trkpt lat="42.28149" lon="2.47244">
        <ele>705.1</ele>
        <time>2020-03-05T08:53:31.012Z</time>
      </trkpt>
      <trkpt lat="42.28143" lon="2.47247">
        <ele>702.1</ele>
        <time>2020-03-05T08:53:38.483Z</time>
      </trkpt>
      <trkpt lat="42.28132" lon="2.47248">
        <ele>698.8</ele>
        <time>2020-03-05T08:53:50.120Z</time>
      </trkpt>
      <trkpt lat="42.28118" lon="2.47254">
        <ele>696</ele>
        <time>2020-03-05T08:54:06.390Z</time>
      </trkpt>
      <trkpt lat="42.28113" lon="2.47257">
        <ele>694</ele>
        <time>2020-03-05T08:54:13.424Z</time>
      </trkpt>
      <trkpt lat="42.28109" lon="2.47275">
        <ele>692.3</ele>
        <time>2020-03-05T08:54:27.911Z</time>
      </trkpt>
      <trkpt lat="42.28126" lon="2.47288">
        <ele>689.7</ele>
        <time>2020-03-05T08:54:49.478Z</time>
      </trkpt>
      <trkpt lat="42.28139" lon="2.47297">
        <ele>686.7</ele>
        <time>2020-03-05T08:55:04.942Z</time>
      </trkpt>
      <trkpt lat="42.28138" lon="2.47299">
        <ele>683.2</ele>
        <time>2020-03-05T08:55:08.636Z</time>
      </trkpt>
      <trkpt lat="42.28136" lon="2.47298">
        <ele>682.4</ele>
        <time>2020-03-05T08:55:10.761Z</time>
      </trkpt>
      <trkpt lat="42.28111" lon="2.47309">
        <ele>679</ele>
        <time>2020-03-05T08:55:39.210Z</time>
      </trkpt>
      <trkpt lat="42.2811" lon="2.47309">
        <ele>679</ele>
        <time>2020-03-05T08:55:41.259Z</time>
      </trkpt>
      <trkpt lat="42.28099" lon="2.47323">
        <ele>675.7</ele>
        <time>2020-03-05T08:55:58.007Z</time>
      </trkpt>
      <trkpt lat="42.28087" lon="2.47338">
        <ele>673.5</ele>
        <time>2020-03-05T08:56:15.318Z</time>
      </trkpt>
      <trkpt lat="42.28083" lon="2.47339">
        <ele>673</ele>
        <time>2020-03-05T08:56:19.943Z</time>
      </trkpt>
      <trkpt lat="42.28071" lon="2.47349">
        <ele>670.2</ele>
        <time>2020-03-05T08:56:35.179Z</time>
      </trkpt>
      <trkpt lat="42.28056" lon="2.4736">
        <ele>667.5</ele>
        <time>2020-03-05T08:56:53.664Z</time>
      </trkpt>
      <trkpt lat="42.28051" lon="2.47363">
        <ele>666.3</ele>
        <time>2020-03-05T08:57:00.402Z</time>
      </trkpt>
      <trkpt lat="42.28042" lon="2.47369">
        <ele>665.2</ele>
        <time>2020-03-05T08:57:11.423Z</time>
      </trkpt>
      <trkpt lat="42.28039" lon="2.47372">
        <ele>664.8</ele>
        <time>2020-03-05T08:57:15.432Z</time>
      </trkpt>
      <trkpt lat="42.28031" lon="2.47376">
        <ele>664</ele>
        <time>2020-03-05T08:57:24.093Z</time>
      </trkpt>
      <trkpt lat="42.28026" lon="2.47376">
        <ele>664</ele>
        <time>2020-03-05T08:57:29.171Z</time>
      </trkpt>
      <trkpt lat="42.28025" lon="2.47375">
        <ele>663.7</ele>
        <time>2020-03-05T08:57:31.329Z</time>
      </trkpt>
      <trkpt lat="42.28022" lon="2.47378">
        <ele>662</ele>
        <time>2020-03-05T08:57:35.134Z</time>
      </trkpt>
      <trkpt lat="42.2803" lon="2.47388">
        <ele>661.6</ele>
        <time>2020-03-05T08:57:46.531Z</time>
      </trkpt>
      <trkpt lat="42.2804" lon="2.47391">
        <ele>659.6</ele>
        <time>2020-03-05T08:57:57.791Z</time>
      </trkpt>
      <trkpt lat="42.28048" lon="2.4739">
        <ele>658.9</ele>
        <time>2020-03-05T08:58:06.506Z</time>
      </trkpt>
      <trkpt lat="42.28067" lon="2.47389">
        <ele>657.1</ele>
        <time>2020-03-05T08:58:26.948Z</time>
      </trkpt>
      <trkpt lat="42.28083" lon="2.47389">
        <ele>654.7</ele>
        <time>2020-03-05T08:58:44.521Z</time>
      </trkpt>
      <trkpt lat="42.28082" lon="2.47397">
        <ele>652.6</ele>
        <time>2020-03-05T08:58:51.138Z</time>
      </trkpt>
      <trkpt lat="42.28064" lon="2.47407">
        <ele>649.7</ele>
        <time>2020-03-05T08:59:11.891Z</time>
      </trkpt>
      <trkpt lat="42.28045" lon="2.47415">
        <ele>647.9</ele>
        <time>2020-03-05T08:59:33.329Z</time>
      </trkpt>
      <trkpt lat="42.28035" lon="2.47418">
        <ele>646.4</ele>
        <time>2020-03-05T08:59:45.156Z</time>
      </trkpt>
      <trkpt lat="42.28026" lon="2.47426">
        <ele>644.9</ele>
        <time>2020-03-05T08:59:56.360Z</time>
      </trkpt>
      <trkpt lat="42.28015" lon="2.47437">
        <ele>644</ele>
        <time>2020-03-05T09:00:11.759Z</time>
      </trkpt>
      <trkpt lat="42.27989" lon="2.47453">
        <ele>641.4</ele>
        <time>2020-03-05T09:00:42.675Z</time>
      </trkpt>
      <trkpt lat="42.2798" lon="2.47459">
        <ele>640.3</ele>
        <time>2020-03-05T09:00:53.290Z</time>
      </trkpt>
      <trkpt lat="42.27969" lon="2.47467">
        <ele>639</ele>
        <time>2020-03-05T09:01:07.381Z</time>
      </trkpt>
      <trkpt lat="42.27948" lon="2.47479">
        <ele>636.2</ele>
        <time>2020-03-05T09:01:32.073Z</time>
      </trkpt>
      <trkpt lat="42.27944" lon="2.47482">
        <ele>635.8</ele>
        <time>2020-03-05T09:01:36.876Z</time>
      </trkpt>
      <trkpt lat="42.27926" lon="2.47495">
        <ele>634.2</ele>
        <time>2020-03-05T09:01:58.485Z</time>
      </trkpt>
      <trkpt lat="42.27917" lon="2.475">
        <ele>633</ele>
        <time>2020-03-05T09:02:08.807Z</time>
      </trkpt>
      <trkpt lat="42.27914" lon="2.47504">
        <ele>632.2</ele>
        <time>2020-03-05T09:02:14.124Z</time>
      </trkpt>
      <trkpt lat="42.27912" lon="2.47504">
        <ele>631.6</ele>
        <time>2020-03-05T09:02:16.381Z</time>
      </trkpt>
      <trkpt lat="42.27907" lon="2.47508">
        <ele>630.9</ele>
        <time>2020-03-05T09:02:22.439Z</time>
      </trkpt>
      <trkpt lat="42.27896" lon="2.47513">
        <ele>630.2</ele>
        <time>2020-03-05T09:02:34.961Z</time>
      </trkpt>
      <trkpt lat="42.27876" lon="2.47521">
        <ele>628.2</ele>
        <time>2020-03-05T09:02:57.330Z</time>
      </trkpt>
      <trkpt lat="42.27857" lon="2.47522">
        <ele>626.1</ele>
        <time>2020-03-05T09:03:18.016Z</time>
      </trkpt>
      <trkpt lat="42.27848" lon="2.47517">
        <ele>626</ele>
        <time>2020-03-05T09:03:28.646Z</time>
      </trkpt>
      <trkpt lat="42.27837" lon="2.47515">
        <ele>624.3</ele>
        <time>2020-03-05T09:03:41.099Z</time>
      </trkpt>
      <trkpt lat="42.27833" lon="2.47513">
        <ele>623.9</ele>
        <time>2020-03-05T09:03:45.037Z</time>
      </trkpt>
      <trkpt lat="42.27826" lon="2.4751">
        <ele>623.4</ele>
        <time>2020-03-05T09:03:53.143Z</time>
      </trkpt>
      <trkpt lat="42.27821" lon="2.47497">
        <ele>621.3</ele>
        <time>2020-03-05T09:04:05.023Z</time>
      </trkpt>
      <trkpt lat="42.27813" lon="2.47517">
        <ele>623.4</ele>
        <time>2020-03-05T10:00:19.000Z</time>
      </trkpt>
      <trkpt lat="42.27818" lon="2.47527">
        <ele>623.3</ele>
        <time>2020-03-05T10:00:29.011Z</time>
      </trkpt>
      <trkpt lat="42.27818" lon="2.4753">
        <ele>622.5</ele>
        <time>2020-03-05T10:00:31.800Z</time>
      </trkpt>
      <trkpt lat="42.27819" lon="2.47532">
        <ele>622.8</ele>
        <time>2020-03-05T10:00:34.218Z</time>
      </trkpt>
      <trkpt lat="42.2782" lon="2.47533">
        <ele>622.8</ele>
        <time>2020-03-05T10:00:35.718Z</time>
      </trkpt>
      <trkpt lat="42.27819" lon="2.47543">
        <ele>620.4</ele>
        <time>2020-03-05T10:00:44.747Z</time>
      </trkpt>
      <trkpt lat="42.27821" lon="2.4755">
        <ele>619.6</ele>
        <time>2020-03-05T10:00:50.644Z</time>
      </trkpt>
      <trkpt lat="42.27835" lon="2.47563">
        <ele>619.4</ele>
        <time>2020-03-05T10:01:09.656Z</time>
      </trkpt>
      <trkpt lat="42.27836" lon="2.47565">
        <ele>619.1</ele>
        <time>2020-03-05T10:01:11.527Z</time>
      </trkpt>
      <trkpt lat="42.27856" lon="2.47578">
        <ele>617.8</ele>
        <time>2020-03-05T10:01:36.899Z</time>
      </trkpt>
      <trkpt lat="42.27866" lon="2.47586">
        <ele>616.4</ele>
        <time>2020-03-05T10:01:50.326Z</time>
      </trkpt>
      <trkpt lat="42.2787" lon="2.47589">
        <ele>615.5</ele>
        <time>2020-03-05T10:01:55.301Z</time>
      </trkpt>
      <trkpt lat="42.27876" lon="2.47592">
        <ele>614.5</ele>
        <time>2020-03-05T10:02:02.587Z</time>
      </trkpt>
      <trkpt lat="42.27883" lon="2.47597">
        <ele>613</ele>
        <time>2020-03-05T10:02:12.063Z</time>
      </trkpt>
      <trkpt lat="42.27884" lon="2.47607">
        <ele>609.4</ele>
        <time>2020-03-05T10:02:21.124Z</time>
      </trkpt>
      <trkpt lat="42.27866" lon="2.4761">
        <ele>608.4</ele>
        <time>2020-03-05T10:02:41.285Z</time>
      </trkpt>
      <trkpt lat="42.27849" lon="2.47609">
        <ele>607.7</ele>
        <time>2020-03-05T10:03:00.636Z</time>
      </trkpt>
      <trkpt lat="42.27849" lon="2.47618">
        <ele>604.6</ele>
        <time>2020-03-05T10:03:08.365Z</time>
      </trkpt>
      <trkpt lat="42.27866" lon="2.47623">
        <ele>603.3</ele>
        <time>2020-03-05T10:03:27.748Z</time>
      </trkpt>
      <trkpt lat="42.27878" lon="2.47629">
        <ele>601.6</ele>
        <time>2020-03-05T10:03:43.069Z</time>
      </trkpt>
      <trkpt lat="42.279" lon="2.47631">
        <ele>600.2</ele>
        <time>2020-03-05T10:04:08.206Z</time>
      </trkpt>
      <trkpt lat="42.27906" lon="2.47633">
        <ele>599.3</ele>
        <time>2020-03-05T10:04:14.542Z</time>
      </trkpt>
      <trkpt lat="42.27909" lon="2.4764">
        <ele>596.9</ele>
        <time>2020-03-05T10:04:21.859Z</time>
      </trkpt>
      <trkpt lat="42.27901" lon="2.47645">
        <ele>595.5</ele>
        <time>2020-03-05T10:04:31.878Z</time>
      </trkpt>
      <trkpt lat="42.27889" lon="2.47648">
        <ele>594.8</ele>
        <time>2020-03-05T10:04:45.076Z</time>
      </trkpt>
      <trkpt lat="42.27873" lon="2.47652">
        <ele>592.5</ele>
        <time>2020-03-05T10:05:04.216Z</time>
      </trkpt>
      <trkpt lat="42.27862" lon="2.47656">
        <ele>590.3</ele>
        <time>2020-03-05T10:05:17.359Z</time>
      </trkpt>
      <trkpt lat="42.27844" lon="2.4766">
        <ele>587.5</ele>
        <time>2020-03-05T10:05:37.775Z</time>
      </trkpt>
      <trkpt lat="42.27829" lon="2.47662">
        <ele>585.6</ele>
        <time>2020-03-05T10:05:55.459Z</time>
      </trkpt>
      <trkpt lat="42.27812" lon="2.47669">
        <ele>580.8</ele>
        <time>2020-03-05T10:06:16.183Z</time>
      </trkpt>
      <trkpt lat="42.27795" lon="2.47673">
        <ele>577</ele>
        <time>2020-03-05T10:06:36.715Z</time>
      </trkpt>
      <trkpt lat="42.27779" lon="2.47672">
        <ele>575.2</ele>
        <time>2020-03-05T10:06:54.418Z</time>
      </trkpt>
      <trkpt lat="42.27778" lon="2.47671">
        <ele>575.5</ele>
        <time>2020-03-05T10:06:55.858Z</time>
      </trkpt>
      <trkpt lat="42.27766" lon="2.47676">
        <ele>568.2</ele>
        <time>2020-03-05T10:07:12.026Z</time>
      </trkpt>
      <trkpt lat="42.27776" lon="2.47688">
        <ele>568.8</ele>
        <time>2020-03-05T10:07:27.255Z</time>
      </trkpt>
      <trkpt lat="42.27794" lon="2.47701">
        <ele>566.5</ele>
        <time>2020-03-05T10:07:50.449Z</time>
      </trkpt>
      <trkpt lat="42.27803" lon="2.47711">
        <ele>564.3</ele>
        <time>2020-03-05T10:08:03.336Z</time>
      </trkpt>
      <trkpt lat="42.2782" lon="2.47722">
        <ele>561.6</ele>
        <time>2020-03-05T10:08:25.560Z</time>
      </trkpt>
      <trkpt lat="42.27828" lon="2.47738">
        <ele>558.4</ele>
        <time>2020-03-05T10:08:41.719Z</time>
      </trkpt>
      <trkpt lat="42.27832" lon="2.47746">
        <ele>556.9</ele>
        <time>2020-03-05T10:08:50.298Z</time>
      </trkpt>
      <trkpt lat="42.27827" lon="2.47765">
        <ele>552.9</ele>
        <time>2020-03-05T10:09:08.484Z</time>
      </trkpt>
      <trkpt lat="42.27823" lon="2.47788">
        <ele>547.2</ele>
        <time>2020-03-05T10:09:28.705Z</time>
      </trkpt>
      <trkpt lat="42.27819" lon="2.47803">
        <ele>542.9</ele>
        <time>2020-03-05T10:09:43.040Z</time>
      </trkpt>
      <trkpt lat="42.27815" lon="2.47827">
        <ele>537.7</ele>
        <time>2020-03-05T10:10:03.920Z</time>
      </trkpt>
      <trkpt lat="42.2781" lon="2.47849">
        <ele>535.3</ele>
        <time>2020-03-05T10:10:24.125Z</time>
      </trkpt>
      <trkpt lat="42.27811" lon="2.47855">
        <ele>533.3</ele>
        <time>2020-03-05T10:10:29.332Z</time>
      </trkpt>
      <trkpt lat="42.2781" lon="2.47856">
        <ele>533.5</ele>
        <time>2020-03-05T10:10:31.167Z</time>
      </trkpt>
      <trkpt lat="42.27809" lon="2.47864">
        <ele>531.5</ele>
        <time>2020-03-05T10:10:37.874Z</time>
      </trkpt>
      <trkpt lat="42.27807" lon="2.47873">
        <ele>527.3</ele>
        <time>2020-03-05T10:10:46.812Z</time>
      </trkpt>
      <trkpt lat="42.27803" lon="2.47882">
        <ele>522.9</ele>
        <time>2020-03-05T10:10:57.102Z</time>
      </trkpt>
      <trkpt lat="42.27802" lon="2.47883">
        <ele>522.6</ele>
        <time>2020-03-05T10:10:57.943Z</time>
      </trkpt>
      <trkpt lat="42.27798" lon="2.4789">
        <ele>518.6</ele>
        <time>2020-03-05T10:11:06.761Z</time>
      </trkpt>
      <trkpt lat="42.27795" lon="2.47891">
        <ele>518.2</ele>
        <time>2020-03-05T10:11:10.428Z</time>
      </trkpt>
      <trkpt lat="42.27786" lon="2.47892">
        <ele>518.2</ele>
        <time>2020-03-05T10:11:20.435Z</time>
      </trkpt>
      <trkpt lat="42.27779" lon="2.479">
        <ele>513.9</ele>
        <time>2020-03-05T10:11:32.468Z</time>
      </trkpt>
      <trkpt lat="42.27772" lon="2.47901">
        <ele>511.3</ele>
        <time>2020-03-05T10:11:40.277Z</time>
      </trkpt>
      <trkpt lat="42.27769" lon="2.47905">
        <ele>508.3</ele>
        <time>2020-03-05T10:11:45.966Z</time>
      </trkpt>
      <trkpt lat="42.27779" lon="2.47911">
        <ele>508.3</ele>
        <time>2020-03-05T10:11:57.848Z</time>
      </trkpt>
      <trkpt lat="42.27783" lon="2.47915">
        <ele>505.5</ele>
        <time>2020-03-05T10:12:04.843Z</time>
      </trkpt>
      <trkpt lat="42.27778" lon="2.47924">
        <ele>502.6</ele>
        <time>2020-03-05T10:12:15.408Z</time>
      </trkpt>
      <trkpt lat="42.27778" lon="2.4793">
        <ele>500.8</ele>
        <time>2020-03-05T10:12:20.495Z</time>
      </trkpt>
      <trkpt lat="42.27777" lon="2.47936">
        <ele>498.6</ele>
        <time>2020-03-05T10:12:26.620Z</time>
      </trkpt>
      <trkpt lat="42.27789" lon="2.47947">
        <ele>497.8</ele>
        <time>2020-03-05T10:12:43.022Z</time>
      </trkpt>
      <trkpt lat="42.27793" lon="2.47963">
        <ele>500.4</ele>
        <time>2020-03-05T10:12:57.346Z</time>
      </trkpt>
      <trkpt lat="42.27775" lon="2.47981">
        <ele>497.2</ele>
        <time>2020-03-05T10:13:22.941Z</time>
      </trkpt>
      <trkpt lat="42.27764" lon="2.48">
        <ele>497.8</ele>
        <time>2020-03-05T10:13:43.494Z</time>
      </trkpt>
      <trkpt lat="42.27765" lon="2.48019">
        <ele>493.6</ele>
        <time>2020-03-05T10:13:59.697Z</time>
      </trkpt>
      <trkpt lat="42.27773" lon="2.48026">
        <ele>494.7</ele>
        <time>2020-03-05T10:14:10.386Z</time>
      </trkpt>
      <trkpt lat="42.27776" lon="2.48029">
        <ele>495.3</ele>
        <time>2020-03-05T10:14:15.417Z</time>
      </trkpt>
      <trkpt lat="42.27774" lon="2.48043">
        <ele>492.3</ele>
        <time>2020-03-05T10:14:27.646Z</time>
      </trkpt>
      <trkpt lat="42.27782" lon="2.48064">
        <ele>491.3</ele>
        <time>2020-03-05T10:14:48.127Z</time>
      </trkpt>
      <trkpt lat="42.27782" lon="2.48072">
        <ele>490.5</ele>
        <time>2020-03-05T10:14:54.574Z</time>
      </trkpt>
      <trkpt lat="42.27785" lon="2.48078">
        <ele>490.2</ele>
        <time>2020-03-05T10:15:00.515Z</time>
      </trkpt>
      <trkpt lat="42.27785" lon="2.48106">
        <ele>487.8</ele>
        <time>2020-03-05T10:15:23.753Z</time>
      </trkpt>
      <trkpt lat="42.27783" lon="2.48108">
        <ele>487.3</ele>
        <time>2020-03-05T10:15:26.330Z</time>
      </trkpt>
      <trkpt lat="42.27775" lon="2.48126">
        <ele>484.8</ele>
        <time>2020-03-05T10:15:44.297Z</time>
      </trkpt>
      <trkpt lat="42.27757" lon="2.4815">
        <ele>482.6</ele>
        <time>2020-03-05T10:16:12.968Z</time>
      </trkpt>
      <trkpt lat="42.27755" lon="2.48153">
        <ele>482.3</ele>
        <time>2020-03-05T10:16:16.503Z</time>
      </trkpt>
      <trkpt lat="42.27756" lon="2.48152">
        <ele>482.4</ele>
        <time>2020-03-05T10:16:17.505Z</time>
      </trkpt>
      <trkpt lat="42.27752" lon="2.48159">
        <ele>481.7</ele>
        <time>2020-03-05T10:16:25.158Z</time>
      </trkpt>
      <trkpt lat="42.27749" lon="2.48169">
        <ele>480.8</ele>
        <time>2020-03-05T10:16:33.963Z</time>
      </trkpt>
      <trkpt lat="42.27747" lon="2.48169">
        <ele>480.6</ele>
        <time>2020-03-05T10:16:35.531Z</time>
      </trkpt>
      <trkpt lat="42.27737" lon="2.48201">
        <ele>478.7</ele>
        <time>2020-03-05T10:17:04.327Z</time>
      </trkpt>
      <trkpt lat="42.27738" lon="2.48223">
        <ele>478.8</ele>
        <time>2020-03-05T10:17:23.431Z</time>
      </trkpt>
      <trkpt lat="42.2774" lon="2.48225">
        <ele>478.9</ele>
        <time>2020-03-05T10:17:26.686Z</time>
      </trkpt>
      <trkpt lat="42.27752" lon="2.48237">
        <ele>479.6</ele>
        <time>2020-03-05T10:17:42.774Z</time>
      </trkpt>
      <trkpt lat="42.27753" lon="2.48242">
        <ele>479.5</ele>
        <time>2020-03-05T10:17:47.298Z</time>
      </trkpt>
      <trkpt lat="42.2776" lon="2.4825">
        <ele>479.5</ele>
        <time>2020-03-05T10:17:57.752Z</time>
      </trkpt>
      <trkpt lat="42.27762" lon="2.48253">
        <ele>479.5</ele>
        <time>2020-03-05T10:18:00.996Z</time>
      </trkpt>
      <trkpt lat="42.2777" lon="2.48266">
        <ele>479.6</ele>
        <time>2020-03-05T10:18:15.144Z</time>
      </trkpt>
      <trkpt lat="42.27778" lon="2.48286">
        <ele>479.7</ele>
        <time>2020-03-05T10:18:34.487Z</time>
      </trkpt>
      <trkpt lat="42.27781" lon="2.48313">
        <ele>480</ele>
        <time>2020-03-05T10:18:57.210Z</time>
      </trkpt>
      <trkpt lat="42.2778" lon="2.48317">
        <ele>479.5</ele>
        <time>2020-03-05T10:19:00.246Z</time>
      </trkpt>
      <trkpt lat="42.27781" lon="2.48319">
        <ele>479.8</ele>
        <time>2020-03-05T10:19:02.708Z</time>
      </trkpt>
      <trkpt lat="42.27787" lon="2.48335">
        <ele>482.5</ele>
        <time>2020-03-05T10:19:18.065Z</time>
      </trkpt>
      <trkpt lat="42.27789" lon="2.4835">
        <ele>483.8</ele>
        <time>2020-03-05T10:19:31.080Z</time>
      </trkpt>
      <trkpt lat="42.27786" lon="2.48368">
        <ele>482.6</ele>
        <time>2020-03-05T10:19:46.781Z</time>
      </trkpt>
      <trkpt lat="42.27778" lon="2.48398">
        <ele>478.6</ele>
        <time>2020-03-05T10:20:13.737Z</time>
      </trkpt>
      <trkpt lat="42.27777" lon="2.48421">
        <ele>479.5</ele>
        <time>2020-03-05T10:20:33.088Z</time>
      </trkpt>
      <trkpt lat="42.27773" lon="2.48432">
        <ele>480.4</ele>
        <time>2020-03-05T10:20:43.733Z</time>
      </trkpt>
      <trkpt lat="42.27772" lon="2.48436">
        <ele>480.8</ele>
        <time>2020-03-05T10:20:47.081Z</time>
      </trkpt>
      <trkpt lat="42.27771" lon="2.4846">
        <ele>481.7</ele>
        <time>2020-03-05T10:21:06.958Z</time>
      </trkpt>
      <trkpt lat="42.27767" lon="2.48482">
        <ele>481</ele>
        <time>2020-03-05T10:21:26.002Z</time>
      </trkpt>
      <trkpt lat="42.27759" lon="2.48495">
        <ele>478.7</ele>
        <time>2020-03-05T10:21:40.055Z</time>
      </trkpt>
      <trkpt lat="42.27756" lon="2.48499">
        <ele>477.2</ele>
        <time>2020-03-05T10:21:45.792Z</time>
      </trkpt>
      <trkpt lat="42.27753" lon="2.48508">
        <ele>476.7</ele>
        <time>2020-03-05T10:21:53.744Z</time>
      </trkpt>
      <trkpt lat="42.27751" lon="2.48523">
        <ele>476.2</ele>
        <time>2020-03-05T10:22:06.113Z</time>
      </trkpt>
      <trkpt lat="42.27752" lon="2.4854">
        <ele>476.7</ele>
        <time>2020-03-05T10:22:21.163Z</time>
      </trkpt>
      <trkpt lat="42.27754" lon="2.48548">
        <ele>477.6</ele>
        <time>2020-03-05T10:22:27.743Z</time>
      </trkpt>
      <trkpt lat="42.27751" lon="2.48566">
        <ele>476.7</ele>
        <time>2020-03-05T10:22:43.551Z</time>
      </trkpt>
      <trkpt lat="42.2775" lon="2.48586">
        <ele>476.1</ele>
        <time>2020-03-05T10:22:59.937Z</time>
      </trkpt>
      <trkpt lat="42.27747" lon="2.48614">
        <ele>476.8</ele>
        <time>2020-03-05T10:23:23.821Z</time>
      </trkpt>
      <trkpt lat="42.27745" lon="2.48619">
        <ele>477.1</ele>
        <time>2020-03-05T10:23:28.709Z</time>
      </trkpt>
      <trkpt lat="42.2774" lon="2.4865">
        <ele>477.5</ele>
        <time>2020-03-05T10:23:55.170Z</time>
      </trkpt>
      <trkpt lat="42.27739" lon="2.48663">
        <ele>477.9</ele>
        <time>2020-03-05T10:24:06.813Z</time>
      </trkpt>
      <trkpt lat="42.27736" lon="2.48684">
        <ele>476.9</ele>
        <time>2020-03-05T10:24:24.735Z</time>
      </trkpt>
      <trkpt lat="42.27734" lon="2.48701">
        <ele>476.8</ele>
        <time>2020-03-05T10:24:39.350Z</time>
      </trkpt>
      <trkpt lat="42.27735" lon="2.4872">
        <ele>478</ele>
        <time>2020-03-05T10:24:55.043Z</time>
      </trkpt>
      <trkpt lat="42.27734" lon="2.48738">
        <ele>478</ele>
        <time>2020-03-05T10:25:10.440Z</time>
      </trkpt>
      <trkpt lat="42.27731" lon="2.48762">
        <ele>476.3</ele>
        <time>2020-03-05T10:25:30.725Z</time>
      </trkpt>
      <trkpt lat="42.27726" lon="2.48783">
        <ele>473.2</ele>
        <time>2020-03-05T10:25:49.649Z</time>
      </trkpt>
      <trkpt lat="42.27723" lon="2.48795">
        <ele>471</ele>
        <time>2020-03-05T10:26:00.326Z</time>
      </trkpt>
      <trkpt lat="42.27721" lon="2.4881">
        <ele>469.6</ele>
        <time>2020-03-05T10:26:13.521Z</time>
      </trkpt>
      <trkpt lat="42.27716" lon="2.48819">
        <ele>468.9</ele>
        <time>2020-03-05T10:26:23.643Z</time>
      </trkpt>
      <trkpt lat="42.27719" lon="2.48821">
        <ele>468.5</ele>
        <time>2020-03-05T10:26:27.537Z</time>
      </trkpt>
      <trkpt lat="42.27716" lon="2.48825">
        <ele>468.4</ele>
        <time>2020-03-05T10:26:32.353Z</time>
      </trkpt>
      <trkpt lat="42.27717" lon="2.48827">
        <ele>468.1</ele>
        <time>2020-03-05T10:26:34.739Z</time>
      </trkpt>
      <trkpt lat="42.27717" lon="2.48828">
        <ele>468</ele>
        <time>2020-03-05T10:26:35.645Z</time>
      </trkpt>
      <trkpt lat="42.27713" lon="2.48835">
        <ele>468.6</ele>
        <time>2020-03-05T10:26:43.353Z</time>
      </trkpt>
      <trkpt lat="42.2772" lon="2.48848">
        <ele>469.9</ele>
        <time>2020-03-05T10:26:56.357Z</time>
      </trkpt>
      <trkpt lat="42.27722" lon="2.48867">
        <ele>471.8</ele>
        <time>2020-03-05T10:27:12.276Z</time>
      </trkpt>
      <trkpt lat="42.27727" lon="2.48883">
        <ele>473.8</ele>
        <time>2020-03-05T10:27:27.378Z</time>
      </trkpt>
      <trkpt lat="42.27729" lon="2.48889">
        <ele>474</ele>
        <time>2020-03-05T10:27:33.220Z</time>
      </trkpt>
      <trkpt lat="42.2773" lon="2.48897">
        <ele>476.7</ele>
        <time>2020-03-05T10:27:40.609Z</time>
      </trkpt>
      <trkpt lat="42.27738" lon="2.48913">
        <ele>478.7</ele>
        <time>2020-03-05T10:27:56.740Z</time>
      </trkpt>
      <trkpt lat="42.27739" lon="2.48916">
        <ele>478.5</ele>
        <time>2020-03-05T10:27:59.378Z</time>
      </trkpt>
      <trkpt lat="42.27746" lon="2.48922">
        <ele>477</ele>
        <time>2020-03-05T10:28:08.985Z</time>
      </trkpt>
      <trkpt lat="42.27756" lon="2.48932">
        <ele>477</ele>
        <time>2020-03-05T10:28:22.998Z</time>
      </trkpt>
      <trkpt lat="42.27759" lon="2.48934">
        <ele>476.5</ele>
        <time>2020-03-05T10:28:27.183Z</time>
      </trkpt>
      <trkpt lat="42.27764" lon="2.48937">
        <ele>475.8</ele>
        <time>2020-03-05T10:28:33.300Z</time>
      </trkpt>
      <trkpt lat="42.27768" lon="2.4894">
        <ele>475.5</ele>
        <time>2020-03-05T10:28:38.156Z</time>
      </trkpt>
      <trkpt lat="42.27772" lon="2.48958">
        <ele>476.7</ele>
        <time>2020-03-05T10:28:54.419Z</time>
      </trkpt>
      <trkpt lat="42.27779" lon="2.48982">
        <ele>475.2</ele>
        <time>2020-03-05T10:29:15.713Z</time>
      </trkpt>
      <trkpt lat="42.27783" lon="2.49">
        <ele>473.7</ele>
        <time>2020-03-05T10:29:31.637Z</time>
      </trkpt>
      <trkpt lat="42.27781" lon="2.49011">
        <ele>474.2</ele>
        <time>2020-03-05T10:29:41.548Z</time>
      </trkpt>
      <trkpt lat="42.27782" lon="2.4902">
        <ele>472.5</ele>
        <time>2020-03-05T10:29:49.256Z</time>
      </trkpt>
      <trkpt lat="42.27782" lon="2.49048">
        <ele>472.2</ele>
        <time>2020-03-05T10:30:12.629Z</time>
      </trkpt>
      <trkpt lat="42.27781" lon="2.49052">
        <ele>472.6</ele>
        <time>2020-03-05T10:30:15.961Z</time>
      </trkpt>
      <trkpt lat="42.2778" lon="2.49059">
        <ele>473</ele>
        <time>2020-03-05T10:30:22.357Z</time>
      </trkpt>
      <trkpt lat="42.27774" lon="2.4908">
        <ele>471</ele>
        <time>2020-03-05T10:30:41.233Z</time>
      </trkpt>
      <trkpt lat="42.27765" lon="2.49089">
        <ele>472.7</ele>
        <time>2020-03-05T10:30:54.180Z</time>
      </trkpt>
      <trkpt lat="42.27761" lon="2.49106">
        <ele>468.8</ele>
        <time>2020-03-05T10:31:09.625Z</time>
      </trkpt>
      <trkpt lat="42.27754" lon="2.49128">
        <ele>465.7</ele>
        <time>2020-03-05T10:31:29.531Z</time>
      </trkpt>
      <trkpt lat="42.27751" lon="2.49134">
        <ele>464.9</ele>
        <time>2020-03-05T10:31:35.871Z</time>
      </trkpt>
      <trkpt lat="42.27747" lon="2.4914">
        <ele>464.4</ele>
        <time>2020-03-05T10:31:42.650Z</time>
      </trkpt>
      <trkpt lat="42.27744" lon="2.49156">
        <ele>462.4</ele>
        <time>2020-03-05T10:31:56.663Z</time>
      </trkpt>
      <trkpt lat="42.27733" lon="2.49178">
        <ele>464.2</ele>
        <time>2020-03-05T10:32:18.400Z</time>
      </trkpt>
      <trkpt lat="42.27731" lon="2.49181">
        <ele>464.5</ele>
        <time>2020-03-05T10:32:22.358Z</time>
      </trkpt>
      <trkpt lat="42.27726" lon="2.492">
        <ele>462.9</ele>
        <time>2020-03-05T10:32:39.267Z</time>
      </trkpt>
      <trkpt lat="42.27727" lon="2.49212">
        <ele>460.9</ele>
        <time>2020-03-05T10:32:49.757Z</time>
      </trkpt>
      <trkpt lat="42.27724" lon="2.49222">
        <ele>460.1</ele>
        <time>2020-03-05T10:32:58.479Z</time>
      </trkpt>
      <trkpt lat="42.2772" lon="2.49238">
        <ele>459.2</ele>
        <time>2020-03-05T10:33:13.154Z</time>
      </trkpt>
      <trkpt lat="42.27716" lon="2.49249">
        <ele>460.1</ele>
        <time>2020-03-05T10:33:23.009Z</time>
      </trkpt>
      <trkpt lat="42.27715" lon="2.49252">
        <ele>460.5</ele>
        <time>2020-03-05T10:33:26.436Z</time>
      </trkpt>
      <trkpt lat="42.27713" lon="2.49262">
        <ele>459.6</ele>
        <time>2020-03-05T10:33:34.615Z</time>
      </trkpt>
      <trkpt lat="42.27706" lon="2.49275">
        <ele>461</ele>
        <time>2020-03-05T10:33:47.998Z</time>
      </trkpt>
      <trkpt lat="42.27706" lon="2.49278">
        <ele>460.6</ele>
        <time>2020-03-05T10:33:50.803Z</time>
      </trkpt>
      <trkpt lat="42.277" lon="2.49297">
        <ele>461.2</ele>
        <time>2020-03-05T10:34:08.111Z</time>
      </trkpt>
      <trkpt lat="42.27696" lon="2.49311">
        <ele>460.9</ele>
        <time>2020-03-05T10:34:20.727Z</time>
      </trkpt>
      <trkpt lat="42.27694" lon="2.49323">
        <ele>459.8</ele>
        <time>2020-03-05T10:34:31.125Z</time>
      </trkpt>
      <trkpt lat="42.27693" lon="2.49334">
        <ele>459.4</ele>
        <time>2020-03-05T10:34:40.613Z</time>
      </trkpt>
      <trkpt lat="42.27694" lon="2.49348">
        <ele>456.9</ele>
        <time>2020-03-05T10:34:52.627Z</time>
      </trkpt>
      <trkpt lat="42.27693" lon="2.4936">
        <ele>456.4</ele>
        <time>2020-03-05T10:35:02.705Z</time>
      </trkpt>
      <trkpt lat="42.27691" lon="2.49364">
        <ele>457.3</ele>
        <time>2020-03-05T10:35:06.559Z</time>
      </trkpt>
      <trkpt lat="42.27687" lon="2.49383">
        <ele>459.9</ele>
        <time>2020-03-05T10:35:23.537Z</time>
      </trkpt>
      <trkpt lat="42.2769" lon="2.49399">
        <ele>456.2</ele>
        <time>2020-03-05T10:35:38.511Z</time>
      </trkpt>
      <trkpt lat="42.2769" lon="2.49413">
        <ele>455.8</ele>
        <time>2020-03-05T10:35:50.205Z</time>
      </trkpt>
      <trkpt lat="42.27688" lon="2.49425">
        <ele>456.5</ele>
        <time>2020-03-05T10:36:00.404Z</time>
      </trkpt>
      <trkpt lat="42.27687" lon="2.49431">
        <ele>457.4</ele>
        <time>2020-03-05T10:36:06.085Z</time>
      </trkpt>
      <trkpt lat="42.27683" lon="2.49448">
        <ele>459.4</ele>
        <time>2020-03-05T10:36:20.621Z</time>
      </trkpt>
      <trkpt lat="42.2768" lon="2.49463">
        <ele>460.8</ele>
        <time>2020-03-05T10:36:34.047Z</time>
      </trkpt>
      <trkpt lat="42.2768" lon="2.49479">
        <ele>459.8</ele>
        <time>2020-03-05T10:36:47.537Z</time>
      </trkpt>
      <trkpt lat="42.2768" lon="2.49493">
        <ele>458.3</ele>
        <time>2020-03-05T10:36:58.924Z</time>
      </trkpt>
      <trkpt lat="42.27678" lon="2.49515">
        <ele>457.5</ele>
        <time>2020-03-05T10:37:17.752Z</time>
      </trkpt>
      <trkpt lat="42.27671" lon="2.49532">
        <ele>458.2</ele>
        <time>2020-03-05T10:37:33.987Z</time>
      </trkpt>
      <trkpt lat="42.27659" lon="2.49539">
        <ele>460.5</ele>
        <time>2020-03-05T10:37:48.890Z</time>
      </trkpt>
      <trkpt lat="42.27649" lon="2.49542">
        <ele>463.2</ele>
        <time>2020-03-05T10:38:01.286Z</time>
      </trkpt>
      <trkpt lat="42.27636" lon="2.49548">
        <ele>465</ele>
        <time>2020-03-05T10:38:17.310Z</time>
      </trkpt>
      <trkpt lat="42.27627" lon="2.49554">
        <ele>464.2</ele>
        <time>2020-03-05T10:38:27.704Z</time>
      </trkpt>
      <trkpt lat="42.27613" lon="2.49563">
        <ele>463</ele>
        <time>2020-03-05T10:38:45.662Z</time>
      </trkpt>
      <trkpt lat="42.27603" lon="2.49578">
        <ele>460.1</ele>
        <time>2020-03-05T10:39:03.478Z</time>
      </trkpt>
      <trkpt lat="42.276" lon="2.49583">
        <ele>459.3</ele>
        <time>2020-03-05T10:39:08.760Z</time>
      </trkpt>
      <trkpt lat="42.27595" lon="2.49591">
        <ele>458.5</ele>
        <time>2020-03-05T10:39:17.339Z</time>
      </trkpt>
      <trkpt lat="42.27586" lon="2.4961">
        <ele>454.5</ele>
        <time>2020-03-05T10:39:36.434Z</time>
      </trkpt>
      <trkpt lat="42.27579" lon="2.49619">
        <ele>454.7</ele>
        <time>2020-03-05T10:39:47.662Z</time>
      </trkpt>
      <trkpt lat="42.27565" lon="2.49642">
        <ele>454.4</ele>
        <time>2020-03-05T10:40:12.755Z</time>
      </trkpt>
      <trkpt lat="42.27557" lon="2.49653">
        <ele>453.1</ele>
        <time>2020-03-05T10:40:26.296Z</time>
      </trkpt>
      <trkpt lat="42.27549" lon="2.49663">
        <ele>451.9</ele>
        <time>2020-03-05T10:40:38.793Z</time>
      </trkpt>
      <trkpt lat="42.27534" lon="2.4967">
        <ele>455.5</ele>
        <time>2020-03-05T10:40:56.105Z</time>
      </trkpt>
      <trkpt lat="42.27522" lon="2.49683">
        <ele>453.5</ele>
        <time>2020-03-05T10:41:14.650Z</time>
      </trkpt>
      <trkpt lat="42.27509" lon="2.49692">
        <ele>455.5</ele>
        <time>2020-03-05T10:41:30.558Z</time>
      </trkpt>
      <trkpt lat="42.27496" lon="2.49696">
        <ele>459.9</ele>
        <time>2020-03-05T10:41:46.773Z</time>
      </trkpt>
      <trkpt lat="42.27476" lon="2.49699">
        <ele>463.3</ele>
        <time>2020-03-05T10:42:09.584Z</time>
      </trkpt>
      <trkpt lat="42.27457" lon="2.49694">
        <ele>466.7</ele>
        <time>2020-03-05T10:42:31.824Z</time>
      </trkpt>
      <trkpt lat="42.2744" lon="2.4969">
        <ele>468.8</ele>
        <time>2020-03-05T10:42:51.482Z</time>
      </trkpt>
      <trkpt lat="42.27422" lon="2.49685">
        <ele>469.6</ele>
        <time>2020-03-05T10:43:12.170Z</time>
      </trkpt>
      <trkpt lat="42.27411" lon="2.49677">
        <ele>471.5</ele>
        <time>2020-03-05T10:43:26.238Z</time>
      </trkpt>
      <trkpt lat="42.27412" lon="2.49674">
        <ele>472.6</ele>
        <time>2020-03-05T10:43:29.107Z</time>
      </trkpt>
      <trkpt lat="42.2741" lon="2.49672">
        <ele>473</ele>
        <time>2020-03-05T10:43:32.036Z</time>
      </trkpt>
      <trkpt lat="42.27404" lon="2.49674">
        <ele>471.3</ele>
        <time>2020-03-05T10:43:39.485Z</time>
      </trkpt>
      <trkpt lat="42.27398" lon="2.49673">
        <ele>470.5</ele>
        <time>2020-03-05T10:43:46.826Z</time>
      </trkpt>
      <trkpt lat="42.27388" lon="2.49682">
        <ele>466.6</ele>
        <time>2020-03-05T10:44:00.300Z</time>
      </trkpt>
      <trkpt lat="42.2738" lon="2.49689">
        <ele>465</ele>
        <time>2020-03-05T10:44:11.412Z</time>
      </trkpt>
      <trkpt lat="42.27371" lon="2.49693">
        <ele>464.1</ele>
        <time>2020-03-05T10:44:22.628Z</time>
      </trkpt>
      <trkpt lat="42.27353" lon="2.49699">
        <ele>464.5</ele>
        <time>2020-03-05T10:44:43.503Z</time>
      </trkpt>
      <trkpt lat="42.27339" lon="2.49717">
        <ele>461.2</ele>
        <time>2020-03-05T10:45:06.098Z</time>
      </trkpt>
      <trkpt lat="42.27337" lon="2.49725">
        <ele>459.9</ele>
        <time>2020-03-05T10:45:12.610Z</time>
      </trkpt>
      <trkpt lat="42.27331" lon="2.49749">
        <ele>458.5</ele>
        <time>2020-03-05T10:45:34.670Z</time>
      </trkpt>
      <trkpt lat="42.2733" lon="2.49751">
        <ele>458.4</ele>
        <time>2020-03-05T10:45:35.995Z</time>
      </trkpt>
      <trkpt lat="42.27322" lon="2.49777">
        <ele>455.2</ele>
        <time>2020-03-05T10:46:00.369Z</time>
      </trkpt>
      <trkpt lat="42.27306" lon="2.49793">
        <ele>455.6</ele>
        <time>2020-03-05T10:46:23.016Z</time>
      </trkpt>
      <trkpt lat="42.273" lon="2.49797">
        <ele>455</ele>
        <time>2020-03-05T10:46:30.406Z</time>
      </trkpt>
      <trkpt lat="42.27296" lon="2.49802">
        <ele>454.1</ele>
        <time>2020-03-05T10:46:36.390Z</time>
      </trkpt>
      <trkpt lat="42.27294" lon="2.49809">
        <ele>452.7</ele>
        <time>2020-03-05T10:46:42.778Z</time>
      </trkpt>
      <trkpt lat="42.27296" lon="2.49815">
        <ele>451</ele>
        <time>2020-03-05T10:46:48.628Z</time>
      </trkpt>
      <trkpt lat="42.273" lon="2.4982">
        <ele>449.3</ele>
        <time>2020-03-05T10:46:54.636Z</time>
      </trkpt>
      <trkpt lat="42.27312" lon="2.49812">
        <ele>448.6</ele>
        <time>2020-03-05T10:47:10.664Z</time>
      </trkpt>
      <trkpt lat="42.2733" lon="2.49799">
        <ele>445.6</ele>
        <time>2020-03-05T10:47:33.690Z</time>
      </trkpt>
      <trkpt lat="42.27339" lon="2.49792">
        <ele>445.4</ele>
        <time>2020-03-05T10:47:45.097Z</time>
      </trkpt>
      <trkpt lat="42.27353" lon="2.49786">
        <ele>442.5</ele>
        <time>2020-03-05T10:48:02.298Z</time>
      </trkpt>
      <trkpt lat="42.27358" lon="2.4978">
        <ele>441.8</ele>
        <time>2020-03-05T10:48:09.775Z</time>
      </trkpt>
      <trkpt lat="42.2737" lon="2.49772">
        <ele>442.5</ele>
        <time>2020-03-05T10:48:24.522Z</time>
      </trkpt>
      <trkpt lat="42.2738" lon="2.49767">
        <ele>442.2</ele>
        <time>2020-03-05T10:48:37.601Z</time>
      </trkpt>
      <trkpt lat="42.27388" lon="2.49763">
        <ele>440.9</ele>
        <time>2020-03-05T10:48:47.512Z</time>
      </trkpt>
      <trkpt lat="42.27399" lon="2.49762">
        <ele>440.4</ele>
        <time>2020-03-05T10:49:00.028Z</time>
      </trkpt>
      <trkpt lat="42.27419" lon="2.49765">
        <ele>440.4</ele>
        <time>2020-03-05T10:49:22.655Z</time>
      </trkpt>
      <trkpt lat="42.27425" lon="2.49765">
        <ele>441</ele>
        <time>2020-03-05T10:49:28.923Z</time>
      </trkpt>
      <trkpt lat="42.27438" lon="2.49766">
        <ele>442.7</ele>
        <time>2020-03-05T10:49:44.424Z</time>
      </trkpt>
      <trkpt lat="42.27451" lon="2.4977">
        <ele>444.7</ele>
        <time>2020-03-05T10:49:59.386Z</time>
      </trkpt>
      <trkpt lat="42.27462" lon="2.49775">
        <ele>445.7</ele>
        <time>2020-03-05T10:50:12.318Z</time>
      </trkpt>
      <trkpt lat="42.27467" lon="2.49782">
        <ele>447.9</ele>
        <time>2020-03-05T10:50:20.760Z</time>
      </trkpt>
      <trkpt lat="42.27467" lon="2.49794">
        <ele>452.4</ele>
        <time>2020-03-05T10:50:31.725Z</time>
      </trkpt>
      <trkpt lat="42.27463" lon="2.498">
        <ele>453.7</ele>
        <time>2020-03-05T10:50:39.006Z</time>
      </trkpt>
      <trkpt lat="42.27458" lon="2.49806">
        <ele>454.7</ele>
        <time>2020-03-05T10:50:47.102Z</time>
      </trkpt>
      <trkpt lat="42.27454" lon="2.49813">
        <ele>454.9</ele>
        <time>2020-03-05T10:50:54.164Z</time>
      </trkpt>
      <trkpt lat="42.27452" lon="2.49816">
        <ele>455.1</ele>
        <time>2020-03-05T10:50:57.890Z</time>
      </trkpt>
      <trkpt lat="42.27435" lon="2.49843">
        <ele>455.3</ele>
        <time>2020-03-05T10:51:26.965Z</time>
      </trkpt>
      <trkpt lat="42.27434" lon="2.49844">
        <ele>455.5</ele>
        <time>2020-03-05T10:51:28.661Z</time>
      </trkpt>
      <trkpt lat="42.27431" lon="2.49852">
        <ele>456.3</ele>
        <time>2020-03-05T10:51:35.934Z</time>
      </trkpt>
      <trkpt lat="42.27429" lon="2.49857">
        <ele>456.4</ele>
        <time>2020-03-05T10:51:41.077Z</time>
      </trkpt>
      <trkpt lat="42.2742" lon="2.49883">
        <ele>457.7</ele>
        <time>2020-03-05T10:52:05.468Z</time>
      </trkpt>
      <trkpt lat="42.27414" lon="2.49894">
        <ele>456.9</ele>
        <time>2020-03-05T10:52:16.596Z</time>
      </trkpt>
      <trkpt lat="42.27407" lon="2.49913">
        <ele>457.7</ele>
        <time>2020-03-05T10:52:34.479Z</time>
      </trkpt>
      <trkpt lat="42.27393" lon="2.49945">
        <ele>456.7</ele>
        <time>2020-03-05T10:53:05.664Z</time>
      </trkpt>
      <trkpt lat="42.27377" lon="2.49971">
        <ele>457.4</ele>
        <time>2020-03-05T10:53:34.691Z</time>
      </trkpt>
      <trkpt lat="42.27367" lon="2.49993">
        <ele>458.1</ele>
        <time>2020-03-05T10:53:56.109Z</time>
      </trkpt>
      <trkpt lat="42.2736" lon="2.50018">
        <ele>458.6</ele>
        <time>2020-03-05T10:54:18.891Z</time>
      </trkpt>
      <trkpt lat="42.27351" lon="2.50049">
        <ele>462.2</ele>
        <time>2020-03-05T10:54:46.290Z</time>
      </trkpt>
      <trkpt lat="42.27347" lon="2.50061">
        <ele>463.2</ele>
        <time>2020-03-05T10:54:57.853Z</time>
      </trkpt>
      <trkpt lat="42.27335" lon="2.50083">
        <ele>461.1</ele>
        <time>2020-03-05T10:55:20.512Z</time>
      </trkpt>
      <trkpt lat="42.27319" lon="2.50117">
        <ele>462.6</ele>
        <time>2020-03-05T10:55:54.626Z</time>
      </trkpt>
      <trkpt lat="42.27298" lon="2.5014">
        <ele>459.2</ele>
        <time>2020-03-05T10:56:25.268Z</time>
      </trkpt>
      <trkpt lat="42.27285" lon="2.50163">
        <ele>457.6</ele>
        <time>2020-03-05T10:56:50.118Z</time>
      </trkpt>
      <trkpt lat="42.27278" lon="2.50193">
        <ele>457.9</ele>
        <time>2020-03-05T10:57:16.467Z</time>
      </trkpt>
      <trkpt lat="42.27269" lon="2.50225">
        <ele>460</ele>
        <time>2020-03-05T10:57:45.394Z</time>
      </trkpt>
      <trkpt lat="42.27262" lon="2.50246">
        <ele>459.3</ele>
        <time>2020-03-05T10:58:04.578Z</time>
      </trkpt>
      <trkpt lat="42.2726" lon="2.5025">
        <ele>458.8</ele>
        <time>2020-03-05T10:58:08.137Z</time>
      </trkpt>
      <trkpt lat="42.27255" lon="2.50262">
        <ele>457.1</ele>
        <time>2020-03-05T10:58:19.999Z</time>
      </trkpt>
      <trkpt lat="42.27249" lon="2.50294">
        <ele>455.4</ele>
        <time>2020-03-05T10:58:47.872Z</time>
      </trkpt>
      <trkpt lat="42.27249" lon="2.50323">
        <ele>455.8</ele>
        <time>2020-03-05T10:59:12.422Z</time>
      </trkpt>
      <trkpt lat="42.27253" lon="2.50341">
        <ele>458.4</ele>
        <time>2020-03-05T10:59:28.306Z</time>
      </trkpt>
      <trkpt lat="42.2725" lon="2.50364">
        <ele>458.1</ele>
        <time>2020-03-05T10:59:48.527Z</time>
      </trkpt>
      <trkpt lat="42.27242" lon="2.50395">
        <ele>457.4</ele>
        <time>2020-03-05T11:00:15.946Z</time>
      </trkpt>
      <trkpt lat="42.27235" lon="2.50426">
        <ele>456.6</ele>
        <time>2020-03-05T11:00:42.862Z</time>
      </trkpt>
      <trkpt lat="42.27229" lon="2.50454">
        <ele>456.7</ele>
        <time>2020-03-05T11:01:07.376Z</time>
      </trkpt>
      <trkpt lat="42.27226" lon="2.50471">
        <ele>455.9</ele>
        <time>2020-03-05T11:01:22.853Z</time>
      </trkpt>
      <trkpt lat="42.2722" lon="2.50496">
        <ele>455.2</ele>
        <time>2020-03-05T11:01:44.411Z</time>
      </trkpt>
      <trkpt lat="42.27209" lon="2.50522">
        <ele>453.6</ele>
        <time>2020-03-05T11:02:09.591Z</time>
      </trkpt>
      <trkpt lat="42.27201" lon="2.50534">
        <ele>451.7</ele>
        <time>2020-03-05T11:02:23.552Z</time>
      </trkpt>
      <trkpt lat="42.27198" lon="2.50538">
        <ele>451</ele>
        <time>2020-03-05T11:02:28.308Z</time>
      </trkpt>
      <trkpt lat="42.27179" lon="2.50555">
        <ele>446.5</ele>
        <time>2020-03-05T11:02:54.498Z</time>
      </trkpt>
      <trkpt lat="42.27184" lon="2.50576">
        <ele>444.1</ele>
        <time>2020-03-05T11:03:13.015Z</time>
      </trkpt>
      <trkpt lat="42.27193" lon="2.5058">
        <ele>445.4</ele>
        <time>2020-03-05T11:03:23.537Z</time>
      </trkpt>
      <trkpt lat="42.27198" lon="2.50586">
        <ele>446.7</ele>
        <time>2020-03-05T11:03:32.147Z</time>
      </trkpt>
      <trkpt lat="42.27201" lon="2.50594">
        <ele>447.2</ele>
        <time>2020-03-05T11:03:39.121Z</time>
      </trkpt>
      <trkpt lat="42.272" lon="2.50598">
        <ele>446.7</ele>
        <time>2020-03-05T11:03:42.716Z</time>
      </trkpt>
      <trkpt lat="42.27198" lon="2.50601">
        <ele>446.1</ele>
        <time>2020-03-05T11:03:46.148Z</time>
      </trkpt>
      <trkpt lat="42.27185" lon="2.50617">
        <ele>446.2</ele>
        <time>2020-03-05T11:04:06.121Z</time>
      </trkpt>
      <trkpt lat="42.27183" lon="2.5062">
        <ele>447</ele>
        <time>2020-03-05T11:04:10.043Z</time>
      </trkpt>
      <trkpt lat="42.27161" lon="2.50629">
        <ele>447.1</ele>
        <time>2020-03-05T11:04:36.062Z</time>
      </trkpt>
      <trkpt lat="42.27148" lon="2.50652">
        <ele>448.6</ele>
        <time>2020-03-05T11:04:59.965Z</time>
      </trkpt>
      <trkpt lat="42.2714" lon="2.50679">
        <ele>447.1</ele>
        <time>2020-03-05T11:05:24.535Z</time>
      </trkpt>
      <trkpt lat="42.27132" lon="2.50707">
        <ele>446.4</ele>
        <time>2020-03-05T11:05:49.883Z</time>
      </trkpt>
      <trkpt lat="42.27131" lon="2.5071">
        <ele>446.2</ele>
        <time>2020-03-05T11:05:52.277Z</time>
      </trkpt>
      <trkpt lat="42.27121" lon="2.50728">
        <ele>444.4</ele>
        <time>2020-03-05T11:06:11.692Z</time>
      </trkpt>
      <trkpt lat="42.27115" lon="2.5074">
        <ele>443.9</ele>
        <time>2020-03-05T11:06:23.989Z</time>
      </trkpt>
      <trkpt lat="42.2711" lon="2.50767">
        <ele>443.9</ele>
        <time>2020-03-05T11:06:47.223Z</time>
      </trkpt>
      <trkpt lat="42.27102" lon="2.50796">
        <ele>442.6</ele>
        <time>2020-03-05T11:07:13.117Z</time>
      </trkpt>
      <trkpt lat="42.27097" lon="2.50838">
        <ele>440.9</ele>
        <time>2020-03-05T11:07:48.855Z</time>
      </trkpt>
      <trkpt lat="42.27098" lon="2.50845">
        <ele>440.7</ele>
        <time>2020-03-05T11:07:55.175Z</time>
      </trkpt>
      <trkpt lat="42.27101" lon="2.50858">
        <ele>440.4</ele>
        <time>2020-03-05T11:08:06.782Z</time>
      </trkpt>
      <trkpt lat="42.2711" lon="2.50886">
        <ele>440</ele>
        <time>2020-03-05T11:08:32.772Z</time>
      </trkpt>
      <trkpt lat="42.27113" lon="2.50902">
        <ele>440.5</ele>
        <time>2020-03-05T11:08:46.218Z</time>
      </trkpt>
      <trkpt lat="42.27116" lon="2.5092">
        <ele>441</ele>
        <time>2020-03-05T11:09:01.815Z</time>
      </trkpt>
      <trkpt lat="42.27119" lon="2.50936">
        <ele>441.9</ele>
        <time>2020-03-05T11:09:15.349Z</time>
      </trkpt>
      <trkpt lat="42.2712" lon="2.50957">
        <ele>441.6</ele>
        <time>2020-03-05T11:09:33.323Z</time>
      </trkpt>
      <trkpt lat="42.2712" lon="2.50994">
        <ele>441</ele>
        <time>2020-03-05T11:10:04.848Z</time>
      </trkpt>
      <trkpt lat="42.27117" lon="2.51011">
        <ele>439.6</ele>
        <time>2020-03-05T11:10:19.662Z</time>
      </trkpt>
      <trkpt lat="42.27115" lon="2.51035">
        <ele>439.3</ele>
        <time>2020-03-05T11:10:39.345Z</time>
      </trkpt>
      <trkpt lat="42.27113" lon="2.51051">
        <ele>439.1</ele>
        <time>2020-03-05T11:10:53.681Z</time>
      </trkpt>
      <trkpt lat="42.2711" lon="2.51085">
        <ele>438.5</ele>
        <time>2020-03-05T11:11:22.564Z</time>
      </trkpt>
      <trkpt lat="42.27103" lon="2.51129">
        <ele>436.3</ele>
        <time>2020-03-05T11:11:59.686Z</time>
      </trkpt>
      <trkpt lat="42.271" lon="2.51175">
        <ele>435.6</ele>
        <time>2020-03-05T11:12:38.847Z</time>
      </trkpt>
      <trkpt lat="42.27098" lon="2.51209">
        <ele>435.1</ele>
        <time>2020-03-05T11:13:07.136Z</time>
      </trkpt>
      <trkpt lat="42.27104" lon="2.51238">
        <ele>435.9</ele>
        <time>2020-03-05T11:13:32.556Z</time>
      </trkpt>
      <trkpt lat="42.27107" lon="2.51248">
        <ele>436.2</ele>
        <time>2020-03-05T11:13:41.593Z</time>
      </trkpt>
      <trkpt lat="42.27108" lon="2.51259">
        <ele>436</ele>
        <time>2020-03-05T11:13:50.921Z</time>
      </trkpt>
      <trkpt lat="42.27112" lon="2.51295">
        <ele>435.4</ele>
        <time>2020-03-05T11:14:21.516Z</time>
      </trkpt>
      <trkpt lat="42.27117" lon="2.5133">
        <ele>436.4</ele>
        <time>2020-03-05T11:14:51.409Z</time>
      </trkpt>
      <trkpt lat="42.27118" lon="2.51354">
        <ele>437.4</ele>
        <time>2020-03-05T11:15:12.416Z</time>
      </trkpt>
      <trkpt lat="42.27117" lon="2.51386">
        <ele>436.6</ele>
        <time>2020-03-05T11:15:39.176Z</time>
      </trkpt>
      <trkpt lat="42.27119" lon="2.51411">
        <ele>438.5</ele>
        <time>2020-03-05T11:16:00.339Z</time>
      </trkpt>
      <trkpt lat="42.27119" lon="2.51438">
        <ele>439.3</ele>
        <time>2020-03-05T11:16:22.970Z</time>
      </trkpt>
      <trkpt lat="42.27114" lon="2.51469">
        <ele>439.3</ele>
        <time>2020-03-05T11:16:49.359Z</time>
      </trkpt>
      <trkpt lat="42.27109" lon="2.51498">
        <ele>440.6</ele>
        <time>2020-03-05T11:17:14.487Z</time>
      </trkpt>
      <trkpt lat="42.27111" lon="2.51524">
        <ele>441.7</ele>
        <time>2020-03-05T11:17:36.013Z</time>
      </trkpt>
      <trkpt lat="42.27115" lon="2.51557">
        <ele>442</ele>
        <time>2020-03-05T11:18:04.350Z</time>
      </trkpt>
      <trkpt lat="42.27118" lon="2.5157">
        <ele>441.3</ele>
        <time>2020-03-05T11:18:16.016Z</time>
      </trkpt>
      <trkpt lat="42.27128" lon="2.516">
        <ele>441.4</ele>
        <time>2020-03-05T11:18:43.631Z</time>
      </trkpt>
      <trkpt lat="42.27134" lon="2.51623">
        <ele>440.5</ele>
        <time>2020-03-05T11:19:04.394Z</time>
      </trkpt>
      <trkpt lat="42.27134" lon="2.51624">
        <ele>440.4</ele>
        <time>2020-03-05T11:19:05.064Z</time>
      </trkpt>
      <trkpt lat="42.27137" lon="2.51631">
        <ele>440.5</ele>
        <time>2020-03-05T11:19:11.795Z</time>
      </trkpt>
      <trkpt lat="42.27151" lon="2.51665">
        <ele>441.7</ele>
        <time>2020-03-05T11:19:44.944Z</time>
      </trkpt>
      <trkpt lat="42.27163" lon="2.51703">
        <ele>442.2</ele>
        <time>2020-03-05T11:20:19.333Z</time>
      </trkpt>
      <trkpt lat="42.27177" lon="2.51729">
        <ele>442.3</ele>
        <time>2020-03-05T11:20:46.492Z</time>
      </trkpt>
      <trkpt lat="42.27197" lon="2.51748">
        <ele>442.1</ele>
        <time>2020-03-05T11:21:14.206Z</time>
      </trkpt>
      <trkpt lat="42.27199" lon="2.51751">
        <ele>441.4</ele>
        <time>2020-03-05T11:21:17.119Z</time>
      </trkpt>
      <trkpt lat="42.27204" lon="2.51749">
        <ele>440.8</ele>
        <time>2020-03-05T11:21:22.905Z</time>
      </trkpt>
      <trkpt lat="42.27207" lon="2.51745">
        <ele>441.1</ele>
        <time>2020-03-05T11:21:28.263Z</time>
      </trkpt>
      <trkpt lat="42.27206" lon="2.51741">
        <ele>441.9</ele>
        <time>2020-03-05T11:21:32.229Z</time>
      </trkpt>
      <trkpt lat="42.27212" lon="2.51735">
        <ele>442.3</ele>
        <time>2020-03-05T11:21:40.193Z</time>
      </trkpt>
      <trkpt lat="42.27216" lon="2.51732">
        <ele>442.5</ele>
        <time>2020-03-05T11:21:45.288Z</time>
      </trkpt>
      <trkpt lat="42.27224" lon="2.51727">
        <ele>442.6</ele>
        <time>2020-03-05T11:21:56.073Z</time>
      </trkpt>
      <trkpt lat="42.27252" lon="2.5173">
        <ele>439</ele>
        <time>2020-03-05T11:22:27.262Z</time>
      </trkpt>
      <trkpt lat="42.27253" lon="2.51731">
        <ele>439.1</ele>
        <time>2020-03-05T11:22:28.623Z</time>
      </trkpt>
      <trkpt lat="42.27256" lon="2.51733">
        <ele>439.4</ele>
        <time>2020-03-05T11:22:32.684Z</time>
      </trkpt>
      <trkpt lat="42.27259" lon="2.51739">
        <ele>440.1</ele>
        <time>2020-03-05T11:22:38.885Z</time>
      </trkpt>
      <trkpt lat="42.27259" lon="2.51748">
        <ele>440.4</ele>
        <time>2020-03-05T11:22:46.502Z</time>
      </trkpt>
      <trkpt lat="42.27238" lon="2.5176">
        <ele>440.1</ele>
        <time>2020-03-05T11:23:12.213Z</time>
      </trkpt>
      <trkpt lat="42.27225" lon="2.51782">
        <ele>442.1</ele>
        <time>2020-03-05T11:23:36.503Z</time>
      </trkpt>
      <trkpt lat="42.27218" lon="2.51793">
        <ele>443.1</ele>
        <time>2020-03-05T11:23:48.441Z</time>
      </trkpt>
      <trkpt lat="42.27216" lon="2.51798">
        <ele>444</ele>
        <time>2020-03-05T11:23:53.329Z</time>
      </trkpt>
      <trkpt lat="42.27193" lon="2.51824">
        <ele>444.1</ele>
        <time>2020-03-05T11:24:27.327Z</time>
      </trkpt>
      <trkpt lat="42.2718" lon="2.51851">
        <ele>445.2</ele>
        <time>2020-03-05T11:24:54.443Z</time>
      </trkpt>
      <trkpt lat="42.27172" lon="2.51884">
        <ele>445.3</ele>
        <time>2020-03-05T11:25:23.944Z</time>
      </trkpt>
      <trkpt lat="42.2717" lon="2.51889">
        <ele>445.1</ele>
        <time>2020-03-05T11:25:28.517Z</time>
      </trkpt>
      <trkpt lat="42.27164" lon="2.51921">
        <ele>442.9</ele>
        <time>2020-03-05T11:25:56.574Z</time>
      </trkpt>
      <trkpt lat="42.27168" lon="2.51955">
        <ele>442.6</ele>
        <time>2020-03-05T11:26:25.385Z</time>
      </trkpt>
      <trkpt lat="42.27173" lon="2.51991">
        <ele>440.2</ele>
        <time>2020-03-05T11:26:56.379Z</time>
      </trkpt>
      <trkpt lat="42.27189" lon="2.52011">
        <ele>438</ele>
        <time>2020-03-05T11:27:20.801Z</time>
      </trkpt>
      <trkpt lat="42.27216" lon="2.52011">
        <ele>439.5</ele>
        <time>2020-03-05T11:27:51.624Z</time>
      </trkpt>
      <trkpt lat="42.27234" lon="2.52037">
        <ele>436.8</ele>
        <time>2020-03-05T11:28:21.652Z</time>
      </trkpt>
      <trkpt lat="42.27215" lon="2.52046">
        <ele>436.2</ele>
        <time>2020-03-05T11:28:44.714Z</time>
      </trkpt>
      <trkpt lat="42.27203" lon="2.52072">
        <ele>437.7</ele>
        <time>2020-03-05T11:29:10.684Z</time>
      </trkpt>
      <trkpt lat="42.27181" lon="2.52091">
        <ele>436.7</ele>
        <time>2020-03-05T11:29:39.934Z</time>
      </trkpt>
      <trkpt lat="42.27167" lon="2.52107">
        <ele>436.5</ele>
        <time>2020-03-05T11:30:00.383Z</time>
      </trkpt>
      <trkpt lat="42.27167" lon="2.52109">
        <ele>436.8</ele>
        <time>2020-03-05T11:30:02.354Z</time>
      </trkpt>
      <trkpt lat="42.27169" lon="2.52111">
        <ele>437.5</ele>
        <time>2020-03-05T11:30:04.564Z</time>
      </trkpt>
      <trkpt lat="42.27169" lon="2.52134">
        <ele>438.5</ele>
        <time>2020-03-05T11:30:24.434Z</time>
      </trkpt>
      <trkpt lat="42.2717" lon="2.52152">
        <ele>439.2</ele>
        <time>2020-03-05T11:30:38.877Z</time>
      </trkpt>
      <trkpt lat="42.27169" lon="2.5216">
        <ele>438.9</ele>
        <time>2020-03-05T11:30:46.099Z</time>
      </trkpt>
      <trkpt lat="42.27171" lon="2.52173">
        <ele>440.1</ele>
        <time>2020-03-05T11:30:57.590Z</time>
      </trkpt>
      <trkpt lat="42.27171" lon="2.52185">
        <ele>440.6</ele>
        <time>2020-03-05T11:31:07.944Z</time>
      </trkpt>
      <trkpt lat="42.2717" lon="2.52205">
        <ele>441.2</ele>
        <time>2020-03-05T11:31:24.007Z</time>
      </trkpt>
      <trkpt lat="42.27169" lon="2.52224">
        <ele>441</ele>
        <time>2020-03-05T11:31:40.282Z</time>
      </trkpt>
      <trkpt lat="42.27168" lon="2.52231">
        <ele>440.8</ele>
        <time>2020-03-05T11:31:46.084Z</time>
      </trkpt>
      <trkpt lat="42.27168" lon="2.52235">
        <ele>440.9</ele>
        <time>2020-03-05T11:31:49.962Z</time>
      </trkpt>
      <trkpt lat="42.27166" lon="2.52239">
        <ele>440.5</ele>
        <time>2020-03-05T11:31:53.840Z</time>
      </trkpt>
      <trkpt lat="42.27165" lon="2.5226">
        <ele>439.5</ele>
        <time>2020-03-05T11:32:11.607Z</time>
      </trkpt>
      <trkpt lat="42.27166" lon="2.52273">
        <ele>439.1</ele>
        <time>2020-03-05T11:32:22.596Z</time>
      </trkpt>
      <trkpt lat="42.27166" lon="2.52292">
        <ele>437.9</ele>
        <time>2020-03-05T11:32:38.288Z</time>
      </trkpt>
      <trkpt lat="42.27166" lon="2.52299">
        <ele>437.4</ele>
        <time>2020-03-05T11:32:44.297Z</time>
      </trkpt>
      <trkpt lat="42.27169" lon="2.52318">
        <ele>437.2</ele>
        <time>2020-03-05T11:33:00.468Z</time>
      </trkpt>
      <trkpt lat="42.27172" lon="2.52342">
        <ele>437</ele>
        <time>2020-03-05T11:33:20.865Z</time>
      </trkpt>
      <trkpt lat="42.27171" lon="2.52361">
        <ele>435.3</ele>
        <time>2020-03-05T11:33:36.860Z</time>
      </trkpt>
      <trkpt lat="42.27171" lon="2.52367">
        <ele>435.3</ele>
        <time>2020-03-05T11:33:41.656Z</time>
      </trkpt>
      <trkpt lat="42.27172" lon="2.52393">
        <ele>435</ele>
        <time>2020-03-05T11:34:03.768Z</time>
      </trkpt>
      <trkpt lat="42.27172" lon="2.5242">
        <ele>433.9</ele>
        <time>2020-03-05T11:34:26.327Z</time>
      </trkpt>
      <trkpt lat="42.27174" lon="2.5245">
        <ele>433.4</ele>
        <time>2020-03-05T11:34:51.628Z</time>
      </trkpt>
      <trkpt lat="42.27173" lon="2.52457">
        <ele>432.4</ele>
        <time>2020-03-05T11:34:58.398Z</time>
      </trkpt>
      <trkpt lat="42.27179" lon="2.52478">
        <ele>432.2</ele>
        <time>2020-03-05T11:35:16.489Z</time>
      </trkpt>
      <trkpt lat="42.2718" lon="2.5248">
        <ele>432.2</ele>
        <time>2020-03-05T11:35:18.472Z</time>
      </trkpt>
      <trkpt lat="42.27181" lon="2.52487">
        <ele>431.2</ele>
        <time>2020-03-05T11:35:25.171Z</time>
      </trkpt>
      <trkpt lat="42.27182" lon="2.52492">
        <ele>430.7</ele>
        <time>2020-03-05T11:35:29.029Z</time>
      </trkpt>
      <trkpt lat="42.27183" lon="2.52506">
        <ele>429.3</ele>
        <time>2020-03-05T11:35:40.919Z</time>
      </trkpt>
      <trkpt lat="42.27167" lon="2.5253">
        <ele>427.2</ele>
        <time>2020-03-05T11:36:08.039Z</time>
      </trkpt>
      <trkpt lat="42.27167" lon="2.52562">
        <ele>429</ele>
        <time>2020-03-05T11:36:34.915Z</time>
      </trkpt>
      <trkpt lat="42.27177" lon="2.52588">
        <ele>430.9</ele>
        <time>2020-03-05T11:36:59.912Z</time>
      </trkpt>
      <trkpt lat="42.27186" lon="2.52618">
        <ele>432.2</ele>
        <time>2020-03-05T11:37:26.864Z</time>
      </trkpt>
      <trkpt lat="42.27192" lon="2.52638">
        <ele>432.6</ele>
        <time>2020-03-05T11:37:45.604Z</time>
      </trkpt>
      <trkpt lat="42.27193" lon="2.52642">
        <ele>432.6</ele>
        <time>2020-03-05T11:37:48.944Z</time>
      </trkpt>
      <trkpt lat="42.27193" lon="2.52647">
        <ele>432.3</ele>
        <time>2020-03-05T11:37:52.842Z</time>
      </trkpt>
      <trkpt lat="42.27201" lon="2.52681">
        <ele>433.1</ele>
        <time>2020-03-05T11:38:22.846Z</time>
      </trkpt>
      <trkpt lat="42.27203" lon="2.5269">
        <ele>433.2</ele>
        <time>2020-03-05T11:38:31.090Z</time>
      </trkpt>
      <trkpt lat="42.27211" lon="2.52727">
        <ele>431.3</ele>
        <time>2020-03-05T11:39:03.109Z</time>
      </trkpt>
      <trkpt lat="42.27212" lon="2.52733">
        <ele>430.8</ele>
        <time>2020-03-05T11:39:08.511Z</time>
      </trkpt>
      <trkpt lat="42.27225" lon="2.52752">
        <ele>429.1</ele>
        <time>2020-03-05T11:39:30.272Z</time>
      </trkpt>
      <trkpt lat="42.27232" lon="2.52768">
        <ele>428.9</ele>
        <time>2020-03-05T11:39:45.929Z</time>
      </trkpt>
      <trkpt lat="42.27234" lon="2.52774">
        <ele>429.2</ele>
        <time>2020-03-05T11:39:51.622Z</time>
      </trkpt>
      <trkpt lat="42.27224" lon="2.52795">
        <ele>426.6</ele>
        <time>2020-03-05T11:40:12.893Z</time>
      </trkpt>
      <trkpt lat="42.27218" lon="2.52808">
        <ele>425.4</ele>
        <time>2020-03-05T11:40:25.960Z</time>
      </trkpt>
      <trkpt lat="42.27212" lon="2.52836">
        <ele>423.9</ele>
        <time>2020-03-05T11:40:50.195Z</time>
      </trkpt>
      <trkpt lat="42.27197" lon="2.52847">
        <ele>420.4</ele>
        <time>2020-03-05T11:41:10.747Z</time>
      </trkpt>
      <trkpt lat="42.27193" lon="2.52847">
        <ele>419.9</ele>
        <time>2020-03-05T11:41:14.984Z</time>
      </trkpt>
      <trkpt lat="42.27178" lon="2.52854">
        <ele>418.2</ele>
        <time>2020-03-05T11:41:32.667Z</time>
      </trkpt>
      <trkpt lat="42.27171" lon="2.52855">
        <ele>417.7</ele>
        <time>2020-03-05T11:41:40.719Z</time>
      </trkpt>
      <trkpt lat="42.27162" lon="2.52859">
        <ele>416.8</ele>
        <time>2020-03-05T11:41:52.246Z</time>
      </trkpt>
      <trkpt lat="42.27146" lon="2.52869">
        <ele>415.3</ele>
        <time>2020-03-05T11:42:11.900Z</time>
      </trkpt>
      <trkpt lat="42.27142" lon="2.52875">
        <ele>414.7</ele>
        <time>2020-03-05T11:42:19.030Z</time>
      </trkpt>
      <trkpt lat="42.27138" lon="2.52877">
        <ele>414.2</ele>
        <time>2020-03-05T11:42:24.197Z</time>
      </trkpt>
      <trkpt lat="42.27134" lon="2.5288">
        <ele>413.6</ele>
        <time>2020-03-05T11:42:29.257Z</time>
      </trkpt>
      <trkpt lat="42.27132" lon="2.52876">
        <ele>413.5</ele>
        <time>2020-03-05T11:42:33.163Z</time>
      </trkpt>
      <trkpt lat="42.27132" lon="2.52873">
        <ele>413.5</ele>
        <time>2020-03-05T11:42:34.938Z</time>
      </trkpt>
      <trkpt lat="42.27128" lon="2.5286">
        <ele>413.1</ele>
        <time>2020-03-05T11:42:47.451Z</time>
      </trkpt>
      <trkpt lat="42.27125" lon="2.5286">
        <ele>412.6</ele>
        <time>2020-03-05T11:42:50.595Z</time>
      </trkpt>
      <trkpt lat="42.27126" lon="2.52867">
        <ele>412.5</ele>
        <time>2020-03-05T11:42:56.272Z</time>
      </trkpt>
      <trkpt lat="42.27125" lon="2.52877">
        <ele>412.3</ele>
        <time>2020-03-05T11:43:05.014Z</time>
      </trkpt>
      <trkpt lat="42.27124" lon="2.52877">
        <ele>412.1</ele>
        <time>2020-03-05T11:43:06.347Z</time>
      </trkpt>
      <trkpt lat="42.27108" lon="2.5285">
        <ele>409.8</ele>
        <time>2020-03-05T11:43:36.355Z</time>
      </trkpt>
      <trkpt lat="42.27096" lon="2.52823">
        <ele>409.6</ele>
        <time>2020-03-05T11:44:02.162Z</time>
      </trkpt>
      <trkpt lat="42.27089" lon="2.52828">
        <ele>408.9</ele>
        <time>2020-03-05T11:44:10.800Z</time>
      </trkpt>
      <trkpt lat="42.27069" lon="2.52854">
        <ele>406.9</ele>
        <time>2020-03-05T11:44:42.321Z</time>
      </trkpt>
      <trkpt lat="42.2705" lon="2.52872">
        <ele>405.1</ele>
        <time>2020-03-05T11:45:08.654Z</time>
      </trkpt>
      <trkpt lat="42.27028" lon="2.52885">
        <ele>404.2</ele>
        <time>2020-03-05T11:45:35.937Z</time>
      </trkpt>
      <trkpt lat="42.27008" lon="2.52897">
        <ele>403.7</ele>
        <time>2020-03-05T11:46:01.046Z</time>
      </trkpt>
      <trkpt lat="42.2699" lon="2.52904">
        <ele>403.6</ele>
        <time>2020-03-05T11:46:22.189Z</time>
      </trkpt>
      <trkpt lat="42.26975" lon="2.52907">
        <ele>403.5</ele>
        <time>2020-03-05T11:46:39.856Z</time>
      </trkpt>
      <trkpt lat="42.26971" lon="2.52908">
        <ele>403.3</ele>
        <time>2020-03-05T11:46:43.774Z</time>
      </trkpt>
      <trkpt lat="42.26966" lon="2.5291">
        <ele>402.9</ele>
        <time>2020-03-05T11:46:49.951Z</time>
      </trkpt>
      <trkpt lat="42.26966" lon="2.52908">
        <ele>403</ele>
        <time>2020-03-05T11:46:51.084Z</time>
      </trkpt>
    </trkseg>
  </trk>
</gpx>